<?xml version='1.0' encoding='UTF-8'?><gpx version="1.1" creator="JPX - https://github.com/jenetics/jpx" xmlns="http://www.topografix.com/GPX/1/1"><trk><trkseg><trkpt lat="43.21638377995559" lon="11.744357670337939"><ele>271.0</ele><time>2026-03-22T07:16:36.999Z</time></trkpt><trkpt lat="43.21636729160607" lon="11.744216519069603"><ele>271.0</ele><time>2026-03-22T07:16:38.999Z</time></trkpt><trkpt lat="43.21634068509745" lon="11.744136920849957"><ele>271.0</ele><time>2026-03-22T07:16:39.999Z</time></trkpt><trkpt lat="43.216291407179384" lon="11.743985772409356"><ele>271.0</ele><time>2026-03-22T07:16:41.999Z</time></trkpt><trkpt lat="43.216192706411746" lon="11.743900662322822"><ele>271.0</ele><time>2026-03-22T07:16:43.998Z</time></trkpt><trkpt lat="43.216129028064216" lon="11.74390732643905"><ele>271.0</ele><time>2026-03-22T07:16:44.998Z</time></trkpt><trkpt lat="43.216062901782315" lon="11.74395245687118"><ele>271.0</ele><time>2026-03-22T07:16:45.998Z</time></trkpt><trkpt lat="43.215991427657" lon="11.74401624203021"><ele>271.0</ele><time>2026-03-22T07:16:46.998Z</time></trkpt><trkpt lat="43.21590931397071" lon="11.744083423225202"><ele>271.0</ele><time>2026-03-22T07:16:47.998Z</time></trkpt><trkpt lat="43.215816429739434" lon="11.744096799950638"><ele>271.0</ele><time>2026-03-22T07:16:48.998Z</time></trkpt><trkpt lat="43.215733290804415" lon="11.744091557295274"><ele>271.0</ele><time>2026-03-22T07:16:49.998Z</time></trkpt><trkpt lat="43.21564024910959" lon="11.744094788430202"><ele>270.8</ele><time>2026-03-22T07:16:50.998Z</time></trkpt><trkpt lat="43.21553440158298" lon="11.744116378605698"><ele>270.6</ele><time>2026-03-22T07:16:51.998Z</time></trkpt><trkpt lat="43.21540573205815" lon="11.744121203376018"><ele>270.4</ele><time>2026-03-22T07:16:52.998Z</time></trkpt><trkpt lat="43.21531182406523" lon="11.744119245441167"><ele>270.2</ele><time>2026-03-22T07:16:53.998Z</time></trkpt><trkpt lat="43.21520623465035" lon="11.74411343514185"><ele>270.0</ele><time>2026-03-22T07:16:54.998Z</time></trkpt><trkpt lat="43.21509437636906" lon="11.744114454230305"><ele>270.0</ele><time>2026-03-22T07:16:55.998Z</time></trkpt><trkpt lat="43.21497968036322" lon="11.744122004330105"><ele>270.0</ele><time>2026-03-22T07:16:57Z</time></trkpt><trkpt lat="43.21487948706975" lon="11.744117362588767"><ele>270.0</ele><time>2026-03-22T07:16:58Z</time></trkpt><trkpt lat="43.21479495673921" lon="11.744078628980773"><ele>270.0</ele><time>2026-03-22T07:16:59Z</time></trkpt><trkpt lat="43.21470218701639" lon="11.74401323611291"><ele>270.0</ele><time>2026-03-22T07:17:00Z</time></trkpt><trkpt lat="43.21462160448503" lon="11.743912899598989"><ele>270.0</ele><time>2026-03-22T07:17:01Z</time></trkpt><trkpt lat="43.21453615443876" lon="11.743820348522153"><ele>270.0</ele><time>2026-03-22T07:17:02Z</time></trkpt><trkpt lat="43.2144259225076" lon="11.743781737634096"><ele>270.0</ele><time>2026-03-22T07:17:03Z</time></trkpt><trkpt lat="43.2143174207478" lon="11.743755262481367"><ele>270.0</ele><time>2026-03-22T07:17:04Z</time></trkpt><trkpt lat="43.21420326248664" lon="11.743733164718263"><ele>270.0</ele><time>2026-03-22T07:17:05Z</time></trkpt><trkpt lat="43.21409227909073" lon="11.743692622878175"><ele>269.75</ele><time>2026-03-22T07:17:06Z</time></trkpt><trkpt lat="43.213981996454656" lon="11.743619381859084"><ele>269.5</ele><time>2026-03-22T07:17:07Z</time></trkpt><trkpt lat="43.2138671985259" lon="11.743617789684238"><ele>269.25</ele><time>2026-03-22T07:17:08Z</time></trkpt><trkpt lat="43.21376285196658" lon="11.743615157000377"><ele>269.0</ele><time>2026-03-22T07:17:09Z</time></trkpt><trkpt lat="43.21364880573197" lon="11.743634677910126"><ele>269.0</ele><time>2026-03-22T07:17:10Z</time></trkpt><trkpt lat="43.213522081445824" lon="11.743664567855875"><ele>269.0</ele><time>2026-03-22T07:17:11Z</time></trkpt><trkpt lat="43.21339385541741" lon="11.743697672782792"><ele>269.0</ele><time>2026-03-22T07:17:12Z</time></trkpt><trkpt lat="43.2132656278398" lon="11.743739699427335"><ele>269.0</ele><time>2026-03-22T07:17:13Z</time></trkpt><trkpt lat="43.21315575489657" lon="11.743779868765792"><ele>269.25</ele><time>2026-03-22T07:17:14Z</time></trkpt><trkpt lat="43.21303968388378" lon="11.743838242667264"><ele>269.5</ele><time>2026-03-22T07:17:15Z</time></trkpt><trkpt lat="43.212924446828936" lon="11.743907683017241"><ele>269.75</ele><time>2026-03-22T07:17:16Z</time></trkpt><trkpt lat="43.21280765213928" lon="11.743963860361202"><ele>270.0</ele><time>2026-03-22T07:17:17Z</time></trkpt><trkpt lat="43.21268643334465" lon="11.744029783671095"><ele>270.0</ele><time>2026-03-22T07:17:18Z</time></trkpt><trkpt lat="43.21257029509947" lon="11.74410156525736"><ele>270.0</ele><time>2026-03-22T07:17:19Z</time></trkpt><trkpt lat="43.21245393735383" lon="11.744167188475915"><ele>270.0</ele><time>2026-03-22T07:17:20Z</time></trkpt><trkpt lat="43.21233288896959" lon="11.74423544547711"><ele>270.0</ele><time>2026-03-22T07:17:21Z</time></trkpt><trkpt lat="43.212202403739575" lon="11.744296704932436"><ele>270.75</ele><time>2026-03-22T07:17:22Z</time></trkpt><trkpt lat="43.21208244479467" lon="11.744340592079233"><ele>271.5</ele><time>2026-03-22T07:17:23Z</time></trkpt><trkpt lat="43.211960167186156" lon="11.744397707108511"><ele>272.25</ele><time>2026-03-22T07:17:24Z</time></trkpt><trkpt lat="43.21184218060914" lon="11.744444059546897"><ele>273.0</ele><time>2026-03-22T07:17:25Z</time></trkpt><trkpt lat="43.21172097126755" lon="11.744492066088096"><ele>271.75</ele><time>2026-03-22T07:17:26Z</time></trkpt><trkpt lat="43.21159987650198" lon="11.744539769820546"><ele>270.5</ele><time>2026-03-22T07:17:27Z</time></trkpt><trkpt lat="43.21147810010604" lon="11.744588918773225"><ele>269.25</ele><time>2026-03-22T07:17:28Z</time></trkpt><trkpt lat="43.21135858249647" lon="11.74463194760663"><ele>268.0</ele><time>2026-03-22T07:17:29Z</time></trkpt><trkpt lat="43.21124034826883" lon="11.744670207391312"><ele>268.0</ele><time>2026-03-22T07:17:30Z</time></trkpt><trkpt lat="43.21111612828759" lon="11.744721641682771"><ele>268.0</ele><time>2026-03-22T07:17:31Z</time></trkpt><trkpt lat="43.21099600095679" lon="11.744768260560873"><ele>268.0</ele><time>2026-03-22T07:17:32Z</time></trkpt><trkpt lat="43.210879579640206" lon="11.744816354071466"><ele>268.0</ele><time>2026-03-22T07:17:33Z</time></trkpt><trkpt lat="43.21076295987892" lon="11.744867213416809"><ele>269.5</ele><time>2026-03-22T07:17:34Z</time></trkpt><trkpt lat="43.210642259723315" lon="11.744910864301646"><ele>271.0</ele><time>2026-03-22T07:17:35Z</time></trkpt><trkpt lat="43.210525394013665" lon="11.744947379585946"><ele>272.5</ele><time>2026-03-22T07:17:36Z</time></trkpt><trkpt lat="43.210399303440084" lon="11.744993867347732"><ele>274.0</ele><time>2026-03-22T07:17:37Z</time></trkpt><trkpt lat="43.210278437480994" lon="11.745035215802092"><ele>274.0</ele><time>2026-03-22T07:17:38Z</time></trkpt><trkpt lat="43.2101529731742" lon="11.745070906478313"><ele>274.0</ele><time>2026-03-22T07:17:39Z</time></trkpt><trkpt lat="43.2100258249943" lon="11.745085698055101"><ele>274.0</ele><time>2026-03-22T07:17:40Z</time></trkpt><trkpt lat="43.2098939484629" lon="11.745089944470179"><ele>274.0</ele><time>2026-03-22T07:17:41Z</time></trkpt><trkpt lat="43.20976218544163" lon="11.745085712388994"><ele>273.75</ele><time>2026-03-22T07:17:42Z</time></trkpt><trkpt lat="43.209636414752495" lon="11.745067690081783"><ele>273.5</ele><time>2026-03-22T07:17:43Z</time></trkpt><trkpt lat="43.20950681033999" lon="11.745049579627103"><ele>273.25</ele><time>2026-03-22T07:17:44Z</time></trkpt><trkpt lat="43.209380708109734" lon="11.745027069284346"><ele>273.0</ele><time>2026-03-22T07:17:45Z</time></trkpt><trkpt lat="43.20925578136683" lon="11.744996648176784"><ele>273.0</ele><time>2026-03-22T07:17:46Z</time></trkpt><trkpt lat="43.209140774837415" lon="11.7449301004436"><ele>273.0</ele><time>2026-03-22T07:17:46.999Z</time></trkpt><trkpt lat="43.20903262466974" lon="11.744839211749454"><ele>273.0</ele><time>2026-03-22T07:17:47.999Z</time></trkpt><trkpt lat="43.20892558017662" lon="11.744741504876197"><ele>273.0</ele><time>2026-03-22T07:17:48.999Z</time></trkpt><trkpt lat="43.208819591728" lon="11.744651174552233"><ele>272.0</ele><time>2026-03-22T07:17:49.999Z</time></trkpt><trkpt lat="43.20870658514975" lon="11.744564819342148"><ele>271.0</ele><time>2026-03-22T07:17:50.999Z</time></trkpt><trkpt lat="43.20859229242319" lon="11.744489613747254"><ele>270.0</ele><time>2026-03-22T07:17:51.999Z</time></trkpt><trkpt lat="43.20847321011356" lon="11.744427081292987"><ele>269.0</ele><time>2026-03-22T07:17:52.999Z</time></trkpt><trkpt lat="43.20834830161222" lon="11.744383995048018"><ele>269.25</ele><time>2026-03-22T07:17:53.999Z</time></trkpt><trkpt lat="43.20821805475832" lon="11.744352548440022"><ele>269.5</ele><time>2026-03-22T07:17:54.999Z</time></trkpt><trkpt lat="43.20808813782312" lon="11.74432535198923"><ele>269.75</ele><time>2026-03-22T07:17:55.999Z</time></trkpt><trkpt lat="43.207968990705304" lon="11.744296635460305"><ele>270.0</ele><time>2026-03-22T07:17:56.999Z</time></trkpt><trkpt lat="43.20784884636313" lon="11.744265474684294"><ele>270.0</ele><time>2026-03-22T07:17:57.999Z</time></trkpt><trkpt lat="43.2077215345281" lon="11.744231997597982"><ele>270.0</ele><time>2026-03-22T07:17:58.999Z</time></trkpt><trkpt lat="43.2075962943384" lon="11.744197030019238"><ele>270.0</ele><time>2026-03-22T07:17:59.999Z</time></trkpt><trkpt lat="43.20747069130086" lon="11.744166784791"><ele>270.0</ele><time>2026-03-22T07:18:00.999Z</time></trkpt><trkpt lat="43.20734804031536" lon="11.744131164901612"><ele>269.75</ele><time>2026-03-22T07:18:01.999Z</time></trkpt><trkpt lat="43.207220653781064" lon="11.744105323295335"><ele>269.5</ele><time>2026-03-22T07:18:02.999Z</time></trkpt><trkpt lat="43.207094532802024" lon="11.744080989132245"><ele>269.25</ele><time>2026-03-22T07:18:03.999Z</time></trkpt><trkpt lat="43.2069624191707" lon="11.744060806635478"><ele>269.0</ele><time>2026-03-22T07:18:04.999Z</time></trkpt><trkpt lat="43.206823368190214" lon="11.744048071625624"><ele>269.0</ele><time>2026-03-22T07:18:05.999Z</time></trkpt><trkpt lat="43.20667940309368" lon="11.74405100195383"><ele>269.0</ele><time>2026-03-22T07:18:06.999Z</time></trkpt><trkpt lat="43.206542470052305" lon="11.744060503329568"><ele>269.0</ele><time>2026-03-22T07:18:07.999Z</time></trkpt><trkpt lat="43.20641132187957" lon="11.74407320853773"><ele>269.0</ele><time>2026-03-22T07:18:08.999Z</time></trkpt><trkpt lat="43.20628059261003" lon="11.74408886676204"><ele>268.5</ele><time>2026-03-22T07:18:09.999Z</time></trkpt><trkpt lat="43.20614779797633" lon="11.74410253632281"><ele>268.0</ele><time>2026-03-22T07:18:10.999Z</time></trkpt><trkpt lat="43.206016427790296" lon="11.744110876242923"><ele>267.5</ele><time>2026-03-22T07:18:11.999Z</time></trkpt><trkpt lat="43.205890758373265" lon="11.744106075326647"><ele>267.0</ele><time>2026-03-22T07:18:12.999Z</time></trkpt><trkpt lat="43.205767132728425" lon="11.744080537205853"><ele>266.0</ele><time>2026-03-22T07:18:13.999Z</time></trkpt><trkpt lat="43.20564037704287" lon="11.744027242319154"><ele>265.0</ele><time>2026-03-22T07:18:14.999Z</time></trkpt><trkpt lat="43.205518931597965" lon="11.743957563659999"><ele>264.0</ele><time>2026-03-22T07:18:15.999Z</time></trkpt><trkpt lat="43.20539856444711" lon="11.743883887811663"><ele>263.0</ele><time>2026-03-22T07:18:16.999Z</time></trkpt><trkpt lat="43.20528085396975" lon="11.74381458960126"><ele>263.0</ele><time>2026-03-22T07:18:17.999Z</time></trkpt><trkpt lat="43.205158092009" lon="11.743753290704346"><ele>263.0</ele><time>2026-03-22T07:18:18.999Z</time></trkpt><trkpt lat="43.20503066063432" lon="11.74367826143821"><ele>263.0</ele><time>2026-03-22T07:18:19.999Z</time></trkpt><trkpt lat="43.20490221700528" lon="11.743606024830244"><ele>263.0</ele><time>2026-03-22T07:18:20.999Z</time></trkpt><trkpt lat="43.20478098029921" lon="11.743540955613497"><ele>264.0</ele><time>2026-03-22T07:18:21.999Z</time></trkpt><trkpt lat="43.20466676807484" lon="11.743468755162084"><ele>265.0</ele><time>2026-03-22T07:18:22.999Z</time></trkpt><trkpt lat="43.204545456002556" lon="11.743404694387289"><ele>266.0</ele><time>2026-03-22T07:18:23.999Z</time></trkpt><trkpt lat="43.20442070771359" lon="11.743340336089164"><ele>267.0</ele><time>2026-03-22T07:18:24.999Z</time></trkpt><trkpt lat="43.204294822927814" lon="11.743274622538745"><ele>267.0</ele><time>2026-03-22T07:18:25.999Z</time></trkpt><trkpt lat="43.20416371083561" lon="11.743224974780198"><ele>267.0</ele><time>2026-03-22T07:18:26.999Z</time></trkpt><trkpt lat="43.20403438821222" lon="11.743199891089077"><ele>267.0</ele><time>2026-03-22T07:18:27.999Z</time></trkpt><trkpt lat="43.20390470396832" lon="11.743205531369032"><ele>267.0</ele><time>2026-03-22T07:18:28.999Z</time></trkpt><trkpt lat="43.20378063651464" lon="11.743216015243615"><ele>267.5</ele><time>2026-03-22T07:18:29.999Z</time></trkpt><trkpt lat="43.20365600844724" lon="11.743216563796219"><ele>268.0</ele><time>2026-03-22T07:18:30.999Z</time></trkpt><trkpt lat="43.203531880399396" lon="11.743207356771656"><ele>268.5</ele><time>2026-03-22T07:18:31.999Z</time></trkpt><trkpt lat="43.203402558049646" lon="11.743195598780574"><ele>269.0</ele><time>2026-03-22T07:18:32.999Z</time></trkpt><trkpt lat="43.203272107167244" lon="11.743173367037043"><ele>268.25</ele><time>2026-03-22T07:18:33.999Z</time></trkpt><trkpt lat="43.20313317630836" lon="11.74313526057734"><ele>267.5</ele><time>2026-03-22T07:18:34.999Z</time></trkpt><trkpt lat="43.203003320279194" lon="11.743081050615075"><ele>266.75</ele><time>2026-03-22T07:18:35.999Z</time></trkpt><trkpt lat="43.202877406206426" lon="11.743021004835759"><ele>266.0</ele><time>2026-03-22T07:18:36.999Z</time></trkpt><trkpt lat="43.202752307621886" lon="11.742960206279808"><ele>266.0</ele><time>2026-03-22T07:18:37.999Z</time></trkpt><trkpt lat="43.202632508505715" lon="11.7429139932249"><ele>266.0</ele><time>2026-03-22T07:18:38.999Z</time></trkpt><trkpt lat="43.20250728643968" lon="11.742891724033058"><ele>266.0</ele><time>2026-03-22T07:18:39.999Z</time></trkpt><trkpt lat="43.20237851945002" lon="11.742894433958625"><ele>266.0</ele><time>2026-03-22T07:18:40.999Z</time></trkpt><trkpt lat="43.20225066556903" lon="11.7429170219415"><ele>266.0</ele><time>2026-03-22T07:18:41.999Z</time></trkpt><trkpt lat="43.20213434922695" lon="11.74294330610936"><ele>266.0</ele><time>2026-03-22T07:18:42.999Z</time></trkpt><trkpt lat="43.20203201734335" lon="11.7429652599961"><ele>266.0</ele><time>2026-03-22T07:18:43.999Z</time></trkpt><trkpt lat="43.20193415679222" lon="11.742983345708955"><ele>266.0</ele><time>2026-03-22T07:18:44.999Z</time></trkpt><trkpt lat="43.20184301730586" lon="11.742995739650846"><ele>266.0</ele><time>2026-03-22T07:18:45.999Z</time></trkpt><trkpt lat="43.20176747560318" lon="11.742976838484141"><ele>266.0</ele><time>2026-03-22T07:18:46.999Z</time></trkpt><trkpt lat="43.201663303331735" lon="11.742831278623232"><ele>266.0</ele><time>2026-03-22T07:18:48.998Z</time></trkpt><trkpt lat="43.20166232102299" lon="11.74270520994254"><ele>266.0</ele><time>2026-03-22T07:18:49.998Z</time></trkpt><trkpt lat="43.201661286461594" lon="11.742569905754022"><ele>266.0</ele><time>2026-03-22T07:18:50.998Z</time></trkpt><trkpt lat="43.20166647830458" lon="11.742424310320615"><ele>266.0</ele><time>2026-03-22T07:18:51.998Z</time></trkpt><trkpt lat="43.20167418743731" lon="11.74226867615306"><ele>266.0</ele><time>2026-03-22T07:18:52.998Z</time></trkpt><trkpt lat="43.20170302284601" lon="11.742104242605516"><ele>266.0</ele><time>2026-03-22T07:18:53.998Z</time></trkpt><trkpt lat="43.20173249416031" lon="11.74193090666988"><ele>266.0</ele><time>2026-03-22T07:18:54.998Z</time></trkpt><trkpt lat="43.20175809370183" lon="11.74175104325031"><ele>266.0</ele><time>2026-03-22T07:18:55.998Z</time></trkpt><trkpt lat="43.201777924831944" lon="11.741567179198743"><ele>266.0</ele><time>2026-03-22T07:18:56.998Z</time></trkpt><trkpt lat="43.201795834927545" lon="11.741391735272881"><ele>266.0</ele><time>2026-03-22T07:18:57.998Z</time></trkpt><trkpt lat="43.20181635578381" lon="11.741227292375125"><ele>266.0</ele><time>2026-03-22T07:18:58.998Z</time></trkpt><trkpt lat="43.20183876140547" lon="11.741055614492794"><ele>266.0</ele><time>2026-03-22T07:18:59.998Z</time></trkpt><trkpt lat="43.201860299962966" lon="11.74087875042629"><ele>266.5</ele><time>2026-03-22T07:19:00.998Z</time></trkpt><trkpt lat="43.20188225322297" lon="11.7406970073522"><ele>267.0</ele><time>2026-03-22T07:19:01.998Z</time></trkpt><trkpt lat="43.201908179827555" lon="11.740501747583421"><ele>267.5</ele><time>2026-03-22T07:19:03Z</time></trkpt><trkpt lat="43.201932290047075" lon="11.740327306539868"><ele>268.0</ele><time>2026-03-22T07:19:04Z</time></trkpt><trkpt lat="43.201957858688104" lon="11.740152484069212"><ele>268.5</ele><time>2026-03-22T07:19:05Z</time></trkpt><trkpt lat="43.201982053912516" lon="11.739987137614273"><ele>269.0</ele><time>2026-03-22T07:19:06Z</time></trkpt><trkpt lat="43.20200470816807" lon="11.73981671829482"><ele>269.5</ele><time>2026-03-22T07:19:07Z</time></trkpt><trkpt lat="43.202027144308985" lon="11.739644483885051"><ele>270.0</ele><time>2026-03-22T07:19:08Z</time></trkpt><trkpt lat="43.20204692333859" lon="11.739475383841675"><ele>270.0</ele><time>2026-03-22T07:19:09Z</time></trkpt><trkpt lat="43.20206275099252" lon="11.739304545149691"><ele>270.0</ele><time>2026-03-22T07:19:10Z</time></trkpt><trkpt lat="43.20206462046661" lon="11.739134387079169"><ele>270.0</ele><time>2026-03-22T07:19:11Z</time></trkpt><trkpt lat="43.20202901970502" lon="11.738971752432903"><ele>270.0</ele><time>2026-03-22T07:19:12Z</time></trkpt><trkpt lat="43.20197399709205" lon="11.738817165977402"><ele>270.0</ele><time>2026-03-22T07:19:13Z</time></trkpt><trkpt lat="43.201899720613284" lon="11.7386728809792"><ele>270.0</ele><time>2026-03-22T07:19:14Z</time></trkpt><trkpt lat="43.2018229059154" lon="11.73853437593191"><ele>270.0</ele><time>2026-03-22T07:19:15Z</time></trkpt><trkpt lat="43.20175119849744" lon="11.73838543004538"><ele>270.0</ele><time>2026-03-22T07:19:16Z</time></trkpt><trkpt lat="43.20168650043638" lon="11.738225973708918"><ele>270.25</ele><time>2026-03-22T07:19:17Z</time></trkpt><trkpt lat="43.20163061625233" lon="11.73805368018158"><ele>270.5</ele><time>2026-03-22T07:19:18Z</time></trkpt><trkpt lat="43.20157852902835" lon="11.737866777186303"><ele>270.75</ele><time>2026-03-22T07:19:19Z</time></trkpt><trkpt lat="43.201537503916455" lon="11.737700298950825"><ele>271.0</ele><time>2026-03-22T07:19:20Z</time></trkpt><trkpt lat="43.20149973294245" lon="11.737532388058067"><ele>270.75</ele><time>2026-03-22T07:19:21Z</time></trkpt><trkpt lat="43.20146038321444" lon="11.737360512632032"><ele>270.5</ele><time>2026-03-22T07:19:22Z</time></trkpt><trkpt lat="43.201421015357845" lon="11.737188497715207"><ele>270.25</ele><time>2026-03-22T07:19:23Z</time></trkpt><trkpt lat="43.20138399395793" lon="11.737017148489038"><ele>270.0</ele><time>2026-03-22T07:19:24Z</time></trkpt><trkpt lat="43.201349944907825" lon="11.736845962456666"><ele>269.75</ele><time>2026-03-22T07:19:25Z</time></trkpt><trkpt lat="43.20131761421072" lon="11.736675165248988"><ele>269.5</ele><time>2026-03-22T07:19:26Z</time></trkpt><trkpt lat="43.201282215340854" lon="11.736500648312498"><ele>269.25</ele><time>2026-03-22T07:19:27Z</time></trkpt><trkpt lat="43.20124485228185" lon="11.736320007809622"><ele>269.0</ele><time>2026-03-22T07:19:28Z</time></trkpt><trkpt lat="43.20120518679342" lon="11.736152865387973"><ele>269.2</ele><time>2026-03-22T07:19:29Z</time></trkpt><trkpt lat="43.20116734452963" lon="11.735997425709108"><ele>269.4</ele><time>2026-03-22T07:19:30Z</time></trkpt><trkpt lat="43.20113306493599" lon="11.735858845369602"><ele>269.6</ele><time>2026-03-22T07:19:31Z</time></trkpt><trkpt lat="43.201101232961044" lon="11.735741542106098"><ele>269.8</ele><time>2026-03-22T07:19:32Z</time></trkpt><trkpt lat="43.20107360702157" lon="11.735660842565471"><ele>270.0</ele><time>2026-03-22T07:19:33Z</time></trkpt><trkpt lat="43.20102434575214" lon="11.735558502964935"><ele>270.0</ele><time>2026-03-22T07:19:35Z</time></trkpt><trkpt lat="43.20096804277795" lon="11.735517763609543"><ele>270.0</ele><time>2026-03-22T07:19:38Z</time></trkpt><trkpt lat="43.20084201428563" lon="11.735672065253192"><ele>270.0</ele><time>2026-03-22T07:19:41Z</time></trkpt><trkpt lat="43.20080576670293" lon="11.73576208986803"><ele>270.0</ele><time>2026-03-22T07:19:42Z</time></trkpt><trkpt lat="43.20075342586746" lon="11.735864570178242"><ele>270.0</ele><time>2026-03-22T07:19:43Z</time></trkpt><trkpt lat="43.200694974330375" lon="11.735965969021333"><ele>269.6666666666667</ele><time>2026-03-22T07:19:44Z</time></trkpt><trkpt lat="43.200639535030305" lon="11.736083745244624"><ele>269.3333333333333</ele><time>2026-03-22T07:19:45Z</time></trkpt><trkpt lat="43.20059727960673" lon="11.736183207031937"><ele>269.0</ele><time>2026-03-22T07:19:46Z</time></trkpt><trkpt lat="43.20054799747307" lon="11.736260219079762"><ele>268.66666666666663</ele><time>2026-03-22T07:19:47Z</time></trkpt><trkpt lat="43.20048232262794" lon="11.73632051453933"><ele>268.3333333333333</ele><time>2026-03-22T07:19:48Z</time></trkpt><trkpt lat="43.200406720924626" lon="11.7363510529519"><ele>268.0</ele><time>2026-03-22T07:19:49Z</time></trkpt><trkpt lat="43.20033569975028" lon="11.736339975872532"><ele>268.0</ele><time>2026-03-22T07:19:50Z</time></trkpt><trkpt lat="43.20027737704625" lon="11.736300514441256"><ele>268.0</ele><time>2026-03-22T07:19:51Z</time></trkpt><trkpt lat="43.20023334586446" lon="11.736223735107478"><ele>268.0</ele><time>2026-03-22T07:19:51.999Z</time></trkpt><trkpt lat="43.200210969461466" lon="11.736106191490022"><ele>268.0</ele><time>2026-03-22T07:19:52.999Z</time></trkpt><trkpt lat="43.20020172613245" lon="11.735973832561765"><ele>268.0</ele><time>2026-03-22T07:19:53.999Z</time></trkpt><trkpt lat="43.20019894241777" lon="11.735829048098337"><ele>268.0</ele><time>2026-03-22T07:19:54.999Z</time></trkpt><trkpt lat="43.20019220310154" lon="11.735678986315506"><ele>268.0</ele><time>2026-03-22T07:19:55.999Z</time></trkpt><trkpt lat="43.20017813000192" lon="11.735527889124691"><ele>268.0</ele><time>2026-03-22T07:19:56.999Z</time></trkpt><trkpt lat="43.20016217137426" lon="11.73537886805517"><ele>268.0</ele><time>2026-03-22T07:19:57.999Z</time></trkpt><trkpt lat="43.2001443172375" lon="11.735214149837121"><ele>268.0</ele><time>2026-03-22T07:19:58.999Z</time></trkpt><trkpt lat="43.20012190126932" lon="11.735038310929113"><ele>268.0</ele><time>2026-03-22T07:19:59.999Z</time></trkpt><trkpt lat="43.200100973143776" lon="11.734866194515352"><ele>268.0</ele><time>2026-03-22T07:20:00.999Z</time></trkpt><trkpt lat="43.20008099330109" lon="11.734702514542255"><ele>268.0</ele><time>2026-03-22T07:20:01.999Z</time></trkpt><trkpt lat="43.20006027630952" lon="11.73455426145994"><ele>268.0</ele><time>2026-03-22T07:20:02.999Z</time></trkpt><trkpt lat="43.20005821029405" lon="11.734421064659267"><ele>268.25</ele><time>2026-03-22T07:20:03.999Z</time></trkpt><trkpt lat="43.200046351494116" lon="11.734309556180495"><ele>268.5</ele><time>2026-03-22T07:20:04.999Z</time></trkpt><trkpt lat="43.19983652077378" lon="11.734224823907525"><ele>268.75</ele><time>2026-03-22T07:20:06.999Z</time></trkpt><trkpt lat="43.19973709251802" lon="11.734218050703484"><ele>269.0</ele><time>2026-03-22T07:20:07.999Z</time></trkpt><trkpt lat="43.19963105959466" lon="11.7342055063141"><ele>268.5</ele><time>2026-03-22T07:20:08.999Z</time></trkpt><trkpt lat="43.199518995899865" lon="11.734160822318037"><ele>268.0</ele><time>2026-03-22T07:20:09.999Z</time></trkpt><trkpt lat="43.19939929358117" lon="11.734155510027598"><ele>267.5</ele><time>2026-03-22T07:20:10.999Z</time></trkpt><trkpt lat="43.19927657878467" lon="11.734128473238846"><ele>267.0</ele><time>2026-03-22T07:20:11.999Z</time></trkpt><trkpt lat="43.19915099703543" lon="11.734096404255137"><ele>267.0</ele><time>2026-03-22T07:20:12.999Z</time></trkpt><trkpt lat="43.19902586132237" lon="11.734062005746734"><ele>267.0</ele><time>2026-03-22T07:20:13.999Z</time></trkpt><trkpt lat="43.19890799053761" lon="11.73402905691725"><ele>267.0</ele><time>2026-03-22T07:20:14.999Z</time></trkpt><trkpt lat="43.19879338138938" lon="11.734001340093771"><ele>267.0</ele><time>2026-03-22T07:20:15.999Z</time></trkpt><trkpt lat="43.19868422236518" lon="11.733980628007293"><ele>267.5</ele><time>2026-03-22T07:20:16.999Z</time></trkpt><trkpt lat="43.19858652661593" lon="11.733967803080935"><ele>268.0</ele><time>2026-03-22T07:20:17.999Z</time></trkpt><trkpt lat="43.198500772197676" lon="11.733955589240848"><ele>268.5</ele><time>2026-03-22T07:20:18.999Z</time></trkpt><trkpt lat="43.19842395719842" lon="11.733947389862049"><ele>269.0</ele><time>2026-03-22T07:20:19.999Z</time></trkpt><trkpt lat="43.198357558289274" lon="11.733942676299543"><ele>269.5</ele><time>2026-03-22T07:20:20.999Z</time></trkpt><trkpt lat="43.19828831327621" lon="11.733947652840666"><ele>270.0</ele><time>2026-03-22T07:20:21.999Z</time></trkpt><trkpt lat="43.1982125087031" lon="11.733956435240316"><ele>270.1666666666667</ele><time>2026-03-22T07:20:22.999Z</time></trkpt><trkpt lat="43.19812957204848" lon="11.73393800045676"><ele>270.3333333333333</ele><time>2026-03-22T07:20:23.999Z</time></trkpt><trkpt lat="43.19804273835746" lon="11.733944035420798"><ele>270.5</ele><time>2026-03-22T07:20:24.999Z</time></trkpt><trkpt lat="43.197954925380294" lon="11.73395032045991"><ele>270.66666666666663</ele><time>2026-03-22T07:20:25.999Z</time></trkpt><trkpt lat="43.19787002422773" lon="11.733956865435747"><ele>270.8333333333333</ele><time>2026-03-22T07:20:26.999Z</time></trkpt><trkpt lat="43.197784393516386" lon="11.733987528684235"><ele>271.0</ele><time>2026-03-22T07:20:27.999Z</time></trkpt><trkpt lat="43.19769456852993" lon="11.733979682687934"><ele>271.0</ele><time>2026-03-22T07:20:28.999Z</time></trkpt><trkpt lat="43.197601683969225" lon="11.734006844511837"><ele>271.0</ele><time>2026-03-22T07:20:29.999Z</time></trkpt><trkpt lat="43.197504909951604" lon="11.734032683243854"><ele>271.0</ele><time>2026-03-22T07:20:30.999Z</time></trkpt><trkpt lat="43.197407655459955" lon="11.734068336294076"><ele>271.0</ele><time>2026-03-22T07:20:31.999Z</time></trkpt><trkpt lat="43.19730896280255" lon="11.734106856464138"><ele>271.0</ele><time>2026-03-22T07:20:32.999Z</time></trkpt><trkpt lat="43.19721089510906" lon="11.734138914323793"><ele>271.66666666666663</ele><time>2026-03-22T07:20:33.999Z</time></trkpt><trkpt lat="43.19711182884369" lon="11.734161074041642"><ele>272.3333333333333</ele><time>2026-03-22T07:20:34.999Z</time></trkpt><trkpt lat="43.19702372954494" lon="11.734185848939298"><ele>273.0</ele><time>2026-03-22T07:20:35.999Z</time></trkpt><trkpt lat="43.196943841156994" lon="11.734185929060422"><ele>273.6666666666667</ele><time>2026-03-22T07:20:36.999Z</time></trkpt><trkpt lat="43.19686489212389" lon="11.734171681694162"><ele>274.33333333333337</ele><time>2026-03-22T07:20:37.999Z</time></trkpt><trkpt lat="43.1967821797928" lon="11.734133842931376"><ele>275.0</ele><time>2026-03-22T07:20:38.999Z</time></trkpt><trkpt lat="43.19671020528472" lon="11.734061302658915"><ele>275.0</ele><time>2026-03-22T07:20:39.999Z</time></trkpt><trkpt lat="43.196669629296515" lon="11.733954561782667"><ele>275.0</ele><time>2026-03-22T07:20:40.999Z</time></trkpt><trkpt lat="43.19662874981038" lon="11.733849331434818"><ele>275.0</ele><time>2026-03-22T07:20:41.999Z</time></trkpt><trkpt lat="43.19658304758699" lon="11.73373078332847"><ele>275.0</ele><time>2026-03-22T07:20:42.999Z</time></trkpt><trkpt lat="43.19651904592786" lon="11.73361945701248"><ele>275.0</ele><time>2026-03-22T07:20:43.999Z</time></trkpt><trkpt lat="43.19645520566593" lon="11.733505888087834"><ele>275.5</ele><time>2026-03-22T07:20:44.999Z</time></trkpt><trkpt lat="43.1963799886708" lon="11.733401689794812"><ele>276.0</ele><time>2026-03-22T07:20:45.999Z</time></trkpt><trkpt lat="43.19631597716861" lon="11.733315287878368"><ele>276.5</ele><time>2026-03-22T07:20:46.999Z</time></trkpt><trkpt lat="43.19625984604714" lon="11.733243578725665"><ele>277.0</ele><time>2026-03-22T07:20:47.999Z</time></trkpt><trkpt lat="43.196196420191555" lon="11.73316688337601"><ele>277.5</ele><time>2026-03-22T07:20:48.999Z</time></trkpt><trkpt lat="43.196134240720994" lon="11.733086456235911"><ele>278.0</ele><time>2026-03-22T07:20:49.999Z</time></trkpt><trkpt lat="43.19607390779227" lon="11.733008886750618"><ele>278.0</ele><time>2026-03-22T07:20:50.999Z</time></trkpt><trkpt lat="43.196006481948714" lon="11.732933739190525"><ele>278.0</ele><time>2026-03-22T07:20:51.998Z</time></trkpt><trkpt lat="43.19594048322103" lon="11.732849047767164"><ele>278.0</ele><time>2026-03-22T07:20:52.998Z</time></trkpt><trkpt lat="43.19588310681398" lon="11.7327436145574"><ele>278.0</ele><time>2026-03-22T07:20:53.998Z</time></trkpt><trkpt lat="43.19583052974254" lon="11.732626724069382"><ele>278.0</ele><time>2026-03-22T07:20:54.998Z</time></trkpt><trkpt lat="43.1957975315095" lon="11.732505947209521"><ele>277.6</ele><time>2026-03-22T07:20:55.998Z</time></trkpt><trkpt lat="43.19576248632556" lon="11.732392322260246"><ele>277.20000000000005</ele><time>2026-03-22T07:20:56.998Z</time></trkpt><trkpt lat="43.195748907798595" lon="11.732274753673513"><ele>276.8</ele><time>2026-03-22T07:20:57.998Z</time></trkpt><trkpt lat="43.19572747512234" lon="11.73214737038612"><ele>276.40000000000003</ele><time>2026-03-22T07:20:58.998Z</time></trkpt><trkpt lat="43.19569250147946" lon="11.732014450530793"><ele>276.0</ele><time>2026-03-22T07:20:59.998Z</time></trkpt><trkpt lat="43.19561868004093" lon="11.731900528939981"><ele>277.75</ele><time>2026-03-22T07:21:00.998Z</time></trkpt><trkpt lat="43.19555222783037" lon="11.731779970177376"><ele>279.5</ele><time>2026-03-22T07:21:01.998Z</time></trkpt><trkpt lat="43.19547235147534" lon="11.731671691342274"><ele>281.25</ele><time>2026-03-22T07:21:02.998Z</time></trkpt><trkpt lat="43.19538849910039" lon="11.731561508216593"><ele>283.0</ele><time>2026-03-22T07:21:03.998Z</time></trkpt><trkpt lat="43.19530836157523" lon="11.731442718827221"><ele>283.0</ele><time>2026-03-22T07:21:04.998Z</time></trkpt><trkpt lat="43.19525414369164" lon="11.731325940817062"><ele>283.0</ele><time>2026-03-22T07:21:05.998Z</time></trkpt><trkpt lat="43.19522571576904" lon="11.731180316574592"><ele>283.0</ele><time>2026-03-22T07:21:06.998Z</time></trkpt><trkpt lat="43.19519158008961" lon="11.731033421139017"><ele>283.0</ele><time>2026-03-22T07:21:07.998Z</time></trkpt><trkpt lat="43.19515998682424" lon="11.730877547751302"><ele>283.0</ele><time>2026-03-22T07:21:09Z</time></trkpt><trkpt lat="43.19513204210485" lon="11.730716198193326"><ele>285.5</ele><time>2026-03-22T07:21:10Z</time></trkpt><trkpt lat="43.195102999436" lon="11.730552671976735"><ele>288.0</ele><time>2026-03-22T07:21:11Z</time></trkpt><trkpt lat="43.19506929241092" lon="11.73038636687348"><ele>290.5</ele><time>2026-03-22T07:21:12Z</time></trkpt><trkpt lat="43.19501922748071" lon="11.730230940476773"><ele>293.0</ele><time>2026-03-22T07:21:13Z</time></trkpt><trkpt lat="43.194983519237304" lon="11.730058206556722"><ele>293.75</ele><time>2026-03-22T07:21:14Z</time></trkpt><trkpt lat="43.19494267864522" lon="11.729892043220824"><ele>294.5</ele><time>2026-03-22T07:21:15Z</time></trkpt><trkpt lat="43.19490960464101" lon="11.729732255225723"><ele>295.25</ele><time>2026-03-22T07:21:16Z</time></trkpt><trkpt lat="43.194870228153505" lon="11.72956928690948"><ele>296.0</ele><time>2026-03-22T07:21:17Z</time></trkpt><trkpt lat="43.194798825231665" lon="11.729423655629923"><ele>296.0</ele><time>2026-03-22T07:21:18Z</time></trkpt><trkpt lat="43.194712824404284" lon="11.729281887539711"><ele>296.0</ele><time>2026-03-22T07:21:19Z</time></trkpt><trkpt lat="43.19462615161698" lon="11.729137432027521"><ele>296.0</ele><time>2026-03-22T07:21:20Z</time></trkpt><trkpt lat="43.19454847516984" lon="11.728987375001006"><ele>296.0</ele><time>2026-03-22T07:21:21Z</time></trkpt><trkpt lat="43.19447625015721" lon="11.728834923831903"><ele>296.0</ele><time>2026-03-22T07:21:22Z</time></trkpt><trkpt lat="43.194401679810646" lon="11.728689067351409"><ele>296.0</ele><time>2026-03-22T07:21:23Z</time></trkpt><trkpt lat="43.194322225294364" lon="11.728547626413619"><ele>296.0</ele><time>2026-03-22T07:21:24Z</time></trkpt><trkpt lat="43.194243397187336" lon="11.728407674503426"><ele>296.0</ele><time>2026-03-22T07:21:25Z</time></trkpt><trkpt lat="43.19416596516156" lon="11.728269962872748"><ele>295.75</ele><time>2026-03-22T07:21:26Z</time></trkpt><trkpt lat="43.194083737754156" lon="11.728128273305359"><ele>295.5</ele><time>2026-03-22T07:21:27Z</time></trkpt><trkpt lat="43.19399946298373" lon="11.727982304014873"><ele>295.25</ele><time>2026-03-22T07:21:28Z</time></trkpt><trkpt lat="43.19391522155929" lon="11.727841588229822"><ele>295.0</ele><time>2026-03-22T07:21:29Z</time></trkpt><trkpt lat="43.19383650149373" lon="11.727711425724166"><ele>297.0</ele><time>2026-03-22T07:21:30Z</time></trkpt><trkpt lat="43.19375662851953" lon="11.727581895815101"><ele>299.0</ele><time>2026-03-22T07:21:31Z</time></trkpt><trkpt lat="43.193678119521415" lon="11.72745255412725"><ele>301.0</ele><time>2026-03-22T07:21:32Z</time></trkpt><trkpt lat="43.1936025828327" lon="11.727326272016464"><ele>303.0</ele><time>2026-03-22T07:21:33Z</time></trkpt><trkpt lat="43.19353746238844" lon="11.72720263411901"><ele>303.0</ele><time>2026-03-22T07:21:34Z</time></trkpt><trkpt lat="43.19350218989071" lon="11.727061949986982"><ele>303.0</ele><time>2026-03-22T07:21:35Z</time></trkpt><trkpt lat="43.193451441158224" lon="11.726927006179169"><ele>303.0</ele><time>2026-03-22T07:21:36Z</time></trkpt><trkpt lat="43.19342635917579" lon="11.72676546009608"><ele>303.0</ele><time>2026-03-22T07:21:37Z</time></trkpt><trkpt lat="43.19340167578634" lon="11.72658733239908"><ele>305.0</ele><time>2026-03-22T07:21:38Z</time></trkpt><trkpt lat="43.193367432418896" lon="11.72640322059566"><ele>307.0</ele><time>2026-03-22T07:21:39Z</time></trkpt><trkpt lat="43.19328547802294" lon="11.72624254548765"><ele>309.0</ele><time>2026-03-22T07:21:40Z</time></trkpt><trkpt lat="43.19328347476422" lon="11.726046289740884"><ele>311.0</ele><time>2026-03-22T07:21:41Z</time></trkpt><trkpt lat="43.193226313019814" lon="11.725870966788605"><ele>312.25</ele><time>2026-03-22T07:21:42Z</time></trkpt><trkpt lat="43.193170630260994" lon="11.72569647308888"><ele>313.5</ele><time>2026-03-22T07:21:43Z</time></trkpt><trkpt lat="43.19310413301762" lon="11.725539430464208"><ele>314.75</ele><time>2026-03-22T07:21:44Z</time></trkpt><trkpt lat="43.193039952557186" lon="11.725381961090907"><ele>316.0</ele><time>2026-03-22T07:21:45Z</time></trkpt><trkpt lat="43.19295703240842" lon="11.725219456678744"><ele>317.0</ele><time>2026-03-22T07:21:46Z</time></trkpt><trkpt lat="43.19288044591615" lon="11.725052813331095"><ele>318.0</ele><time>2026-03-22T07:21:47Z</time></trkpt><trkpt lat="43.19280906574799" lon="11.724884683953489"><ele>319.0</ele><time>2026-03-22T07:21:48Z</time></trkpt><trkpt lat="43.19274832664591" lon="11.724741618772015"><ele>320.0</ele><time>2026-03-22T07:21:49Z</time></trkpt><trkpt lat="43.19269993929301" lon="11.724627646871525"><ele>320.0</ele><time>2026-03-22T07:21:50Z</time></trkpt><trkpt lat="43.19265929312841" lon="11.724533995629022"><ele>320.0</ele><time>2026-03-22T07:21:51Z</time></trkpt><trkpt lat="43.192608292675" lon="11.72443624964873"><ele>320.0</ele><time>2026-03-22T07:21:52Z</time></trkpt><trkpt lat="43.19253299118282" lon="11.72433255342804"><ele>320.0</ele><time>2026-03-22T07:21:53Z</time></trkpt><trkpt lat="43.19245332747616" lon="11.724234783196316"><ele>320.0</ele><time>2026-03-22T07:21:53.999Z</time></trkpt><trkpt lat="43.192313545981854" lon="11.724209893691443"><ele>320.4</ele><time>2026-03-22T07:21:54.999Z</time></trkpt><trkpt lat="43.192220429951284" lon="11.724103907304496"><ele>320.8</ele><time>2026-03-22T07:21:55.999Z</time></trkpt><trkpt lat="43.19216437220453" lon="11.723998811812205"><ele>321.20000000000005</ele><time>2026-03-22T07:21:56.999Z</time></trkpt><trkpt lat="43.19212578936604" lon="11.723884552384625"><ele>321.6</ele><time>2026-03-22T07:21:57.999Z</time></trkpt><trkpt lat="43.19206556335116" lon="11.72378541397"><ele>322.0</ele><time>2026-03-22T07:21:58.999Z</time></trkpt><trkpt lat="43.191986593659564" lon="11.723689836595472"><ele>322.0</ele><time>2026-03-22T07:21:59.999Z</time></trkpt><trkpt lat="43.19192047666428" lon="11.723608904115414"><ele>322.0</ele><time>2026-03-22T07:22:00.999Z</time></trkpt><trkpt lat="43.19185950511173" lon="11.723539799777166"><ele>322.0</ele><time>2026-03-22T07:22:01.999Z</time></trkpt><trkpt lat="43.19180653981004" lon="11.723489249102704"><ele>322.0</ele><time>2026-03-22T07:22:02.999Z</time></trkpt><trkpt lat="43.19172718166531" lon="11.72341195534296"><ele>322.0</ele><time>2026-03-22T07:22:04.999Z</time></trkpt><trkpt lat="43.19167530013644" lon="11.723352304406376"><ele>322.0</ele><time>2026-03-22T07:22:06.999Z</time></trkpt><trkpt lat="43.19162793257072" lon="11.723239409367928"><ele>322.20000000000005</ele><time>2026-03-22T07:22:08.999Z</time></trkpt><trkpt lat="43.19154682764839" lon="11.723137252363088"><ele>322.4</ele><time>2026-03-22T07:22:10.999Z</time></trkpt><trkpt lat="43.19148456041509" lon="11.723051893962651"><ele>322.6</ele><time>2026-03-22T07:22:11.999Z</time></trkpt><trkpt lat="43.191430706460565" lon="11.72295299276593"><ele>322.79999999999995</ele><time>2026-03-22T07:22:12.999Z</time></trkpt><trkpt lat="43.19138324204645" lon="11.722839618087162"><ele>323.0</ele><time>2026-03-22T07:22:13.999Z</time></trkpt><trkpt lat="43.19133189871867" lon="11.722747183407556"><ele>323.4</ele><time>2026-03-22T07:22:14.999Z</time></trkpt><trkpt lat="43.191263664989314" lon="11.722647702747663"><ele>323.79999999999995</ele><time>2026-03-22T07:22:15.999Z</time></trkpt><trkpt lat="43.191200817664644" lon="11.722535109921072"><ele>324.2</ele><time>2026-03-22T07:22:16.999Z</time></trkpt><trkpt lat="43.19114406592681" lon="11.722439851075881"><ele>324.6</ele><time>2026-03-22T07:22:17.999Z</time></trkpt><trkpt lat="43.19106202492289" lon="11.722361797900184"><ele>325.0</ele><time>2026-03-22T07:22:18.999Z</time></trkpt><trkpt lat="43.190961566355874" lon="11.722267017957224"><ele>325.0</ele><time>2026-03-22T07:22:19.999Z</time></trkpt><trkpt lat="43.19086705675815" lon="11.722176503300203"><ele>325.0</ele><time>2026-03-22T07:22:20.999Z</time></trkpt><trkpt lat="43.19077482814034" lon="11.722077830152118"><ele>325.0</ele><time>2026-03-22T07:22:21.999Z</time></trkpt><trkpt lat="43.19067379878623" lon="11.721979998886678"><ele>325.0</ele><time>2026-03-22T07:22:22.999Z</time></trkpt><trkpt lat="43.1905795192898" lon="11.721887408814352"><ele>327.25</ele><time>2026-03-22T07:22:23.999Z</time></trkpt><trkpt lat="43.19048336097381" lon="11.72180795432901"><ele>329.5</ele><time>2026-03-22T07:22:24.999Z</time></trkpt><trkpt lat="43.19038362037412" lon="11.721729608345855"><ele>331.75</ele><time>2026-03-22T07:22:25.999Z</time></trkpt><trkpt lat="43.190269393678065" lon="11.721648741367291"><ele>334.0</ele><time>2026-03-22T07:22:26.999Z</time></trkpt><trkpt lat="43.1901731688349" lon="11.721564329810043"><ele>334.0</ele><time>2026-03-22T07:22:27.999Z</time></trkpt><trkpt lat="43.19009499742801" lon="11.721475803679233"><ele>334.0</ele><time>2026-03-22T07:22:28.999Z</time></trkpt><trkpt lat="43.19002549261042" lon="11.721402738722174"><ele>334.0</ele><time>2026-03-22T07:22:29.999Z</time></trkpt><trkpt lat="43.189971069498824" lon="11.721344858996085"><ele>334.0</ele><time>2026-03-22T07:22:30.999Z</time></trkpt><trkpt lat="43.18992931085373" lon="11.721248516919061"><ele>334.0</ele><time>2026-03-22T07:22:31.999Z</time></trkpt><trkpt lat="43.18990343376336" lon="11.721132426472833"><ele>334.0</ele><time>2026-03-22T07:22:32.999Z</time></trkpt><trkpt lat="43.189888199703475" lon="11.720982291957933"><ele>333.79999999999995</ele><time>2026-03-22T07:22:33.999Z</time></trkpt><trkpt lat="43.189880294644496" lon="11.720826804349844"><ele>333.59999999999997</ele><time>2026-03-22T07:22:34.999Z</time></trkpt><trkpt lat="43.1898450038097" lon="11.72068892512716"><ele>333.4</ele><time>2026-03-22T07:22:35.999Z</time></trkpt><trkpt lat="43.18983603771423" lon="11.720542086857892"><ele>333.2</ele><time>2026-03-22T07:22:36.999Z</time></trkpt><trkpt lat="43.189857381417475" lon="11.720384166843257"><ele>333.0</ele><time>2026-03-22T07:22:37.999Z</time></trkpt><trkpt lat="43.18988365669158" lon="11.720220779853811"><ele>332.79999999999995</ele><time>2026-03-22T07:22:38.999Z</time></trkpt><trkpt lat="43.189908016526935" lon="11.720079622002354"><ele>332.6</ele><time>2026-03-22T07:22:39.999Z</time></trkpt><trkpt lat="43.18991252136746" lon="11.719925786708183"><ele>332.4</ele><time>2026-03-22T07:22:40.999Z</time></trkpt><trkpt lat="43.18993417861314" lon="11.719767702691174"><ele>332.20000000000005</ele><time>2026-03-22T07:22:41.999Z</time></trkpt><trkpt lat="43.1899671786969" lon="11.719629281568059"><ele>332.0</ele><time>2026-03-22T07:22:42.999Z</time></trkpt><trkpt lat="43.189982690009565" lon="11.719529930640018"><ele>332.0</ele><time>2026-03-22T07:22:43.999Z</time></trkpt><trkpt lat="43.18996117883385" lon="11.719405645806756"><ele>332.0</ele><time>2026-03-22T07:22:44.999Z</time></trkpt><trkpt lat="43.18991594123803" lon="11.719272828049542"><ele>332.0</ele><time>2026-03-22T07:22:45.999Z</time></trkpt><trkpt lat="43.18986790647917" lon="11.719141261287717"><ele>332.0</ele><time>2026-03-22T07:22:46.999Z</time></trkpt><trkpt lat="43.18981083942574" lon="11.719049651808884"><ele>332.0</ele><time>2026-03-22T07:22:47.999Z</time></trkpt><trkpt lat="43.18975719401028" lon="11.718957037495898"><ele>334.6</ele><time>2026-03-22T07:22:48.999Z</time></trkpt><trkpt lat="43.189699998931765" lon="11.718855851409161"><ele>337.20000000000005</ele><time>2026-03-22T07:22:49.999Z</time></trkpt><trkpt lat="43.189653405422966" lon="11.718726001786381"><ele>339.8</ele><time>2026-03-22T07:22:50.999Z</time></trkpt><trkpt lat="43.18960235067067" lon="11.718588176071023"><ele>342.4</ele><time>2026-03-22T07:22:51.999Z</time></trkpt><trkpt lat="43.18955361988397" lon="11.718433027238884"><ele>345.0</ele><time>2026-03-22T07:22:52.998Z</time></trkpt><trkpt lat="43.18949011010565" lon="11.718304022099206"><ele>345.0</ele><time>2026-03-22T07:22:53.998Z</time></trkpt><trkpt lat="43.18940436153548" lon="11.71818462225268"><ele>345.0</ele><time>2026-03-22T07:22:54.998Z</time></trkpt><trkpt lat="43.189309868067866" lon="11.71808555893096"><ele>345.0</ele><time>2026-03-22T07:22:55.998Z</time></trkpt><trkpt lat="43.18923102854102" lon="11.71797208857787"><ele>345.0</ele><time>2026-03-22T07:22:56.998Z</time></trkpt><trkpt lat="43.18917579029065" lon="11.71784535307335"><ele>345.0</ele><time>2026-03-22T07:22:57.998Z</time></trkpt><trkpt lat="43.18911737518517" lon="11.717700437338788"><ele>345.0</ele><time>2026-03-22T07:22:58.998Z</time></trkpt><trkpt lat="43.18905370522189" lon="11.71754316177107"><ele>345.0</ele><time>2026-03-22T07:22:59.998Z</time></trkpt><trkpt lat="43.188973114942854" lon="11.717430887240829"><ele>345.0</ele><time>2026-03-22T07:23:00.998Z</time></trkpt><trkpt lat="43.18889015990954" lon="11.717352716251707"><ele>344.2</ele><time>2026-03-22T07:23:01.998Z</time></trkpt><trkpt lat="43.18880288234262" lon="11.717290037925443"><ele>343.4</ele><time>2026-03-22T07:23:02.998Z</time></trkpt><trkpt lat="43.188702077564706" lon="11.717253230592004"><ele>342.6</ele><time>2026-03-22T07:23:03.998Z</time></trkpt><trkpt lat="43.188615308038216" lon="11.717247108167815"><ele>341.8</ele><time>2026-03-22T07:23:04.998Z</time></trkpt><trkpt lat="43.18852070907432" lon="11.717232490432115"><ele>341.0</ele><time>2026-03-22T07:23:05.998Z</time></trkpt><trkpt lat="43.188434862890816" lon="11.717189558270414"><ele>341.0</ele><time>2026-03-22T07:23:06.998Z</time></trkpt><trkpt lat="43.188377837980184" lon="11.717144803643599"><ele>341.0</ele><time>2026-03-22T07:23:07.998Z</time></trkpt><trkpt lat="43.188300280997986" lon="11.717014379773904"><ele>341.0</ele><time>2026-03-22T07:23:09.998Z</time></trkpt><trkpt lat="43.188276806224614" lon="11.716911319244307"><ele>341.0</ele><time>2026-03-22T07:23:10.998Z</time></trkpt><trkpt lat="43.188246543411886" lon="11.716804678774265"><ele>341.0</ele><time>2026-03-22T07:23:11.998Z</time></trkpt><trkpt lat="43.18823556101544" lon="11.71670678229393"><ele>341.0</ele><time>2026-03-22T07:23:12.998Z</time></trkpt><trkpt lat="43.1882580714798" lon="11.716591498873585"><ele>340.83333333333337</ele><time>2026-03-22T07:23:14Z</time></trkpt><trkpt lat="43.18829363280208" lon="11.716460932494764"><ele>340.6666666666667</ele><time>2026-03-22T07:23:15Z</time></trkpt><trkpt lat="43.1883362332607" lon="11.716321804039572"><ele>340.5</ele><time>2026-03-22T07:23:16Z</time></trkpt><trkpt lat="43.18837873719333" lon="11.716235530158384"><ele>340.3333333333333</ele><time>2026-03-22T07:23:17Z</time></trkpt><trkpt lat="43.18840652603351" lon="11.71615289373825"><ele>340.16666666666663</ele><time>2026-03-22T07:23:18Z</time></trkpt><trkpt lat="43.18841054111857" lon="11.716037161833961"><ele>340.0</ele><time>2026-03-22T07:23:20Z</time></trkpt><trkpt lat="43.18835897214536" lon="11.715963343335867"><ele>340.0</ele><time>2026-03-22T07:23:21Z</time></trkpt><trkpt lat="43.188284301062225" lon="11.71585932991106"><ele>340.0</ele><time>2026-03-22T07:23:22Z</time></trkpt><trkpt lat="43.188214791324306" lon="11.715763131828313"><ele>340.0</ele><time>2026-03-22T07:23:23Z</time></trkpt><trkpt lat="43.1881656699684" lon="11.715707033709784"><ele>340.0</ele><time>2026-03-22T07:23:24Z</time></trkpt><trkpt lat="43.18815659618999" lon="11.715565225747522"><ele>340.0</ele><time>2026-03-22T07:23:26Z</time></trkpt><trkpt lat="43.18816929696918" lon="11.71547752927873"><ele>340.0</ele><time>2026-03-22T07:23:27Z</time></trkpt><trkpt lat="43.18825622898411" lon="11.715408508144597"><ele>340.0</ele><time>2026-03-22T07:23:29Z</time></trkpt><trkpt lat="43.18832192650599" lon="11.715376627937129"><ele>340.0</ele><time>2026-03-22T07:23:30Z</time></trkpt><trkpt lat="43.188418942004894" lon="11.715335686176296"><ele>340.0</ele><time>2026-03-22T07:23:31Z</time></trkpt><trkpt lat="43.18853826872652" lon="11.715287505255063"><ele>340.0</ele><time>2026-03-22T07:23:32Z</time></trkpt><trkpt lat="43.1886506072114" lon="11.715245102169705"><ele>340.0</ele><time>2026-03-22T07:23:33Z</time></trkpt><trkpt lat="43.188788580412364" lon="11.715211633068403"><ele>340.0</ele><time>2026-03-22T07:23:34Z</time></trkpt><trkpt lat="43.18889890611505" lon="11.71519080257475"><ele>340.0</ele><time>2026-03-22T07:23:35Z</time></trkpt><trkpt lat="43.18900218076063" lon="11.715141431760486"><ele>340.0</ele><time>2026-03-22T07:23:36Z</time></trkpt><trkpt lat="43.18910782704507" lon="11.715107214221934"><ele>340.0</ele><time>2026-03-22T07:23:37Z</time></trkpt><trkpt lat="43.18922329595407" lon="11.715102032755413"><ele>340.0</ele><time>2026-03-22T07:23:38Z</time></trkpt><trkpt lat="43.18932671006606" lon="11.71509030385738"><ele>337.8</ele><time>2026-03-22T07:23:39Z</time></trkpt><trkpt lat="43.189431360491376" lon="11.715017852207804"><ele>335.6</ele><time>2026-03-22T07:23:41Z</time></trkpt><trkpt lat="43.18948801535141" lon="11.714939700364086"><ele>333.4</ele><time>2026-03-22T07:23:42Z</time></trkpt><trkpt lat="43.18953456691957" lon="11.714850004182207"><ele>331.2</ele><time>2026-03-22T07:23:43Z</time></trkpt><trkpt lat="43.18952573673316" lon="11.714680458858131"><ele>329.0</ele><time>2026-03-22T07:23:45Z</time></trkpt><trkpt lat="43.18948546673483" lon="11.714573000100001"><ele>329.0</ele><time>2026-03-22T07:23:46Z</time></trkpt><trkpt lat="43.189424758421644" lon="11.714472316106864"><ele>329.0</ele><time>2026-03-22T07:23:47Z</time></trkpt><trkpt lat="43.189378565253115" lon="11.714328390420242"><ele>329.0</ele><time>2026-03-22T07:23:48Z</time></trkpt><trkpt lat="43.18935552747647" lon="11.714218930644297"><ele>329.0</ele><time>2026-03-22T07:23:49Z</time></trkpt><trkpt lat="43.189333552302614" lon="11.714108190586016"><ele>329.0</ele><time>2026-03-22T07:23:50Z</time></trkpt><trkpt lat="43.18924449091811" lon="11.714006843796257"><ele>329.0</ele><time>2026-03-22T07:23:52Z</time></trkpt><trkpt lat="43.18915550492526" lon="11.71395232590794"><ele>329.0</ele><time>2026-03-22T07:23:53Z</time></trkpt><trkpt lat="43.189074234114415" lon="11.713865167791592"><ele>329.0</ele><time>2026-03-22T07:23:54Z</time></trkpt><trkpt lat="43.18905841973781" lon="11.713771797229898"><ele>329.0</ele><time>2026-03-22T07:23:56Z</time></trkpt><trkpt lat="43.189108659885996" lon="11.713717671036113"><ele>329.0</ele><time>2026-03-22T07:23:56.999Z</time></trkpt><trkpt lat="43.189158003474446" lon="11.713636581758424"><ele>329.0</ele><time>2026-03-22T07:23:57.999Z</time></trkpt><trkpt lat="43.18923896834659" lon="11.713509447376373"><ele>327.0</ele><time>2026-03-22T07:23:58.999Z</time></trkpt><trkpt lat="43.18927632683794" lon="11.713386187548233"><ele>325.0</ele><time>2026-03-22T07:23:59.999Z</time></trkpt><trkpt lat="43.18931777709099" lon="11.713223499216346"><ele>323.0</ele><time>2026-03-22T07:24:01.999Z</time></trkpt><trkpt lat="43.18938156079347" lon="11.713138164260375"><ele>321.0</ele><time>2026-03-22T07:24:03.999Z</time></trkpt><trkpt lat="43.18946413720349" lon="11.713198876582746"><ele>319.0</ele><time>2026-03-22T07:24:05.999Z</time></trkpt><trkpt lat="43.18958516564882" lon="11.713188381069978"><ele>319.0</ele><time>2026-03-22T07:24:08.999Z</time></trkpt><trkpt lat="43.18967485495474" lon="11.713142993187715"><ele>319.0</ele><time>2026-03-22T07:24:09.999Z</time></trkpt><trkpt lat="43.18974799761301" lon="11.71309179227425"><ele>319.0</ele><time>2026-03-22T07:24:10.999Z</time></trkpt><trkpt lat="43.18985895413985" lon="11.713015615603696"><ele>319.0</ele><time>2026-03-22T07:24:12.999Z</time></trkpt><trkpt lat="43.18992702509218" lon="11.712968467966698"><ele>319.0</ele><time>2026-03-22T07:24:13.999Z</time></trkpt><trkpt lat="43.189986447859276" lon="11.712933244302675"><ele>319.0</ele><time>2026-03-22T07:24:14.999Z</time></trkpt><trkpt lat="43.19009589640132" lon="11.712840355152668"><ele>317.66666666666663</ele><time>2026-03-22T07:24:16.999Z</time></trkpt><trkpt lat="43.19016397025929" lon="11.71276182692941"><ele>316.3333333333333</ele><time>2026-03-22T07:24:17.999Z</time></trkpt><trkpt lat="43.19025957975185" lon="11.712683803765277"><ele>315.0</ele><time>2026-03-22T07:24:18.999Z</time></trkpt><trkpt lat="43.19032859647983" lon="11.712607558271811"><ele>313.6666666666667</ele><time>2026-03-22T07:24:19.999Z</time></trkpt><trkpt lat="43.19040178932928" lon="11.71253646358556"><ele>312.33333333333337</ele><time>2026-03-22T07:24:20.999Z</time></trkpt><trkpt lat="43.1904333911483" lon="11.712453482692295"><ele>311.0</ele><time>2026-03-22T07:24:21.999Z</time></trkpt><trkpt lat="43.1904697179228" lon="11.712377345134739"><ele>310.6666666666667</ele><time>2026-03-22T07:24:22.999Z</time></trkpt><trkpt lat="43.1905820470307" lon="11.712384205393953"><ele>310.33333333333337</ele><time>2026-03-22T07:24:24.999Z</time></trkpt><trkpt lat="43.19063841815763" lon="11.712430030191582"><ele>310.0</ele><time>2026-03-22T07:24:25.999Z</time></trkpt><trkpt lat="43.19069286370473" lon="11.71238129937287"><ele>309.6666666666667</ele><time>2026-03-22T07:24:27.999Z</time></trkpt><trkpt lat="43.19076426817515" lon="11.712301899308189"><ele>309.3333333333333</ele><time>2026-03-22T07:24:28.999Z</time></trkpt><trkpt lat="43.19083758259027" lon="11.712280423545216"><ele>309.0</ele><time>2026-03-22T07:24:29.999Z</time></trkpt><trkpt lat="43.19092615427509" lon="11.712189311106155"><ele>307.6666666666667</ele><time>2026-03-22T07:24:31.999Z</time></trkpt><trkpt lat="43.19094592969135" lon="11.712105261752642"><ele>306.3333333333333</ele><time>2026-03-22T07:24:32.999Z</time></trkpt><trkpt lat="43.19096360199817" lon="11.711984947256282"><ele>305.0</ele><time>2026-03-22T07:24:33.999Z</time></trkpt><trkpt lat="43.190983411263325" lon="11.711893746279188"><ele>303.66666666666663</ele><time>2026-03-22T07:24:34.999Z</time></trkpt><trkpt lat="43.191027594430345" lon="11.71182998471643"><ele>302.3333333333333</ele><time>2026-03-22T07:24:35.999Z</time></trkpt><trkpt lat="43.19110101181108" lon="11.711821859536741"><ele>301.0</ele><time>2026-03-22T07:24:36.999Z</time></trkpt><trkpt lat="43.19121229151616" lon="11.711838597438277"><ele>301.0</ele><time>2026-03-22T07:24:37.999Z</time></trkpt><trkpt lat="43.19134079773628" lon="11.711864985689258"><ele>301.0</ele><time>2026-03-22T07:24:38.999Z</time></trkpt><trkpt lat="43.191471927923196" lon="11.711882307099122"><ele>301.0</ele><time>2026-03-22T07:24:39.999Z</time></trkpt><trkpt lat="43.19160352327942" lon="11.711887540909457"><ele>301.0</ele><time>2026-03-22T07:24:40.999Z</time></trkpt><trkpt lat="43.191736288377875" lon="11.711897472586655"><ele>299.8</ele><time>2026-03-22T07:24:41.999Z</time></trkpt><trkpt lat="43.19186312034514" lon="11.711904179311592"><ele>298.6</ele><time>2026-03-22T07:24:42.999Z</time></trkpt><trkpt lat="43.191974458981676" lon="11.71191023163978"><ele>297.4</ele><time>2026-03-22T07:24:43.999Z</time></trkpt><trkpt lat="43.192072825611135" lon="11.711916619885615"><ele>296.2</ele><time>2026-03-22T07:24:44.999Z</time></trkpt><trkpt lat="43.19215588200385" lon="11.711924094271696"><ele>295.0</ele><time>2026-03-22T07:24:45.999Z</time></trkpt><trkpt lat="43.192259890300356" lon="11.712037245961236"><ele>295.0</ele><time>2026-03-22T07:24:47.999Z</time></trkpt><trkpt lat="43.192295055428595" lon="11.712131706349261"><ele>295.0</ele><time>2026-03-22T07:24:48.999Z</time></trkpt><trkpt lat="43.192287051171846" lon="11.711965475302447"><ele>295.0</ele><time>2026-03-22T07:24:53.999Z</time></trkpt><trkpt lat="43.192242607785964" lon="11.711851834833125"><ele>295.0</ele><time>2026-03-22T07:24:54.998Z</time></trkpt><trkpt lat="43.19219272903409" lon="11.711737033452424"><ele>295.0</ele><time>2026-03-22T07:24:55.998Z</time></trkpt><trkpt lat="43.19216501047763" lon="11.711637724611771"><ele>295.0</ele><time>2026-03-22T07:24:56.998Z</time></trkpt><trkpt lat="43.19215446319863" lon="11.711522170610584"><ele>295.0</ele><time>2026-03-22T07:24:57.998Z</time></trkpt><trkpt lat="43.192151321381225" lon="11.711352372371504"><ele>295.0</ele><time>2026-03-22T07:24:58.998Z</time></trkpt><trkpt lat="43.1921308289946" lon="11.711176924345155"><ele>295.0</ele><time>2026-03-22T07:24:59.998Z</time></trkpt><trkpt lat="43.19211074032474" lon="11.711006873344656"><ele>295.75</ele><time>2026-03-22T07:25:00.998Z</time></trkpt><trkpt lat="43.1921097245064" lon="11.710841665987248"><ele>296.5</ele><time>2026-03-22T07:25:01.998Z</time></trkpt><trkpt lat="43.19213050171295" lon="11.710686640619521"><ele>297.25</ele><time>2026-03-22T07:25:02.998Z</time></trkpt><trkpt lat="43.19217757694145" lon="11.710529563659293"><ele>298.0</ele><time>2026-03-22T07:25:03.998Z</time></trkpt><trkpt lat="43.19223285265097" lon="11.710358373190365"><ele>299.5</ele><time>2026-03-22T07:25:04.998Z</time></trkpt><trkpt lat="43.192265545298" lon="11.710181170795144"><ele>301.0</ele><time>2026-03-22T07:25:05.998Z</time></trkpt><trkpt lat="43.19229584304138" lon="11.710002769243776"><ele>302.5</ele><time>2026-03-22T07:25:06.998Z</time></trkpt><trkpt lat="43.19234697747034" lon="11.709823701056216"><ele>304.0</ele><time>2026-03-22T07:25:07.998Z</time></trkpt><trkpt lat="43.19240423932324" lon="11.709670011642748"><ele>304.0</ele><time>2026-03-22T07:25:08.998Z</time></trkpt><trkpt lat="43.192454107260616" lon="11.709561969006023"><ele>304.0</ele><time>2026-03-22T07:25:09.998Z</time></trkpt><trkpt lat="43.192524706100436" lon="11.709477446624984"><ele>304.0</ele><time>2026-03-22T07:25:10.998Z</time></trkpt><trkpt lat="43.19261689657772" lon="11.709400883162388"><ele>304.0</ele><time>2026-03-22T07:25:11.998Z</time></trkpt><trkpt lat="43.19272093397242" lon="11.7093303480522"><ele>304.0</ele><time>2026-03-22T07:25:12.998Z</time></trkpt><trkpt lat="43.19283162067683" lon="11.709276110920685"><ele>306.0</ele><time>2026-03-22T07:25:13.998Z</time></trkpt><trkpt lat="43.19294252222558" lon="11.709230605307672"><ele>308.0</ele><time>2026-03-22T07:25:14.998Z</time></trkpt><trkpt lat="43.19306093794742" lon="11.709186274430422"><ele>310.0</ele><time>2026-03-22T07:25:15.998Z</time></trkpt><trkpt lat="43.19318663846562" lon="11.709147404910834"><ele>312.0</ele><time>2026-03-22T07:25:16.998Z</time></trkpt><trkpt lat="43.19331882764793" lon="11.709117366237868"><ele>313.25</ele><time>2026-03-22T07:25:17.998Z</time></trkpt><trkpt lat="43.19345515296497" lon="11.709081186782578"><ele>314.5</ele><time>2026-03-22T07:25:18.998Z</time></trkpt><trkpt lat="43.19359393273067" lon="11.709041916024463"><ele>315.75</ele><time>2026-03-22T07:25:20Z</time></trkpt><trkpt lat="43.193734845690685" lon="11.708998620887154"><ele>317.0</ele><time>2026-03-22T07:25:21Z</time></trkpt><trkpt lat="43.193875602756506" lon="11.708941152710938"><ele>317.0</ele><time>2026-03-22T07:25:22Z</time></trkpt><trkpt lat="43.19398777121505" lon="11.708872043398415"><ele>317.0</ele><time>2026-03-22T07:25:23Z</time></trkpt><trkpt lat="43.19408392241532" lon="11.708794678428477"><ele>317.0</ele><time>2026-03-22T07:25:24Z</time></trkpt><trkpt lat="43.19416942341092" lon="11.708710874590638"><ele>317.0</ele><time>2026-03-22T07:25:25Z</time></trkpt><trkpt lat="43.19423841836817" lon="11.708633066722973"><ele>317.0</ele><time>2026-03-22T07:25:26Z</time></trkpt><trkpt lat="43.19428431029709" lon="11.70856037453985"><ele>321.25</ele><time>2026-03-22T07:25:27Z</time></trkpt><trkpt lat="43.19428394304656" lon="11.708387338720764"><ele>325.5</ele><time>2026-03-22T07:25:29Z</time></trkpt><trkpt lat="43.19424639613965" lon="11.70826089091838"><ele>329.75</ele><time>2026-03-22T07:25:30Z</time></trkpt><trkpt lat="43.19421115880283" lon="11.708112052670895"><ele>334.0</ele><time>2026-03-22T07:25:31Z</time></trkpt><trkpt lat="43.19417836369472" lon="11.707926767375806"><ele>336.5</ele><time>2026-03-22T07:25:32Z</time></trkpt><trkpt lat="43.194142075606095" lon="11.707733533818152"><ele>339.0</ele><time>2026-03-22T07:25:33Z</time></trkpt><trkpt lat="43.19411475186863" lon="11.707535784893947"><ele>341.5</ele><time>2026-03-22T07:25:34Z</time></trkpt><trkpt lat="43.19409331543946" lon="11.70737583295692"><ele>344.0</ele><time>2026-03-22T07:25:35Z</time></trkpt><trkpt lat="43.19407982375321" lon="11.707256580637699"><ele>344.0</ele><time>2026-03-22T07:25:36Z</time></trkpt><trkpt lat="43.19409110489341" lon="11.707148219375224"><ele>344.0</ele><time>2026-03-22T07:25:37Z</time></trkpt><trkpt lat="43.19414016488201" lon="11.707055210142116"><ele>344.0</ele><time>2026-03-22T07:25:38Z</time></trkpt><trkpt lat="43.194197508453485" lon="11.70698305552486"><ele>344.0</ele><time>2026-03-22T07:25:39Z</time></trkpt><trkpt lat="43.194247171481685" lon="11.706919963567257"><ele>344.0</ele><time>2026-03-22T07:25:40Z</time></trkpt><trkpt lat="43.19431571374881" lon="11.706878340270514"><ele>344.0</ele><time>2026-03-22T07:25:42Z</time></trkpt><trkpt lat="43.194387297065894" lon="11.706726769567362"><ele>344.83333333333337</ele><time>2026-03-22T07:25:44Z</time></trkpt><trkpt lat="43.194434476217175" lon="11.706649067057558"><ele>345.6666666666667</ele><time>2026-03-22T07:25:45Z</time></trkpt><trkpt lat="43.1945132410867" lon="11.706607366367718"><ele>346.5</ele><time>2026-03-22T07:25:46Z</time></trkpt><trkpt lat="43.19458781845703" lon="11.706499397235934"><ele>347.3333333333333</ele><time>2026-03-22T07:25:48Z</time></trkpt><trkpt lat="43.19459464052214" lon="11.706403103198031"><ele>348.16666666666663</ele><time>2026-03-22T07:25:49Z</time></trkpt><trkpt lat="43.194627056538096" lon="11.7062944040188"><ele>349.0</ele><time>2026-03-22T07:25:50Z</time></trkpt><trkpt lat="43.19467137071741" lon="11.706179907958102"><ele>350.0</ele><time>2026-03-22T07:25:51Z</time></trkpt><trkpt lat="43.194721699557356" lon="11.706040876758737"><ele>351.0</ele><time>2026-03-22T07:25:52Z</time></trkpt><trkpt lat="43.19475912599854" lon="11.705900451659634"><ele>352.0</ele><time>2026-03-22T07:25:53Z</time></trkpt><trkpt lat="43.19476349669094" lon="11.705771999233352"><ele>353.0</ele><time>2026-03-22T07:25:54Z</time></trkpt><trkpt lat="43.19477280861222" lon="11.705670522854694"><ele>354.0</ele><time>2026-03-22T07:25:55Z</time></trkpt><trkpt lat="43.194805663118096" lon="11.705554309772916"><ele>358.79999999999995</ele><time>2026-03-22T07:25:56Z</time></trkpt><trkpt lat="43.19485868359266" lon="11.7054399347365"><ele>363.59999999999997</ele><time>2026-03-22T07:25:57Z</time></trkpt><trkpt lat="43.19489303280781" lon="11.705341811812543"><ele>368.4</ele><time>2026-03-22T07:25:58Z</time></trkpt><trkpt lat="43.19489549956626" lon="11.705224554390037"><ele>373.2</ele><time>2026-03-22T07:25:59Z</time></trkpt><trkpt lat="43.19487016929306" lon="11.705072704762882"><ele>378.0</ele><time>2026-03-22T07:26:00Z</time></trkpt><trkpt lat="43.19484650244936" lon="11.704915886082375"><ele>378.3333333333333</ele><time>2026-03-22T07:26:00.999Z</time></trkpt><trkpt lat="43.19485878923258" lon="11.704791162771073"><ele>378.6666666666667</ele><time>2026-03-22T07:26:01.999Z</time></trkpt><trkpt lat="43.19489145132193" lon="11.704694468574894"><ele>379.0</ele><time>2026-03-22T07:26:02.999Z</time></trkpt><trkpt lat="43.19493338606925" lon="11.704621841609358"><ele>379.33333333333337</ele><time>2026-03-22T07:26:03.999Z</time></trkpt><trkpt lat="43.195005603761054" lon="11.70454605772172"><ele>379.6666666666667</ele><time>2026-03-22T07:26:04.999Z</time></trkpt><trkpt lat="43.195093104382636" lon="11.704493105268577"><ele>380.0</ele><time>2026-03-22T07:26:05.999Z</time></trkpt><trkpt lat="43.195195729224054" lon="11.704477702597126"><ele>380.0</ele><time>2026-03-22T07:26:06.999Z</time></trkpt><trkpt lat="43.19531332464555" lon="11.70448609297123"><ele>380.0</ele><time>2026-03-22T07:26:07.999Z</time></trkpt><trkpt lat="43.19543608627546" lon="11.704514890856174"><ele>380.0</ele><time>2026-03-22T07:26:08.999Z</time></trkpt><trkpt lat="43.19553367514964" lon="11.704555749399633"><ele>380.0</ele><time>2026-03-22T07:26:09.999Z</time></trkpt><trkpt lat="43.19560593902864" lon="11.704539985482898"><ele>380.0</ele><time>2026-03-22T07:26:10.999Z</time></trkpt><trkpt lat="43.19570483720866" lon="11.704494065616755"><ele>382.6</ele><time>2026-03-22T07:26:11.999Z</time></trkpt><trkpt lat="43.19578586802405" lon="11.704454090030426"><ele>385.2</ele><time>2026-03-22T07:26:12.999Z</time></trkpt><trkpt lat="43.195864877642954" lon="11.704466970863287"><ele>387.79999999999995</ele><time>2026-03-22T07:26:13.999Z</time></trkpt><trkpt lat="43.1959655176265" lon="11.704500620346856"><ele>390.4</ele><time>2026-03-22T07:26:14.999Z</time></trkpt><trkpt lat="43.19609619127355" lon="11.704490560124011"><ele>393.0</ele><time>2026-03-22T07:26:15.999Z</time></trkpt><trkpt lat="43.196233716491356" lon="11.704468257869959"><ele>393.0</ele><time>2026-03-22T07:26:16.999Z</time></trkpt><trkpt lat="43.19636003659013" lon="11.704459877030372"><ele>393.0</ele><time>2026-03-22T07:26:17.999Z</time></trkpt><trkpt lat="43.19643159873116" lon="11.704454751461165"><ele>393.0</ele><time>2026-03-22T07:26:18.999Z</time></trkpt><trkpt lat="43.196464683287125" lon="11.70433234633725"><ele>393.0</ele><time>2026-03-22T07:26:20.999Z</time></trkpt><trkpt lat="43.19645519302909" lon="11.704226032062545"><ele>393.0</ele><time>2026-03-22T07:26:21.999Z</time></trkpt><trkpt lat="43.19644068248809" lon="11.704089858430468"><ele>392.25</ele><time>2026-03-22T07:26:22.999Z</time></trkpt><trkpt lat="43.19643373479438" lon="11.703924191667328"><ele>391.5</ele><time>2026-03-22T07:26:23.999Z</time></trkpt><trkpt lat="43.19642657423448" lon="11.703761368971463"><ele>390.75</ele><time>2026-03-22T07:26:24.999Z</time></trkpt><trkpt lat="43.19643454612702" lon="11.703584048621597"><ele>390.0</ele><time>2026-03-22T07:26:25.999Z</time></trkpt><trkpt lat="43.19644166167461" lon="11.70340586118686"><ele>390.0</ele><time>2026-03-22T07:26:26.999Z</time></trkpt><trkpt lat="43.19645905437349" lon="11.703251199516982"><ele>390.0</ele><time>2026-03-22T07:26:27.999Z</time></trkpt><trkpt lat="43.196488676187414" lon="11.703121965853455"><ele>390.0</ele><time>2026-03-22T07:26:28.999Z</time></trkpt><trkpt lat="43.196535881084785" lon="11.702984236100807"><ele>390.0</ele><time>2026-03-22T07:26:29.999Z</time></trkpt><trkpt lat="43.1965997963974" lon="11.702856505961533"><ele>390.0</ele><time>2026-03-22T07:26:30.999Z</time></trkpt><trkpt lat="43.19666153049365" lon="11.702736310780512"><ele>392.6</ele><time>2026-03-22T07:26:31.999Z</time></trkpt><trkpt lat="43.19671296924089" lon="11.702616914952344"><ele>395.2</ele><time>2026-03-22T07:26:32.999Z</time></trkpt><trkpt lat="43.196768435273455" lon="11.702501082179479"><ele>397.79999999999995</ele><time>2026-03-22T07:26:33.999Z</time></trkpt><trkpt lat="43.19682158943116" lon="11.70238299760901"><ele>400.4</ele><time>2026-03-22T07:26:34.999Z</time></trkpt><trkpt lat="43.19689971443367" lon="11.702307911697616"><ele>403.0</ele><time>2026-03-22T07:26:35.999Z</time></trkpt><trkpt lat="43.19698903273492" lon="11.702221969112287"><ele>403.0</ele><time>2026-03-22T07:26:36.999Z</time></trkpt><trkpt lat="43.19709018960225" lon="11.702123240470495"><ele>403.0</ele><time>2026-03-22T07:26:37.999Z</time></trkpt><trkpt lat="43.19717148423053" lon="11.702027830733238"><ele>403.0</ele><time>2026-03-22T07:26:38.999Z</time></trkpt><trkpt lat="43.197228754916345" lon="11.701952109346076"><ele>403.0</ele><time>2026-03-22T07:26:39.999Z</time></trkpt><trkpt lat="43.19728138379166" lon="11.701828253387847"><ele>403.0</ele><time>2026-03-22T07:26:40.999Z</time></trkpt><trkpt lat="43.197360720876965" lon="11.701707862351887"><ele>405.0</ele><time>2026-03-22T07:26:41.999Z</time></trkpt><trkpt lat="43.19743944447294" lon="11.70158161670967"><ele>407.0</ele><time>2026-03-22T07:26:42.999Z</time></trkpt><trkpt lat="43.19747736776789" lon="11.701450715413852"><ele>409.0</ele><time>2026-03-22T07:26:43.999Z</time></trkpt><trkpt lat="43.1975409795729" lon="11.701364520297323"><ele>411.0</ele><time>2026-03-22T07:26:44.999Z</time></trkpt><trkpt lat="43.19760789282061" lon="11.701283714925767"><ele>413.0</ele><time>2026-03-22T07:26:45.999Z</time></trkpt><trkpt lat="43.19769439252788" lon="11.701184929417003"><ele>413.0</ele><time>2026-03-22T07:26:46.999Z</time></trkpt><trkpt lat="43.19777974405211" lon="11.70108899235926"><ele>413.0</ele><time>2026-03-22T07:26:47.999Z</time></trkpt><trkpt lat="43.197856509890265" lon="11.700998229503176"><ele>413.0</ele><time>2026-03-22T07:26:48.999Z</time></trkpt><trkpt lat="43.19793657889368" lon="11.700938644407103"><ele>413.0</ele><time>2026-03-22T07:26:49.999Z</time></trkpt><trkpt lat="43.198028563252066" lon="11.700907217606304"><ele>413.0</ele><time>2026-03-22T07:26:50.999Z</time></trkpt><trkpt lat="43.19810564674117" lon="11.700873417058682"><ele>413.49999999999994</ele><time>2026-03-22T07:26:51.999Z</time></trkpt><trkpt lat="43.19816736720089" lon="11.700833889647292"><ele>414.0</ele><time>2026-03-22T07:26:52.999Z</time></trkpt><trkpt lat="43.19820919986033" lon="11.700765055345979"><ele>414.5</ele><time>2026-03-22T07:26:53.999Z</time></trkpt><trkpt lat="43.19827475183724" lon="11.700687525677452"><ele>415.0</ele><time>2026-03-22T07:26:54.999Z</time></trkpt><trkpt lat="43.198307465680166" lon="11.70061353214423"><ele>415.49999999999994</ele><time>2026-03-22T07:26:55.999Z</time></trkpt><trkpt lat="43.198293131438476" lon="11.700423989215128"><ele>416.0</ele><time>2026-03-22T07:26:57.999Z</time></trkpt><trkpt lat="43.19825171980897" lon="11.700296306694144"><ele>416.20000000000005</ele><time>2026-03-22T07:26:58.999Z</time></trkpt><trkpt lat="43.198181184153476" lon="11.70014843923713"><ele>416.40000000000003</ele><time>2026-03-22T07:26:59.998Z</time></trkpt><trkpt lat="43.198129846637414" lon="11.700009146251146"><ele>416.6</ele><time>2026-03-22T07:27:00.998Z</time></trkpt><trkpt lat="43.198111050320435" lon="11.69988573245565"><ele>416.8</ele><time>2026-03-22T07:27:01.998Z</time></trkpt><trkpt lat="43.19815013859509" lon="11.699784691808667"><ele>417.0</ele><time>2026-03-22T07:27:03.998Z</time></trkpt><trkpt lat="43.19824909743221" lon="11.699731784560381"><ele>417.0</ele><time>2026-03-22T07:27:05.998Z</time></trkpt><trkpt lat="43.198387063275376" lon="11.699740746482314"><ele>417.0</ele><time>2026-03-22T07:27:07.998Z</time></trkpt><trkpt lat="43.198492674525816" lon="11.699768518342411"><ele>417.0</ele><time>2026-03-22T07:27:08.998Z</time></trkpt><trkpt lat="43.1986126663524" lon="11.699800733797737"><ele>417.0</ele><time>2026-03-22T07:27:09.998Z</time></trkpt><trkpt lat="43.1987040464581" lon="11.699814613524934"><ele>417.0</ele><time>2026-03-22T07:27:10.998Z</time></trkpt><trkpt lat="43.19877947371999" lon="11.699830648450448"><ele>417.0</ele><time>2026-03-22T07:27:11.998Z</time></trkpt><trkpt lat="43.19884266380549" lon="11.699843419109582"><ele>417.0</ele><time>2026-03-22T07:27:12.998Z</time></trkpt><trkpt lat="43.198949636466395" lon="11.699857669676572"><ele>417.0</ele><time>2026-03-22T07:27:14.998Z</time></trkpt><trkpt lat="43.19902294620334" lon="11.699894572105814"><ele>417.0</ele><time>2026-03-22T07:27:16.998Z</time></trkpt><trkpt lat="43.19910604258346" lon="11.699941557035922"><ele>417.0</ele><time>2026-03-22T07:27:18.998Z</time></trkpt><trkpt lat="43.199188543614845" lon="11.69998802616782"><ele>416.5</ele><time>2026-03-22T07:27:20.998Z</time></trkpt><trkpt lat="43.199280926128964" lon="11.700035064700208"><ele>416.0</ele><time>2026-03-22T07:27:22.998Z</time></trkpt><trkpt lat="43.19934768254375" lon="11.700080303877284"><ele>415.5</ele><time>2026-03-22T07:27:23.998Z</time></trkpt><trkpt lat="43.199419747315524" lon="11.700133528245704"><ele>415.0</ele><time>2026-03-22T07:27:24.998Z</time></trkpt><trkpt lat="43.19950082025216" lon="11.70019589137583"><ele>414.5</ele><time>2026-03-22T07:27:26Z</time></trkpt><trkpt lat="43.199570699251005" lon="11.700245479794281"><ele>414.0</ele><time>2026-03-22T07:27:27Z</time></trkpt><trkpt lat="43.1996326197914" lon="11.700306198189956"><ele>414.0</ele><time>2026-03-22T07:27:28Z</time></trkpt><trkpt lat="43.19969141714418" lon="11.700357723503666"><ele>414.0</ele><time>2026-03-22T07:27:29Z</time></trkpt><trkpt lat="43.19978655002012" lon="11.70047199033808"><ele>414.0</ele><time>2026-03-22T07:27:31Z</time></trkpt><trkpt lat="43.19982252578174" lon="11.70058150253468"><ele>414.0</ele><time>2026-03-22T07:27:32Z</time></trkpt><trkpt lat="43.19985314465481" lon="11.70071738804264"><ele>414.0</ele><time>2026-03-22T07:27:33Z</time></trkpt><trkpt lat="43.19987356988247" lon="11.700869174546204"><ele>413.6666666666667</ele><time>2026-03-22T07:27:34Z</time></trkpt><trkpt lat="43.19989280770565" lon="11.701012817500677"><ele>413.33333333333337</ele><time>2026-03-22T07:27:35Z</time></trkpt><trkpt lat="43.19990986023191" lon="11.701124245181784"><ele>413.0</ele><time>2026-03-22T07:27:36Z</time></trkpt><trkpt lat="43.19992706729291" lon="11.701210612704907"><ele>412.6666666666667</ele><time>2026-03-22T07:27:37Z</time></trkpt><trkpt lat="43.2000067264226" lon="11.70129015628062"><ele>412.33333333333337</ele><time>2026-03-22T07:27:39Z</time></trkpt><trkpt lat="43.20007224450428" lon="11.701311581144603"><ele>412.0</ele><time>2026-03-22T07:27:40Z</time></trkpt><trkpt lat="43.200142647975724" lon="11.701319023810322"><ele>410.83333333333337</ele><time>2026-03-22T07:27:41Z</time></trkpt><trkpt lat="43.200207756389815" lon="11.701320362145635"><ele>409.6666666666667</ele><time>2026-03-22T07:27:42Z</time></trkpt><trkpt lat="43.200272043479174" lon="11.701398744304653"><ele>408.5</ele><time>2026-03-22T07:27:45Z</time></trkpt><trkpt lat="43.20025984773747" lon="11.70153124914663"><ele>407.33333333333337</ele><time>2026-03-22T07:27:47Z</time></trkpt><trkpt lat="43.2002554167662" lon="11.70164482351439"><ele>406.1666666666667</ele><time>2026-03-22T07:27:49Z</time></trkpt><trkpt lat="43.20029080606427" lon="11.701734029982294"><ele>405.0</ele><time>2026-03-22T07:27:51Z</time></trkpt><trkpt lat="43.20040763239318" lon="11.701836470910031"><ele>405.0</ele><time>2026-03-22T07:27:53Z</time></trkpt><trkpt lat="43.200505132233666" lon="11.701902924418592"><ele>405.0</ele><time>2026-03-22T07:27:54Z</time></trkpt><trkpt lat="43.20060092931554" lon="11.70190218886588"><ele>405.0</ele><time>2026-03-22T07:27:55Z</time></trkpt><trkpt lat="43.20073377114147" lon="11.701924231298662"><ele>405.0</ele><time>2026-03-22T07:27:56Z</time></trkpt><trkpt lat="43.20084602772427" lon="11.701952438260198"><ele>404.3333333333333</ele><time>2026-03-22T07:27:57Z</time></trkpt><trkpt lat="43.20094406845673" lon="11.701937831619997"><ele>403.66666666666663</ele><time>2026-03-22T07:27:58Z</time></trkpt><trkpt lat="43.20101250211275" lon="11.701944092703666"><ele>403.0</ele><time>2026-03-22T07:27:59Z</time></trkpt><trkpt lat="43.20108210908708" lon="11.701943345666876"><ele>402.3333333333333</ele><time>2026-03-22T07:28:00Z</time></trkpt><trkpt lat="43.201159039042196" lon="11.701896027184194"><ele>401.66666666666663</ele><time>2026-03-22T07:28:01Z</time></trkpt><trkpt lat="43.20123724212929" lon="11.701814784204055"><ele>401.0</ele><time>2026-03-22T07:28:02Z</time></trkpt><trkpt lat="43.20130304401247" lon="11.70172066918636"><ele>401.0</ele><time>2026-03-22T07:28:03Z</time></trkpt><trkpt lat="43.20134493644145" lon="11.701587413631975"><ele>401.0</ele><time>2026-03-22T07:28:04Z</time></trkpt><trkpt lat="43.201404801092025" lon="11.701444380648502"><ele>401.0</ele><time>2026-03-22T07:28:05Z</time></trkpt><trkpt lat="43.20149790354839" lon="11.701318457120632"><ele>401.0</ele><time>2026-03-22T07:28:06Z</time></trkpt><trkpt lat="43.2015858931933" lon="11.701202027651775"><ele>400.8</ele><time>2026-03-22T07:28:07Z</time></trkpt><trkpt lat="43.20165674879307" lon="11.701073129740124"><ele>400.6</ele><time>2026-03-22T07:28:08Z</time></trkpt><trkpt lat="43.20170494274416" lon="11.700943416353278"><ele>400.4</ele><time>2026-03-22T07:28:09Z</time></trkpt><trkpt lat="43.20172418060326" lon="11.700809040979662"><ele>400.2</ele><time>2026-03-22T07:28:10Z</time></trkpt><trkpt lat="43.201718982694395" lon="11.700637734224038"><ele>400.0</ele><time>2026-03-22T07:28:11Z</time></trkpt><trkpt lat="43.201707827825594" lon="11.700457605516325"><ele>400.0</ele><time>2026-03-22T07:28:11.999Z</time></trkpt><trkpt lat="43.20167257353926" lon="11.700290098144634"><ele>400.0</ele><time>2026-03-22T07:28:12.999Z</time></trkpt><trkpt lat="43.20165715590142" lon="11.700138564906775"><ele>400.0</ele><time>2026-03-22T07:28:13.999Z</time></trkpt><trkpt lat="43.20168315330415" lon="11.699982096398635"><ele>400.0</ele><time>2026-03-22T07:28:14.999Z</time></trkpt><trkpt lat="43.201696813015154" lon="11.699832184277376"><ele>400.6</ele><time>2026-03-22T07:28:15.999Z</time></trkpt><trkpt lat="43.20170815845546" lon="11.699663717739933"><ele>401.2</ele><time>2026-03-22T07:28:16.999Z</time></trkpt><trkpt lat="43.201725207949735" lon="11.699536369509744"><ele>401.79999999999995</ele><time>2026-03-22T07:28:17.999Z</time></trkpt><trkpt lat="43.20172791895509" lon="11.699399636219386"><ele>402.4</ele><time>2026-03-22T07:28:18.999Z</time></trkpt><trkpt lat="43.20174289070624" lon="11.699256443814084"><ele>403.0</ele><time>2026-03-22T07:28:19.999Z</time></trkpt><trkpt lat="43.20176488483333" lon="11.699130854704132"><ele>403.4</ele><time>2026-03-22T07:28:20.999Z</time></trkpt><trkpt lat="43.20179488567472" lon="11.69901556800264"><ele>403.79999999999995</ele><time>2026-03-22T07:28:21.999Z</time></trkpt><trkpt lat="43.20194552557236" lon="11.698994023016553"><ele>404.2</ele><time>2026-03-22T07:28:24.999Z</time></trkpt><trkpt lat="43.20201336006698" lon="11.699047107013579"><ele>404.6</ele><time>2026-03-22T07:28:25.999Z</time></trkpt><trkpt lat="43.20209371394636" lon="11.699094510454998"><ele>405.0</ele><time>2026-03-22T07:28:26.999Z</time></trkpt><trkpt lat="43.20222446123063" lon="11.69915422078924"><ele>405.0</ele><time>2026-03-22T07:28:28.999Z</time></trkpt><trkpt lat="43.202303314801256" lon="11.699217187088353"><ele>405.0</ele><time>2026-03-22T07:28:29.999Z</time></trkpt><trkpt lat="43.20235944133294" lon="11.699298884762005"><ele>405.0</ele><time>2026-03-22T07:28:30.999Z</time></trkpt><trkpt lat="43.20241167356493" lon="11.699357007904652"><ele>405.0</ele><time>2026-03-22T07:28:31.999Z</time></trkpt><trkpt lat="43.20251336754481" lon="11.699369130449437"><ele>405.0</ele><time>2026-03-22T07:28:32.999Z</time></trkpt><trkpt lat="43.20257257777477" lon="11.69946768441804"><ele>405.0</ele><time>2026-03-22T07:28:33.999Z</time></trkpt><trkpt lat="43.202631913918914" lon="11.699597440637163"><ele>406.8</ele><time>2026-03-22T07:28:34.999Z</time></trkpt><trkpt lat="43.20271280138132" lon="11.69972002279084"><ele>408.6</ele><time>2026-03-22T07:28:35.999Z</time></trkpt><trkpt lat="43.20278240767181" lon="11.699810375234785"><ele>410.4</ele><time>2026-03-22T07:28:36.999Z</time></trkpt><trkpt lat="43.20285884054912" lon="11.699826811170645"><ele>412.2</ele><time>2026-03-22T07:28:37.999Z</time></trkpt><trkpt lat="43.202928831539296" lon="11.699827322768519"><ele>414.0</ele><time>2026-03-22T07:28:38.999Z</time></trkpt><trkpt lat="43.20301046972145" lon="11.699786288180736"><ele>414.00000000000006</ele><time>2026-03-22T07:28:39.999Z</time></trkpt><trkpt lat="43.203058411718146" lon="11.699716519971775"><ele>414.0</ele><time>2026-03-22T07:28:40.999Z</time></trkpt><trkpt lat="43.20311662674948" lon="11.699672730900541"><ele>414.0</ele><time>2026-03-22T07:28:41.999Z</time></trkpt><trkpt lat="43.20318381343069" lon="11.699657563542045"><ele>414.0</ele><time>2026-03-22T07:28:42.999Z</time></trkpt><trkpt lat="43.20325567124531" lon="11.699652050796288"><ele>414.0</ele><time>2026-03-22T07:28:43.999Z</time></trkpt><trkpt lat="43.20334939471475" lon="11.69959965455891"><ele>414.00000000000006</ele><time>2026-03-22T07:28:45.999Z</time></trkpt><trkpt lat="43.2034129911776" lon="11.699581171304981"><ele>414.0</ele><time>2026-03-22T07:28:46.999Z</time></trkpt><trkpt lat="43.203486555823204" lon="11.6995555817837"><ele>416.0</ele><time>2026-03-22T07:28:47.999Z</time></trkpt><trkpt lat="43.20354822548465" lon="11.699530731093637"><ele>418.0</ele><time>2026-03-22T07:28:48.999Z</time></trkpt><trkpt lat="43.203647534411985" lon="11.699607477507413"><ele>420.0</ele><time>2026-03-22T07:28:50.999Z</time></trkpt><trkpt lat="43.20381365185372" lon="11.699622106584414"><ele>422.0</ele><time>2026-03-22T07:28:53.999Z</time></trkpt><trkpt lat="43.20387919257059" lon="11.699618675156179"><ele>424.0</ele><time>2026-03-22T07:28:54.999Z</time></trkpt><trkpt lat="43.20396007586511" lon="11.699470846225514"><ele>423.50000000000006</ele><time>2026-03-22T07:28:56.999Z</time></trkpt><trkpt lat="43.204016318793016" lon="11.69940490306245"><ele>423.0</ele><time>2026-03-22T07:28:57.999Z</time></trkpt><trkpt lat="43.20408641715165" lon="11.69937781446791"><ele>422.5</ele><time>2026-03-22T07:28:58.999Z</time></trkpt><trkpt lat="43.20415906535149" lon="11.699396609099807"><ele>422.0</ele><time>2026-03-22T07:28:59.999Z</time></trkpt><trkpt lat="43.20424451281476" lon="11.699397701492714"><ele>421.50000000000006</ele><time>2026-03-22T07:29:00.999Z</time></trkpt><trkpt lat="43.204311858544706" lon="11.699283829327012"><ele>421.0</ele><time>2026-03-22T07:29:02.999Z</time></trkpt><trkpt lat="43.20436379372519" lon="11.69917758752"><ele>421.00000000000006</ele><time>2026-03-22T07:29:03.999Z</time></trkpt><trkpt lat="43.20441594683506" lon="11.699064972996856"><ele>421.0</ele><time>2026-03-22T07:29:04.999Z</time></trkpt><trkpt lat="43.20448592670726" lon="11.698942125161516"><ele>421.0</ele><time>2026-03-22T07:29:05.999Z</time></trkpt><trkpt lat="43.204542979026236" lon="11.698857005670689"><ele>421.0</ele><time>2026-03-22T07:29:06.999Z</time></trkpt><trkpt lat="43.204600623726066" lon="11.698817957317829"><ele>421.00000000000006</ele><time>2026-03-22T07:29:07.999Z</time></trkpt><trkpt lat="43.20465991886556" lon="11.698781495208715"><ele>421.0</ele><time>2026-03-22T07:29:08.999Z</time></trkpt><trkpt lat="43.20462816921613" lon="11.698657328878637"><ele>419.4</ele><time>2026-03-22T07:29:14.998Z</time></trkpt><trkpt lat="43.20463245400257" lon="11.698520611572608"><ele>417.8</ele><time>2026-03-22T07:29:16.998Z</time></trkpt><trkpt lat="43.20458632964667" lon="11.698428667108518"><ele>416.2</ele><time>2026-03-22T07:29:20.998Z</time></trkpt><trkpt lat="43.20447002316829" lon="11.698445774476756"><ele>414.59999999999997</ele><time>2026-03-22T07:29:22.998Z</time></trkpt><trkpt lat="43.20442295455605" lon="11.698367748045252"><ele>413.0</ele><time>2026-03-22T07:29:24.998Z</time></trkpt><trkpt lat="43.20440401403683" lon="11.698210150248398"><ele>413.0</ele><time>2026-03-22T07:29:26.998Z</time></trkpt><trkpt lat="43.204385380212436" lon="11.698079997535489"><ele>413.0</ele><time>2026-03-22T07:29:28.998Z</time></trkpt><trkpt lat="43.2043322611885" lon="11.697964698404856"><ele>413.0</ele><time>2026-03-22T07:29:30.998Z</time></trkpt><trkpt lat="43.20425823726991" lon="11.697890192833999"><ele>413.0</ele><time>2026-03-22T07:29:33Z</time></trkpt><trkpt lat="43.20418688647938" lon="11.697791248190638"><ele>413.0</ele><time>2026-03-22T07:29:36Z</time></trkpt><trkpt lat="43.2041154884302" lon="11.69772043725672"><ele>410.8333333333333</ele><time>2026-03-22T07:29:38Z</time></trkpt><trkpt lat="43.204052892966125" lon="11.697691482524604"><ele>408.66666666666663</ele><time>2026-03-22T07:29:40Z</time></trkpt><trkpt lat="43.20399796927735" lon="11.697606153449138"><ele>406.5</ele><time>2026-03-22T07:29:42Z</time></trkpt><trkpt lat="43.2039615569985" lon="11.697524632660004"><ele>404.33333333333337</ele><time>2026-03-22T07:29:44Z</time></trkpt><trkpt lat="43.20391613968777" lon="11.69745612703016"><ele>402.1666666666667</ele><time>2026-03-22T07:29:46Z</time></trkpt><trkpt lat="43.20385516453115" lon="11.697369645927632"><ele>400.0</ele><time>2026-03-22T07:29:49Z</time></trkpt><trkpt lat="43.20382376057543" lon="11.697239421756436"><ele>398.33333333333337</ele><time>2026-03-22T07:29:52Z</time></trkpt><trkpt lat="43.203798444776766" lon="11.697158810510281"><ele>396.6666666666667</ele><time>2026-03-22T07:29:54Z</time></trkpt><trkpt lat="43.203742228256026" lon="11.697114159331447"><ele>395.0</ele><time>2026-03-22T07:29:57Z</time></trkpt><trkpt lat="43.2037387371223" lon="11.696999058367247"><ele>393.33333333333337</ele><time>2026-03-22T07:30:00Z</time></trkpt><trkpt lat="43.20371503479278" lon="11.69691324332489"><ele>391.6666666666667</ele><time>2026-03-22T07:30:03Z</time></trkpt><trkpt lat="43.203563521689645" lon="11.696974437278437"><ele>390.0</ele><time>2026-03-22T07:30:06Z</time></trkpt><trkpt lat="43.203495563004246" lon="11.697028363209892"><ele>390.0</ele><time>2026-03-22T07:30:08Z</time></trkpt><trkpt lat="43.2034580831318" lon="11.697133307324075"><ele>390.0</ele><time>2026-03-22T07:30:10Z</time></trkpt><trkpt lat="43.203362495789634" lon="11.697142973824041"><ele>390.0</ele><time>2026-03-22T07:30:12Z</time></trkpt><trkpt lat="43.203272090195384" lon="11.697161023835008"><ele>390.0</ele><time>2026-03-22T07:30:14Z</time></trkpt><trkpt lat="43.20318403736086" lon="11.697064020718665"><ele>390.0</ele><time>2026-03-22T07:30:15.999Z</time></trkpt><trkpt lat="43.20310832598929" lon="11.697092394780732"><ele>389.6666666666667</ele><time>2026-03-22T07:30:16.999Z</time></trkpt><trkpt lat="43.20305890722601" lon="11.697030245983056"><ele>389.33333333333337</ele><time>2026-03-22T07:30:20.999Z</time></trkpt><trkpt lat="43.20297587528015" lon="11.69692672239418"><ele>389.0</ele><time>2026-03-22T07:30:22.999Z</time></trkpt><trkpt lat="43.20292639115797" lon="11.696841542970565"><ele>388.6666666666667</ele><time>2026-03-22T07:30:24.999Z</time></trkpt><trkpt lat="43.20292109678462" lon="11.696710490495036"><ele>388.33333333333337</ele><time>2026-03-22T07:30:27.999Z</time></trkpt><trkpt lat="43.20295883436808" lon="11.696602105887745"><ele>388.0</ele><time>2026-03-22T07:30:30.999Z</time></trkpt><trkpt lat="43.20303679111264" lon="11.696448439562593"><ele>387.2</ele><time>2026-03-22T07:30:32.999Z</time></trkpt><trkpt lat="43.20302572159745" lon="11.696293794413597"><ele>386.4</ele><time>2026-03-22T07:30:34.999Z</time></trkpt><trkpt lat="43.20303549967842" lon="11.696182087832769"><ele>385.59999999999997</ele><time>2026-03-22T07:30:36.999Z</time></trkpt><trkpt lat="43.203060684027925" lon="11.696089796517374"><ele>384.79999999999995</ele><time>2026-03-22T07:30:38.999Z</time></trkpt><trkpt lat="43.203095859836324" lon="11.695994503832248"><ele>384.0</ele><time>2026-03-22T07:30:40.999Z</time></trkpt><trkpt lat="43.20318320565262" lon="11.69588931319428"><ele>386.6</ele><time>2026-03-22T07:30:42.999Z</time></trkpt><trkpt lat="43.20326674202249" lon="11.695829185516763"><ele>389.2</ele><time>2026-03-22T07:30:44.999Z</time></trkpt><trkpt lat="43.20336141727072" lon="11.695730850519361"><ele>391.8</ele><time>2026-03-22T07:30:46.999Z</time></trkpt><trkpt lat="43.203427217644354" lon="11.69558598997968"><ele>394.40000000000003</ele><time>2026-03-22T07:30:48.999Z</time></trkpt><trkpt lat="43.20347915769947" lon="11.695457215118177"><ele>397.0</ele><time>2026-03-22T07:30:50.999Z</time></trkpt><trkpt lat="43.20352117709701" lon="11.695340953682548"><ele>397.0</ele><time>2026-03-22T07:30:52.999Z</time></trkpt><trkpt lat="43.20358296098423" lon="11.69528196151037"><ele>397.0</ele><time>2026-03-22T07:30:54.999Z</time></trkpt><trkpt lat="43.20369441225421" lon="11.695248932881857"><ele>397.0</ele><time>2026-03-22T07:30:56.999Z</time></trkpt><trkpt lat="43.20377011595017" lon="11.695210451492617"><ele>397.0</ele><time>2026-03-22T07:30:58.999Z</time></trkpt><trkpt lat="43.20383268477833" lon="11.695104958834301"><ele>397.0</ele><time>2026-03-22T07:31:00.999Z</time></trkpt><trkpt lat="43.203923693412406" lon="11.69511507423561"><ele>400.83333333333337</ele><time>2026-03-22T07:31:02.999Z</time></trkpt><trkpt lat="43.20401177704356" lon="11.695148162109655"><ele>404.6666666666667</ele><time>2026-03-22T07:31:04.999Z</time></trkpt><trkpt lat="43.20408712393676" lon="11.695159178793554"><ele>408.5</ele><time>2026-03-22T07:31:06.999Z</time></trkpt><trkpt lat="43.20416491827635" lon="11.695079774143991"><ele>412.33333333333337</ele><time>2026-03-22T07:31:08.999Z</time></trkpt><trkpt lat="43.20426098599688" lon="11.695012636586846"><ele>416.1666666666667</ele><time>2026-03-22T07:31:10.999Z</time></trkpt><trkpt lat="43.20433244209751" lon="11.695030371025009"><ele>420.0</ele><time>2026-03-22T07:31:11.999Z</time></trkpt><trkpt lat="43.204413103934" lon="11.695049909515662"><ele>420.0</ele><time>2026-03-22T07:31:12.999Z</time></trkpt><trkpt lat="43.20447976964276" lon="11.695049149813247"><ele>420.0</ele><time>2026-03-22T07:31:13.999Z</time></trkpt><trkpt lat="43.20457174408858" lon="11.695000867240873"><ele>420.0</ele><time>2026-03-22T07:31:15.998Z</time></trkpt><trkpt lat="43.20468120819702" lon="11.694930641466799"><ele>420.0</ele><time>2026-03-22T07:31:17.998Z</time></trkpt><trkpt lat="43.20474016315504" lon="11.694893277825463"><ele>420.0</ele><time>2026-03-22T07:31:18.998Z</time></trkpt><trkpt lat="43.204810475721715" lon="11.694806741450316"><ele>420.0</ele><time>2026-03-22T07:31:20.998Z</time></trkpt><trkpt lat="43.20481046132588" lon="11.69466691573753"><ele>423.0</ele><time>2026-03-22T07:31:22.998Z</time></trkpt><trkpt lat="43.20483851663394" lon="11.694565872395843"><ele>426.0</ele><time>2026-03-22T07:31:23.998Z</time></trkpt><trkpt lat="43.20486915508952" lon="11.694453077123143"><ele>429.0</ele><time>2026-03-22T07:31:24.998Z</time></trkpt><trkpt lat="43.20490734727718" lon="11.694369957823204"><ele>432.0</ele><time>2026-03-22T07:31:25.998Z</time></trkpt><trkpt lat="43.2049457895292" lon="11.694299980877659"><ele>435.0</ele><time>2026-03-22T07:31:26.998Z</time></trkpt><trkpt lat="43.20499440402772" lon="11.694221264314466"><ele>438.0</ele><time>2026-03-22T07:31:27.998Z</time></trkpt><trkpt lat="43.2050522715723" lon="11.694154585123893"><ele>439.2</ele><time>2026-03-22T07:31:28.998Z</time></trkpt><trkpt lat="43.20509183143674" lon="11.69407309150046"><ele>440.4</ele><time>2026-03-22T07:31:29.998Z</time></trkpt><trkpt lat="43.205164384551956" lon="11.694004032732137"><ele>441.59999999999997</ele><time>2026-03-22T07:31:31.998Z</time></trkpt><trkpt lat="43.205276121223" lon="11.694074432585252"><ele>442.79999999999995</ele><time>2026-03-22T07:31:34.998Z</time></trkpt><trkpt lat="43.205329666831794" lon="11.69412153647413"><ele>444.0</ele><time>2026-03-22T07:31:35.998Z</time></trkpt><trkpt lat="43.20543123976791" lon="11.69408272161633"><ele>444.0</ele><time>2026-03-22T07:31:39Z</time></trkpt><trkpt lat="43.205487522847704" lon="11.693973077122175"><ele>444.0</ele><time>2026-03-22T07:31:41Z</time></trkpt><trkpt lat="43.2056189956146" lon="11.693865194069902"><ele>444.0</ele><time>2026-03-22T07:31:43Z</time></trkpt><trkpt lat="43.20567606775323" lon="11.693824967501607"><ele>444.0</ele><time>2026-03-22T07:31:44Z</time></trkpt><trkpt lat="43.205756139124006" lon="11.693721151424318"><ele>444.0</ele><time>2026-03-22T07:31:45Z</time></trkpt><trkpt lat="43.2058320588217" lon="11.693649205101755"><ele>447.5</ele><time>2026-03-22T07:31:46Z</time></trkpt><trkpt lat="43.205906979357806" lon="11.693631694695654"><ele>451.0</ele><time>2026-03-22T07:31:47Z</time></trkpt><trkpt lat="43.20599650725186" lon="11.693624676330925"><ele>454.5</ele><time>2026-03-22T07:31:48Z</time></trkpt><trkpt lat="43.20609251019161" lon="11.693630569886595"><ele>458.0</ele><time>2026-03-22T07:31:49Z</time></trkpt><trkpt lat="43.206184917682236" lon="11.693637969535596"><ele>461.5</ele><time>2026-03-22T07:31:50Z</time></trkpt><trkpt lat="43.2062761904695" lon="11.693658840815038"><ele>465.0</ele><time>2026-03-22T07:31:51Z</time></trkpt><trkpt lat="43.206362216738704" lon="11.693692229264487"><ele>465.0</ele><time>2026-03-22T07:31:52Z</time></trkpt><trkpt lat="43.20643833860271" lon="11.693726056166382"><ele>465.0</ele><time>2026-03-22T07:31:53Z</time></trkpt><trkpt lat="43.206514442824485" lon="11.69375635281034"><ele>465.0</ele><time>2026-03-22T07:31:54Z</time></trkpt><trkpt lat="43.20659482331684" lon="11.69381301306601"><ele>465.0</ele><time>2026-03-22T07:31:55Z</time></trkpt><trkpt lat="43.20668274137268" lon="11.693842917458912"><ele>465.0</ele><time>2026-03-22T07:31:56Z</time></trkpt><trkpt lat="43.20676403600952" lon="11.693822103049856"><ele>465.0</ele><time>2026-03-22T07:31:57Z</time></trkpt><trkpt lat="43.2068521010364" lon="11.693770110426815"><ele>465.8</ele><time>2026-03-22T07:31:58Z</time></trkpt><trkpt lat="43.206923978563516" lon="11.69371891834764"><ele>466.6</ele><time>2026-03-22T07:31:59Z</time></trkpt><trkpt lat="43.20700998538097" lon="11.69353625806196"><ele>467.4</ele><time>2026-03-22T07:32:01Z</time></trkpt><trkpt lat="43.2070538321946" lon="11.693422350560327"><ele>468.2</ele><time>2026-03-22T07:32:02Z</time></trkpt><trkpt lat="43.20711156287825" lon="11.693313330075254"><ele>469.0</ele><time>2026-03-22T07:32:03Z</time></trkpt><trkpt lat="43.207160598947986" lon="11.693223966776221"><ele>469.00000000000006</ele><time>2026-03-22T07:32:04Z</time></trkpt><trkpt lat="43.20719672603633" lon="11.693142770416438"><ele>469.0</ele><time>2026-03-22T07:32:05Z</time></trkpt><trkpt lat="43.2072586655874" lon="11.692996199948567"><ele>469.0</ele><time>2026-03-22T07:32:07Z</time></trkpt><trkpt lat="43.20730380477038" lon="11.692897583240855"><ele>469.0</ele><time>2026-03-22T07:32:08Z</time></trkpt><trkpt lat="43.20735824347715" lon="11.69282634681226"><ele>469.00000000000006</ele><time>2026-03-22T07:32:09Z</time></trkpt><trkpt lat="43.20742100797334" lon="11.69276626940431"><ele>469.0</ele><time>2026-03-22T07:32:10Z</time></trkpt><trkpt lat="43.20749808950408" lon="11.69271502566049"><ele>469.83333333333337</ele><time>2026-03-22T07:32:11Z</time></trkpt><trkpt lat="43.2075881758494" lon="11.69265475698859"><ele>470.6666666666667</ele><time>2026-03-22T07:32:12Z</time></trkpt><trkpt lat="43.207668178108676" lon="11.692596643783766"><ele>471.5</ele><time>2026-03-22T07:32:13Z</time></trkpt><trkpt lat="43.20774154901233" lon="11.692549763447913"><ele>472.33333333333337</ele><time>2026-03-22T07:32:14Z</time></trkpt><trkpt lat="43.207773777796135" lon="11.692442151299218"><ele>473.1666666666667</ele><time>2026-03-22T07:32:16Z</time></trkpt><trkpt lat="43.20777635834776" lon="11.69233169313524"><ele>474.0</ele><time>2026-03-22T07:32:18Z</time></trkpt><trkpt lat="43.20779952283715" lon="11.692192176632906"><ele>474.0</ele><time>2026-03-22T07:32:20Z</time></trkpt><trkpt lat="43.20781169708725" lon="11.692088257754131"><ele>474.0</ele><time>2026-03-22T07:32:20.999Z</time></trkpt><trkpt lat="43.20783352898422" lon="11.691958295288643"><ele>474.0</ele><time>2026-03-22T07:32:21.999Z</time></trkpt><trkpt lat="43.20786968904539" lon="11.691859425242649"><ele>474.0</ele><time>2026-03-22T07:32:22.999Z</time></trkpt><trkpt lat="43.20791755754749" lon="11.691796803523857"><ele>474.0</ele><time>2026-03-22T07:32:23.999Z</time></trkpt><trkpt lat="43.2079453353253" lon="11.691711398076515"><ele>474.0</ele><time>2026-03-22T07:32:24.999Z</time></trkpt><trkpt lat="43.20796268249529" lon="11.69161418227669"><ele>474.6</ele><time>2026-03-22T07:32:25.999Z</time></trkpt><trkpt lat="43.20797793158446" lon="11.691492408978688"><ele>475.2</ele><time>2026-03-22T07:32:26.999Z</time></trkpt><trkpt lat="43.20799074269213" lon="11.691346241015417"><ele>475.80000000000007</ele><time>2026-03-22T07:32:27.999Z</time></trkpt><trkpt lat="43.20799963125275" lon="11.691219483168343"><ele>476.40000000000003</ele><time>2026-03-22T07:32:28.999Z</time></trkpt><trkpt lat="43.208025123272606" lon="11.691111130569166"><ele>477.0</ele><time>2026-03-22T07:32:29.999Z</time></trkpt><trkpt lat="43.20805396734162" lon="11.690993401384008"><ele>477.1666666666667</ele><time>2026-03-22T07:32:30.999Z</time></trkpt><trkpt lat="43.20808966735031" lon="11.690876763968355"><ele>477.33333333333337</ele><time>2026-03-22T07:32:31.999Z</time></trkpt><trkpt lat="43.20812029019479" lon="11.690771023649116"><ele>477.5</ele><time>2026-03-22T07:32:32.999Z</time></trkpt><trkpt lat="43.20815240378707" lon="11.690679944875432"><ele>477.6666666666667</ele><time>2026-03-22T07:32:33.999Z</time></trkpt><trkpt lat="43.20820325823021" lon="11.690603493097708"><ele>477.83333333333337</ele><time>2026-03-22T07:32:34.999Z</time></trkpt><trkpt lat="43.20826046821127" lon="11.690484221544594"><ele>478.0</ele><time>2026-03-22T07:32:35.999Z</time></trkpt><trkpt lat="43.208308555545436" lon="11.690385323089457"><ele>478.0</ele><time>2026-03-22T07:32:36.999Z</time></trkpt><trkpt lat="43.20834046101111" lon="11.690309788537911"><ele>477.99999999999994</ele><time>2026-03-22T07:32:37.999Z</time></trkpt><trkpt lat="43.20839615598447" lon="11.690166597930606"><ele>477.99999999999994</ele><time>2026-03-22T07:32:39.999Z</time></trkpt><trkpt lat="43.20846943137442" lon="11.690123488263001"><ele>478.0</ele><time>2026-03-22T07:32:40.999Z</time></trkpt><trkpt lat="43.208568985480106" lon="11.690069723181399"><ele>478.0</ele><time>2026-03-22T07:32:41.999Z</time></trkpt><trkpt lat="43.20869219310033" lon="11.690010700188845"><ele>477.79999999999995</ele><time>2026-03-22T07:32:42.999Z</time></trkpt><trkpt lat="43.20879625213053" lon="11.689943281789922"><ele>477.59999999999997</ele><time>2026-03-22T07:32:43.999Z</time></trkpt><trkpt lat="43.20887603460124" lon="11.68986404862074"><ele>477.40000000000003</ele><time>2026-03-22T07:32:44.999Z</time></trkpt><trkpt lat="43.20893706501111" lon="11.689795345150195"><ele>477.20000000000005</ele><time>2026-03-22T07:32:45.999Z</time></trkpt><trkpt lat="43.20899686755914" lon="11.689672094050662"><ele>477.0</ele><time>2026-03-22T07:32:47.999Z</time></trkpt><trkpt lat="43.20895006531777" lon="11.68952279976013"><ele>477.0</ele><time>2026-03-22T07:32:49.999Z</time></trkpt><trkpt lat="43.20885557285869" lon="11.68944231009534"><ele>477.0</ele><time>2026-03-22T07:32:50.999Z</time></trkpt><trkpt lat="43.20874641371772" lon="11.68936055690031"><ele>477.0</ele><time>2026-03-22T07:32:51.999Z</time></trkpt><trkpt lat="43.208628999002805" lon="11.689272709047867"><ele>477.0</ele><time>2026-03-22T07:32:52.999Z</time></trkpt><trkpt lat="43.20850899673659" lon="11.689155040426826"><ele>475.20000000000005</ele><time>2026-03-22T07:32:53.999Z</time></trkpt><trkpt lat="43.20841332628935" lon="11.689056269005627"><ele>473.40000000000003</ele><time>2026-03-22T07:32:54.999Z</time></trkpt><trkpt lat="43.20831031825533" lon="11.688985319756155"><ele>471.59999999999997</ele><time>2026-03-22T07:32:55.999Z</time></trkpt><trkpt lat="43.20822269127192" lon="11.68892664511392"><ele>469.79999999999995</ele><time>2026-03-22T07:32:56.999Z</time></trkpt><trkpt lat="43.20813767024143" lon="11.688853831731358"><ele>468.0</ele><time>2026-03-22T07:32:57.999Z</time></trkpt><trkpt lat="43.208060411739744" lon="11.688740419819299"><ele>468.0</ele><time>2026-03-22T07:32:58.999Z</time></trkpt><trkpt lat="43.207969756400146" lon="11.68863959338248"><ele>467.99999999999994</ele><time>2026-03-22T07:32:59.999Z</time></trkpt><trkpt lat="43.20790188706987" lon="11.688536265707166"><ele>467.99999999999994</ele><time>2026-03-22T07:33:00.999Z</time></trkpt><trkpt lat="43.20783225346932" lon="11.688435902300307"><ele>468.0</ele><time>2026-03-22T07:33:01.999Z</time></trkpt><trkpt lat="43.207732809148915" lon="11.688342304135363"><ele>468.0</ele><time>2026-03-22T07:33:02.999Z</time></trkpt><trkpt lat="43.20762187386559" lon="11.688261461127086"><ele>466.3333333333333</ele><time>2026-03-22T07:33:03.999Z</time></trkpt><trkpt lat="43.20755351253532" lon="11.68816867100222"><ele>464.66666666666663</ele><time>2026-03-22T07:33:04.999Z</time></trkpt><trkpt lat="43.20752174546771" lon="11.688085756559651"><ele>463.0</ele><time>2026-03-22T07:33:05.999Z</time></trkpt><trkpt lat="43.20752237040315" lon="11.687990585869919"><ele>461.3333333333333</ele><time>2026-03-22T07:33:06.999Z</time></trkpt><trkpt lat="43.207534575915346" lon="11.687891381929637"><ele>459.66666666666663</ele><time>2026-03-22T07:33:07.999Z</time></trkpt><trkpt lat="43.207558265883364" lon="11.68776281149004"><ele>458.0</ele><time>2026-03-22T07:33:08.999Z</time></trkpt><trkpt lat="43.207583429468926" lon="11.687647384431997"><ele>457.0</ele><time>2026-03-22T07:33:09.999Z</time></trkpt><trkpt lat="43.20760426644973" lon="11.687482764626331"><ele>456.0</ele><time>2026-03-22T07:33:10.999Z</time></trkpt><trkpt lat="43.20761073113637" lon="11.687336420863218"><ele>455.0</ele><time>2026-03-22T07:33:11.999Z</time></trkpt><trkpt lat="43.20761758917604" lon="11.687170398694862"><ele>454.0</ele><time>2026-03-22T07:33:12.999Z</time></trkpt><trkpt lat="43.20761349588183" lon="11.687033455749816"><ele>454.79999999999995</ele><time>2026-03-22T07:33:13.999Z</time></trkpt><trkpt lat="43.20761985809869" lon="11.68692222244157"><ele>455.59999999999997</ele><time>2026-03-22T07:33:14.999Z</time></trkpt><trkpt lat="43.20765098582913" lon="11.686808177442767"><ele>456.4</ele><time>2026-03-22T07:33:15.999Z</time></trkpt><trkpt lat="43.207705960943514" lon="11.68670842619584"><ele>457.2</ele><time>2026-03-22T07:33:16.999Z</time></trkpt><trkpt lat="43.20777416173022" lon="11.686605723717525"><ele>458.0</ele><time>2026-03-22T07:33:17.999Z</time></trkpt><trkpt lat="43.20785752401425" lon="11.68649838091282"><ele>458.0</ele><time>2026-03-22T07:33:18.999Z</time></trkpt><trkpt lat="43.207937076156064" lon="11.686394770141675"><ele>457.99999999999994</ele><time>2026-03-22T07:33:19.999Z</time></trkpt><trkpt lat="43.20799031322998" lon="11.686312270457028"><ele>457.99999999999994</ele><time>2026-03-22T07:33:20.998Z</time></trkpt><trkpt lat="43.208041490086124" lon="11.686210188821642"><ele>458.0</ele><time>2026-03-22T07:33:21.998Z</time></trkpt><trkpt lat="43.208085350358466" lon="11.68607379335151"><ele>458.0</ele><time>2026-03-22T07:33:22.998Z</time></trkpt><trkpt lat="43.208144906172144" lon="11.68590878979199"><ele>456.75</ele><time>2026-03-22T07:33:23.998Z</time></trkpt><trkpt lat="43.208218271461554" lon="11.685731798376947"><ele>455.5</ele><time>2026-03-22T07:33:24.998Z</time></trkpt><trkpt lat="43.208283561542885" lon="11.685597926734726"><ele>454.25</ele><time>2026-03-22T07:33:25.998Z</time></trkpt><trkpt lat="43.20834574045908" lon="11.685473283227633"><ele>453.0</ele><time>2026-03-22T07:33:26.998Z</time></trkpt><trkpt lat="43.20838934271557" lon="11.6853587318988"><ele>452.5</ele><time>2026-03-22T07:33:27.998Z</time></trkpt><trkpt lat="43.208431733024376" lon="11.685210515761188"><ele>452.0</ele><time>2026-03-22T07:33:28.998Z</time></trkpt><trkpt lat="43.208488084309444" lon="11.685042146167834"><ele>451.5</ele><time>2026-03-22T07:33:29.998Z</time></trkpt><trkpt lat="43.20853464339934" lon="11.684887460444248"><ele>451.0</ele><time>2026-03-22T07:33:30.998Z</time></trkpt><trkpt lat="43.20857183072827" lon="11.68475115047202"><ele>451.0</ele><time>2026-03-22T07:33:31.998Z</time></trkpt><trkpt lat="43.2086121570035" lon="11.684640187154251"><ele>451.0</ele><time>2026-03-22T07:33:32.998Z</time></trkpt><trkpt lat="43.20865842456235" lon="11.684579505432415"><ele>451.0</ele><time>2026-03-22T07:33:33.998Z</time></trkpt><trkpt lat="43.20872448204277" lon="11.684557832878127"><ele>451.0</ele><time>2026-03-22T07:33:34.998Z</time></trkpt><trkpt lat="43.20883797467276" lon="11.684543851993652"><ele>451.0</ele><time>2026-03-22T07:33:35.998Z</time></trkpt><trkpt lat="43.20899448745831" lon="11.684519359055788"><ele>447.33333333333337</ele><time>2026-03-22T07:33:36.998Z</time></trkpt><trkpt lat="43.209133536751025" lon="11.684491676255682"><ele>443.66666666666663</ele><time>2026-03-22T07:33:37.998Z</time></trkpt><trkpt lat="43.209299659161616" lon="11.684473484470447"><ele>440.0</ele><time>2026-03-22T07:33:38.998Z</time></trkpt><trkpt lat="43.209451934519606" lon="11.684467009553487"><ele>440.0</ele><time>2026-03-22T07:33:39.998Z</time></trkpt><trkpt lat="43.20957795801214" lon="11.6844684331435"><ele>440.0</ele><time>2026-03-22T07:33:40.998Z</time></trkpt><trkpt lat="43.20968942731798" lon="11.684453207889065"><ele>440.0</ele><time>2026-03-22T07:33:41.998Z</time></trkpt><trkpt lat="43.209809800718595" lon="11.684432730377859"><ele>440.0</ele><time>2026-03-22T07:33:42.998Z</time></trkpt><trkpt lat="43.20987818877368" lon="11.684406386256825"><ele>440.0</ele><time>2026-03-22T07:33:44Z</time></trkpt><trkpt lat="43.20995479508328" lon="11.6843439235607"><ele>440.3333333333333</ele><time>2026-03-22T07:33:46Z</time></trkpt><trkpt lat="43.209913544313224" lon="11.68424658545098"><ele>440.66666666666663</ele><time>2026-03-22T07:33:49Z</time></trkpt><trkpt lat="43.209849307123164" lon="11.684235364782241"><ele>441.0</ele><time>2026-03-22T07:33:50Z</time></trkpt><trkpt lat="43.209775876362166" lon="11.684167461718536"><ele>441.33333333333337</ele><time>2026-03-22T07:33:52Z</time></trkpt><trkpt lat="43.20980152688079" lon="11.684070409169328"><ele>441.6666666666667</ele><time>2026-03-22T07:33:54Z</time></trkpt><trkpt lat="43.20990539486852" lon="11.684028378633057"><ele>442.0</ele><time>2026-03-22T07:33:56Z</time></trkpt><trkpt lat="43.209984991217276" lon="11.68402958582023"><ele>443.1666666666667</ele><time>2026-03-22T07:33:57Z</time></trkpt><trkpt lat="43.21006274879922" lon="11.684024179316825"><ele>444.33333333333337</ele><time>2026-03-22T07:33:58Z</time></trkpt><trkpt lat="43.21017447061807" lon="11.683955625718449"><ele>445.5</ele><time>2026-03-22T07:34:00Z</time></trkpt><trkpt lat="43.21023573617697" lon="11.683916654379596"><ele>446.66666666666663</ele><time>2026-03-22T07:34:01Z</time></trkpt><trkpt lat="43.21030172466749" lon="11.683889797800527"><ele>447.8333333333333</ele><time>2026-03-22T07:34:02Z</time></trkpt><trkpt lat="43.21037664500883" lon="11.683886002876886"><ele>449.0</ele><time>2026-03-22T07:34:03Z</time></trkpt><trkpt lat="43.210443001943936" lon="11.683902373314414"><ele>449.0</ele><time>2026-03-22T07:34:04Z</time></trkpt><trkpt lat="43.210558653914866" lon="11.68389948873503"><ele>449.0</ele><time>2026-03-22T07:34:06Z</time></trkpt><trkpt lat="43.21063969254309" lon="11.683846457783789"><ele>449.0</ele><time>2026-03-22T07:34:07Z</time></trkpt><trkpt lat="43.21074463617814" lon="11.683790230949946"><ele>449.0</ele><time>2026-03-22T07:34:08Z</time></trkpt><trkpt lat="43.21086517351106" lon="11.683709951506742"><ele>449.4</ele><time>2026-03-22T07:34:09Z</time></trkpt><trkpt lat="43.21097808940729" lon="11.683608712735294"><ele>449.79999999999995</ele><time>2026-03-22T07:34:10Z</time></trkpt><trkpt lat="43.21110081690235" lon="11.683538123207503"><ele>450.20000000000005</ele><time>2026-03-22T07:34:11Z</time></trkpt><trkpt lat="43.21118078796259" lon="11.683487601936092"><ele>450.6</ele><time>2026-03-22T07:34:12Z</time></trkpt><trkpt lat="43.211235639067795" lon="11.683431271092216"><ele>451.0</ele><time>2026-03-22T07:34:13Z</time></trkpt><trkpt lat="43.21130184458932" lon="11.683333656120434"><ele>452.0</ele><time>2026-03-22T07:34:14Z</time></trkpt><trkpt lat="43.21137719876389" lon="11.683218528327208"><ele>453.0</ele><time>2026-03-22T07:34:15Z</time></trkpt><trkpt lat="43.21146083315217" lon="11.683091548160922"><ele>454.0</ele><time>2026-03-22T07:34:16Z</time></trkpt><trkpt lat="43.21155057086035" lon="11.682954734346572"><ele>455.0</ele><time>2026-03-22T07:34:17Z</time></trkpt><trkpt lat="43.2116318716171" lon="11.682862590225572"><ele>455.0</ele><time>2026-03-22T07:34:18Z</time></trkpt><trkpt lat="43.211727991944535" lon="11.682786552888286"><ele>455.0</ele><time>2026-03-22T07:34:19Z</time></trkpt><trkpt lat="43.21182404549475" lon="11.68267089323045"><ele>455.0</ele><time>2026-03-22T07:34:20Z</time></trkpt><trkpt lat="43.21191522925841" lon="11.682568545219574"><ele>455.0</ele><time>2026-03-22T07:34:21Z</time></trkpt><trkpt lat="43.21200002008608" lon="11.682509949463222"><ele>455.66666666666663</ele><time>2026-03-22T07:34:22Z</time></trkpt><trkpt lat="43.2120595883193" lon="11.68244665394014"><ele>456.3333333333333</ele><time>2026-03-22T07:34:23Z</time></trkpt><trkpt lat="43.21211486798206" lon="11.682378983875068"><ele>457.0</ele><time>2026-03-22T07:34:24Z</time></trkpt><trkpt lat="43.212264535360454" lon="11.682439395708375"><ele>457.66666666666663</ele><time>2026-03-22T07:34:26Z</time></trkpt><trkpt lat="43.21232974880862" lon="11.682447426198193"><ele>458.3333333333333</ele><time>2026-03-22T07:34:27Z</time></trkpt><trkpt lat="43.21238977414716" lon="11.68241511776473"><ele>459.0</ele><time>2026-03-22T07:34:28Z</time></trkpt><trkpt lat="43.21247524881947" lon="11.682382368893876"><ele>459.0</ele><time>2026-03-22T07:34:29Z</time></trkpt><trkpt lat="43.21256662410527" lon="11.682367911029885"><ele>459.0</ele><time>2026-03-22T07:34:29.999Z</time></trkpt><trkpt lat="43.212636916461115" lon="11.682342284582804"><ele>459.0</ele><time>2026-03-22T07:34:30.999Z</time></trkpt><trkpt lat="43.21271231726332" lon="11.682302515316987"><ele>459.0</ele><time>2026-03-22T07:34:31.999Z</time></trkpt><trkpt lat="43.21278380483684" lon="11.68225418626874"><ele>459.0</ele><time>2026-03-22T07:34:32.999Z</time></trkpt><trkpt lat="43.21285081886514" lon="11.682202107219616"><ele>459.0</ele><time>2026-03-22T07:34:33.999Z</time></trkpt><trkpt lat="43.21291094290222" lon="11.682234722985203"><ele>459.0</ele><time>2026-03-22T07:34:35.999Z</time></trkpt><trkpt lat="43.2129752918733" lon="11.682379197866533"><ele>459.0</ele><time>2026-03-22T07:34:37.999Z</time></trkpt><trkpt lat="43.21307782601487" lon="11.682494540147424"><ele>459.0</ele><time>2026-03-22T07:34:39.999Z</time></trkpt><trkpt lat="43.213140161830935" lon="11.682527874045544"><ele>459.0</ele><time>2026-03-22T07:34:41.999Z</time></trkpt><trkpt lat="43.21321167336674" lon="11.68259872781821"><ele>459.0</ele><time>2026-03-22T07:34:44.999Z</time></trkpt><trkpt lat="43.21327130877296" lon="11.682655473556979"><ele>460.5</ele><time>2026-03-22T07:34:47.999Z</time></trkpt><trkpt lat="43.21332548419663" lon="11.68271651791552"><ele>462.0</ele><time>2026-03-22T07:34:49.999Z</time></trkpt><trkpt lat="43.21339426197331" lon="11.682782494184714"><ele>463.5</ele><time>2026-03-22T07:34:51.999Z</time></trkpt><trkpt lat="43.2134843219252" lon="11.682868367422643"><ele>465.0</ele><time>2026-03-22T07:34:53.999Z</time></trkpt><trkpt lat="43.21353633494518" lon="11.682924463873386"><ele>466.5</ele><time>2026-03-22T07:34:54.999Z</time></trkpt><trkpt lat="43.21356431392946" lon="11.683058120588797"><ele>468.0</ele><time>2026-03-22T07:34:56.999Z</time></trkpt><trkpt lat="43.21354404313428" lon="11.683145320316322"><ele>468.2</ele><time>2026-03-22T07:34:57.999Z</time></trkpt><trkpt lat="43.21359677762102" lon="11.683252064425906"><ele>468.4</ele><time>2026-03-22T07:34:59.999Z</time></trkpt><trkpt lat="43.21367023583258" lon="11.68333031142133"><ele>468.59999999999997</ele><time>2026-03-22T07:35:00.999Z</time></trkpt><trkpt lat="43.21376015631662" lon="11.683415623608516"><ele>468.79999999999995</ele><time>2026-03-22T07:35:01.999Z</time></trkpt><trkpt lat="43.213833454176005" lon="11.683536952868947"><ele>469.0</ele><time>2026-03-22T07:35:02.999Z</time></trkpt><trkpt lat="43.21391305799338" lon="11.683679901173205"><ele>471.4</ele><time>2026-03-22T07:35:03.999Z</time></trkpt><trkpt lat="43.213994040109746" lon="11.683821709226233"><ele>473.79999999999995</ele><time>2026-03-22T07:35:04.999Z</time></trkpt><trkpt lat="43.21407137152032" lon="11.683944918733221"><ele>476.20000000000005</ele><time>2026-03-22T07:35:05.999Z</time></trkpt><trkpt lat="43.214114266424" lon="11.684026614849111"><ele>478.6</ele><time>2026-03-22T07:35:06.999Z</time></trkpt><trkpt lat="43.2141487062783" lon="11.684099499408589"><ele>481.0</ele><time>2026-03-22T07:35:07.999Z</time></trkpt><trkpt lat="43.21428285162096" lon="11.68412162482306"><ele>481.0</ele><time>2026-03-22T07:35:10.999Z</time></trkpt><trkpt lat="43.21439397355406" lon="11.684224489760577"><ele>481.0</ele><time>2026-03-22T07:35:12.999Z</time></trkpt><trkpt lat="43.21446868715599" lon="11.684310506027021"><ele>481.0</ele><time>2026-03-22T07:35:13.999Z</time></trkpt><trkpt lat="43.21454907812962" lon="11.684406205557663"><ele>481.0</ele><time>2026-03-22T07:35:14.999Z</time></trkpt><trkpt lat="43.21464322993027" lon="11.6845181063872"><ele>482.5</ele><time>2026-03-22T07:35:15.999Z</time></trkpt><trkpt lat="43.21474457756386" lon="11.684625160873507"><ele>484.0</ele><time>2026-03-22T07:35:16.999Z</time></trkpt><trkpt lat="43.21484566725351" lon="11.684758495541358"><ele>485.5</ele><time>2026-03-22T07:35:17.999Z</time></trkpt><trkpt lat="43.21496906959533" lon="11.684848716283561"><ele>487.0</ele><time>2026-03-22T07:35:18.999Z</time></trkpt><trkpt lat="43.215092840031225" lon="11.684962081337373"><ele>488.0</ele><time>2026-03-22T07:35:19.999Z</time></trkpt><trkpt lat="43.215219882240184" lon="11.68507503025598"><ele>489.0</ele><time>2026-03-22T07:35:20.999Z</time></trkpt><trkpt lat="43.215349560361" lon="11.68519385756185"><ele>490.0</ele><time>2026-03-22T07:35:21.999Z</time></trkpt><trkpt lat="43.215475755206725" lon="11.685308019525152"><ele>491.5</ele><time>2026-03-22T07:35:22.999Z</time></trkpt><trkpt lat="43.21558431151436" lon="11.68540248756866"><ele>493.0</ele><time>2026-03-22T07:35:23.999Z</time></trkpt><trkpt lat="43.21569303259946" lon="11.68548668850304"><ele>494.5</ele><time>2026-03-22T07:35:24.999Z</time></trkpt><trkpt lat="43.215797084344274" lon="11.685570291962076"><ele>496.0</ele><time>2026-03-22T07:35:25.999Z</time></trkpt><trkpt lat="43.21590657303713" lon="11.685649066553092"><ele>496.0</ele><time>2026-03-22T07:35:26.999Z</time></trkpt><trkpt lat="43.216025372245355" lon="11.685717222288034"><ele>496.0</ele><time>2026-03-22T07:35:27.999Z</time></trkpt><trkpt lat="43.21615249821455" lon="11.685779538979759"><ele>496.0</ele><time>2026-03-22T07:35:28.999Z</time></trkpt><trkpt lat="43.21628310312169" lon="11.685835438607416"><ele>496.0</ele><time>2026-03-22T07:35:29.999Z</time></trkpt><trkpt lat="43.216414282330575" lon="11.685897845266268"><ele>495.75</ele><time>2026-03-22T07:35:30.998Z</time></trkpt><trkpt lat="43.21654845288644" lon="11.68595341173974"><ele>495.5</ele><time>2026-03-22T07:35:31.998Z</time></trkpt><trkpt lat="43.21667140106432" lon="11.686005341554262"><ele>495.25</ele><time>2026-03-22T07:35:32.998Z</time></trkpt><trkpt lat="43.21678677447267" lon="11.686057901223597"><ele>495.0</ele><time>2026-03-22T07:35:33.998Z</time></trkpt><trkpt lat="43.21690283682517" lon="11.686106743676488"><ele>495.25</ele><time>2026-03-22T07:35:34.998Z</time></trkpt><trkpt lat="43.21702151602989" lon="11.686156557326198"><ele>495.5</ele><time>2026-03-22T07:35:35.998Z</time></trkpt><trkpt lat="43.21714346471037" lon="11.686203859842156"><ele>495.75</ele><time>2026-03-22T07:35:36.998Z</time></trkpt><trkpt lat="43.217262567676684" lon="11.686247579893283"><ele>496.0</ele><time>2026-03-22T07:35:37.998Z</time></trkpt><trkpt lat="43.217370269153264" lon="11.68629620947634"><ele>496.0</ele><time>2026-03-22T07:35:38.998Z</time></trkpt><trkpt lat="43.21745851829054" lon="11.686367425798112"><ele>496.0</ele><time>2026-03-22T07:35:39.998Z</time></trkpt><trkpt lat="43.21753942938284" lon="11.686424963233737"><ele>496.0</ele><time>2026-03-22T07:35:40.998Z</time></trkpt><trkpt lat="43.21761717678984" lon="11.68648049690267"><ele>496.0</ele><time>2026-03-22T07:35:41.998Z</time></trkpt><trkpt lat="43.21778448261959" lon="11.686404516117337"><ele>496.0</ele><time>2026-03-22T07:35:42.998Z</time></trkpt><trkpt lat="43.217886121146115" lon="11.686326948583126"><ele>496.0</ele><time>2026-03-22T07:35:43.998Z</time></trkpt><trkpt lat="43.218006908636546" lon="11.686269865107944"><ele>496.0</ele><time>2026-03-22T07:35:44.998Z</time></trkpt><trkpt lat="43.21813002115826" lon="11.686200665546082"><ele>496.0</ele><time>2026-03-22T07:35:45.998Z</time></trkpt><trkpt lat="43.21825621514523" lon="11.68613352189505"><ele>495.0</ele><time>2026-03-22T07:35:46.998Z</time></trkpt><trkpt lat="43.218373813566096" lon="11.686068612473942"><ele>494.0</ele><time>2026-03-22T07:35:47.998Z</time></trkpt><trkpt lat="43.21848763261447" lon="11.686009283927861"><ele>493.0</ele><time>2026-03-22T07:35:48.998Z</time></trkpt><trkpt lat="43.21859990236242" lon="11.685950795509665"><ele>492.0</ele><time>2026-03-22T07:35:50Z</time></trkpt><trkpt lat="43.218702260751414" lon="11.68590614193553"><ele>492.0</ele><time>2026-03-22T07:35:51Z</time></trkpt><trkpt lat="43.21880000397783" lon="11.68586983653797"><ele>492.00000000000006</ele><time>2026-03-22T07:35:52Z</time></trkpt><trkpt lat="43.21890049455682" lon="11.685825962986254"><ele>492.00000000000006</ele><time>2026-03-22T07:35:53Z</time></trkpt><trkpt lat="43.21898736202964" lon="11.685786242453096"><ele>492.0</ele><time>2026-03-22T07:35:54Z</time></trkpt><trkpt lat="43.219084405116114" lon="11.68574537605457"><ele>492.0</ele><time>2026-03-22T07:35:55Z</time></trkpt><trkpt lat="43.21919602539002" lon="11.6856987525484"><ele>493.5</ele><time>2026-03-22T07:35:56Z</time></trkpt><trkpt lat="43.21931931182121" lon="11.685639692385092"><ele>495.0</ele><time>2026-03-22T07:35:57Z</time></trkpt><trkpt lat="43.219440245371146" lon="11.685566398778631"><ele>496.5</ele><time>2026-03-22T07:35:58Z</time></trkpt><trkpt lat="43.219554250396705" lon="11.685485835212045"><ele>498.0</ele><time>2026-03-22T07:35:59Z</time></trkpt><trkpt lat="43.219675932895775" lon="11.685390841426294"><ele>498.0</ele><time>2026-03-22T07:36:00Z</time></trkpt><trkpt lat="43.219786845333324" lon="11.685314953172252"><ele>498.0</ele><time>2026-03-22T07:36:01Z</time></trkpt><trkpt lat="43.219892900754914" lon="11.685241325236188"><ele>498.0</ele><time>2026-03-22T07:36:02Z</time></trkpt><trkpt lat="43.2199991055686" lon="11.68517474427674"><ele>498.0</ele><time>2026-03-22T07:36:03Z</time></trkpt><trkpt lat="43.22010996670701" lon="11.685118500842892"><ele>499.25</ele><time>2026-03-22T07:36:04Z</time></trkpt><trkpt lat="43.22022792194208" lon="11.685068319993261"><ele>500.5</ele><time>2026-03-22T07:36:05Z</time></trkpt><trkpt lat="43.22035134971348" lon="11.685023368009526"><ele>501.75</ele><time>2026-03-22T07:36:06Z</time></trkpt><trkpt lat="43.22048049122195" lon="11.684981645208696"><ele>503.0</ele><time>2026-03-22T07:36:07Z</time></trkpt><trkpt lat="43.220617034885535" lon="11.68493537886359"><ele>503.5</ele><time>2026-03-22T07:36:08Z</time></trkpt><trkpt lat="43.220756486573535" lon="11.684884026947604"><ele>504.0</ele><time>2026-03-22T07:36:09Z</time></trkpt><trkpt lat="43.220878509605996" lon="11.684841806212328"><ele>504.5</ele><time>2026-03-22T07:36:10Z</time></trkpt><trkpt lat="43.220997578824914" lon="11.68480442266006"><ele>505.0</ele><time>2026-03-22T07:36:11Z</time></trkpt><trkpt lat="43.221122383174276" lon="11.68476570353753"><ele>505.0</ele><time>2026-03-22T07:36:12Z</time></trkpt><trkpt lat="43.221234327746636" lon="11.68472414896614"><ele>505.0</ele><time>2026-03-22T07:36:13Z</time></trkpt><trkpt lat="43.22133930467894" lon="11.684682557337847"><ele>505.0</ele><time>2026-03-22T07:36:14Z</time></trkpt><trkpt lat="43.22144445713031" lon="11.684640271944161"><ele>505.0</ele><time>2026-03-22T07:36:15Z</time></trkpt><trkpt lat="43.22155409277274" lon="11.684600960939685"><ele>505.0</ele><time>2026-03-22T07:36:16Z</time></trkpt><trkpt lat="43.22166529024956" lon="11.684558736756852"><ele>505.2</ele><time>2026-03-22T07:36:17Z</time></trkpt><trkpt lat="43.221773615963585" lon="11.684514827391919"><ele>505.4</ele><time>2026-03-22T07:36:18Z</time></trkpt><trkpt lat="43.221879482052145" lon="11.6844692356467"><ele>505.6</ele><time>2026-03-22T07:36:19Z</time></trkpt><trkpt lat="43.221982806055124" lon="11.684424363945553"><ele>505.8</ele><time>2026-03-22T07:36:20Z</time></trkpt><trkpt lat="43.2220847044523" lon="11.684380287692543"><ele>506.0</ele><time>2026-03-22T07:36:21Z</time></trkpt><trkpt lat="43.2221891624607" lon="11.68433923874067"><ele>506.0</ele><time>2026-03-22T07:36:22Z</time></trkpt><trkpt lat="43.222296818925" lon="11.684312119632194"><ele>506.0</ele><time>2026-03-22T07:36:23Z</time></trkpt><trkpt lat="43.222411388025925" lon="11.684297432201607"><ele>506.0</ele><time>2026-03-22T07:36:24Z</time></trkpt><trkpt lat="43.222525241406544" lon="11.684286299223892"><ele>506.0</ele><time>2026-03-22T07:36:25Z</time></trkpt><trkpt lat="43.22264070487741" lon="11.684281325903397"><ele>507.0</ele><time>2026-03-22T07:36:26Z</time></trkpt><trkpt lat="43.22275534987508" lon="11.684282587598284"><ele>508.0</ele><time>2026-03-22T07:36:27Z</time></trkpt><trkpt lat="43.22287025078107" lon="11.684285727006333"><ele>509.0</ele><time>2026-03-22T07:36:28Z</time></trkpt><trkpt lat="43.22299273618073" lon="11.68428593670033"><ele>510.0</ele><time>2026-03-22T07:36:29Z</time></trkpt><trkpt lat="43.223114164393635" lon="11.684288889659683"><ele>510.0</ele><time>2026-03-22T07:36:30Z</time></trkpt><trkpt lat="43.223231816172614" lon="11.684297337694861"><ele>510.0</ele><time>2026-03-22T07:36:31Z</time></trkpt><trkpt lat="43.22336069425019" lon="11.684304112384796"><ele>510.0</ele><time>2026-03-22T07:36:32Z</time></trkpt><trkpt lat="43.223492587294636" lon="11.684303138829508"><ele>510.0</ele><time>2026-03-22T07:36:32.999Z</time></trkpt><trkpt lat="43.22362733142578" lon="11.684289367331028"><ele>510.0</ele><time>2026-03-22T07:36:33.999Z</time></trkpt><trkpt lat="43.22375939229983" lon="11.684264548697238"><ele>510.0</ele><time>2026-03-22T07:36:34.999Z</time></trkpt><trkpt lat="43.22389534663224" lon="11.684232212337852"><ele>510.0</ele><time>2026-03-22T07:36:35.999Z</time></trkpt><trkpt lat="43.224023450786746" lon="11.684194189500941"><ele>510.0</ele><time>2026-03-22T07:36:36.999Z</time></trkpt><trkpt lat="43.22414432719034" lon="11.684152996307025"><ele>511.0</ele><time>2026-03-22T07:36:37.999Z</time></trkpt><trkpt lat="43.22426348752327" lon="11.684122500823962"><ele>512.0</ele><time>2026-03-22T07:36:38.999Z</time></trkpt><trkpt lat="43.224386939432435" lon="11.6841184749422"><ele>513.0</ele><time>2026-03-22T07:36:39.999Z</time></trkpt><trkpt lat="43.224510437434866" lon="11.68413132136504"><ele>514.0</ele><time>2026-03-22T07:36:40.999Z</time></trkpt><trkpt lat="43.22463202743574" lon="11.684140397015835"><ele>514.0</ele><time>2026-03-22T07:36:41.999Z</time></trkpt><trkpt lat="43.224742428662466" lon="11.684136268882458"><ele>514.0</ele><time>2026-03-22T07:36:42.999Z</time></trkpt><trkpt lat="43.22484649859786" lon="11.684121477643718"><ele>514.0</ele><time>2026-03-22T07:36:43.999Z</time></trkpt><trkpt lat="43.224946991864016" lon="11.684091584200349"><ele>514.0</ele><time>2026-03-22T07:36:44.999Z</time></trkpt><trkpt lat="43.2250336729636" lon="11.684042737822042"><ele>514.0</ele><time>2026-03-22T07:36:45.999Z</time></trkpt><trkpt lat="43.2251169920628" lon="11.683983625080131"><ele>514.6666666666667</ele><time>2026-03-22T07:36:46.999Z</time></trkpt><trkpt lat="43.225199258407805" lon="11.68392460781086"><ele>515.3333333333334</ele><time>2026-03-22T07:36:47.999Z</time></trkpt><trkpt lat="43.225268756903034" lon="11.68386927130249"><ele>516.0</ele><time>2026-03-22T07:36:48.999Z</time></trkpt><trkpt lat="43.225340014333376" lon="11.68381895637843"><ele>516.6666666666666</ele><time>2026-03-22T07:36:49.999Z</time></trkpt><trkpt lat="43.22541661577181" lon="11.683768485033848"><ele>517.3333333333333</ele><time>2026-03-22T07:36:50.999Z</time></trkpt><trkpt lat="43.22549886469247" lon="11.683713523565594"><ele>518.0</ele><time>2026-03-22T07:36:51.999Z</time></trkpt><trkpt lat="43.225587434208336" lon="11.683655567339573"><ele>518.1999999999999</ele><time>2026-03-22T07:36:52.999Z</time></trkpt><trkpt lat="43.22567769992048" lon="11.683588067709417"><ele>518.4</ele><time>2026-03-22T07:36:53.999Z</time></trkpt><trkpt lat="43.225747024106454" lon="11.683498498420299"><ele>518.5999999999999</ele><time>2026-03-22T07:36:54.999Z</time></trkpt><trkpt lat="43.22578970780368" lon="11.683385919088257"><ele>518.8</ele><time>2026-03-22T07:36:55.999Z</time></trkpt><trkpt lat="43.225815057838346" lon="11.68326605539427"><ele>519.0</ele><time>2026-03-22T07:36:56.999Z</time></trkpt><trkpt lat="43.22582366412315" lon="11.68317205915959"><ele>519.0</ele><time>2026-03-22T07:36:57.999Z</time></trkpt><trkpt lat="43.22585329473338" lon="11.683073611548885"><ele>519.0</ele><time>2026-03-22T07:36:59.999Z</time></trkpt><trkpt lat="43.22598730971954" lon="11.683127765417503"><ele>519.0</ele><time>2026-03-22T07:37:01.999Z</time></trkpt><trkpt lat="43.22605952388534" lon="11.68319172036614"><ele>519.0</ele><time>2026-03-22T07:37:02.999Z</time></trkpt><trkpt lat="43.22614139932965" lon="11.683266058406447"><ele>519.0</ele><time>2026-03-22T07:37:03.999Z</time></trkpt><trkpt lat="43.22623724374081" lon="11.683348919842025"><ele>519.0</ele><time>2026-03-22T07:37:04.999Z</time></trkpt><trkpt lat="43.2263230542673" lon="11.683435306348954"><ele>519.0</ele><time>2026-03-22T07:37:05.999Z</time></trkpt><trkpt lat="43.22642399233019" lon="11.683531127884953"><ele>519.0</ele><time>2026-03-22T07:37:06.999Z</time></trkpt><trkpt lat="43.226525575946624" lon="11.683634686840978"><ele>519.0</ele><time>2026-03-22T07:37:07.999Z</time></trkpt><trkpt lat="43.22662212737528" lon="11.683732675231026"><ele>520.4</ele><time>2026-03-22T07:37:08.999Z</time></trkpt><trkpt lat="43.22672115436055" lon="11.683832966115709"><ele>521.8</ele><time>2026-03-22T07:37:09.999Z</time></trkpt><trkpt lat="43.22680936500995" lon="11.68392802441916"><ele>523.2</ele><time>2026-03-22T07:37:10.999Z</time></trkpt><trkpt lat="43.22687370462654" lon="11.684022046200349"><ele>524.6</ele><time>2026-03-22T07:37:11.999Z</time></trkpt><trkpt lat="43.2269236754352" lon="11.68411966699967"><ele>526.0</ele><time>2026-03-22T07:37:12.999Z</time></trkpt><trkpt lat="43.22695828288216" lon="11.684234132355574"><ele>526.0</ele><time>2026-03-22T07:37:13.999Z</time></trkpt><trkpt lat="43.2269934682138" lon="11.684364298885981"><ele>526.0</ele><time>2026-03-22T07:37:14.999Z</time></trkpt><trkpt lat="43.22703237802611" lon="11.684502110273705"><ele>526.0</ele><time>2026-03-22T07:37:15.999Z</time></trkpt><trkpt lat="43.2270706302126" lon="11.684654153160578"><ele>526.0</ele><time>2026-03-22T07:37:16.999Z</time></trkpt><trkpt lat="43.22710709602715" lon="11.684817107615073"><ele>526.0</ele><time>2026-03-22T07:37:17.999Z</time></trkpt><trkpt lat="43.22714384254563" lon="11.684974106871527"><ele>526.0</ele><time>2026-03-22T07:37:18.999Z</time></trkpt><trkpt lat="43.22718219015646" lon="11.685124414221972"><ele>526.0</ele><time>2026-03-22T07:37:19.999Z</time></trkpt><trkpt lat="43.22721772172507" lon="11.685254089885271"><ele>526.0</ele><time>2026-03-22T07:37:20.999Z</time></trkpt><trkpt lat="43.22725443720642" lon="11.685404630945161"><ele>525.6</ele><time>2026-03-22T07:37:21.999Z</time></trkpt><trkpt lat="43.22729739196857" lon="11.685551497190382"><ele>525.2</ele><time>2026-03-22T07:37:22.999Z</time></trkpt><trkpt lat="43.22734334752528" lon="11.685693191416199"><ele>524.8</ele><time>2026-03-22T07:37:23.999Z</time></trkpt><trkpt lat="43.227392353377034" lon="11.68582194027804"><ele>524.4</ele><time>2026-03-22T07:37:24.999Z</time></trkpt><trkpt lat="43.22743161773207" lon="11.685953706918381"><ele>524.0</ele><time>2026-03-22T07:37:25.999Z</time></trkpt><trkpt lat="43.22746996191711" lon="11.686093805229328"><ele>521.0</ele><time>2026-03-22T07:37:26.999Z</time></trkpt><trkpt lat="43.227513118252425" lon="11.686238082647398"><ele>518.0</ele><time>2026-03-22T07:37:27.999Z</time></trkpt><trkpt lat="43.22755990647096" lon="11.686399454281084"><ele>515.0</ele><time>2026-03-22T07:37:28.999Z</time></trkpt><trkpt lat="43.22761525849406" lon="11.686558114272803"><ele>512.0</ele><time>2026-03-22T07:37:29.999Z</time></trkpt><trkpt lat="43.22766484573126" lon="11.68672319801651"><ele>512.0</ele><time>2026-03-22T07:37:30.999Z</time></trkpt><trkpt lat="43.22771144960336" lon="11.686893693808592"><ele>512.0</ele><time>2026-03-22T07:37:31.999Z</time></trkpt><trkpt lat="43.22775161852961" lon="11.687057444850076"><ele>512.0</ele><time>2026-03-22T07:37:32.999Z</time></trkpt><trkpt lat="43.22779480881477" lon="11.687223962771458"><ele>512.0</ele><time>2026-03-22T07:37:33.998Z</time></trkpt><trkpt lat="43.22783720625817" lon="11.687389316567753"><ele>510.25</ele><time>2026-03-22T07:37:34.998Z</time></trkpt><trkpt lat="43.22788073071145" lon="11.68756011926952"><ele>508.5</ele><time>2026-03-22T07:37:35.998Z</time></trkpt><trkpt lat="43.22792388307967" lon="11.687729500853203"><ele>506.75</ele><time>2026-03-22T07:37:36.998Z</time></trkpt><trkpt lat="43.22796746170955" lon="11.687899696603726"><ele>505.0</ele><time>2026-03-22T07:37:37.998Z</time></trkpt><trkpt lat="43.22800842933959" lon="11.688066499005577"><ele>503.75</ele><time>2026-03-22T07:37:38.998Z</time></trkpt><trkpt lat="43.22805093618217" lon="11.688228285731117"><ele>502.5</ele><time>2026-03-22T07:37:39.998Z</time></trkpt><trkpt lat="43.228095293247705" lon="11.688388397504879"><ele>501.25</ele><time>2026-03-22T07:37:40.998Z</time></trkpt><trkpt lat="43.228119734057266" lon="11.688556729175968"><ele>500.0</ele><time>2026-03-22T07:37:41.998Z</time></trkpt><trkpt lat="43.228160954843055" lon="11.688726368533041"><ele>500.0</ele><time>2026-03-22T07:37:42.998Z</time></trkpt><trkpt lat="43.22820685780445" lon="11.688907112753071"><ele>500.0</ele><time>2026-03-22T07:37:43.998Z</time></trkpt><trkpt lat="43.22825575344118" lon="11.689097252719218"><ele>500.0</ele><time>2026-03-22T07:37:44.998Z</time></trkpt><trkpt lat="43.22830242784089" lon="11.689275544060694"><ele>500.0</ele><time>2026-03-22T07:37:45.998Z</time></trkpt><trkpt lat="43.22834933461023" lon="11.689445691618428"><ele>498.5</ele><time>2026-03-22T07:37:46.998Z</time></trkpt><trkpt lat="43.22841284766372" lon="11.689597759383462"><ele>497.0</ele><time>2026-03-22T07:37:47.998Z</time></trkpt><trkpt lat="43.22845814438437" lon="11.689753797063236"><ele>495.5</ele><time>2026-03-22T07:37:48.998Z</time></trkpt><trkpt lat="43.22851005731166" lon="11.689912091976147"><ele>494.0</ele><time>2026-03-22T07:37:49.998Z</time></trkpt><trkpt lat="43.228559952937" lon="11.690069849783276"><ele>494.0</ele><time>2026-03-22T07:37:50.998Z</time></trkpt><trkpt lat="43.22860968742395" lon="11.690228930209932"><ele>494.0</ele><time>2026-03-22T07:37:51.998Z</time></trkpt><trkpt lat="43.22865513253662" lon="11.690393322037716"><ele>494.0</ele><time>2026-03-22T07:37:52.998Z</time></trkpt><trkpt lat="43.228708956068374" lon="11.690566152354483"><ele>494.0</ele><time>2026-03-22T07:37:53.998Z</time></trkpt><trkpt lat="43.228759279413175" lon="11.690730528390219"><ele>492.2</ele><time>2026-03-22T07:37:54.998Z</time></trkpt><trkpt lat="43.22879995137939" lon="11.690881699464796"><ele>490.4</ele><time>2026-03-22T07:37:56Z</time></trkpt><trkpt lat="43.22885564184205" lon="11.690999040453637"><ele>488.6</ele><time>2026-03-22T07:37:57Z</time></trkpt><trkpt lat="43.228910765360375" lon="11.691109177034654"><ele>486.8</ele><time>2026-03-22T07:37:58Z</time></trkpt><trkpt lat="43.22900114862305" lon="11.691187734292104"><ele>485.0</ele><time>2026-03-22T07:37:59Z</time></trkpt><trkpt lat="43.22910994016468" lon="11.691243050709291"><ele>484.75</ele><time>2026-03-22T07:38:00Z</time></trkpt><trkpt lat="43.22922820279465" lon="11.691267676726522"><ele>484.5</ele><time>2026-03-22T07:38:01Z</time></trkpt><trkpt lat="43.229339215842224" lon="11.691289067035884"><ele>484.25</ele><time>2026-03-22T07:38:02Z</time></trkpt><trkpt lat="43.229453847136234" lon="11.691277212042074"><ele>484.0</ele><time>2026-03-22T07:38:03Z</time></trkpt><trkpt lat="43.22957379778481" lon="11.691259224704321"><ele>484.0</ele><time>2026-03-22T07:38:04Z</time></trkpt><trkpt lat="43.22968800428036" lon="11.69126642742075"><ele>484.0</ele><time>2026-03-22T07:38:05Z</time></trkpt><trkpt lat="43.22978877911992" lon="11.691306177054882"><ele>484.0</ele><time>2026-03-22T07:38:06Z</time></trkpt><trkpt lat="43.22988831458113" lon="11.691368870955406"><ele>484.0</ele><time>2026-03-22T07:38:07Z</time></trkpt><trkpt lat="43.22997299199477" lon="11.691499001337737"><ele>484.0</ele><time>2026-03-22T07:38:08Z</time></trkpt><trkpt lat="43.23005435419206" lon="11.691626899946124"><ele>484.0</ele><time>2026-03-22T07:38:09Z</time></trkpt><trkpt lat="43.230148599834216" lon="11.691751454007807"><ele>484.0</ele><time>2026-03-22T07:38:10Z</time></trkpt><trkpt lat="43.230232413901284" lon="11.691887469353436"><ele>484.0</ele><time>2026-03-22T07:38:11Z</time></trkpt><trkpt lat="43.23033269646451" lon="11.692015283626208"><ele>484.0</ele><time>2026-03-22T07:38:12Z</time></trkpt><trkpt lat="43.23043738652421" lon="11.692122079324701"><ele>484.0</ele><time>2026-03-22T07:38:13Z</time></trkpt><trkpt lat="43.23054141363865" lon="11.692220395594655"><ele>484.0</ele><time>2026-03-22T07:38:14Z</time></trkpt><trkpt lat="43.23063089537506" lon="11.692337246602026"><ele>484.0</ele><time>2026-03-22T07:38:15Z</time></trkpt><trkpt lat="43.23074897542087" lon="11.692389489307578"><ele>484.0</ele><time>2026-03-22T07:38:16Z</time></trkpt><trkpt lat="43.23086568575428" lon="11.692433162493975"><ele>484.0</ele><time>2026-03-22T07:38:17Z</time></trkpt><trkpt lat="43.23099385714712" lon="11.692452605952745"><ele>484.0</ele><time>2026-03-22T07:38:18Z</time></trkpt><trkpt lat="43.231127619101706" lon="11.692487830068261"><ele>484.0</ele><time>2026-03-22T07:38:19Z</time></trkpt><trkpt lat="43.231263159077535" lon="11.692524699586329"><ele>484.0</ele><time>2026-03-22T07:38:20Z</time></trkpt><trkpt lat="43.231386217317024" lon="11.692575623248931"><ele>484.0</ele><time>2026-03-22T07:38:21Z</time></trkpt><trkpt lat="43.23149680409975" lon="11.692637789384674"><ele>484.0</ele><time>2026-03-22T07:38:22Z</time></trkpt><trkpt lat="43.23160446969502" lon="11.692721972573125"><ele>484.0</ele><time>2026-03-22T07:38:23Z</time></trkpt><trkpt lat="43.23171465257889" lon="11.692829795198538"><ele>486.75</ele><time>2026-03-22T07:38:24Z</time></trkpt><trkpt lat="43.231821915139456" lon="11.692952122663204"><ele>489.5</ele><time>2026-03-22T07:38:25Z</time></trkpt><trkpt lat="43.23191850003523" lon="11.693086354481679"><ele>492.25</ele><time>2026-03-22T07:38:26Z</time></trkpt><trkpt lat="43.232007280991915" lon="11.693212105411043"><ele>495.0</ele><time>2026-03-22T07:38:27Z</time></trkpt><trkpt lat="43.232087043362135" lon="11.693322901313039"><ele>495.0</ele><time>2026-03-22T07:38:28Z</time></trkpt><trkpt lat="43.23216268916748" lon="11.693443267803726"><ele>495.0</ele><time>2026-03-22T07:38:29Z</time></trkpt><trkpt lat="43.23222368433111" lon="11.69358594651891"><ele>495.0</ele><time>2026-03-22T07:38:30Z</time></trkpt><trkpt lat="43.23226912144337" lon="11.69374722634033"><ele>495.0</ele><time>2026-03-22T07:38:31Z</time></trkpt><trkpt lat="43.23232333968634" lon="11.693904532492118"><ele>495.0</ele><time>2026-03-22T07:38:32Z</time></trkpt><trkpt lat="43.23238952867458" lon="11.694042104325469"><ele>495.0</ele><time>2026-03-22T07:38:33Z</time></trkpt><trkpt lat="43.23246575342989" lon="11.69414767682012"><ele>495.0</ele><time>2026-03-22T07:38:34Z</time></trkpt><trkpt lat="43.23256626623393" lon="11.694214164295929"><ele>495.0</ele><time>2026-03-22T07:38:35Z</time></trkpt><trkpt lat="43.23268262084333" lon="11.694259862648027"><ele>495.0</ele><time>2026-03-22T07:38:36Z</time></trkpt><trkpt lat="43.232813547373716" lon="11.694293092369232"><ele>495.0</ele><time>2026-03-22T07:38:37Z</time></trkpt><trkpt lat="43.232953882271715" lon="11.694321003959644"><ele>495.0</ele><time>2026-03-22T07:38:38Z</time></trkpt><trkpt lat="43.233073482690244" lon="11.694344128890055"><ele>495.0</ele><time>2026-03-22T07:38:39Z</time></trkpt><trkpt lat="43.2331822616113" lon="11.694366306422527"><ele>494.8</ele><time>2026-03-22T07:38:40Z</time></trkpt><trkpt lat="43.23328349270881" lon="11.694385638627153"><ele>494.6</ele><time>2026-03-22T07:38:40.999Z</time></trkpt><trkpt lat="43.23337807455286" lon="11.694413602651363"><ele>494.4</ele><time>2026-03-22T07:38:41.999Z</time></trkpt><trkpt lat="43.23346644536907" lon="11.694441094948415"><ele>494.2</ele><time>2026-03-22T07:38:42.999Z</time></trkpt><trkpt lat="43.2335591205948" lon="11.694468510722961"><ele>494.0</ele><time>2026-03-22T07:38:43.999Z</time></trkpt><trkpt lat="43.233652626847054" lon="11.694494310783723"><ele>494.0</ele><time>2026-03-22T07:38:44.999Z</time></trkpt><trkpt lat="43.23374647233777" lon="11.694526755248354"><ele>494.0</ele><time>2026-03-22T07:38:45.999Z</time></trkpt><trkpt lat="43.2338378886371" lon="11.694562116502883"><ele>494.0</ele><time>2026-03-22T07:38:46.999Z</time></trkpt><trkpt lat="43.2339282683615" lon="11.694601422450503"><ele>494.0</ele><time>2026-03-22T07:38:47.999Z</time></trkpt><trkpt lat="43.23400812409963" lon="11.694666471754422"><ele>494.0</ele><time>2026-03-22T07:38:48.999Z</time></trkpt><trkpt lat="43.23408813509182" lon="11.694714681088126"><ele>493.99999999999994</ele><time>2026-03-22T07:38:49.999Z</time></trkpt><trkpt lat="43.23416041047954" lon="11.694743238091966"><ele>494.0</ele><time>2026-03-22T07:38:50.999Z</time></trkpt><trkpt lat="43.23421054692281" lon="11.694800134939502"><ele>494.0</ele><time>2026-03-22T07:38:51.999Z</time></trkpt><trkpt lat="43.234277319959034" lon="11.694873648094763"><ele>494.0</ele><time>2026-03-22T07:38:53.999Z</time></trkpt><trkpt lat="43.23433228838161" lon="11.694916722532428"><ele>493.99999999999994</ele><time>2026-03-22T07:38:56.999Z</time></trkpt><trkpt lat="43.23432150759566" lon="11.694761900709414"><ele>494.0</ele><time>2026-03-22T07:39:01.999Z</time></trkpt><trkpt lat="43.234270289041625" lon="11.69466715401574"><ele>494.0</ele><time>2026-03-22T07:39:03.999Z</time></trkpt><trkpt lat="43.234203724631755" lon="11.694545019441875"><ele>494.0</ele><time>2026-03-22T07:39:05.999Z</time></trkpt><trkpt lat="43.23413663473642" lon="11.694425104427388"><ele>494.0</ele><time>2026-03-22T07:39:07.999Z</time></trkpt><trkpt lat="43.23409894665423" lon="11.694313729539088"><ele>494.0</ele><time>2026-03-22T07:39:09.999Z</time></trkpt><trkpt lat="43.23413484680986" lon="11.694213896138166"><ele>494.0</ele><time>2026-03-22T07:39:11.999Z</time></trkpt><trkpt lat="43.23419481258835" lon="11.694075864310593"><ele>495.2</ele><time>2026-03-22T07:39:13.999Z</time></trkpt><trkpt lat="43.23427193940476" lon="11.693951909836647"><ele>496.4</ele><time>2026-03-22T07:39:15.999Z</time></trkpt><trkpt lat="43.23437432481201" lon="11.693834128649893"><ele>497.6</ele><time>2026-03-22T07:39:17.999Z</time></trkpt><trkpt lat="43.23442989063864" lon="11.69375502668538"><ele>498.8</ele><time>2026-03-22T07:39:18.999Z</time></trkpt><trkpt lat="43.23450368710296" lon="11.693669363425036"><ele>500.0</ele><time>2026-03-22T07:39:19.999Z</time></trkpt><trkpt lat="43.234590828218316" lon="11.693649333490768"><ele>500.0</ele><time>2026-03-22T07:39:21.999Z</time></trkpt><trkpt lat="43.23466393310802" lon="11.693662526694961"><ele>500.0</ele><time>2026-03-22T07:39:22.999Z</time></trkpt><trkpt lat="43.23475508659884" lon="11.69367481075094"><ele>500.0</ele><time>2026-03-22T07:39:23.999Z</time></trkpt><trkpt lat="43.23482454766461" lon="11.693684503406029"><ele>500.0</ele><time>2026-03-22T07:39:24.999Z</time></trkpt><trkpt lat="43.234873958379545" lon="11.693826095848623"><ele>500.0</ele><time>2026-03-22T07:39:26.999Z</time></trkpt><trkpt lat="43.23490123076383" lon="11.693964233000093"><ele>499.99999999999994</ele><time>2026-03-22T07:39:27.999Z</time></trkpt><trkpt lat="43.234937227758714" lon="11.694083426553235"><ele>500.0</ele><time>2026-03-22T07:39:28.999Z</time></trkpt><trkpt lat="43.23499517765003" lon="11.694182902987377"><ele>500.0</ele><time>2026-03-22T07:39:29.999Z</time></trkpt><trkpt lat="43.2350543407462" lon="11.69427419825064"><ele>500.0</ele><time>2026-03-22T07:39:30.999Z</time></trkpt><trkpt lat="43.235120577511076" lon="11.694350005061908"><ele>499.99999999999994</ele><time>2026-03-22T07:39:31.999Z</time></trkpt><trkpt lat="43.235192228432446" lon="11.69441787834706"><ele>500.0</ele><time>2026-03-22T07:39:32.999Z</time></trkpt><trkpt lat="43.23525797203469" lon="11.694505692400083"><ele>500.0</ele><time>2026-03-22T07:39:33.999Z</time></trkpt><trkpt lat="43.23530949480485" lon="11.694588288673692"><ele>500.0</ele><time>2026-03-22T07:39:34.999Z</time></trkpt><trkpt lat="43.235342015819526" lon="11.694662387540358"><ele>500.0</ele><time>2026-03-22T07:39:35.999Z</time></trkpt><trkpt lat="43.23540832995877" lon="11.694762008259962"><ele>500.0</ele><time>2026-03-22T07:39:37.999Z</time></trkpt><trkpt lat="43.23548090655787" lon="11.694855236339068"><ele>500.0</ele><time>2026-03-22T07:39:39.999Z</time></trkpt><trkpt lat="43.23547755015659" lon="11.6950130693101"><ele>499.99999999999994</ele><time>2026-03-22T07:39:41.999Z</time></trkpt><trkpt lat="43.235466827905455" lon="11.695100038112436"><ele>500.0</ele><time>2026-03-22T07:39:42.998Z</time></trkpt><trkpt lat="43.235474026438396" lon="11.695209467880964"><ele>500.0</ele><time>2026-03-22T07:39:44.998Z</time></trkpt><trkpt lat="43.23552942996002" lon="11.695301080426862"><ele>500.0</ele><time>2026-03-22T07:39:46.998Z</time></trkpt><trkpt lat="43.23550399772752" lon="11.695388019482664"><ele>499.99999999999994</ele><time>2026-03-22T07:39:48.998Z</time></trkpt><trkpt lat="43.235496518454326" lon="11.695513595720762"><ele>500.0</ele><time>2026-03-22T07:39:50.998Z</time></trkpt><trkpt lat="43.235494551965616" lon="11.695641460882118"><ele>498.8333333333333</ele><time>2026-03-22T07:39:52.998Z</time></trkpt><trkpt lat="43.23556285216618" lon="11.695777730438788"><ele>497.66666666666663</ele><time>2026-03-22T07:39:54.998Z</time></trkpt><trkpt lat="43.2356203487879" lon="11.6958283636065"><ele>496.5</ele><time>2026-03-22T07:39:55.998Z</time></trkpt><trkpt lat="43.23567252797907" lon="11.695908292218713"><ele>495.33333333333337</ele><time>2026-03-22T07:39:56.998Z</time></trkpt><trkpt lat="43.235726728695596" lon="11.695962041761822"><ele>494.1666666666667</ele><time>2026-03-22T07:40:02Z</time></trkpt><trkpt lat="43.23576227501986" lon="11.696035942123588"><ele>493.0</ele><time>2026-03-22T07:40:06Z</time></trkpt><trkpt lat="43.23579671748862" lon="11.696176469024204"><ele>491.2</ele><time>2026-03-22T07:40:08Z</time></trkpt><trkpt lat="43.23587789557497" lon="11.696302313060666"><ele>489.4</ele><time>2026-03-22T07:40:10Z</time></trkpt><trkpt lat="43.23591493331476" lon="11.696409768733034"><ele>487.59999999999997</ele><time>2026-03-22T07:40:12Z</time></trkpt><trkpt lat="43.23598964826306" lon="11.696459470782512"><ele>485.79999999999995</ele><time>2026-03-22T07:40:14Z</time></trkpt><trkpt lat="43.23603309886794" lon="11.69654643919956"><ele>484.0</ele><time>2026-03-22T07:40:16Z</time></trkpt><trkpt lat="43.23609212321191" lon="11.696456263715898"><ele>484.00000000000006</ele><time>2026-03-22T07:40:19Z</time></trkpt><trkpt lat="43.23614968936749" lon="11.696408302527734"><ele>484.0</ele><time>2026-03-22T07:40:21Z</time></trkpt><trkpt lat="43.236241052081816" lon="11.696337625947717"><ele>484.0</ele><time>2026-03-22T07:40:23Z</time></trkpt><trkpt lat="43.23629817600714" lon="11.696379527574729"><ele>484.0</ele><time>2026-03-22T07:40:24Z</time></trkpt><trkpt lat="43.236394186228104" lon="11.6964705162233"><ele>484.00000000000006</ele><time>2026-03-22T07:40:26Z</time></trkpt><trkpt lat="43.236472174247176" lon="11.696501105448872"><ele>484.0</ele><time>2026-03-22T07:40:28Z</time></trkpt><trkpt lat="43.23657216069205" lon="11.696513619367348"><ele>484.00000000000006</ele><time>2026-03-22T07:40:30Z</time></trkpt><trkpt lat="43.236638362594995" lon="11.69651586159904"><ele>484.0</ele><time>2026-03-22T07:40:33Z</time></trkpt><trkpt lat="43.236666653810126" lon="11.696427221401432"><ele>484.0</ele><time>2026-03-22T07:40:37Z</time></trkpt><trkpt lat="43.23664223694924" lon="11.696331630606187"><ele>484.0</ele><time>2026-03-22T07:40:39Z</time></trkpt><trkpt lat="43.236569759454476" lon="11.696272536920416"><ele>484.00000000000006</ele><time>2026-03-22T07:40:42Z</time></trkpt><trkpt lat="43.23652053603007" lon="11.696213586600377"><ele>484.0</ele><time>2026-03-22T07:40:47.999Z</time></trkpt><trkpt lat="43.23645031404119" lon="11.696120446919716"><ele>485.0</ele><time>2026-03-22T07:40:50.999Z</time></trkpt><trkpt lat="43.23637961310716" lon="11.696001965092071"><ele>486.0</ele><time>2026-03-22T07:40:52.999Z</time></trkpt><trkpt lat="43.23635474646628" lon="11.695901144396725"><ele>487.0</ele><time>2026-03-22T07:40:53.999Z</time></trkpt><trkpt lat="43.23634158477986" lon="11.695809583297311"><ele>488.0</ele><time>2026-03-22T07:40:54.999Z</time></trkpt><trkpt lat="43.23638400422836" lon="11.695645660286218"><ele>489.0</ele><time>2026-03-22T07:40:56.999Z</time></trkpt><trkpt lat="43.236399425876364" lon="11.6955467893802"><ele>489.0</ele><time>2026-03-22T07:40:57.999Z</time></trkpt><trkpt lat="43.236401629407816" lon="11.695455947007975"><ele>489.0</ele><time>2026-03-22T07:40:58.999Z</time></trkpt><trkpt lat="43.23643077726185" lon="11.695314439245875"><ele>489.0</ele><time>2026-03-22T07:41:00.999Z</time></trkpt><trkpt lat="43.23645538457869" lon="11.69519182065579"><ele>489.0</ele><time>2026-03-22T07:41:01.999Z</time></trkpt><trkpt lat="43.236516900212855" lon="11.69506428597502"><ele>489.0</ele><time>2026-03-22T07:41:03.999Z</time></trkpt><trkpt lat="43.23655794991653" lon="11.694991561510111"><ele>489.0</ele><time>2026-03-22T07:41:04.999Z</time></trkpt><trkpt lat="43.236671939947975" lon="11.694913457689886"><ele>487.6666666666667</ele><time>2026-03-22T07:41:06.999Z</time></trkpt><trkpt lat="43.236720899439014" lon="11.69482274118959"><ele>486.33333333333337</ele><time>2026-03-22T07:41:07.999Z</time></trkpt><trkpt lat="43.23679000990097" lon="11.694704104002964"><ele>485.0</ele><time>2026-03-22T07:41:08.999Z</time></trkpt><trkpt lat="43.236831199348856" lon="11.694624782349443"><ele>483.6666666666667</ele><time>2026-03-22T07:41:09.999Z</time></trkpt><trkpt lat="43.23689844175629" lon="11.6945441773936"><ele>482.33333333333337</ele><time>2026-03-22T07:41:10.999Z</time></trkpt><trkpt lat="43.236935465213264" lon="11.694468601646069"><ele>481.0</ele><time>2026-03-22T07:41:11.999Z</time></trkpt><trkpt lat="43.237019799473146" lon="11.694339419205024"><ele>481.0</ele><time>2026-03-22T07:41:13.999Z</time></trkpt><trkpt lat="43.23709041698276" lon="11.694255734109309"><ele>481.0</ele><time>2026-03-22T07:41:14.999Z</time></trkpt><trkpt lat="43.23716344842265" lon="11.694113267285967"><ele>481.0</ele><time>2026-03-22T07:41:16.999Z</time></trkpt><trkpt lat="43.23719219885931" lon="11.694006417970915"><ele>481.0</ele><time>2026-03-22T07:41:18.999Z</time></trkpt><trkpt lat="43.237186780707034" lon="11.693884855161848"><ele>481.0</ele><time>2026-03-22T07:41:20.999Z</time></trkpt><trkpt lat="43.23716874908699" lon="11.693749984251156"><ele>481.00000000000006</ele><time>2026-03-22T07:41:22.999Z</time></trkpt><trkpt lat="43.23715221459067" lon="11.693595764895493"><ele>481.0</ele><time>2026-03-22T07:41:24.999Z</time></trkpt><trkpt lat="43.237147279983276" lon="11.693503788283262"><ele>481.0</ele><time>2026-03-22T07:41:25.999Z</time></trkpt><trkpt lat="43.23713784546075" lon="11.693381885826282"><ele>481.0</ele><time>2026-03-22T07:41:26.999Z</time></trkpt><trkpt lat="43.237148561429215" lon="11.693257442959894"><ele>481.00000000000006</ele><time>2026-03-22T07:41:28.999Z</time></trkpt><trkpt lat="43.237115289765505" lon="11.69318319720347"><ele>481.0</ele><time>2026-03-22T07:41:32.999Z</time></trkpt><trkpt lat="43.237090075040484" lon="11.693097950725251"><ele>479.4</ele><time>2026-03-22T07:41:38.999Z</time></trkpt><trkpt lat="43.237059741735024" lon="11.69290609645435"><ele>477.8</ele><time>2026-03-22T07:42:19Z</time></trkpt><trkpt lat="43.23699218513788" lon="11.69288857592446"><ele>476.19999999999993</ele><time>2026-03-22T07:43:03.999Z</time></trkpt><trkpt lat="43.23692562491553" lon="11.692866245246407"><ele>474.59999999999997</ele><time>2026-03-22T07:43:07.999Z</time></trkpt><trkpt lat="43.236835912223796" lon="11.692818471221583"><ele>473.0</ele><time>2026-03-22T07:43:10.999Z</time></trkpt><trkpt lat="43.236753846872844" lon="11.692736865898874"><ele>473.3333333333333</ele><time>2026-03-22T07:43:12.999Z</time></trkpt><trkpt lat="43.236666314812325" lon="11.692643702033669"><ele>473.66666666666663</ele><time>2026-03-22T07:43:14.999Z</time></trkpt><trkpt lat="43.23661490985764" lon="11.692575088245924"><ele>474.0</ele><time>2026-03-22T07:43:16.999Z</time></trkpt><trkpt lat="43.23654594826929" lon="11.692580496064192"><ele>474.33333333333337</ele><time>2026-03-22T07:43:18.999Z</time></trkpt><trkpt lat="43.236468527632105" lon="11.692632355971881"><ele>474.6666666666667</ele><time>2026-03-22T07:43:21.999Z</time></trkpt><trkpt lat="43.23641423448956" lon="11.692719920424961"><ele>475.0</ele><time>2026-03-22T07:43:24.999Z</time></trkpt><trkpt lat="43.236367015351256" lon="11.6927978191269"><ele>476.83333333333337</ele><time>2026-03-22T07:43:26.999Z</time></trkpt><trkpt lat="43.23632957381526" lon="11.69289587409112"><ele>478.6666666666667</ele><time>2026-03-22T07:43:28.999Z</time></trkpt><trkpt lat="43.23629690631988" lon="11.69297434540345"><ele>480.5</ele><time>2026-03-22T07:43:30.999Z</time></trkpt><trkpt lat="43.23621924560299" lon="11.693091997972713"><ele>482.33333333333337</ele><time>2026-03-22T07:43:32.999Z</time></trkpt><trkpt lat="43.236167288257185" lon="11.693156500438837"><ele>484.1666666666667</ele><time>2026-03-22T07:43:33.999Z</time></trkpt><trkpt lat="43.236089059021424" lon="11.693204831737091"><ele>486.0</ele><time>2026-03-22T07:43:35.999Z</time></trkpt><trkpt lat="43.2360280358348" lon="11.693102850011071"><ele>486.0</ele><time>2026-03-22T07:43:37.999Z</time></trkpt><trkpt lat="43.23603147925077" lon="11.692999551726754"><ele>486.0</ele><time>2026-03-22T07:43:39.999Z</time></trkpt><trkpt lat="43.236028267279295" lon="11.692850233702341"><ele>486.0</ele><time>2026-03-22T07:43:40.999Z</time></trkpt><trkpt lat="43.236084870340356" lon="11.692707573847446"><ele>486.0</ele><time>2026-03-22T07:43:41.999Z</time></trkpt><trkpt lat="43.236083253296115" lon="11.6925899274334"><ele>486.0</ele><time>2026-03-22T07:43:43.999Z</time></trkpt><trkpt lat="43.23604611977224" lon="11.692427409784147"><ele>484.1666666666667</ele><time>2026-03-22T07:43:45.999Z</time></trkpt><trkpt lat="43.23599230265776" lon="11.69236386604763"><ele>482.33333333333337</ele><time>2026-03-22T07:43:46.999Z</time></trkpt><trkpt lat="43.23592295980571" lon="11.692317849739323"><ele>480.5</ele><time>2026-03-22T07:43:48.999Z</time></trkpt><trkpt lat="43.23587175598336" lon="11.692238008038727"><ele>478.6666666666667</ele><time>2026-03-22T07:43:49.999Z</time></trkpt><trkpt lat="43.23581924999353" lon="11.692128383671207"><ele>476.83333333333337</ele><time>2026-03-22T07:43:50.999Z</time></trkpt><trkpt lat="43.235770759522836" lon="11.692071325589588"><ele>475.0</ele><time>2026-03-22T07:43:51.999Z</time></trkpt><trkpt lat="43.235715372224234" lon="11.692006113997474"><ele>477.0</ele><time>2026-03-22T07:43:52.999Z</time></trkpt><trkpt lat="43.23561805912223" lon="11.691962271630992"><ele>479.0</ele><time>2026-03-22T07:43:53.999Z</time></trkpt><trkpt lat="43.235536416421674" lon="11.69190321462"><ele>481.0</ele><time>2026-03-22T07:43:54.999Z</time></trkpt><trkpt lat="43.23542381406516" lon="11.691850432677507"><ele>483.0</ele><time>2026-03-22T07:43:56.999Z</time></trkpt><trkpt lat="43.23532189145267" lon="11.691782812668302"><ele>485.0</ele><time>2026-03-22T07:43:58.998Z</time></trkpt><trkpt lat="43.235211646133145" lon="11.691733432862385"><ele>480.2</ele><time>2026-03-22T07:44:00.998Z</time></trkpt><trkpt lat="43.23508984597446" lon="11.691660153859196"><ele>475.4</ele><time>2026-03-22T07:44:02.998Z</time></trkpt><trkpt lat="43.2350357232862" lon="11.691579971944384"><ele>470.6</ele><time>2026-03-22T07:44:03.998Z</time></trkpt><trkpt lat="43.23496113720559" lon="11.691505412494987"><ele>465.8</ele><time>2026-03-22T07:44:05.998Z</time></trkpt><trkpt lat="43.23488060095777" lon="11.691459360998344"><ele>461.0</ele><time>2026-03-22T07:44:06.998Z</time></trkpt><trkpt lat="43.23481092765432" lon="11.691420128549582"><ele>462.16666666666663</ele><time>2026-03-22T07:44:07.998Z</time></trkpt><trkpt lat="43.23474327307346" lon="11.691407598525876"><ele>463.3333333333333</ele><time>2026-03-22T07:44:08.998Z</time></trkpt><trkpt lat="43.23466407981847" lon="11.691366739004309"><ele>464.5</ele><time>2026-03-22T07:44:09.998Z</time></trkpt><trkpt lat="43.23457371363213" lon="11.691354504377843"><ele>465.66666666666663</ele><time>2026-03-22T07:44:11.998Z</time></trkpt><trkpt lat="43.234482833239994" lon="11.691330816677931"><ele>466.8333333333333</ele><time>2026-03-22T07:44:14Z</time></trkpt><trkpt lat="43.23439684784139" lon="11.691319409256531"><ele>468.0</ele><time>2026-03-22T07:44:15Z</time></trkpt><trkpt lat="43.23427898867206" lon="11.691295420939877"><ele>468.0</ele><time>2026-03-22T07:44:17Z</time></trkpt><trkpt lat="43.23415764808329" lon="11.69128465348849"><ele>467.99999999999994</ele><time>2026-03-22T07:44:19Z</time></trkpt><trkpt lat="43.234090504733494" lon="11.69126608477876"><ele>467.99999999999994</ele><time>2026-03-22T07:44:20Z</time></trkpt><trkpt lat="43.234013845351676" lon="11.69125039995018"><ele>468.0</ele><time>2026-03-22T07:44:21Z</time></trkpt><trkpt lat="43.23392143648046" lon="11.691177386132885"><ele>468.0</ele><time>2026-03-22T07:44:23Z</time></trkpt><trkpt lat="43.23384449871107" lon="11.691075656827266"><ele>464.4</ele><time>2026-03-22T07:44:25Z</time></trkpt><trkpt lat="43.233774485615236" lon="11.691008059301593"><ele>460.79999999999995</ele><time>2026-03-22T07:44:27Z</time></trkpt><trkpt lat="43.233725840442645" lon="11.690890161852812"><ele>457.2</ele><time>2026-03-22T07:44:29Z</time></trkpt><trkpt lat="43.23364257463847" lon="11.690781393697321"><ele>453.6</ele><time>2026-03-22T07:44:31Z</time></trkpt><trkpt lat="43.23359285088559" lon="11.690702809969885"><ele>450.0</ele><time>2026-03-22T07:44:32Z</time></trkpt><trkpt lat="43.23352042735127" lon="11.690592465352909"><ele>450.00000000000006</ele><time>2026-03-22T07:44:34Z</time></trkpt><trkpt lat="43.233501559442125" lon="11.690477949035277"><ele>450.0</ele><time>2026-03-22T07:44:37Z</time></trkpt><trkpt lat="43.23347438924664" lon="11.69036973949569"><ele>450.00000000000006</ele><time>2026-03-22T07:44:39Z</time></trkpt><trkpt lat="43.233429371009024" lon="11.690309253457318"><ele>450.00000000000006</ele><time>2026-03-22T07:44:49Z</time></trkpt><trkpt lat="43.233376213224005" lon="11.690261803903962"><ele>450.0</ele><time>2026-03-22T07:44:54Z</time></trkpt><trkpt lat="43.233304285164444" lon="11.690277719226161"><ele>450.00000000000006</ele><time>2026-03-22T07:45:02.999Z</time></trkpt><trkpt lat="43.2332414867689" lon="11.690270173589814"><ele>450.00000000000006</ele><time>2026-03-22T07:45:06.999Z</time></trkpt><trkpt lat="43.23317200351777" lon="11.690233894951907"><ele>450.0</ele><time>2026-03-22T07:45:10.999Z</time></trkpt><trkpt lat="43.23311317142532" lon="11.690155745011282"><ele>450.0</ele><time>2026-03-22T07:45:14.999Z</time></trkpt><trkpt lat="43.233084948702555" lon="11.690062919074576"><ele>450.0</ele><time>2026-03-22T07:45:17.999Z</time></trkpt><trkpt lat="43.233014868984846" lon="11.690011087735593"><ele>450.0</ele><time>2026-03-22T07:45:49.999Z</time></trkpt><trkpt lat="43.23296772375778" lon="11.689927553326756"><ele>450.0</ele><time>2026-03-22T07:45:54.999Z</time></trkpt><trkpt lat="43.232896740871034" lon="11.689900448101199"><ele>450.0</ele><time>2026-03-22T07:45:56.999Z</time></trkpt><trkpt lat="43.23294817735704" lon="11.689838460046788"><ele>450.0</ele><time>2026-03-22T07:46:01.998Z</time></trkpt><trkpt lat="43.23303359086103" lon="11.689861770017453"><ele>450.0</ele><time>2026-03-22T07:46:03.998Z</time></trkpt><trkpt lat="43.23310160114133" lon="11.689873795566756"><ele>450.0</ele><time>2026-03-22T07:46:05.998Z</time></trkpt><trkpt lat="43.23323491096489" lon="11.689916793824187"><ele>450.0</ele><time>2026-03-22T07:46:37Z</time></trkpt><trkpt lat="43.23331840569531" lon="11.68994988453474"><ele>450.0</ele><time>2026-03-22T07:46:39Z</time></trkpt><trkpt lat="43.23339571413918" lon="11.689956366139945"><ele>449.3333333333333</ele><time>2026-03-22T07:46:40Z</time></trkpt><trkpt lat="43.23347242281213" lon="11.689975485173425"><ele>448.66666666666663</ele><time>2026-03-22T07:46:41Z</time></trkpt><trkpt lat="43.23358734007172" lon="11.690004589030602"><ele>448.0</ele><time>2026-03-22T07:46:42Z</time></trkpt><trkpt lat="43.233670489246066" lon="11.690022582060053"><ele>447.3333333333333</ele><time>2026-03-22T07:46:43Z</time></trkpt><trkpt lat="43.23373718051888" lon="11.690008072496267"><ele>446.66666666666663</ele><time>2026-03-22T07:46:44Z</time></trkpt><trkpt lat="43.23381425698041" lon="11.689956891141042"><ele>446.0</ele><time>2026-03-22T07:46:46Z</time></trkpt><trkpt lat="43.2338474596462" lon="11.690071877429421"><ele>446.0</ele><time>2026-03-22T07:46:48Z</time></trkpt><trkpt lat="43.2339275944416" lon="11.69018623856507"><ele>446.0</ele><time>2026-03-22T07:46:50Z</time></trkpt><trkpt lat="43.234073189702855" lon="11.690203435208257"><ele>446.0</ele><time>2026-03-22T07:46:52Z</time></trkpt><trkpt lat="43.23418983455593" lon="11.690211414138448"><ele>446.0</ele><time>2026-03-22T07:46:53Z</time></trkpt><trkpt lat="43.2342956775333" lon="11.69022983099824"><ele>446.4</ele><time>2026-03-22T07:46:54Z</time></trkpt><trkpt lat="43.23440147566426" lon="11.690273769104707"><ele>446.8</ele><time>2026-03-22T07:46:55Z</time></trkpt><trkpt lat="43.23453503712893" lon="11.690285257743897"><ele>447.19999999999993</ele><time>2026-03-22T07:46:56Z</time></trkpt><trkpt lat="43.23462359956621" lon="11.690256762648305"><ele>447.59999999999997</ele><time>2026-03-22T07:46:57Z</time></trkpt><trkpt lat="43.2347176974132" lon="11.690243131537597"><ele>448.0</ele><time>2026-03-22T07:46:58Z</time></trkpt><trkpt lat="43.23479816527112" lon="11.690222176246117"><ele>447.79999999999995</ele><time>2026-03-22T07:46:59Z</time></trkpt><trkpt lat="43.23488193324351" lon="11.690221769282997"><ele>447.59999999999997</ele><time>2026-03-22T07:47:00Z</time></trkpt><trkpt lat="43.235010388128785" lon="11.69021013214271"><ele>447.40000000000003</ele><time>2026-03-22T07:47:01Z</time></trkpt><trkpt lat="43.23510753927319" lon="11.690205210323448"><ele>447.20000000000005</ele><time>2026-03-22T07:47:01.999Z</time></trkpt><trkpt lat="43.235202054772465" lon="11.690222378665762"><ele>447.0</ele><time>2026-03-22T07:47:02.999Z</time></trkpt><trkpt lat="43.23530271005202" lon="11.690241271401257"><ele>447.0</ele><time>2026-03-22T07:47:03.999Z</time></trkpt><trkpt lat="43.235391406579005" lon="11.690211012910124"><ele>447.0</ele><time>2026-03-22T07:47:04.999Z</time></trkpt><trkpt lat="43.235502970073235" lon="11.69022531881606"><ele>447.0</ele><time>2026-03-22T07:47:05.999Z</time></trkpt><trkpt lat="43.23558061574949" lon="11.690250425693673"><ele>447.0</ele><time>2026-03-22T07:47:06.999Z</time></trkpt><trkpt lat="43.23565922466633" lon="11.690252982703596"><ele>447.0</ele><time>2026-03-22T07:47:07.999Z</time></trkpt><trkpt lat="43.235726958018" lon="11.690232603767287"><ele>447.0</ele><time>2026-03-22T07:47:08.999Z</time></trkpt><trkpt lat="43.23585497991051" lon="11.69026542639728"><ele>443.25</ele><time>2026-03-22T07:47:10.999Z</time></trkpt><trkpt lat="43.23600070158621" lon="11.690292057772716"><ele>439.5</ele><time>2026-03-22T07:47:12.999Z</time></trkpt><trkpt lat="43.23610657711578" lon="11.69031673755819"><ele>435.75</ele><time>2026-03-22T07:47:13.999Z</time></trkpt><trkpt lat="43.236255701563515" lon="11.690308509340374"><ele>432.0</ele><time>2026-03-22T07:47:14.999Z</time></trkpt><trkpt lat="43.236369663814386" lon="11.690298955407197"><ele>431.6</ele><time>2026-03-22T07:47:15.999Z</time></trkpt><trkpt lat="43.23647020278255" lon="11.690301230411826"><ele>431.20000000000005</ele><time>2026-03-22T07:47:16.999Z</time></trkpt><trkpt lat="43.23657180847579" lon="11.69030914932286"><ele>430.8</ele><time>2026-03-22T07:47:17.999Z</time></trkpt><trkpt lat="43.23664612353599" lon="11.69030886962477"><ele>430.4</ele><time>2026-03-22T07:47:18.999Z</time></trkpt><trkpt lat="43.236706238629154" lon="11.690203105750875"><ele>430.0</ele><time>2026-03-22T07:47:20.999Z</time></trkpt><trkpt lat="43.2367524156799" lon="11.690075460458829"><ele>430.00000000000006</ele><time>2026-03-22T07:47:22.999Z</time></trkpt><trkpt lat="43.23681400996849" lon="11.690164253619335"><ele>430.0</ele><time>2026-03-22T07:47:26.999Z</time></trkpt><trkpt lat="43.23684510414889" lon="11.690276379755145"><ele>430.0</ele><time>2026-03-22T07:47:27.999Z</time></trkpt><trkpt lat="43.2368834879264" lon="11.690390878142662"><ele>430.0</ele><time>2026-03-22T07:47:28.999Z</time></trkpt><trkpt lat="43.236954852173874" lon="11.690509243229126"><ele>430.00000000000006</ele><time>2026-03-22T07:47:30.999Z</time></trkpt><trkpt lat="43.23700872447363" lon="11.69055825482343"><ele>430.0</ele><time>2026-03-22T07:47:31.999Z</time></trkpt><trkpt lat="43.23716750467951" lon="11.690632268676787"><ele>428.4</ele><time>2026-03-22T07:47:33.999Z</time></trkpt><trkpt lat="43.23723915863773" lon="11.690686327939726"><ele>426.8</ele><time>2026-03-22T07:47:34.999Z</time></trkpt><trkpt lat="43.23729056597616" lon="11.69078107028852"><ele>425.20000000000005</ele><time>2026-03-22T07:47:35.999Z</time></trkpt><trkpt lat="43.23734411646537" lon="11.690860121930838"><ele>423.6</ele><time>2026-03-22T07:47:36.999Z</time></trkpt><trkpt lat="43.23743559899238" lon="11.690972168252621"><ele>422.0</ele><time>2026-03-22T07:47:38.999Z</time></trkpt><trkpt lat="43.2374767762724" lon="11.691074150375028"><ele>420.40000000000003</ele><time>2026-03-22T07:47:39.999Z</time></trkpt><trkpt lat="43.23754438772434" lon="11.69116589556616"><ele>418.8</ele><time>2026-03-22T07:47:40.999Z</time></trkpt><trkpt lat="43.23762807495784" lon="11.691263743597561"><ele>417.2</ele><time>2026-03-22T07:47:41.999Z</time></trkpt><trkpt lat="43.23768549352002" lon="11.691380897112131"><ele>415.6</ele><time>2026-03-22T07:47:42.999Z</time></trkpt><trkpt lat="43.23775206035119" lon="11.691433940779818"><ele>414.0</ele><time>2026-03-22T07:47:43.999Z</time></trkpt><trkpt lat="43.23781940073696" lon="11.691454685806528"><ele>414.0</ele><time>2026-03-22T07:47:44.999Z</time></trkpt><trkpt lat="43.23790054036895" lon="11.691477446976513"><ele>414.0</ele><time>2026-03-22T07:47:45.999Z</time></trkpt><trkpt lat="43.237978137275995" lon="11.691485804855038"><ele>414.0</ele><time>2026-03-22T07:47:46.999Z</time></trkpt><trkpt lat="43.23807424820725" lon="11.691503573504802"><ele>414.0</ele><time>2026-03-22T07:47:47.999Z</time></trkpt><trkpt lat="43.23820998376358" lon="11.691587289910865"><ele>414.0</ele><time>2026-03-22T07:47:49.999Z</time></trkpt><trkpt lat="43.238319334650036" lon="11.691720015403835"><ele>415.4</ele><time>2026-03-22T07:47:50.999Z</time></trkpt><trkpt lat="43.23841694802835" lon="11.691858567153263"><ele>416.79999999999995</ele><time>2026-03-22T07:47:51.999Z</time></trkpt><trkpt lat="43.23848848891651" lon="11.691969762547316"><ele>418.20000000000005</ele><time>2026-03-22T07:47:52.999Z</time></trkpt><trkpt lat="43.23855364581759" lon="11.692042695310287"><ele>419.6</ele><time>2026-03-22T07:47:53.999Z</time></trkpt><trkpt lat="43.2386117091603" lon="11.692082392114896"><ele>421.0</ele><time>2026-03-22T07:47:54.999Z</time></trkpt><trkpt lat="43.238728504044126" lon="11.692111514546683"><ele>421.00000000000006</ele><time>2026-03-22T07:47:56.999Z</time></trkpt><trkpt lat="43.23880186429015" lon="11.692097238269822"><ele>421.0</ele><time>2026-03-22T07:47:57.999Z</time></trkpt><trkpt lat="43.238886688969025" lon="11.692033610965499"><ele>421.0</ele><time>2026-03-22T07:47:58.999Z</time></trkpt><trkpt lat="43.23895720828007" lon="11.692010304529074"><ele>421.0</ele><time>2026-03-22T07:47:59.999Z</time></trkpt><trkpt lat="43.239021083402264" lon="11.691972857388379"><ele>421.00000000000006</ele><time>2026-03-22T07:48:00.999Z</time></trkpt><trkpt lat="43.239107524694276" lon="11.691920530379406"><ele>421.0</ele><time>2026-03-22T07:48:01.999Z</time></trkpt><trkpt lat="43.23918087609956" lon="11.69188049442754"><ele>421.00000000000006</ele><time>2026-03-22T07:48:02.999Z</time></trkpt><trkpt lat="43.2392434904902" lon="11.691849319684076"><ele>421.0</ele><time>2026-03-22T07:48:03.999Z</time></trkpt><trkpt lat="43.23935014781089" lon="11.691724700823748"><ele>421.0</ele><time>2026-03-22T07:48:05.998Z</time></trkpt><trkpt lat="43.239389819010114" lon="11.691611424194273"><ele>421.0</ele><time>2026-03-22T07:48:06.998Z</time></trkpt><trkpt lat="43.239442319491786" lon="11.691542089203754"><ele>421.00000000000006</ele><time>2026-03-22T07:48:07.998Z</time></trkpt><trkpt lat="43.239504308882054" lon="11.691515509256986"><ele>421.0</ele><time>2026-03-22T07:48:10.998Z</time></trkpt><trkpt lat="43.239559073745205" lon="11.691619307403794"><ele>421.00000000000006</ele><time>2026-03-22T07:48:12.998Z</time></trkpt><trkpt lat="43.2395365861449" lon="11.691732629713211"><ele>421.0</ele><time>2026-03-22T07:48:13.998Z</time></trkpt><trkpt lat="43.23948884091611" lon="11.691825864122208"><ele>421.0</ele><time>2026-03-22T07:48:14.998Z</time></trkpt><trkpt lat="43.23948166273377" lon="11.691987052398376"><ele>421.0</ele><time>2026-03-22T07:48:16.998Z</time></trkpt><trkpt lat="43.2395085177508" lon="11.692085384866493"><ele>421.00000000000006</ele><time>2026-03-22T07:48:17.998Z</time></trkpt><trkpt lat="43.23952947608938" lon="11.692185099436465"><ele>421.0</ele><time>2026-03-22T07:48:18.998Z</time></trkpt><trkpt lat="43.23952643731242" lon="11.692302412549948"><ele>418.0</ele><time>2026-03-22T07:48:19.998Z</time></trkpt><trkpt lat="43.23950995032085" lon="11.692420019139789"><ele>415.0</ele><time>2026-03-22T07:48:20.998Z</time></trkpt><trkpt lat="43.23948701671992" lon="11.69254004649021"><ele>412.0</ele><time>2026-03-22T07:48:21.998Z</time></trkpt><trkpt lat="43.239478165324094" lon="11.692637595953356"><ele>409.0</ele><time>2026-03-22T07:48:22.998Z</time></trkpt><trkpt lat="43.2394814501432" lon="11.69278412631419"><ele>406.0</ele><time>2026-03-22T07:48:23.998Z</time></trkpt><trkpt lat="43.23949414738606" lon="11.692928100609986"><ele>406.00000000000006</ele><time>2026-03-22T07:48:24.998Z</time></trkpt><trkpt lat="43.23947104215286" lon="11.693060300125419"><ele>406.0</ele><time>2026-03-22T07:48:26Z</time></trkpt><trkpt lat="43.23942931533285" lon="11.693172483299318"><ele>406.0</ele><time>2026-03-22T07:48:27Z</time></trkpt><trkpt lat="43.23942842363218" lon="11.693312960994614"><ele>406.0</ele><time>2026-03-22T07:48:29Z</time></trkpt><trkpt lat="43.23946773423236" lon="11.693392194744474"><ele>406.00000000000006</ele><time>2026-03-22T07:48:30Z</time></trkpt><trkpt lat="43.239512281068215" lon="11.693486303624672"><ele>406.0</ele><time>2026-03-22T07:48:31Z</time></trkpt><trkpt lat="43.23955726148973" lon="11.69360978205477"><ele>403.4</ele><time>2026-03-22T07:48:32Z</time></trkpt><trkpt lat="43.239585393236794" lon="11.69374513956869"><ele>400.8</ele><time>2026-03-22T07:48:33Z</time></trkpt><trkpt lat="43.23960603647169" lon="11.693888314378839"><ele>398.2</ele><time>2026-03-22T07:48:34Z</time></trkpt><trkpt lat="43.239624923769156" lon="11.69400021020796"><ele>395.59999999999997</ele><time>2026-03-22T07:48:35Z</time></trkpt><trkpt lat="43.23964729526426" lon="11.694096443715997"><ele>393.0</ele><time>2026-03-22T07:48:41Z</time></trkpt><trkpt lat="43.23967944360351" lon="11.694216002003065"><ele>393.0</ele><time>2026-03-22T07:48:44Z</time></trkpt><trkpt lat="43.23972824754933" lon="11.694303164999118"><ele>393.0</ele><time>2026-03-22T07:48:46Z</time></trkpt><trkpt lat="43.2398081135819" lon="11.694390544949249"><ele>393.0</ele><time>2026-03-22T07:48:49Z</time></trkpt><trkpt lat="43.239889697336444" lon="11.694436072765114"><ele>393.0</ele><time>2026-03-22T07:48:53Z</time></trkpt><trkpt lat="43.23996872986386" lon="11.694456133879278"><ele>393.0</ele><time>2026-03-22T07:48:56Z</time></trkpt><trkpt lat="43.24006499147911" lon="11.694477373448409"><ele>393.0</ele><time>2026-03-22T07:48:59Z</time></trkpt><trkpt lat="43.240274525003585" lon="11.694471298235127"><ele>394.2</ele><time>2026-03-22T07:49:04Z</time></trkpt><trkpt lat="43.240334989882996" lon="11.6946357584022"><ele>395.4</ele><time>2026-03-22T07:49:09Z</time></trkpt><trkpt lat="43.240313778863296" lon="11.69482792950054"><ele>396.59999999999997</ele><time>2026-03-22T07:49:11Z</time></trkpt><trkpt lat="43.24031226684047" lon="11.694924132978626"><ele>397.79999999999995</ele><time>2026-03-22T07:49:12Z</time></trkpt><trkpt lat="43.240293576570785" lon="11.695039131237674"><ele>399.0</ele><time>2026-03-22T07:49:13Z</time></trkpt><trkpt lat="43.24027096530176" lon="11.69514724553645"><ele>399.0</ele><time>2026-03-22T07:49:13.999Z</time></trkpt><trkpt lat="43.24025224666729" lon="11.695230845034732"><ele>399.0</ele><time>2026-03-22T07:49:14.999Z</time></trkpt><trkpt lat="43.24027115849627" lon="11.695392699495136"><ele>399.0</ele><time>2026-03-22T07:49:16.999Z</time></trkpt><trkpt lat="43.24033934716187" lon="11.69553022979486"><ele>399.0</ele><time>2026-03-22T07:49:18.999Z</time></trkpt><trkpt lat="43.24037627932868" lon="11.695601794122284"><ele>399.0</ele><time>2026-03-22T07:49:19.999Z</time></trkpt><trkpt lat="43.240443841801564" lon="11.69576368197958"><ele>398.6666666666667</ele><time>2026-03-22T07:49:21.999Z</time></trkpt><trkpt lat="43.240454678025955" lon="11.695868750945007"><ele>398.33333333333337</ele><time>2026-03-22T07:49:23.999Z</time></trkpt><trkpt lat="43.24045981747475" lon="11.695957104586672"><ele>398.0</ele><time>2026-03-22T07:49:25.999Z</time></trkpt><trkpt lat="43.24047743623244" lon="11.696072588771793"><ele>397.6666666666667</ele><time>2026-03-22T07:49:27.999Z</time></trkpt><trkpt lat="43.240486181947894" lon="11.696204885308132"><ele>397.33333333333337</ele><time>2026-03-22T07:49:29.999Z</time></trkpt><trkpt lat="43.240468659814155" lon="11.696332258864457"><ele>397.0</ele><time>2026-03-22T07:49:31.999Z</time></trkpt><trkpt lat="43.24047422890408" lon="11.696451150060632"><ele>396.0</ele><time>2026-03-22T07:49:33.999Z</time></trkpt><trkpt lat="43.24050469579289" lon="11.696567956844865"><ele>395.0</ele><time>2026-03-22T07:49:35.999Z</time></trkpt><trkpt lat="43.240553266542534" lon="11.69668554512542"><ele>394.0</ele><time>2026-03-22T07:49:37.999Z</time></trkpt><trkpt lat="43.24046674521324" lon="11.696540122447653"><ele>393.0</ele><time>2026-03-22T07:49:56.999Z</time></trkpt><trkpt lat="43.24045201334841" lon="11.69644510960615"><ele>392.0</ele><time>2026-03-22T07:49:57.999Z</time></trkpt><trkpt lat="43.240463952932224" lon="11.696292963671038"><ele>392.0</ele><time>2026-03-22T07:49:59.999Z</time></trkpt><trkpt lat="43.24047005875172" lon="11.696206091999251"><ele>392.0</ele><time>2026-03-22T07:50:00.999Z</time></trkpt><trkpt lat="43.24046102774486" lon="11.696108494125124"><ele>392.0</ele><time>2026-03-22T07:50:01.999Z</time></trkpt><trkpt lat="43.24045078085602" lon="11.69602259818426"><ele>392.0</ele><time>2026-03-22T07:50:02.999Z</time></trkpt><trkpt lat="43.240442587222255" lon="11.69592005597156"><ele>392.0</ele><time>2026-03-22T07:50:03.999Z</time></trkpt><trkpt lat="43.240418320057834" lon="11.69580333104755"><ele>392.0</ele><time>2026-03-22T07:50:04.999Z</time></trkpt><trkpt lat="43.24039442656268" lon="11.695720623862911"><ele>392.0</ele><time>2026-03-22T07:50:05.999Z</time></trkpt><trkpt lat="43.24034012407854" lon="11.69563609478186"><ele>392.8333333333333</ele><time>2026-03-22T07:50:06.999Z</time></trkpt><trkpt lat="43.240307356252515" lon="11.695554283579282"><ele>393.66666666666663</ele><time>2026-03-22T07:50:07.999Z</time></trkpt><trkpt lat="43.240286168978145" lon="11.695471036633156"><ele>394.5</ele><time>2026-03-22T07:50:08.999Z</time></trkpt><trkpt lat="43.24028081456698" lon="11.695382758555635"><ele>395.33333333333337</ele><time>2026-03-22T07:50:09.999Z</time></trkpt><trkpt lat="43.24029956130408" lon="11.695228061840291"><ele>396.1666666666667</ele><time>2026-03-22T07:50:11.999Z</time></trkpt><trkpt lat="43.24032566130577" lon="11.69514499133078"><ele>397.0</ele><time>2026-03-22T07:50:12.999Z</time></trkpt><trkpt lat="43.240361054674786" lon="11.695047169231147"><ele>397.33333333333337</ele><time>2026-03-22T07:50:13.999Z</time></trkpt><trkpt lat="43.2403876315875" lon="11.694965953693224"><ele>397.6666666666667</ele><time>2026-03-22T07:50:14.999Z</time></trkpt><trkpt lat="43.24039381621824" lon="11.694864864392905"><ele>398.0</ele><time>2026-03-22T07:50:15.999Z</time></trkpt><trkpt lat="43.24040622007641" lon="11.694773210753914"><ele>398.33333333333337</ele><time>2026-03-22T07:50:16.999Z</time></trkpt><trkpt lat="43.240430891611524" lon="11.694629575309431"><ele>398.6666666666667</ele><time>2026-03-22T07:50:18.998Z</time></trkpt><trkpt lat="43.240429832985335" lon="11.694513355155113"><ele>399.0</ele><time>2026-03-22T07:50:20.998Z</time></trkpt><trkpt lat="43.24035177698208" lon="11.694466632754317"><ele>399.0</ele><time>2026-03-22T07:50:22.998Z</time></trkpt><trkpt lat="43.24028005174352" lon="11.69450692206391"><ele>399.0</ele><time>2026-03-22T07:50:23.998Z</time></trkpt><trkpt lat="43.24015834033838" lon="11.694538919545318"><ele>399.0</ele><time>2026-03-22T07:50:25.998Z</time></trkpt><trkpt lat="43.24009245333516" lon="11.694556626171334"><ele>399.0</ele><time>2026-03-22T07:50:26.998Z</time></trkpt><trkpt lat="43.2399987056152" lon="11.69451576812347"><ele>399.0</ele><time>2026-03-22T07:50:28.998Z</time></trkpt><trkpt lat="43.23992683884185" lon="11.69449888380302"><ele>399.0</ele><time>2026-03-22T07:50:29.998Z</time></trkpt><trkpt lat="43.239849481859075" lon="11.694462147981158"><ele>398.0</ele><time>2026-03-22T07:50:32Z</time></trkpt><trkpt lat="43.23978027584744" lon="11.6943955560975"><ele>397.0</ele><time>2026-03-22T07:50:35Z</time></trkpt><trkpt lat="43.23970781968242" lon="11.6942970141005"><ele>396.0</ele><time>2026-03-22T07:50:38Z</time></trkpt><trkpt lat="43.239678449055795" lon="11.694219507136049"><ele>395.0</ele><time>2026-03-22T07:50:39Z</time></trkpt><trkpt lat="43.23965174989444" lon="11.694137101283843"><ele>394.0</ele><time>2026-03-22T07:50:40Z</time></trkpt><trkpt lat="43.239639676800834" lon="11.694039690633371"><ele>393.0</ele><time>2026-03-22T07:50:42Z</time></trkpt><trkpt lat="43.2397049933105" lon="11.694081251185263"><ele>393.0</ele><time>2026-03-22T07:50:47Z</time></trkpt><trkpt lat="43.239792248020656" lon="11.694126469718528"><ele>393.0</ele><time>2026-03-22T07:50:49Z</time></trkpt><trkpt lat="43.239894047099256" lon="11.694166499444709"><ele>393.0</ele><time>2026-03-22T07:50:51Z</time></trkpt><trkpt lat="43.23998615307184" lon="11.694121198693551"><ele>393.0</ele><time>2026-03-22T07:50:53Z</time></trkpt><trkpt lat="43.24008580101107" lon="11.694085894915625"><ele>393.0</ele><time>2026-03-22T07:50:54Z</time></trkpt><trkpt lat="43.240198901187505" lon="11.694060310042055"><ele>398.2</ele><time>2026-03-22T07:50:55Z</time></trkpt><trkpt lat="43.24026258400753" lon="11.694036628805467"><ele>403.4</ele><time>2026-03-22T07:50:56Z</time></trkpt><trkpt lat="43.24033637006907" lon="11.694024038859043"><ele>408.59999999999997</ele><time>2026-03-22T07:50:57Z</time></trkpt><trkpt lat="43.240433694825676" lon="11.693995316720555"><ele>413.79999999999995</ele><time>2026-03-22T07:50:58Z</time></trkpt><trkpt lat="43.24056384523899" lon="11.69397897023682"><ele>419.0</ele><time>2026-03-22T07:51:00Z</time></trkpt><trkpt lat="43.24065729622807" lon="11.693945982334428"><ele>420.79999999999995</ele><time>2026-03-22T07:51:01Z</time></trkpt><trkpt lat="43.240754348508226" lon="11.693926906578984"><ele>422.59999999999997</ele><time>2026-03-22T07:51:02Z</time></trkpt><trkpt lat="43.24085215715926" lon="11.693921478262125"><ele>424.4</ele><time>2026-03-22T07:51:03Z</time></trkpt><trkpt lat="43.240941815487666" lon="11.693937064884537"><ele>426.2</ele><time>2026-03-22T07:51:04Z</time></trkpt><trkpt lat="43.241016314578125" lon="11.69394499874425"><ele>428.0</ele><time>2026-03-22T07:51:05Z</time></trkpt><trkpt lat="43.241119606515404" lon="11.693932510421545"><ele>428.0</ele><time>2026-03-22T07:51:06Z</time></trkpt><trkpt lat="43.241215588234326" lon="11.69389199221314"><ele>428.0</ele><time>2026-03-22T07:51:07Z</time></trkpt><trkpt lat="43.24132672984691" lon="11.693860199597054"><ele>428.0</ele><time>2026-03-22T07:51:08Z</time></trkpt><trkpt lat="43.2414227367114" lon="11.693865037916673"><ele>428.0</ele><time>2026-03-22T07:51:09Z</time></trkpt><trkpt lat="43.24156463744529" lon="11.69381694104558"><ele>430.3333333333333</ele><time>2026-03-22T07:51:11Z</time></trkpt><trkpt lat="43.24164276121827" lon="11.693747772099627"><ele>432.66666666666663</ele><time>2026-03-22T07:51:12Z</time></trkpt><trkpt lat="43.241708568726615" lon="11.69366284100108"><ele>435.0</ele><time>2026-03-22T07:51:13Z</time></trkpt><trkpt lat="43.24179195766759" lon="11.693584849978036"><ele>437.33333333333337</ele><time>2026-03-22T07:51:14Z</time></trkpt><trkpt lat="43.24186569910399" lon="11.693523485592383"><ele>439.6666666666667</ele><time>2026-03-22T07:51:15Z</time></trkpt><trkpt lat="43.24193943246236" lon="11.693506065470284"><ele>442.0</ele><time>2026-03-22T07:51:16Z</time></trkpt><trkpt lat="43.242002370723135" lon="11.69352719610351"><ele>442.83333333333337</ele><time>2026-03-22T07:51:17Z</time></trkpt><trkpt lat="43.24208372433309" lon="11.693532134854692"><ele>443.6666666666667</ele><time>2026-03-22T07:51:19Z</time></trkpt><trkpt lat="43.24206288642308" lon="11.693446858145949"><ele>444.5</ele><time>2026-03-22T07:51:21.999Z</time></trkpt><trkpt lat="43.24201931410301" lon="11.693263124149215"><ele>445.33333333333337</ele><time>2026-03-22T07:51:48.999Z</time></trkpt><trkpt lat="43.24202107186491" lon="11.693167352989759"><ele>446.1666666666667</ele><time>2026-03-22T07:51:49.999Z</time></trkpt><trkpt lat="43.242020333529396" lon="11.693078363783622"><ele>447.0</ele><time>2026-03-22T07:51:50.999Z</time></trkpt><trkpt lat="43.24202643325173" lon="11.692961302016226"><ele>447.0</ele><time>2026-03-22T07:51:51.999Z</time></trkpt><trkpt lat="43.24201554934233" lon="11.69281872578975"><ele>447.00000000000006</ele><time>2026-03-22T07:51:52.999Z</time></trkpt><trkpt lat="43.24198957570066" lon="11.692694819466329"><ele>447.00000000000006</ele><time>2026-03-22T07:51:53.999Z</time></trkpt><trkpt lat="43.241971420365125" lon="11.692537524303287"><ele>447.0</ele><time>2026-03-22T07:51:54.999Z</time></trkpt><trkpt lat="43.24194099235331" lon="11.692400034022793"><ele>447.0</ele><time>2026-03-22T07:51:55.999Z</time></trkpt><trkpt lat="43.24190889790372" lon="11.692265176068913"><ele>449.0</ele><time>2026-03-22T07:51:56.999Z</time></trkpt><trkpt lat="43.24186812641524" lon="11.692137224664299"><ele>451.00000000000006</ele><time>2026-03-22T07:51:57.999Z</time></trkpt><trkpt lat="43.24183663330125" lon="11.692009650433686"><ele>453.00000000000006</ele><time>2026-03-22T07:51:58.999Z</time></trkpt><trkpt lat="43.24178733319061" lon="11.69189609377392"><ele>455.0</ele><time>2026-03-22T07:51:59.999Z</time></trkpt><trkpt lat="43.241719870962136" lon="11.691801719640372"><ele>457.0</ele><time>2026-03-22T07:52:00.999Z</time></trkpt><trkpt lat="43.241639159734234" lon="11.6917244149389"><ele>457.83333333333337</ele><time>2026-03-22T07:52:01.999Z</time></trkpt><trkpt lat="43.24155222117127" lon="11.691662179135223"><ele>458.6666666666667</ele><time>2026-03-22T07:52:02.999Z</time></trkpt><trkpt lat="43.241469133038066" lon="11.691609938059955"><ele>459.5</ele><time>2026-03-22T07:52:03.999Z</time></trkpt><trkpt lat="43.241409631933045" lon="11.691536291526608"><ele>460.33333333333337</ele><time>2026-03-22T07:52:04.999Z</time></trkpt><trkpt lat="43.24138923868182" lon="11.691451575802073"><ele>461.1666666666667</ele><time>2026-03-22T07:52:05.999Z</time></trkpt><trkpt lat="43.24141420614142" lon="11.6913690044331"><ele>462.0</ele><time>2026-03-22T07:52:06.999Z</time></trkpt><trkpt lat="43.241494891853215" lon="11.691322792389766"><ele>462.0</ele><time>2026-03-22T07:52:07.999Z</time></trkpt><trkpt lat="43.24157311355681" lon="11.691263380572057"><ele>462.00000000000006</ele><time>2026-03-22T07:52:08.999Z</time></trkpt><trkpt lat="43.24162551592754" lon="11.691158027546317"><ele>462.00000000000006</ele><time>2026-03-22T07:52:09.999Z</time></trkpt><trkpt lat="43.241700094106115" lon="11.691045109681827"><ele>462.0</ele><time>2026-03-22T07:52:10.999Z</time></trkpt><trkpt lat="43.24177475128794" lon="11.690909785795562"><ele>462.0</ele><time>2026-03-22T07:52:11.999Z</time></trkpt><trkpt lat="43.24183644906824" lon="11.690761632479159"><ele>462.0</ele><time>2026-03-22T07:52:12.999Z</time></trkpt><trkpt lat="43.241890991992065" lon="11.690629062237859"><ele>462.00000000000006</ele><time>2026-03-22T07:52:13.999Z</time></trkpt><trkpt lat="43.24193019606685" lon="11.690509472959235"><ele>462.00000000000006</ele><time>2026-03-22T07:52:14.999Z</time></trkpt><trkpt lat="43.24196103398879" lon="11.6903938900836"><ele>462.0</ele><time>2026-03-22T07:52:15.999Z</time></trkpt><trkpt lat="43.24200577791118" lon="11.690281117884357"><ele>462.0</ele><time>2026-03-22T07:52:16.999Z</time></trkpt><trkpt lat="43.242024695181286" lon="11.69014636108973"><ele>462.0</ele><time>2026-03-22T07:52:17.999Z</time></trkpt><trkpt lat="43.24205266906201" lon="11.690021800895545"><ele>462.0</ele><time>2026-03-22T07:52:18.999Z</time></trkpt><trkpt lat="43.24207583159881" lon="11.689895603811964"><ele>462.0</ele><time>2026-03-22T07:52:19.999Z</time></trkpt><trkpt lat="43.24208343225528" lon="11.689771644870737"><ele>462.0</ele><time>2026-03-22T07:52:20.999Z</time></trkpt><trkpt lat="43.24207993880252" lon="11.68968521725275"><ele>462.0</ele><time>2026-03-22T07:52:21.998Z</time></trkpt><trkpt lat="43.24208739713582" lon="11.689567499432334"><ele>462.0</ele><time>2026-03-22T07:52:22.998Z</time></trkpt><trkpt lat="43.242097358235995" lon="11.689465621716472"><ele>463.0</ele><time>2026-03-22T07:52:23.998Z</time></trkpt><trkpt lat="43.24211561484316" lon="11.689361187110881"><ele>464.0</ele><time>2026-03-22T07:52:24.998Z</time></trkpt><trkpt lat="43.24214620468065" lon="11.68924159131392"><ele>465.0</ele><time>2026-03-22T07:52:25.998Z</time></trkpt><trkpt lat="43.24217482175723" lon="11.689129613752483"><ele>466.0</ele><time>2026-03-22T07:52:26.998Z</time></trkpt><trkpt lat="43.24219741679029" lon="11.689001048872639"><ele>467.0</ele><time>2026-03-22T07:52:27.998Z</time></trkpt><trkpt lat="43.24221474443445" lon="11.68887458931259"><ele>468.0</ele><time>2026-03-22T07:52:28.998Z</time></trkpt><trkpt lat="43.242241205553086" lon="11.688756335104594"><ele>468.0</ele><time>2026-03-22T07:52:29.998Z</time></trkpt><trkpt lat="43.24228028935673" lon="11.6886396817286"><ele>467.99999999999994</ele><time>2026-03-22T07:52:30.998Z</time></trkpt><trkpt lat="43.24234375626775" lon="11.688556630976564"><ele>467.99999999999994</ele><time>2026-03-22T07:52:31.998Z</time></trkpt><trkpt lat="43.24242670548582" lon="11.68849741938428"><ele>468.0</ele><time>2026-03-22T07:52:32.998Z</time></trkpt><trkpt lat="43.24251824090864" lon="11.6884433485578"><ele>468.0</ele><time>2026-03-22T07:52:33.998Z</time></trkpt><trkpt lat="43.24260156066178" lon="11.688360869147076"><ele>471.4</ele><time>2026-03-22T07:52:34.998Z</time></trkpt><trkpt lat="43.242674835813645" lon="11.688251607658797"><ele>474.79999999999995</ele><time>2026-03-22T07:52:35.998Z</time></trkpt><trkpt lat="43.242724801728116" lon="11.688123791004482"><ele>478.2</ele><time>2026-03-22T07:52:36.998Z</time></trkpt><trkpt lat="43.24274304209688" lon="11.687978488152346"><ele>481.6</ele><time>2026-03-22T07:52:38Z</time></trkpt><trkpt lat="43.2427443850582" lon="11.687827818604209"><ele>485.0</ele><time>2026-03-22T07:52:39Z</time></trkpt><trkpt lat="43.24273158310073" lon="11.687674736555058"><ele>485.0</ele><time>2026-03-22T07:52:40Z</time></trkpt><trkpt lat="43.242721226723496" lon="11.687513189419608"><ele>485.0</ele><time>2026-03-22T07:52:41Z</time></trkpt><trkpt lat="43.242721411043895" lon="11.687345742423076"><ele>485.0</ele><time>2026-03-22T07:52:42Z</time></trkpt><trkpt lat="43.24272995000686" lon="11.687172452870904"><ele>485.0</ele><time>2026-03-22T07:52:43Z</time></trkpt><trkpt lat="43.242739612969366" lon="11.686984027870174"><ele>485.6</ele><time>2026-03-22T07:52:44Z</time></trkpt><trkpt lat="43.24276250989973" lon="11.686853029232317"><ele>486.2</ele><time>2026-03-22T07:52:45Z</time></trkpt><trkpt lat="43.242792375708426" lon="11.686694887371393"><ele>486.79999999999995</ele><time>2026-03-22T07:52:47Z</time></trkpt><trkpt lat="43.24286638639022" lon="11.686588960004048"><ele>487.4</ele><time>2026-03-22T07:52:49Z</time></trkpt><trkpt lat="43.24291582343896" lon="11.686524644102152"><ele>488.0</ele><time>2026-03-22T07:52:50Z</time></trkpt><trkpt lat="43.24297379984599" lon="11.686441280869998"><ele>488.0</ele><time>2026-03-22T07:52:51Z</time></trkpt><trkpt lat="43.2430384935514" lon="11.68633323922695"><ele>487.99999999999994</ele><time>2026-03-22T07:52:52Z</time></trkpt><trkpt lat="43.24309976489835" lon="11.68623210812916"><ele>487.99999999999994</ele><time>2026-03-22T07:52:53Z</time></trkpt><trkpt lat="43.24317634078703" lon="11.686145329736101"><ele>488.0</ele><time>2026-03-22T07:52:54Z</time></trkpt><trkpt lat="43.24324695392112" lon="11.686054260170087"><ele>488.0</ele><time>2026-03-22T07:52:55Z</time></trkpt><trkpt lat="43.24332418991652" lon="11.685972935704044"><ele>489.99999999999994</ele><time>2026-03-22T07:52:56Z</time></trkpt><trkpt lat="43.24339482239579" lon="11.68590399443739"><ele>492.0</ele><time>2026-03-22T07:52:57Z</time></trkpt><trkpt lat="43.24346234157703" lon="11.685834608676103"><ele>494.0</ele><time>2026-03-22T07:52:58Z</time></trkpt><trkpt lat="43.24354465021972" lon="11.685814730400397"><ele>496.0</ele><time>2026-03-22T07:52:59Z</time></trkpt><trkpt lat="43.24361767229679" lon="11.685783319524253"><ele>497.99999999999994</ele><time>2026-03-22T07:53:00Z</time></trkpt><trkpt lat="43.24369904178109" lon="11.685757151292602"><ele>500.0</ele><time>2026-03-22T07:53:01Z</time></trkpt><trkpt lat="43.24377628041875" lon="11.685741767676136"><ele>499.99999999999994</ele><time>2026-03-22T07:53:02Z</time></trkpt><trkpt lat="43.24385927968196" lon="11.685726509831184"><ele>500.0</ele><time>2026-03-22T07:53:03Z</time></trkpt><trkpt lat="43.243939503438156" lon="11.685715047635911"><ele>500.0</ele><time>2026-03-22T07:53:04Z</time></trkpt><trkpt lat="43.24402523326827" lon="11.685708359754477"><ele>500.0</ele><time>2026-03-22T07:53:05Z</time></trkpt><trkpt lat="43.24409769895761" lon="11.685708509452894"><ele>499.99999999999994</ele><time>2026-03-22T07:53:06Z</time></trkpt><trkpt lat="43.24418172641747" lon="11.68571324995612"><ele>500.0</ele><time>2026-03-22T07:53:07Z</time></trkpt><trkpt lat="43.24426652751424" lon="11.68572256009546"><ele>500.16666666666663</ele><time>2026-03-22T07:53:08Z</time></trkpt><trkpt lat="43.24435884056919" lon="11.685716552618796"><ele>500.3333333333333</ele><time>2026-03-22T07:53:09Z</time></trkpt><trkpt lat="43.24444705041734" lon="11.68573267013643"><ele>500.5</ele><time>2026-03-22T07:53:10Z</time></trkpt><trkpt lat="43.24454321073357" lon="11.685774819445912"><ele>500.66666666666663</ele><time>2026-03-22T07:53:11Z</time></trkpt><trkpt lat="43.24461726851404" lon="11.685804417805445"><ele>500.8333333333333</ele><time>2026-03-22T07:53:12Z</time></trkpt><trkpt lat="43.24469651112116" lon="11.685839575527067"><ele>501.0</ele><time>2026-03-22T07:53:13Z</time></trkpt><trkpt lat="43.24477016378326" lon="11.68588290286415"><ele>500.6666666666667</ele><time>2026-03-22T07:53:14Z</time></trkpt><trkpt lat="43.24482789154059" lon="11.685923919804601"><ele>500.33333333333337</ele><time>2026-03-22T07:53:15Z</time></trkpt><trkpt lat="43.2449231546982" lon="11.68596934977599"><ele>500.0</ele><time>2026-03-22T07:53:17Z</time></trkpt><trkpt lat="43.24500812472332" lon="11.686044721904967"><ele>499.6666666666667</ele><time>2026-03-22T07:53:19Z</time></trkpt><trkpt lat="43.24507557887922" lon="11.686059367447934"><ele>499.33333333333337</ele><time>2026-03-22T07:53:20Z</time></trkpt><trkpt lat="43.24514107665236" lon="11.686044654018758"><ele>499.0</ele><time>2026-03-22T07:53:20.999Z</time></trkpt><trkpt lat="43.245201285106084" lon="11.685982022463293"><ele>499.0</ele><time>2026-03-22T07:53:21.999Z</time></trkpt><trkpt lat="43.24525136907364" lon="11.685838254456717"><ele>499.0</ele><time>2026-03-22T07:53:23.999Z</time></trkpt><trkpt lat="43.24529781135648" lon="11.685712606393693"><ele>499.0</ele><time>2026-03-22T07:53:25.999Z</time></trkpt><trkpt lat="43.245378787512735" lon="11.685586493833817"><ele>499.0</ele><time>2026-03-22T07:53:27.999Z</time></trkpt><trkpt lat="43.24544955006913" lon="11.685532655517527"><ele>499.0</ele><time>2026-03-22T07:53:28.999Z</time></trkpt><trkpt lat="43.245528092130705" lon="11.685492769749986"><ele>499.0</ele><time>2026-03-22T07:53:29.999Z</time></trkpt><trkpt lat="43.24561032071763" lon="11.685426360629846"><ele>499.0</ele><time>2026-03-22T07:53:30.999Z</time></trkpt><trkpt lat="43.24570102421965" lon="11.685353106998505"><ele>499.0</ele><time>2026-03-22T07:53:31.999Z</time></trkpt><trkpt lat="43.24577430791167" lon="11.685293921893711"><ele>499.0</ele><time>2026-03-22T07:53:32.999Z</time></trkpt><trkpt lat="43.24577467507035" lon="11.685093275909251"><ele>499.0</ele><time>2026-03-22T07:53:33.999Z</time></trkpt><trkpt lat="43.24581217012722" lon="11.684975764153572"><ele>496.0</ele><time>2026-03-22T07:53:34.999Z</time></trkpt><trkpt lat="43.24584616502872" lon="11.684855227093996"><ele>493.0</ele><time>2026-03-22T07:53:35.999Z</time></trkpt><trkpt lat="43.24588879131859" lon="11.684727936825336"><ele>490.0</ele><time>2026-03-22T07:53:36.999Z</time></trkpt><trkpt lat="43.24593765142209" lon="11.684606669389165"><ele>487.0</ele><time>2026-03-22T07:53:37.999Z</time></trkpt><trkpt lat="43.24598325143982" lon="11.684482803508127"><ele>484.0</ele><time>2026-03-22T07:53:38.999Z</time></trkpt><trkpt lat="43.246038325327426" lon="11.684368555843603"><ele>481.4</ele><time>2026-03-22T07:53:39.999Z</time></trkpt><trkpt lat="43.24610339606056" lon="11.684262070528037"><ele>478.79999999999995</ele><time>2026-03-22T07:53:40.999Z</time></trkpt><trkpt lat="43.246171524280705" lon="11.684160717535736"><ele>476.20000000000005</ele><time>2026-03-22T07:53:41.999Z</time></trkpt><trkpt lat="43.24623811501116" lon="11.684067022987312"><ele>473.6</ele><time>2026-03-22T07:53:42.999Z</time></trkpt><trkpt lat="43.24629927327082" lon="11.683974999794184"><ele>471.0</ele><time>2026-03-22T07:53:43.999Z</time></trkpt><trkpt lat="43.24635399284996" lon="11.683914107404336"><ele>470.0</ele><time>2026-03-22T07:53:44.999Z</time></trkpt><trkpt lat="43.24647519209957" lon="11.683868692613373"><ele>469.0</ele><time>2026-03-22T07:53:46.999Z</time></trkpt><trkpt lat="43.24654035697679" lon="11.683879837531752"><ele>468.0</ele><time>2026-03-22T07:53:47.999Z</time></trkpt><trkpt lat="43.246641811138275" lon="11.683970664826138"><ele>467.0</ele><time>2026-03-22T07:53:49.999Z</time></trkpt><trkpt lat="43.246710304700905" lon="11.68404023713815"><ele>466.0</ele><time>2026-03-22T07:53:50.999Z</time></trkpt><trkpt lat="43.246775349432106" lon="11.684116365756811"><ele>466.00000000000006</ele><time>2026-03-22T07:53:51.999Z</time></trkpt><trkpt lat="43.24685266097561" lon="11.68417640396375"><ele>466.0</ele><time>2026-03-22T07:53:53.999Z</time></trkpt><trkpt lat="43.24687651817419" lon="11.684074950014375"><ele>466.0</ele><time>2026-03-22T07:53:55.999Z</time></trkpt><trkpt lat="43.246873624036354" lon="11.683988550488632"><ele>466.0</ele><time>2026-03-22T07:53:56.999Z</time></trkpt><trkpt lat="43.2468594768196" lon="11.683869978543127"><ele>466.00000000000006</ele><time>2026-03-22T07:53:57.999Z</time></trkpt><trkpt lat="43.24685548610875" lon="11.683769727487578"><ele>466.0</ele><time>2026-03-22T07:53:58.999Z</time></trkpt><trkpt lat="43.24684008671602" lon="11.683646504701967"><ele>463.83333333333337</ele><time>2026-03-22T07:54:00.999Z</time></trkpt><trkpt lat="43.246799137078334" lon="11.683492515094969"><ele>461.6666666666667</ele><time>2026-03-22T07:54:02.999Z</time></trkpt><trkpt lat="43.24676258997304" lon="11.683402899192952"><ele>459.5</ele><time>2026-03-22T07:54:03.999Z</time></trkpt><trkpt lat="43.24673537919197" lon="11.6833053999371"><ele>457.33333333333337</ele><time>2026-03-22T07:54:04.999Z</time></trkpt><trkpt lat="43.24669517889069" lon="11.683208224788153"><ele>455.1666666666667</ele><time>2026-03-22T07:54:05.999Z</time></trkpt><trkpt lat="43.24663589474865" lon="11.683105400132424"><ele>453.0</ele><time>2026-03-22T07:54:07.999Z</time></trkpt><trkpt lat="43.24653776547256" lon="11.682978285611325"><ele>453.0</ele><time>2026-03-22T07:54:09.999Z</time></trkpt><trkpt lat="43.246482917032495" lon="11.68291936647019"><ele>452.99999999999994</ele><time>2026-03-22T07:54:10.999Z</time></trkpt><trkpt lat="43.24639848434179" lon="11.682798556922203"><ele>452.99999999999994</ele><time>2026-03-22T07:54:12.999Z</time></trkpt><trkpt lat="43.24632054815084" lon="11.68268470771743"><ele>453.0</ele><time>2026-03-22T07:54:14.999Z</time></trkpt><trkpt lat="43.24632871750796" lon="11.682592007026043"><ele>453.0</ele><time>2026-03-22T07:54:15.999Z</time></trkpt><trkpt lat="43.24639195363621" lon="11.682470389766694"><ele>449.3333333333333</ele><time>2026-03-22T07:54:17.999Z</time></trkpt><trkpt lat="43.246496438683394" lon="11.682400768628554"><ele>445.66666666666663</ele><time>2026-03-22T07:54:19.999Z</time></trkpt><trkpt lat="43.24659525328523" lon="11.682448216564062"><ele>442.0</ele><time>2026-03-22T07:54:21.999Z</time></trkpt><trkpt lat="43.24665968357702" lon="11.682466541608798"><ele>438.3333333333333</ele><time>2026-03-22T07:54:22.998Z</time></trkpt><trkpt lat="43.24672828617837" lon="11.682473002390608"><ele>434.66666666666663</ele><time>2026-03-22T07:54:23.998Z</time></trkpt><trkpt lat="43.24678904889337" lon="11.682516591448653"><ele>431.0</ele><time>2026-03-22T07:54:24.998Z</time></trkpt><trkpt lat="43.24685721509894" lon="11.682557740586608"><ele>430.99999999999994</ele><time>2026-03-22T07:54:25.998Z</time></trkpt><trkpt lat="43.246921115839896" lon="11.682627121366783"><ele>431.0</ele><time>2026-03-22T07:54:26.998Z</time></trkpt><trkpt lat="43.24699797031224" lon="11.682698131563974"><ele>431.0</ele><time>2026-03-22T07:54:27.998Z</time></trkpt><trkpt lat="43.247075417766055" lon="11.682731634708146"><ele>431.0</ele><time>2026-03-22T07:54:28.998Z</time></trkpt><trkpt lat="43.247156938789765" lon="11.682732757514433"><ele>430.99999999999994</ele><time>2026-03-22T07:54:29.998Z</time></trkpt><trkpt lat="43.247244005763505" lon="11.682709944687808"><ele>431.0</ele><time>2026-03-22T07:54:30.998Z</time></trkpt><trkpt lat="43.24735448014589" lon="11.682784384030281"><ele>431.3333333333333</ele><time>2026-03-22T07:54:32.998Z</time></trkpt><trkpt lat="43.24740818690615" lon="11.68288128565821"><ele>431.66666666666663</ele><time>2026-03-22T07:54:33.998Z</time></trkpt><trkpt lat="43.247479171221045" lon="11.682964050207456"><ele>432.0</ele><time>2026-03-22T07:54:34.998Z</time></trkpt><trkpt lat="43.24755614156607" lon="11.683040382473111"><ele>432.33333333333337</ele><time>2026-03-22T07:54:35.998Z</time></trkpt><trkpt lat="43.24762542648822" lon="11.683104700460248"><ele>432.6666666666667</ele><time>2026-03-22T07:54:36.998Z</time></trkpt><trkpt lat="43.247695164705526" lon="11.683171415746957"><ele>433.0</ele><time>2026-03-22T07:54:37.998Z</time></trkpt><trkpt lat="43.24774893006657" lon="11.683236878975842"><ele>433.00000000000006</ele><time>2026-03-22T07:54:38.998Z</time></trkpt><trkpt lat="43.24779111327604" lon="11.683312372573871"><ele>433.0</ele><time>2026-03-22T07:54:39.998Z</time></trkpt><trkpt lat="43.24780997492787" lon="11.683395599127024"><ele>433.0</ele><time>2026-03-22T07:54:40.998Z</time></trkpt><trkpt lat="43.247828874533894" lon="11.683485795788147"><ele>433.0</ele><time>2026-03-22T07:54:41.998Z</time></trkpt><trkpt lat="43.247887233251284" lon="11.683579291775645"><ele>433.00000000000006</ele><time>2026-03-22T07:54:42.998Z</time></trkpt><trkpt lat="43.24796868072981" lon="11.6836235818741"><ele>433.0</ele><time>2026-03-22T07:54:44Z</time></trkpt><trkpt lat="43.24806704747687" lon="11.683645097650846"><ele>433.0</ele><time>2026-03-22T07:54:46Z</time></trkpt><trkpt lat="43.24812037968256" lon="11.683536825739724"><ele>432.99999999999994</ele><time>2026-03-22T07:54:48Z</time></trkpt><trkpt lat="43.24820861634811" lon="11.683460257536998"><ele>432.99999999999994</ele><time>2026-03-22T07:54:50Z</time></trkpt><trkpt lat="43.24833246268927" lon="11.6834203149063"><ele>433.0</ele><time>2026-03-22T07:54:52Z</time></trkpt><trkpt lat="43.24839596763756" lon="11.683391590410608"><ele>433.0</ele><time>2026-03-22T07:54:53Z</time></trkpt><trkpt lat="43.24847387859104" lon="11.683323645344402"><ele>429.50000000000006</ele><time>2026-03-22T07:54:55Z</time></trkpt><trkpt lat="43.24854997286854" lon="11.683200504843139"><ele>426.0</ele><time>2026-03-22T07:54:57Z</time></trkpt><trkpt lat="43.24859504021048" lon="11.683131259445007"><ele>422.5</ele><time>2026-03-22T07:54:58Z</time></trkpt><trkpt lat="43.248629369439996" lon="11.683040490376175"><ele>419.0</ele><time>2026-03-22T07:54:59Z</time></trkpt><trkpt lat="43.24865822108188" lon="11.682951385799031"><ele>415.50000000000006</ele><time>2026-03-22T07:55:00Z</time></trkpt><trkpt lat="43.248702955362546" lon="11.682819519893973"><ele>412.0</ele><time>2026-03-22T07:55:02Z</time></trkpt><trkpt lat="43.248722226323274" lon="11.682715150715438"><ele>410.50000000000006</ele><time>2026-03-22T07:55:04Z</time></trkpt><trkpt lat="43.248750422325735" lon="11.68257497164437"><ele>409.0</ele><time>2026-03-22T07:55:06Z</time></trkpt><trkpt lat="43.24876917166135" lon="11.682480168223995"><ele>407.5</ele><time>2026-03-22T07:55:07Z</time></trkpt><trkpt lat="43.24878862702063" lon="11.682390354347348"><ele>406.0</ele><time>2026-03-22T07:55:08Z</time></trkpt><trkpt lat="43.2488100229061" lon="11.68225374659363"><ele>404.50000000000006</ele><time>2026-03-22T07:55:10Z</time></trkpt><trkpt lat="43.2487973827099" lon="11.682126650263097"><ele>403.0</ele><time>2026-03-22T07:55:12Z</time></trkpt><trkpt lat="43.24880876872273" lon="11.682012702570246"><ele>403.0</ele><time>2026-03-22T07:55:14Z</time></trkpt><trkpt lat="43.248884723257625" lon="11.681965125172724"><ele>403.0</ele><time>2026-03-22T07:55:16Z</time></trkpt><trkpt lat="43.24899447710092" lon="11.681902956277543"><ele>403.0</ele><time>2026-03-22T07:55:18Z</time></trkpt><trkpt lat="43.24909015828699" lon="11.681844175044674"><ele>403.0</ele><time>2026-03-22T07:55:20Z</time></trkpt><trkpt lat="43.24919187848431" lon="11.681752220056293"><ele>403.0</ele><time>2026-03-22T07:55:22Z</time></trkpt><trkpt lat="43.2492765420791" lon="11.68168416690091"><ele>399.33333333333337</ele><time>2026-03-22T07:55:24Z</time></trkpt><trkpt lat="43.24933223502023" lon="11.681596927332745"><ele>395.6666666666667</ele><time>2026-03-22T07:55:26Z</time></trkpt><trkpt lat="43.249389154663135" lon="11.681513138050645"><ele>392.0</ele><time>2026-03-22T07:55:27.999Z</time></trkpt><trkpt lat="43.24945880734841" lon="11.681435079706793"><ele>388.33333333333337</ele><time>2026-03-22T07:55:29.999Z</time></trkpt><trkpt lat="43.249532130190595" lon="11.681370270194726"><ele>384.6666666666667</ele><time>2026-03-22T07:55:31.999Z</time></trkpt><trkpt lat="43.249572418898495" lon="11.68128397369155"><ele>381.0</ele><time>2026-03-22T07:55:33.999Z</time></trkpt><trkpt lat="43.249623322082456" lon="11.6811473857898"><ele>378.6</ele><time>2026-03-22T07:55:35.999Z</time></trkpt><trkpt lat="43.249645610847615" lon="11.681063624007523"><ele>376.20000000000005</ele><time>2026-03-22T07:55:36.999Z</time></trkpt><trkpt lat="43.24971895728159" lon="11.680923555223167"><ele>373.79999999999995</ele><time>2026-03-22T07:55:38.999Z</time></trkpt><trkpt lat="43.249768987738" lon="11.680815656352786"><ele>371.4</ele><time>2026-03-22T07:55:40.999Z</time></trkpt><trkpt lat="43.249810620686254" lon="11.680729487262274"><ele>369.0</ele><time>2026-03-22T07:55:42.999Z</time></trkpt><trkpt lat="43.249870300829556" lon="11.68058663685041"><ele>367.0</ele><time>2026-03-22T07:55:44.999Z</time></trkpt><trkpt lat="43.249912037380554" lon="11.680498810793301"><ele>365.0</ele><time>2026-03-22T07:55:45.999Z</time></trkpt><trkpt lat="43.24996611135262" lon="11.680443879377972"><ele>363.0</ele><time>2026-03-22T07:55:46.999Z</time></trkpt><trkpt lat="43.25002131365116" lon="11.680378192509794"><ele>361.0</ele><time>2026-03-22T07:55:47.999Z</time></trkpt><trkpt lat="43.25008198158485" lon="11.680283658401052"><ele>359.0</ele><time>2026-03-22T07:55:49.999Z</time></trkpt><trkpt lat="43.25021900156634" lon="11.68037665872782"><ele>359.0</ele><time>2026-03-22T07:55:53.999Z</time></trkpt><trkpt lat="43.25024949083063" lon="11.680524829826828"><ele>359.0</ele><time>2026-03-22T07:55:55.999Z</time></trkpt><trkpt lat="43.25027407482101" lon="11.680625775874072"><ele>359.0</ele><time>2026-03-22T07:55:56.999Z</time></trkpt><trkpt lat="43.25029570648305" lon="11.680749380312635"><ele>359.0</ele><time>2026-03-22T07:55:57.999Z</time></trkpt><trkpt lat="43.25030727295084" lon="11.680863185817147"><ele>359.0</ele><time>2026-03-22T07:55:58.999Z</time></trkpt><trkpt lat="43.250317276708536" lon="11.681046835995186"><ele>360.1666666666667</ele><time>2026-03-22T07:56:00.999Z</time></trkpt><trkpt lat="43.25032463870756" lon="11.68118586601195"><ele>361.33333333333337</ele><time>2026-03-22T07:56:01.999Z</time></trkpt><trkpt lat="43.250325080047" lon="11.681293474109356"><ele>362.5</ele><time>2026-03-22T07:56:02.999Z</time></trkpt><trkpt lat="43.25033666721299" lon="11.681383798008707"><ele>363.6666666666667</ele><time>2026-03-22T07:56:03.999Z</time></trkpt><trkpt lat="43.25039221310169" lon="11.681539689054276"><ele>364.8333333333333</ele><time>2026-03-22T07:56:05.999Z</time></trkpt><trkpt lat="43.25041913206178" lon="11.681627304780639"><ele>366.0</ele><time>2026-03-22T07:56:06.999Z</time></trkpt><trkpt lat="43.25047896925193" lon="11.681682056547062"><ele>366.0</ele><time>2026-03-22T07:56:08.999Z</time></trkpt><trkpt lat="43.25048511613305" lon="11.681471261460262"><ele>366.0</ele><time>2026-03-22T07:56:12.999Z</time></trkpt><trkpt lat="43.25049426411555" lon="11.681367760324031"><ele>366.0</ele><time>2026-03-22T07:56:13.999Z</time></trkpt><trkpt lat="43.25051452983066" lon="11.681251185934526"><ele>366.0</ele><time>2026-03-22T07:56:14.999Z</time></trkpt><trkpt lat="43.250519975538815" lon="11.681134072270591"><ele>366.0</ele><time>2026-03-22T07:56:15.999Z</time></trkpt><trkpt lat="43.250554634461174" lon="11.680842771863137"><ele>364.8333333333333</ele><time>2026-03-22T07:56:26.999Z</time></trkpt><trkpt lat="43.25055761712133" lon="11.68072109091139"><ele>363.6666666666667</ele><time>2026-03-22T07:56:27.999Z</time></trkpt><trkpt lat="43.25057943139708" lon="11.680612279065599"><ele>362.5</ele><time>2026-03-22T07:56:28.998Z</time></trkpt><trkpt lat="43.2506085330112" lon="11.680504914473376"><ele>361.33333333333337</ele><time>2026-03-22T07:56:29.998Z</time></trkpt><trkpt lat="43.25061071704149" lon="11.680383106482813"><ele>360.1666666666667</ele><time>2026-03-22T07:56:30.998Z</time></trkpt><trkpt lat="43.25057842570266" lon="11.680287734661052"><ele>359.0</ele><time>2026-03-22T07:56:31.998Z</time></trkpt><trkpt lat="43.25054176947543" lon="11.680179048166252"><ele>357.4</ele><time>2026-03-22T07:56:32.998Z</time></trkpt><trkpt lat="43.250539825557645" lon="11.680071120248797"><ele>355.79999999999995</ele><time>2026-03-22T07:56:33.998Z</time></trkpt><trkpt lat="43.250622737562" lon="11.679975174424738"><ele>354.20000000000005</ele><time>2026-03-22T07:56:35.998Z</time></trkpt><trkpt lat="43.25070955085123" lon="11.67994172399367"><ele>352.6</ele><time>2026-03-22T07:56:37.998Z</time></trkpt><trkpt lat="43.25079833542923" lon="11.679934961913233"><ele>351.0</ele><time>2026-03-22T07:56:39.998Z</time></trkpt><trkpt lat="43.25080186517029" lon="11.680071385619526"><ele>348.6666666666667</ele><time>2026-03-22T07:56:42.998Z</time></trkpt><trkpt lat="43.25079883937654" lon="11.680213767594658"><ele>346.3333333333333</ele><time>2026-03-22T07:56:44.998Z</time></trkpt><trkpt lat="43.25084079901724" lon="11.680303065106292"><ele>344.0</ele><time>2026-03-22T07:56:48.998Z</time></trkpt><trkpt lat="43.25090173131472" lon="11.680271840379435"><ele>341.66666666666663</ele><time>2026-03-22T07:56:53Z</time></trkpt><trkpt lat="43.25098333348944" lon="11.680237807216344"><ele>339.3333333333333</ele><time>2026-03-22T07:56:55Z</time></trkpt><trkpt lat="43.25102706305766" lon="11.68017301980651"><ele>337.0</ele><time>2026-03-22T07:56:57Z</time></trkpt><trkpt lat="43.25109627305269" lon="11.680123638694964"><ele>337.0</ele><time>2026-03-22T07:57:00Z</time></trkpt><trkpt lat="43.25116058533889" lon="11.680043019019802"><ele>337.0</ele><time>2026-03-22T07:57:02Z</time></trkpt><trkpt lat="43.251214266660426" lon="11.679925374566048"><ele>337.0</ele><time>2026-03-22T07:57:04Z</time></trkpt><trkpt lat="43.25127866144674" lon="11.679862791030022"><ele>337.0</ele><time>2026-03-22T07:57:06Z</time></trkpt><trkpt lat="43.25132254122345" lon="11.679785009560668"><ele>337.0</ele><time>2026-03-22T07:57:08Z</time></trkpt><trkpt lat="43.25136087768721" lon="11.679691319838408"><ele>337.0</ele><time>2026-03-22T07:57:10Z</time></trkpt><trkpt lat="43.251439104933624" lon="11.6795623126822"><ele>330.20000000000005</ele><time>2026-03-22T07:57:12Z</time></trkpt><trkpt lat="43.251470670364604" lon="11.679460494805651"><ele>323.40000000000003</ele><time>2026-03-22T07:57:14Z</time></trkpt><trkpt lat="43.25152299602961" lon="11.679327039716412"><ele>316.6</ele><time>2026-03-22T07:57:16Z</time></trkpt><trkpt lat="43.25157858294425" lon="11.679260531910748"><ele>309.8</ele><time>2026-03-22T07:57:17Z</time></trkpt><trkpt lat="43.25162125306135" lon="11.67914795263065"><ele>303.0</ele><time>2026-03-22T07:57:19Z</time></trkpt><trkpt lat="43.25169728941875" lon="11.67903898304649"><ele>303.0</ele><time>2026-03-22T07:57:21Z</time></trkpt><trkpt lat="43.25179786464526" lon="11.67896401388363"><ele>303.0</ele><time>2026-03-22T07:57:23Z</time></trkpt><trkpt lat="43.251862939681196" lon="11.678872129220867"><ele>303.0</ele><time>2026-03-22T07:57:25Z</time></trkpt><trkpt lat="43.25191808575341" lon="11.67875028126855"><ele>303.0</ele><time>2026-03-22T07:57:27Z</time></trkpt><trkpt lat="43.25195042689013" lon="11.678664657963957"><ele>303.0</ele><time>2026-03-22T07:57:28Z</time></trkpt><trkpt lat="43.25198166811755" lon="11.67854054068671"><ele>303.0</ele><time>2026-03-22T07:57:30Z</time></trkpt><trkpt lat="43.25206196800948" lon="11.678547697126426"><ele>303.0</ele><time>2026-03-22T07:57:33.999Z</time></trkpt><trkpt lat="43.25210798299019" lon="11.678607720039407"><ele>303.0</ele><time>2026-03-22T07:57:34.999Z</time></trkpt><trkpt lat="43.25214174134034" lon="11.678698026590077"><ele>303.0</ele><time>2026-03-22T07:57:35.999Z</time></trkpt><trkpt lat="43.25215880106761" lon="11.678813168493349"><ele>303.0</ele><time>2026-03-22T07:57:36.999Z</time></trkpt><trkpt lat="43.25218560627582" lon="11.678936582899055"><ele>303.0</ele><time>2026-03-22T07:57:37.999Z</time></trkpt><trkpt lat="43.252210378386444" lon="11.679035571059954"><ele>303.0</ele><time>2026-03-22T07:57:38.999Z</time></trkpt><trkpt lat="43.25221902601783" lon="11.679132263112267"><ele>303.0</ele><time>2026-03-22T07:57:39.999Z</time></trkpt><trkpt lat="43.25221879188153" lon="11.679250300343577"><ele>303.0</ele><time>2026-03-22T07:57:41.999Z</time></trkpt><trkpt lat="43.25222530620927" lon="11.679337967458075"><ele>303.0</ele><time>2026-03-22T07:57:42.999Z</time></trkpt><trkpt lat="43.2522733276165" lon="11.679440056861681"><ele>303.0</ele><time>2026-03-22T07:57:44.999Z</time></trkpt><trkpt lat="43.25234134462151" lon="11.679603804745048"><ele>303.0</ele><time>2026-03-22T07:57:46.999Z</time></trkpt><trkpt lat="43.2523652583791" lon="11.679727532381294"><ele>297.5</ele><time>2026-03-22T07:57:47.999Z</time></trkpt><trkpt lat="43.25237904998592" lon="11.679867757260332"><ele>292.0</ele><time>2026-03-22T07:57:48.999Z</time></trkpt><trkpt lat="43.25238642318327" lon="11.679958478349091"><ele>286.5</ele><time>2026-03-22T07:57:49.999Z</time></trkpt><trkpt lat="43.25260487456815" lon="11.679952675379766"><ele>281.0</ele><time>2026-03-22T07:57:56.999Z</time></trkpt><trkpt lat="43.252687123399156" lon="11.679943334639557"><ele>281.0</ele><time>2026-03-22T07:57:58.999Z</time></trkpt><trkpt lat="43.252887650862135" lon="11.679931039756971"><ele>281.0</ele><time>2026-03-22T07:58:14.999Z</time></trkpt><trkpt lat="43.252960875094814" lon="11.67975436611155"><ele>281.0</ele><time>2026-03-22T07:58:18.999Z</time></trkpt><trkpt lat="43.25300748596694" lon="11.679616072606388"><ele>281.0</ele><time>2026-03-22T07:58:20.999Z</time></trkpt><trkpt lat="43.25302981084105" lon="11.679493505863537"><ele>281.0</ele><time>2026-03-22T07:58:22.999Z</time></trkpt><trkpt lat="43.25308824558404" lon="11.67943021481977"><ele>281.0</ele><time>2026-03-22T07:58:29.999Z</time></trkpt><trkpt lat="43.253158628098014" lon="11.679634638273514"><ele>281.0</ele><time>2026-03-22T07:58:37.998Z</time></trkpt><trkpt lat="43.25320746840491" lon="11.679698704987175"><ele>281.0</ele><time>2026-03-22T07:58:38.998Z</time></trkpt><trkpt lat="43.25326574061147" lon="11.679746467475704"><ele>281.8</ele><time>2026-03-22T07:58:39.998Z</time></trkpt><trkpt lat="43.25332106378292" lon="11.679815527632545"><ele>282.6</ele><time>2026-03-22T07:58:41.998Z</time></trkpt><trkpt lat="43.25342336484174" lon="11.679693691346962"><ele>283.4</ele><time>2026-03-22T07:58:45.998Z</time></trkpt><trkpt lat="43.25346057831589" lon="11.679574895343732"><ele>284.2</ele><time>2026-03-22T07:58:46.998Z</time></trkpt><trkpt lat="43.25348501588873" lon="11.679429704092096"><ele>285.0</ele><time>2026-03-22T07:58:47.998Z</time></trkpt><trkpt lat="43.25350676325298" lon="11.679281927306512"><ele>285.0</ele><time>2026-03-22T07:58:48.998Z</time></trkpt><trkpt lat="43.25353630819817" lon="11.679116506954832"><ele>285.0</ele><time>2026-03-22T07:58:49.998Z</time></trkpt><trkpt lat="43.253563823526804" lon="11.678944006770823"><ele>285.0</ele><time>2026-03-22T07:58:50.998Z</time></trkpt><trkpt lat="43.25358399725535" lon="11.678774517254755"><ele>285.0</ele><time>2026-03-22T07:58:51.998Z</time></trkpt><trkpt lat="43.25359613609407" lon="11.678595086110414"><ele>285.0</ele><time>2026-03-22T07:58:52.998Z</time></trkpt><trkpt lat="43.253609229578025" lon="11.678423577594632"><ele>285.0</ele><time>2026-03-22T07:58:53.998Z</time></trkpt><trkpt lat="43.25362347206121" lon="11.678253029306717"><ele>285.0</ele><time>2026-03-22T07:58:54.998Z</time></trkpt><trkpt lat="43.25363813501177" lon="11.678074472752959"><ele>285.0</ele><time>2026-03-22T07:58:56Z</time></trkpt><trkpt lat="43.2536492412148" lon="11.677898421113753"><ele>284.5</ele><time>2026-03-22T07:58:57Z</time></trkpt><trkpt lat="43.253669197422305" lon="11.677730736625737"><ele>284.0</ele><time>2026-03-22T07:58:58Z</time></trkpt><trkpt lat="43.25368573296591" lon="11.677567646839067"><ele>283.5</ele><time>2026-03-22T07:58:59Z</time></trkpt><trkpt lat="43.25369819514343" lon="11.677394578285503"><ele>283.0</ele><time>2026-03-22T07:59:00Z</time></trkpt><trkpt lat="43.25370914848718" lon="11.677221852266909"><ele>283.0</ele><time>2026-03-22T07:59:01Z</time></trkpt><trkpt lat="43.25371958265824" lon="11.677040436117197"><ele>283.0</ele><time>2026-03-22T07:59:02Z</time></trkpt><trkpt lat="43.25371337976358" lon="11.676854529740142"><ele>283.0</ele><time>2026-03-22T07:59:03Z</time></trkpt><trkpt lat="43.253696596035745" lon="11.676665195824652"><ele>283.0</ele><time>2026-03-22T07:59:04Z</time></trkpt><trkpt lat="43.253670661169394" lon="11.67647348325923"><ele>283.75</ele><time>2026-03-22T07:59:05Z</time></trkpt><trkpt lat="43.25362776989061" lon="11.67627584050107"><ele>284.5</ele><time>2026-03-22T07:59:06Z</time></trkpt><trkpt lat="43.2535865820282" lon="11.676095999096544"><ele>285.25</ele><time>2026-03-22T07:59:07Z</time></trkpt><trkpt lat="43.2535529112167" lon="11.675926446658506"><ele>286.0</ele><time>2026-03-22T07:59:08Z</time></trkpt><trkpt lat="43.253520109299515" lon="11.67575633860081"><ele>286.0</ele><time>2026-03-22T07:59:09Z</time></trkpt><trkpt lat="43.25348831697635" lon="11.675593286229143"><ele>286.0</ele><time>2026-03-22T07:59:10Z</time></trkpt><trkpt lat="43.25345570808984" lon="11.675427408077194"><ele>286.0</ele><time>2026-03-22T07:59:11Z</time></trkpt><trkpt lat="43.253422443330315" lon="11.675259722155053"><ele>286.0</ele><time>2026-03-22T07:59:12Z</time></trkpt><trkpt lat="43.25338769977059" lon="11.675092973015328"><ele>286.0</ele><time>2026-03-22T07:59:13Z</time></trkpt><trkpt lat="43.2533530813557" lon="11.674927554611793"><ele>286.0</ele><time>2026-03-22T07:59:14Z</time></trkpt><trkpt lat="43.253316901333484" lon="11.674757770689851"><ele>286.0</ele><time>2026-03-22T07:59:15Z</time></trkpt><trkpt lat="43.25328023073989" lon="11.674589256484095"><ele>286.0</ele><time>2026-03-22T07:59:16Z</time></trkpt><trkpt lat="43.25324588192203" lon="11.674419619443269"><ele>286.0</ele><time>2026-03-22T07:59:17Z</time></trkpt><trkpt lat="43.25321375638249" lon="11.674254725257462"><ele>286.0</ele><time>2026-03-22T07:59:18Z</time></trkpt><trkpt lat="43.25318153422332" lon="11.674093284711564"><ele>286.0</ele><time>2026-03-22T07:59:19Z</time></trkpt><trkpt lat="43.253152715064026" lon="11.673952645799083"><ele>286.0</ele><time>2026-03-22T07:59:20Z</time></trkpt><trkpt lat="43.25312358292487" lon="11.673824345104473"><ele>285.40000000000003</ele><time>2026-03-22T07:59:21Z</time></trkpt><trkpt lat="43.25309334123559" lon="11.673711802092667"><ele>284.8</ele><time>2026-03-22T07:59:22Z</time></trkpt><trkpt lat="43.2530665110289" lon="11.67361219785303"><ele>284.20000000000005</ele><time>2026-03-22T07:59:23Z</time></trkpt><trkpt lat="43.25305004303864" lon="11.6735287013992"><ele>283.6</ele><time>2026-03-22T07:59:24Z</time></trkpt><trkpt lat="43.25302838433715" lon="11.673366897477678"><ele>283.0</ele><time>2026-03-22T07:59:26Z</time></trkpt><trkpt lat="43.25300134475795" lon="11.673201286600307"><ele>282.8333333333333</ele><time>2026-03-22T07:59:28Z</time></trkpt><trkpt lat="43.25298771150969" lon="11.673114684613456"><ele>282.66666666666663</ele><time>2026-03-22T07:59:29Z</time></trkpt><trkpt lat="43.25296456972849" lon="11.67302936620587"><ele>282.5</ele><time>2026-03-22T07:59:30Z</time></trkpt><trkpt lat="43.25293251666789" lon="11.672931394837631"><ele>282.3333333333333</ele><time>2026-03-22T07:59:31Z</time></trkpt><trkpt lat="43.25290187746967" lon="11.672817686077174"><ele>282.1666666666667</ele><time>2026-03-22T07:59:32Z</time></trkpt><trkpt lat="43.25288439181947" lon="11.672677272485679"><ele>282.0</ele><time>2026-03-22T07:59:33Z</time></trkpt><trkpt lat="43.25286076880096" lon="11.672514253918058"><ele>282.0</ele><time>2026-03-22T07:59:34Z</time></trkpt><trkpt lat="43.25282018939622" lon="11.672333599359611"><ele>282.0</ele><time>2026-03-22T07:59:35Z</time></trkpt><trkpt lat="43.25276873186608" lon="11.672154074864336"><ele>282.0</ele><time>2026-03-22T07:59:36Z</time></trkpt><trkpt lat="43.25270869531678" lon="11.671959286005928"><ele>282.0</ele><time>2026-03-22T07:59:36.999Z</time></trkpt><trkpt lat="43.252644030179724" lon="11.67175560623005"><ele>282.0</ele><time>2026-03-22T07:59:37.999Z</time></trkpt><trkpt lat="43.25258179474164" lon="11.67156248778482"><ele>282.0</ele><time>2026-03-22T07:59:38.999Z</time></trkpt><trkpt lat="43.25252394391844" lon="11.671374318328578"><ele>282.0</ele><time>2026-03-22T07:59:39.999Z</time></trkpt><trkpt lat="43.25246902506305" lon="11.671186302578452"><ele>282.25</ele><time>2026-03-22T07:59:40.999Z</time></trkpt><trkpt lat="43.252415468546246" lon="11.671003727022338"><ele>282.5</ele><time>2026-03-22T07:59:41.999Z</time></trkpt><trkpt lat="43.25235993189093" lon="11.670818992626405"><ele>282.75</ele><time>2026-03-22T07:59:42.999Z</time></trkpt><trkpt lat="43.252305169279275" lon="11.67064133935939"><ele>283.0</ele><time>2026-03-22T07:59:43.999Z</time></trkpt><trkpt lat="43.25224817257929" lon="11.670457822449475"><ele>283.0</ele><time>2026-03-22T07:59:44.999Z</time></trkpt><trkpt lat="43.252193773862736" lon="11.67027565781097"><ele>283.0</ele><time>2026-03-22T07:59:45.999Z</time></trkpt><trkpt lat="43.25214149149298" lon="11.670092679393568"><ele>283.0</ele><time>2026-03-22T07:59:46.999Z</time></trkpt><trkpt lat="43.252087314951225" lon="11.669907874955497"><ele>283.0</ele><time>2026-03-22T07:59:47.999Z</time></trkpt><trkpt lat="43.25203042588839" lon="11.669724632766835"><ele>282.75</ele><time>2026-03-22T07:59:48.999Z</time></trkpt><trkpt lat="43.251976114538984" lon="11.669544583726852"><ele>282.5</ele><time>2026-03-22T07:59:49.999Z</time></trkpt><trkpt lat="43.2519181111512" lon="11.66936075054012"><ele>282.25</ele><time>2026-03-22T07:59:50.999Z</time></trkpt><trkpt lat="43.25186288138725" lon="11.669181525988519"><ele>282.0</ele><time>2026-03-22T07:59:51.999Z</time></trkpt><trkpt lat="43.251806891491576" lon="11.668998053599754"><ele>282.5</ele><time>2026-03-22T07:59:52.999Z</time></trkpt><trkpt lat="43.25175056166536" lon="11.668815781914516"><ele>283.0</ele><time>2026-03-22T07:59:53.999Z</time></trkpt><trkpt lat="43.25169407100862" lon="11.668638627539348"><ele>283.5</ele><time>2026-03-22T07:59:54.999Z</time></trkpt><trkpt lat="43.25163898040053" lon="11.668457192822604"><ele>284.0</ele><time>2026-03-22T07:59:55.999Z</time></trkpt><trkpt lat="43.25158509091739" lon="11.66827559197596"><ele>284.25</ele><time>2026-03-22T07:59:56.999Z</time></trkpt><trkpt lat="43.25153149873043" lon="11.668097360290272"><ele>284.5</ele><time>2026-03-22T07:59:57.999Z</time></trkpt><trkpt lat="43.25148338171035" lon="11.667922289081451"><ele>284.75</ele><time>2026-03-22T07:59:58.999Z</time></trkpt><trkpt lat="43.25143653901756" lon="11.6677398034942"><ele>285.0</ele><time>2026-03-22T07:59:59.999Z</time></trkpt><trkpt lat="43.251392929969526" lon="11.66755154958975"><ele>285.0</ele><time>2026-03-22T08:00:00.999Z</time></trkpt><trkpt lat="43.25134611600744" lon="11.66735920956608"><ele>285.0</ele><time>2026-03-22T08:00:01.999Z</time></trkpt><trkpt lat="43.25129782674172" lon="11.667168812737474"><ele>285.0</ele><time>2026-03-22T08:00:02.999Z</time></trkpt><trkpt lat="43.25124990507155" lon="11.666974876016718"><ele>285.0</ele><time>2026-03-22T08:00:03.999Z</time></trkpt><trkpt lat="43.25120001319118" lon="11.66678429319342"><ele>285.25</ele><time>2026-03-22T08:00:04.999Z</time></trkpt><trkpt lat="43.251151488945986" lon="11.666592146678093"><ele>285.5</ele><time>2026-03-22T08:00:05.999Z</time></trkpt><trkpt lat="43.25110256743573" lon="11.666400116984208"><ele>285.75</ele><time>2026-03-22T08:00:06.999Z</time></trkpt><trkpt lat="43.25105586168192" lon="11.666205715807"><ele>286.0</ele><time>2026-03-22T08:00:07.999Z</time></trkpt><trkpt lat="43.251010431905215" lon="11.666008757726795"><ele>287.5</ele><time>2026-03-22T08:00:08.999Z</time></trkpt><trkpt lat="43.25096273523285" lon="11.665815634974974"><ele>289.0</ele><time>2026-03-22T08:00:09.999Z</time></trkpt><trkpt lat="43.25091030841073" lon="11.665624384440305"><ele>290.5</ele><time>2026-03-22T08:00:10.999Z</time></trkpt><trkpt lat="43.25085558092516" lon="11.665434559501175"><ele>292.0</ele><time>2026-03-22T08:00:11.999Z</time></trkpt><trkpt lat="43.250808605887464" lon="11.665243929093577"><ele>292.75</ele><time>2026-03-22T08:00:12.999Z</time></trkpt><trkpt lat="43.25076155189584" lon="11.665050194837985"><ele>293.5</ele><time>2026-03-22T08:00:13.999Z</time></trkpt><trkpt lat="43.25071246382847" lon="11.664854445322629"><ele>294.25</ele><time>2026-03-22T08:00:14.999Z</time></trkpt><trkpt lat="43.2506662737188" lon="11.664661634458382"><ele>295.0</ele><time>2026-03-22T08:00:15.999Z</time></trkpt><trkpt lat="43.25062366205762" lon="11.664469344333689"><ele>293.0</ele><time>2026-03-22T08:00:16.999Z</time></trkpt><trkpt lat="43.250585806939" lon="11.66427365051242"><ele>291.0</ele><time>2026-03-22T08:00:17.999Z</time></trkpt><trkpt lat="43.250558831529325" lon="11.664074551336862"><ele>289.0</ele><time>2026-03-22T08:00:18.999Z</time></trkpt><trkpt lat="43.250539002113925" lon="11.663878520769565"><ele>287.0</ele><time>2026-03-22T08:00:19.999Z</time></trkpt><trkpt lat="43.25051735081047" lon="11.663678576118624"><ele>287.25</ele><time>2026-03-22T08:00:20.999Z</time></trkpt><trkpt lat="43.25049601274166" lon="11.663484648113974"><ele>287.5</ele><time>2026-03-22T08:00:21.999Z</time></trkpt><trkpt lat="43.250475820176014" lon="11.663285502916514"><ele>287.75</ele><time>2026-03-22T08:00:22.999Z</time></trkpt><trkpt lat="43.250451044490475" lon="11.663085656305407"><ele>288.0</ele><time>2026-03-22T08:00:23.999Z</time></trkpt><trkpt lat="43.250420400607055" lon="11.662885531200306"><ele>288.5</ele><time>2026-03-22T08:00:24.999Z</time></trkpt><trkpt lat="43.25039803071409" lon="11.662683243966548"><ele>289.0</ele><time>2026-03-22T08:00:25.999Z</time></trkpt><trkpt lat="43.25037780294729" lon="11.66248330234149"><ele>289.5</ele><time>2026-03-22T08:00:26.999Z</time></trkpt><trkpt lat="43.25034896134433" lon="11.662278265225218"><ele>290.0</ele><time>2026-03-22T08:00:27.999Z</time></trkpt><trkpt lat="43.25031682595483" lon="11.66207886165476"><ele>290.25</ele><time>2026-03-22T08:00:28.999Z</time></trkpt><trkpt lat="43.2502880886539" lon="11.661882460571775"><ele>290.5</ele><time>2026-03-22T08:00:29.999Z</time></trkpt><trkpt lat="43.25026713918575" lon="11.661681191284702"><ele>290.75</ele><time>2026-03-22T08:00:30.999Z</time></trkpt><trkpt lat="43.25026181442769" lon="11.661484664414713"><ele>291.0</ele><time>2026-03-22T08:00:31.999Z</time></trkpt><trkpt lat="43.25027670230272" lon="11.66128390849364"><ele>290.0</ele><time>2026-03-22T08:00:32.999Z</time></trkpt><trkpt lat="43.25029523963145" lon="11.66110097497749"><ele>289.0</ele><time>2026-03-22T08:00:33.999Z</time></trkpt><trkpt lat="43.25030689919152" lon="11.660905418066692"><ele>288.0</ele><time>2026-03-22T08:00:34.999Z</time></trkpt><trkpt lat="43.25031000474426" lon="11.660701871445001"><ele>287.0</ele><time>2026-03-22T08:00:35.999Z</time></trkpt><trkpt lat="43.25030760025377" lon="11.660513967093983"><ele>287.0</ele><time>2026-03-22T08:00:36.999Z</time></trkpt><trkpt lat="43.250301491500274" lon="11.660317180113116"><ele>287.0</ele><time>2026-03-22T08:00:37.999Z</time></trkpt><trkpt lat="43.250296960986056" lon="11.660126112971653"><ele>287.0</ele><time>2026-03-22T08:00:38.998Z</time></trkpt><trkpt lat="43.25029162775648" lon="11.659928916820128"><ele>287.0</ele><time>2026-03-22T08:00:39.998Z</time></trkpt><trkpt lat="43.25028297390417" lon="11.659738652717696"><ele>286.5</ele><time>2026-03-22T08:00:40.998Z</time></trkpt><trkpt lat="43.25025941138894" lon="11.659557357840418"><ele>286.0</ele><time>2026-03-22T08:00:41.998Z</time></trkpt><trkpt lat="43.25021199091488" lon="11.659373017236843"><ele>285.5</ele><time>2026-03-22T08:00:42.998Z</time></trkpt><trkpt lat="43.25016154888665" lon="11.659190872786192"><ele>285.0</ele><time>2026-03-22T08:00:43.998Z</time></trkpt><trkpt lat="43.25012097366453" lon="11.659026839996603"><ele>285.0</ele><time>2026-03-22T08:00:44.998Z</time></trkpt><trkpt lat="43.25008520614274" lon="11.658881074379273"><ele>285.0</ele><time>2026-03-22T08:00:45.998Z</time></trkpt><trkpt lat="43.250054796377704" lon="11.658770534798544"><ele>285.0</ele><time>2026-03-22T08:00:46.998Z</time></trkpt><trkpt lat="43.25003415808582" lon="11.658649796347145"><ele>285.0</ele><time>2026-03-22T08:00:48.998Z</time></trkpt><trkpt lat="43.25016692539227" lon="11.65860533353472"><ele>285.0</ele><time>2026-03-22T08:00:51.998Z</time></trkpt><trkpt lat="43.250245675260445" lon="11.658579779011628"><ele>286.0</ele><time>2026-03-22T08:00:52.998Z</time></trkpt><trkpt lat="43.250344887171366" lon="11.658574957899429"><ele>287.0</ele><time>2026-03-22T08:00:53.998Z</time></trkpt><trkpt lat="43.25045878929911" lon="11.65856271666442"><ele>288.0</ele><time>2026-03-22T08:00:54.998Z</time></trkpt><trkpt lat="43.25059029939438" lon="11.658553468771245"><ele>289.0</ele><time>2026-03-22T08:00:55.998Z</time></trkpt><trkpt lat="43.25072863873326" lon="11.658539409378232"><ele>289.3333333333333</ele><time>2026-03-22T08:00:56.998Z</time></trkpt><trkpt lat="43.250882212556704" lon="11.658519899766555"><ele>289.6666666666667</ele><time>2026-03-22T08:00:57.998Z</time></trkpt><trkpt lat="43.251048763222606" lon="11.65850684790943"><ele>290.0</ele><time>2026-03-22T08:00:58.998Z</time></trkpt><trkpt lat="43.251199874318004" lon="11.658505456363386"><ele>290.0</ele><time>2026-03-22T08:00:59.998Z</time></trkpt><trkpt lat="43.25135697037269" lon="11.658491160852831"><ele>290.0</ele><time>2026-03-22T08:01:00.998Z</time></trkpt><trkpt lat="43.251501005303766" lon="11.658480086686428"><ele>290.0</ele><time>2026-03-22T08:01:02Z</time></trkpt><trkpt lat="43.25164736468803" lon="11.658473585741229"><ele>290.0</ele><time>2026-03-22T08:01:03Z</time></trkpt><trkpt lat="43.25179599098906" lon="11.658469571493189"><ele>291.0</ele><time>2026-03-22T08:01:04Z</time></trkpt><trkpt lat="43.251947952443906" lon="11.658445235800903"><ele>292.0</ele><time>2026-03-22T08:01:05Z</time></trkpt><trkpt lat="43.25210185476693" lon="11.65844530234567"><ele>293.0</ele><time>2026-03-22T08:01:06Z</time></trkpt><trkpt lat="43.25225614502914" lon="11.6584483157121"><ele>293.33333333333337</ele><time>2026-03-22T08:01:07Z</time></trkpt><trkpt lat="43.25240951967599" lon="11.658449552474984"><ele>293.6666666666667</ele><time>2026-03-22T08:01:08Z</time></trkpt><trkpt lat="43.25256106584904" lon="11.658446299565643"><ele>294.0</ele><time>2026-03-22T08:01:09Z</time></trkpt><trkpt lat="43.252708586527866" lon="11.6584449962189"><ele>294.0</ele><time>2026-03-22T08:01:10Z</time></trkpt><trkpt lat="43.25285545519343" lon="11.658439925697833"><ele>294.0</ele><time>2026-03-22T08:01:11Z</time></trkpt><trkpt lat="43.25300627070757" lon="11.658435788636897"><ele>294.0</ele><time>2026-03-22T08:01:12Z</time></trkpt><trkpt lat="43.25315157823201" lon="11.658432790356297"><ele>294.0</ele><time>2026-03-22T08:01:13Z</time></trkpt><trkpt lat="43.253285160281685" lon="11.658429078785751"><ele>294.5</ele><time>2026-03-22T08:01:14Z</time></trkpt><trkpt lat="43.25341126086159" lon="11.65842572962332"><ele>295.0</ele><time>2026-03-22T08:01:15Z</time></trkpt><trkpt lat="43.253534834631836" lon="11.65843814267758"><ele>295.5</ele><time>2026-03-22T08:01:16Z</time></trkpt><trkpt lat="43.25366585646455" lon="11.658448526881722"><ele>296.0</ele><time>2026-03-22T08:01:17Z</time></trkpt><trkpt lat="43.2538001638693" lon="11.658480245579709"><ele>296.0</ele><time>2026-03-22T08:01:18Z</time></trkpt><trkpt lat="43.25393853406739" lon="11.658517464335642"><ele>296.0</ele><time>2026-03-22T08:01:19Z</time></trkpt><trkpt lat="43.25407739434718" lon="11.658560720862674"><ele>296.0</ele><time>2026-03-22T08:01:20Z</time></trkpt><trkpt lat="43.25422018410726" lon="11.658595100906892"><ele>296.0</ele><time>2026-03-22T08:01:21Z</time></trkpt><trkpt lat="43.25436178962884" lon="11.658638978159475"><ele>297.5</ele><time>2026-03-22T08:01:22Z</time></trkpt><trkpt lat="43.254506000758276" lon="11.65868164774505"><ele>299.0</ele><time>2026-03-22T08:01:23Z</time></trkpt><trkpt lat="43.254652156052266" lon="11.658723736013723"><ele>300.5</ele><time>2026-03-22T08:01:24Z</time></trkpt><trkpt lat="43.2547976661109" lon="11.658767214826076"><ele>302.0</ele><time>2026-03-22T08:01:25Z</time></trkpt><trkpt lat="43.254941488164526" lon="11.65882363646824"><ele>302.33333333333337</ele><time>2026-03-22T08:01:26Z</time></trkpt><trkpt lat="43.25507856233631" lon="11.65891256290783"><ele>302.6666666666667</ele><time>2026-03-22T08:01:27Z</time></trkpt><trkpt lat="43.25521850720949" lon="11.658985192544996"><ele>303.0</ele><time>2026-03-22T08:01:28Z</time></trkpt><trkpt lat="43.25535870065279" lon="11.659060189471232"><ele>303.0</ele><time>2026-03-22T08:01:29Z</time></trkpt><trkpt lat="43.25550091004957" lon="11.659133000515304"><ele>303.0</ele><time>2026-03-22T08:01:30Z</time></trkpt><trkpt lat="43.25563994596083" lon="11.65919989765741"><ele>303.0</ele><time>2026-03-22T08:01:31Z</time></trkpt><trkpt lat="43.25577502793102" lon="11.659247853885438"><ele>303.0</ele><time>2026-03-22T08:01:32Z</time></trkpt><trkpt lat="43.255903789172315" lon="11.659296820857685"><ele>305.5</ele><time>2026-03-22T08:01:33Z</time></trkpt><trkpt lat="43.256031032912176" lon="11.659329743626847"><ele>308.0</ele><time>2026-03-22T08:01:34Z</time></trkpt><trkpt lat="43.25616216488287" lon="11.659342920320709"><ele>310.5</ele><time>2026-03-22T08:01:35Z</time></trkpt><trkpt lat="43.256305210437596" lon="11.65934757660839"><ele>313.0</ele><time>2026-03-22T08:01:36Z</time></trkpt><trkpt lat="43.2564494821289" lon="11.659347905213483"><ele>315.0</ele><time>2026-03-22T08:01:37Z</time></trkpt><trkpt lat="43.2565940114526" lon="11.65934593981762"><ele>317.0</ele><time>2026-03-22T08:01:38Z</time></trkpt><trkpt lat="43.25673588750223" lon="11.659344714125135"><ele>319.0</ele><time>2026-03-22T08:01:39Z</time></trkpt><trkpt lat="43.25686739892145" lon="11.65933952822703"><ele>321.0</ele><time>2026-03-22T08:01:40Z</time></trkpt><trkpt lat="43.25698131912198" lon="11.65935738576794"><ele>321.0</ele><time>2026-03-22T08:01:41Z</time></trkpt><trkpt lat="43.25707171864851" lon="11.659329360027076"><ele>321.0</ele><time>2026-03-22T08:01:42Z</time></trkpt><trkpt lat="43.25713584848793" lon="11.65932299658932"><ele>321.0</ele><time>2026-03-22T08:01:43Z</time></trkpt><trkpt lat="43.257217745313426" lon="11.65932075113272"><ele>321.0</ele><time>2026-03-22T08:01:44.999Z</time></trkpt><trkpt lat="43.25735333939004" lon="11.65971776646276"><ele>321.5</ele><time>2026-03-22T08:01:48.999Z</time></trkpt><trkpt lat="43.25742062261425" lon="11.659780810445852"><ele>322.0</ele><time>2026-03-22T08:01:49.999Z</time></trkpt><trkpt lat="43.25748920801669" lon="11.65980312988859"><ele>322.5</ele><time>2026-03-22T08:01:50.999Z</time></trkpt><trkpt lat="43.25756223183693" lon="11.65983402587031"><ele>323.0</ele><time>2026-03-22T08:01:51.999Z</time></trkpt><trkpt lat="43.2576437853188" lon="11.659871914476673"><ele>323.5</ele><time>2026-03-22T08:01:52.999Z</time></trkpt><trkpt lat="43.25770691096729" lon="11.659951946418923"><ele>324.0</ele><time>2026-03-22T08:01:53.999Z</time></trkpt><trkpt lat="43.25776300246896" lon="11.660059857765088"><ele>324.0</ele><time>2026-03-22T08:01:54.999Z</time></trkpt><trkpt lat="43.257823490751164" lon="11.660154218834524"><ele>324.0</ele><time>2026-03-22T08:01:55.999Z</time></trkpt><trkpt lat="43.25788548001722" lon="11.660218005387556"><ele>324.0</ele><time>2026-03-22T08:01:56.999Z</time></trkpt><trkpt lat="43.25796387938031" lon="11.660267968447286"><ele>324.0</ele><time>2026-03-22T08:01:57.999Z</time></trkpt><trkpt lat="43.25804682152235" lon="11.660349583756654"><ele>324.0</ele><time>2026-03-22T08:01:58.999Z</time></trkpt><trkpt lat="43.25810749970798" lon="11.660469466968863"><ele>325.5</ele><time>2026-03-22T08:01:59.999Z</time></trkpt><trkpt lat="43.2581678455831" lon="11.660609331139543"><ele>327.0</ele><time>2026-03-22T08:02:00.999Z</time></trkpt><trkpt lat="43.25824862388604" lon="11.660777753858893"><ele>328.5</ele><time>2026-03-22T08:02:01.999Z</time></trkpt><trkpt lat="43.25834368535362" lon="11.660932822668123"><ele>330.0</ele><time>2026-03-22T08:02:02.999Z</time></trkpt><trkpt lat="43.25843448048974" lon="11.66108028921498"><ele>330.6</ele><time>2026-03-22T08:02:03.999Z</time></trkpt><trkpt lat="43.25849490773829" lon="11.661192281569276"><ele>331.2</ele><time>2026-03-22T08:02:04.999Z</time></trkpt><trkpt lat="43.258558052032186" lon="11.661257156489702"><ele>331.79999999999995</ele><time>2026-03-22T08:02:05.999Z</time></trkpt><trkpt lat="43.25862542965017" lon="11.661305012551196"><ele>332.4</ele><time>2026-03-22T08:02:06.999Z</time></trkpt><trkpt lat="43.258691992376015" lon="11.661383912520993"><ele>333.0</ele><time>2026-03-22T08:02:07.999Z</time></trkpt><trkpt lat="43.25874945305533" lon="11.661505878269818"><ele>333.0</ele><time>2026-03-22T08:02:08.999Z</time></trkpt><trkpt lat="43.2588070199839" lon="11.661613171778022"><ele>333.0</ele><time>2026-03-22T08:02:09.999Z</time></trkpt><trkpt lat="43.25886794414196" lon="11.661694818945398"><ele>333.0</ele><time>2026-03-22T08:02:10.999Z</time></trkpt><trkpt lat="43.258918430158616" lon="11.661767427111503"><ele>333.0</ele><time>2026-03-22T08:02:11.999Z</time></trkpt><trkpt lat="43.25898088042868" lon="11.661846773051964"><ele>333.0</ele><time>2026-03-22T08:02:12.999Z</time></trkpt><trkpt lat="43.259042995076754" lon="11.661947140682232"><ele>333.0</ele><time>2026-03-22T08:02:13.999Z</time></trkpt><trkpt lat="43.259090601464834" lon="11.662060514630031"><ele>334.0</ele><time>2026-03-22T08:02:14.999Z</time></trkpt><trkpt lat="43.2590759827853" lon="11.662231838030614"><ele>335.0</ele><time>2026-03-22T08:02:16.999Z</time></trkpt><trkpt lat="43.25903004888374" lon="11.662336951411348"><ele>336.0</ele><time>2026-03-22T08:02:17.999Z</time></trkpt><trkpt lat="43.259006564717836" lon="11.662492131447035"><ele>337.0</ele><time>2026-03-22T08:02:18.999Z</time></trkpt><trkpt lat="43.25902666789748" lon="11.662634800570675"><ele>338.0</ele><time>2026-03-22T08:02:19.999Z</time></trkpt><trkpt lat="43.25906365699955" lon="11.662794540090209"><ele>339.1666666666667</ele><time>2026-03-22T08:02:20.999Z</time></trkpt><trkpt lat="43.25908016356385" lon="11.6629323667033"><ele>340.33333333333337</ele><time>2026-03-22T08:02:21.999Z</time></trkpt><trkpt lat="43.259070073292165" lon="11.663061945955253"><ele>341.5</ele><time>2026-03-22T08:02:22.999Z</time></trkpt><trkpt lat="43.259051309254986" lon="11.66317861165419"><ele>342.6666666666667</ele><time>2026-03-22T08:02:23.999Z</time></trkpt><trkpt lat="43.2590710911643" lon="11.663267317504847"><ele>343.8333333333333</ele><time>2026-03-22T08:02:24.999Z</time></trkpt><trkpt lat="43.25913933355824" lon="11.663349787839978"><ele>345.0</ele><time>2026-03-22T08:02:25.999Z</time></trkpt><trkpt lat="43.25919610798055" lon="11.663424134935575"><ele>345.0</ele><time>2026-03-22T08:02:26.999Z</time></trkpt><trkpt lat="43.259208434797195" lon="11.663545218451505"><ele>345.0</ele><time>2026-03-22T08:02:27.999Z</time></trkpt><trkpt lat="43.25920094171652" lon="11.663697860982754"><ele>345.0</ele><time>2026-03-22T08:02:28.999Z</time></trkpt><trkpt lat="43.25917584863842" lon="11.663835883123383"><ele>345.0</ele><time>2026-03-22T08:02:29.999Z</time></trkpt><trkpt lat="43.259195492698794" lon="11.664026004558593"><ele>345.0</ele><time>2026-03-22T08:02:31.999Z</time></trkpt><trkpt lat="43.259254952795764" lon="11.66410053659515"><ele>346.6</ele><time>2026-03-22T08:02:32.999Z</time></trkpt><trkpt lat="43.25932396069513" lon="11.664246457248229"><ele>348.2</ele><time>2026-03-22T08:02:33.999Z</time></trkpt><trkpt lat="43.259381523396485" lon="11.664372608507712"><ele>349.79999999999995</ele><time>2026-03-22T08:02:34.999Z</time></trkpt><trkpt lat="43.25941859994742" lon="11.664499804027594"><ele>351.4</ele><time>2026-03-22T08:02:35.999Z</time></trkpt><trkpt lat="43.259466447394274" lon="11.664587598117684"><ele>353.0</ele><time>2026-03-22T08:02:36.999Z</time></trkpt><trkpt lat="43.25952280439631" lon="11.664652229019062"><ele>354.1666666666667</ele><time>2026-03-22T08:02:37.999Z</time></trkpt><trkpt lat="43.25962539419549" lon="11.664701745669598"><ele>355.33333333333337</ele><time>2026-03-22T08:02:39.999Z</time></trkpt><trkpt lat="43.25968280412363" lon="11.664762507754752"><ele>356.5</ele><time>2026-03-22T08:02:40.999Z</time></trkpt><trkpt lat="43.259722316567704" lon="11.664853113468265"><ele>357.6666666666667</ele><time>2026-03-22T08:02:41.999Z</time></trkpt><trkpt lat="43.25975490776998" lon="11.664961600283151"><ele>358.8333333333333</ele><time>2026-03-22T08:02:42.999Z</time></trkpt><trkpt lat="43.25978256574741" lon="11.665074481517308"><ele>360.0</ele><time>2026-03-22T08:02:43.999Z</time></trkpt><trkpt lat="43.259814571944396" lon="11.665208687768885"><ele>362.4</ele><time>2026-03-22T08:02:44.999Z</time></trkpt><trkpt lat="43.259854581937915" lon="11.665342736291157"><ele>364.8</ele><time>2026-03-22T08:02:45.999Z</time></trkpt><trkpt lat="43.259896358012696" lon="11.665472742300521"><ele>367.20000000000005</ele><time>2026-03-22T08:02:46.999Z</time></trkpt><trkpt lat="43.25994218856521" lon="11.66559549520138"><ele>369.6</ele><time>2026-03-22T08:02:47.998Z</time></trkpt><trkpt lat="43.25998537662689" lon="11.665720284191027"><ele>372.0</ele><time>2026-03-22T08:02:48.998Z</time></trkpt><trkpt lat="43.2600139271972" lon="11.665840427731098"><ele>372.0</ele><time>2026-03-22T08:02:49.998Z</time></trkpt><trkpt lat="43.26003223583313" lon="11.665986753336107"><ele>372.0</ele><time>2026-03-22T08:02:51.998Z</time></trkpt><trkpt lat="43.26010330025641" lon="11.666111518683696"><ele>372.0</ele><time>2026-03-22T08:02:53.998Z</time></trkpt><trkpt lat="43.26015441814712" lon="11.666264901084194"><ele>372.0</ele><time>2026-03-22T08:02:55.998Z</time></trkpt><trkpt lat="43.260191398761606" lon="11.66641426806744"><ele>373.28571428571433</ele><time>2026-03-22T08:02:57.998Z</time></trkpt><trkpt lat="43.260187418767764" lon="11.666504787689519"><ele>374.57142857142856</ele><time>2026-03-22T08:02:58.998Z</time></trkpt><trkpt lat="43.26017220286791" lon="11.666600391741744"><ele>375.8571428571429</ele><time>2026-03-22T08:02:59.998Z</time></trkpt><trkpt lat="43.26017136452335" lon="11.666710011456743"><ele>377.14285714285717</ele><time>2026-03-22T08:03:00.998Z</time></trkpt><trkpt lat="43.260163104872404" lon="11.666803737225983"><ele>378.42857142857144</ele><time>2026-03-22T08:03:01.998Z</time></trkpt><trkpt lat="43.26014686102061" lon="11.666896273418491"><ele>379.7142857142857</ele><time>2026-03-22T08:03:02.998Z</time></trkpt><trkpt lat="43.26013147408987" lon="11.666981480574746"><ele>381.0</ele><time>2026-03-22T08:03:03.998Z</time></trkpt><trkpt lat="43.26012093076417" lon="11.667073724245471"><ele>383.0</ele><time>2026-03-22T08:03:04.998Z</time></trkpt><trkpt lat="43.26013830204599" lon="11.667164243251184"><ele>385.0</ele><time>2026-03-22T08:03:05.998Z</time></trkpt><trkpt lat="43.26017513359066" lon="11.667247170185254"><ele>387.0</ele><time>2026-03-22T08:03:06.998Z</time></trkpt><trkpt lat="43.26021260998331" lon="11.66734242650657"><ele>389.0</ele><time>2026-03-22T08:03:08Z</time></trkpt><trkpt lat="43.26023138080965" lon="11.667452268926931"><ele>391.0</ele><time>2026-03-22T08:03:09Z</time></trkpt><trkpt lat="43.26022265587683" lon="11.667568840322344"><ele>393.0</ele><time>2026-03-22T08:03:10Z</time></trkpt><trkpt lat="43.26020162877834" lon="11.66769252689871"><ele>394.5</ele><time>2026-03-22T08:03:11Z</time></trkpt><trkpt lat="43.26020112714829" lon="11.667795277953255"><ele>396.0</ele><time>2026-03-22T08:03:12Z</time></trkpt><trkpt lat="43.26021459229879" lon="11.667919392930868"><ele>397.5</ele><time>2026-03-22T08:03:13Z</time></trkpt><trkpt lat="43.26023355321425" lon="11.668004771967233"><ele>399.0</ele><time>2026-03-22T08:03:14Z</time></trkpt><trkpt lat="43.26026394237949" lon="11.668080611808143"><ele>400.5</ele><time>2026-03-22T08:03:15Z</time></trkpt><trkpt lat="43.26031650071928" lon="11.6681740698022"><ele>402.0</ele><time>2026-03-22T08:03:16Z</time></trkpt><trkpt lat="43.26037618734844" lon="11.668286211526251"><ele>402.0</ele><time>2026-03-22T08:03:17Z</time></trkpt><trkpt lat="43.26044345650163" lon="11.668375344670425"><ele>402.0</ele><time>2026-03-22T08:03:18Z</time></trkpt><trkpt lat="43.260508128320325" lon="11.668485446200469"><ele>402.0</ele><time>2026-03-22T08:03:19Z</time></trkpt><trkpt lat="43.26057468364262" lon="11.668619167495972"><ele>402.0</ele><time>2026-03-22T08:03:20Z</time></trkpt><trkpt lat="43.26063143458525" lon="11.668759925554165"><ele>402.0</ele><time>2026-03-22T08:03:21Z</time></trkpt><trkpt lat="43.26068864392827" lon="11.668904248150222"><ele>403.20000000000005</ele><time>2026-03-22T08:03:22Z</time></trkpt><trkpt lat="43.26074729145174" lon="11.66901615743569"><ele>404.4</ele><time>2026-03-22T08:03:23Z</time></trkpt><trkpt lat="43.26079205240312" lon="11.66910928050031"><ele>405.6</ele><time>2026-03-22T08:03:24Z</time></trkpt><trkpt lat="43.26082232882338" lon="11.669217647462977"><ele>406.79999999999995</ele><time>2026-03-22T08:03:25Z</time></trkpt><trkpt lat="43.2608548944279" lon="11.669333934642758"><ele>408.0</ele><time>2026-03-22T08:03:26Z</time></trkpt><trkpt lat="43.26091910296027" lon="11.66943318002756"><ele>407.79999999999995</ele><time>2026-03-22T08:03:27Z</time></trkpt><trkpt lat="43.26099010417825" lon="11.669526610313708"><ele>407.6</ele><time>2026-03-22T08:03:28Z</time></trkpt><trkpt lat="43.261070304521525" lon="11.669624514272842"><ele>407.4</ele><time>2026-03-22T08:03:29Z</time></trkpt><trkpt lat="43.26114941503811" lon="11.669727847726415"><ele>407.20000000000005</ele><time>2026-03-22T08:03:30Z</time></trkpt><trkpt lat="43.26121369618947" lon="11.669849419082993"><ele>407.0</ele><time>2026-03-22T08:03:31Z</time></trkpt><trkpt lat="43.26128429676661" lon="11.669980362540862"><ele>407.0</ele><time>2026-03-22T08:03:32Z</time></trkpt><trkpt lat="43.26136604590327" lon="11.670085812337012"><ele>407.0</ele><time>2026-03-22T08:03:33Z</time></trkpt><trkpt lat="43.261441495251276" lon="11.670169221987214"><ele>407.0</ele><time>2026-03-22T08:03:34Z</time></trkpt><trkpt lat="43.26150046510306" lon="11.670253017219036"><ele>407.0</ele><time>2026-03-22T08:03:35Z</time></trkpt><trkpt lat="43.26155656683835" lon="11.67033994358506"><ele>407.0</ele><time>2026-03-22T08:03:36Z</time></trkpt><trkpt lat="43.261601293087644" lon="11.670438945295475"><ele>407.99999999999994</ele><time>2026-03-22T08:03:37Z</time></trkpt><trkpt lat="43.26162405283907" lon="11.670558859263535"><ele>409.0</ele><time>2026-03-22T08:03:38Z</time></trkpt><trkpt lat="43.26166339517586" lon="11.67067546304036"><ele>410.0</ele><time>2026-03-22T08:03:39Z</time></trkpt><trkpt lat="43.26170656187091" lon="11.670763246611143"><ele>411.0</ele><time>2026-03-22T08:03:40Z</time></trkpt><trkpt lat="43.261761211492875" lon="11.670845601465683"><ele>411.99999999999994</ele><time>2026-03-22T08:03:41Z</time></trkpt><trkpt lat="43.261826867046715" lon="11.67092562089982"><ele>413.0</ele><time>2026-03-22T08:03:42Z</time></trkpt><trkpt lat="43.26190722513835" lon="11.671020369729172"><ele>412.0</ele><time>2026-03-22T08:03:43Z</time></trkpt><trkpt lat="43.261987813966634" lon="11.671131321644985"><ele>411.0</ele><time>2026-03-22T08:03:44Z</time></trkpt><trkpt lat="43.262066285337355" lon="11.671244495776367"><ele>410.0</ele><time>2026-03-22T08:03:45Z</time></trkpt><trkpt lat="43.26214228554531" lon="11.671333044436132"><ele>409.0</ele><time>2026-03-22T08:03:46Z</time></trkpt><trkpt lat="43.26219788083392" lon="11.671420353060618"><ele>408.0</ele><time>2026-03-22T08:03:47Z</time></trkpt><trkpt lat="43.262242374041286" lon="11.671518255698102"><ele>408.0</ele><time>2026-03-22T08:03:48Z</time></trkpt><trkpt lat="43.26227780600683" lon="11.671632387544093"><ele>408.0</ele><time>2026-03-22T08:03:49Z</time></trkpt><trkpt lat="43.26228870828549" lon="11.671776085004415"><ele>408.0</ele><time>2026-03-22T08:03:50Z</time></trkpt><trkpt lat="43.26229803892337" lon="11.671930759494863"><ele>408.0</ele><time>2026-03-22T08:03:51Z</time></trkpt><trkpt lat="43.26231377004845" lon="11.67207506484784"><ele>408.0</ele><time>2026-03-22T08:03:51.999Z</time></trkpt><trkpt lat="43.26234610890657" lon="11.672202247074754"><ele>411.75</ele><time>2026-03-22T08:03:52.999Z</time></trkpt><trkpt lat="43.262370875944356" lon="11.672345867349007"><ele>415.5</ele><time>2026-03-22T08:03:53.999Z</time></trkpt><trkpt lat="43.26237647039002" lon="11.672497360889261"><ele>419.25</ele><time>2026-03-22T08:03:54.999Z</time></trkpt><trkpt lat="43.26238497023254" lon="11.67266552322049"><ele>423.0</ele><time>2026-03-22T08:03:55.999Z</time></trkpt><trkpt lat="43.262388902649846" lon="11.672820563630967"><ele>423.6666666666667</ele><time>2026-03-22T08:03:56.999Z</time></trkpt><trkpt lat="43.26237289458686" lon="11.67295278644729"><ele>424.33333333333337</ele><time>2026-03-22T08:03:57.999Z</time></trkpt><trkpt lat="43.2623558131912" lon="11.673060474743187"><ele>425.0</ele><time>2026-03-22T08:03:58.999Z</time></trkpt><trkpt lat="43.26233747585362" lon="11.673156073017678"><ele>425.6666666666667</ele><time>2026-03-22T08:03:59.999Z</time></trkpt><trkpt lat="43.262348919900525" lon="11.673309982636276"><ele>426.33333333333337</ele><time>2026-03-22T08:04:01.999Z</time></trkpt><trkpt lat="43.26238777776322" lon="11.673378609902743"><ele>427.0</ele><time>2026-03-22T08:04:02.999Z</time></trkpt><trkpt lat="43.26243659025817" lon="11.673441770072277"><ele>426.25</ele><time>2026-03-22T08:04:04.999Z</time></trkpt><trkpt lat="43.262558131656625" lon="11.67362939969226"><ele>425.5</ele><time>2026-03-22T08:13:35.998Z</time></trkpt><trkpt lat="43.26262361175826" lon="11.673762622660671"><ele>424.75</ele><time>2026-03-22T08:13:38Z</time></trkpt><trkpt lat="43.262670065356" lon="11.673844533068774"><ele>424.0</ele><time>2026-03-22T08:13:39Z</time></trkpt><trkpt lat="43.26270936879018" lon="11.673932131523285"><ele>424.00000000000006</ele><time>2026-03-22T08:13:40Z</time></trkpt><trkpt lat="43.26275520557784" lon="11.674013250179101"><ele>424.0</ele><time>2026-03-22T08:13:41Z</time></trkpt><trkpt lat="43.262795374608665" lon="11.67408700029067"><ele>424.0</ele><time>2026-03-22T08:13:42Z</time></trkpt><trkpt lat="43.26283626275897" lon="11.67424345861357"><ele>424.0</ele><time>2026-03-22T08:13:44Z</time></trkpt><trkpt lat="43.26284950322426" lon="11.674340639865173"><ele>424.00000000000006</ele><time>2026-03-22T08:13:45Z</time></trkpt><trkpt lat="43.26290067306366" lon="11.674443946249333"><ele>424.0</ele><time>2026-03-22T08:13:46Z</time></trkpt><trkpt lat="43.26294899547481" lon="11.67455616038679"><ele>424.4</ele><time>2026-03-22T08:13:47Z</time></trkpt><trkpt lat="43.26300529624703" lon="11.674672093248606"><ele>424.79999999999995</ele><time>2026-03-22T08:13:48Z</time></trkpt><trkpt lat="43.26307272680688" lon="11.674773336998983"><ele>425.20000000000005</ele><time>2026-03-22T08:13:49Z</time></trkpt><trkpt lat="43.26313246818109" lon="11.67480494693999"><ele>425.6</ele><time>2026-03-22T08:13:50Z</time></trkpt><trkpt lat="43.26324626149078" lon="11.674755719517723"><ele>426.0</ele><time>2026-03-22T08:13:52Z</time></trkpt><trkpt lat="43.2632987053381" lon="11.674679843993225"><ele>427.0</ele><time>2026-03-22T08:13:53Z</time></trkpt><trkpt lat="43.26334296702651" lon="11.674584388282664"><ele>428.0</ele><time>2026-03-22T08:13:54Z</time></trkpt><trkpt lat="43.26340468915135" lon="11.674500345747319"><ele>429.0</ele><time>2026-03-22T08:13:55Z</time></trkpt><trkpt lat="43.26349405361682" lon="11.67441701065908"><ele>430.0</ele><time>2026-03-22T08:13:56Z</time></trkpt><trkpt lat="43.26357970682279" lon="11.674318331457494"><ele>431.0</ele><time>2026-03-22T08:13:57Z</time></trkpt><trkpt lat="43.26366236306158" lon="11.674206611900258"><ele>431.75</ele><time>2026-03-22T08:13:58Z</time></trkpt><trkpt lat="43.26375077003043" lon="11.674110496688051"><ele>432.5</ele><time>2026-03-22T08:13:59Z</time></trkpt><trkpt lat="43.26385696931977" lon="11.674016131778394"><ele>433.25</ele><time>2026-03-22T08:14:00Z</time></trkpt><trkpt lat="43.2639759987328" lon="11.673922204857885"><ele>434.0</ele><time>2026-03-22T08:14:01Z</time></trkpt><trkpt lat="43.26409693316274" lon="11.673829785631488"><ele>434.0</ele><time>2026-03-22T08:14:02Z</time></trkpt><trkpt lat="43.26419270280798" lon="11.673744112127675"><ele>434.0</ele><time>2026-03-22T08:14:03Z</time></trkpt><trkpt lat="43.264264581061155" lon="11.673661787563136"><ele>434.0</ele><time>2026-03-22T08:14:04Z</time></trkpt><trkpt lat="43.26431021369017" lon="11.673579946463363"><ele>434.0</ele><time>2026-03-22T08:14:05Z</time></trkpt><trkpt lat="43.264377387463384" lon="11.673459067074823"><ele>434.0</ele><time>2026-03-22T08:14:07Z</time></trkpt><trkpt lat="43.264459751537004" lon="11.673340785864902"><ele>433.99999999999994</ele><time>2026-03-22T08:14:09Z</time></trkpt><trkpt lat="43.26451688660947" lon="11.673270194387408"><ele>434.0</ele><time>2026-03-22T08:14:10Z</time></trkpt><trkpt lat="43.264576424059264" lon="11.673192586733276"><ele>434.0</ele><time>2026-03-22T08:14:11Z</time></trkpt><trkpt lat="43.264623263675134" lon="11.673129257727165"><ele>434.0</ele><time>2026-03-22T08:14:12Z</time></trkpt><trkpt lat="43.26470314927381" lon="11.673037562263028"><ele>433.99999999999994</ele><time>2026-03-22T08:14:14Z</time></trkpt><trkpt lat="43.264751773056844" lon="11.672934365327269"><ele>434.0</ele><time>2026-03-22T08:14:16Z</time></trkpt><trkpt lat="43.26479834211581" lon="11.67281102639935"><ele>433.4</ele><time>2026-03-22T08:14:18Z</time></trkpt><trkpt lat="43.26477837632358" lon="11.672683193883682"><ele>432.79999999999995</ele><time>2026-03-22T08:14:20Z</time></trkpt><trkpt lat="43.26474825442704" lon="11.672511995241631"><ele>432.20000000000005</ele><time>2026-03-22T08:14:22Z</time></trkpt><trkpt lat="43.26474490683602" lon="11.67236989236218"><ele>431.6</ele><time>2026-03-22T08:14:23Z</time></trkpt><trkpt lat="43.2647611600038" lon="11.672236128574548"><ele>431.0</ele><time>2026-03-22T08:14:24Z</time></trkpt><trkpt lat="43.26478370976297" lon="11.672113285902903"><ele>431.16666666666663</ele><time>2026-03-22T08:14:25Z</time></trkpt><trkpt lat="43.26478646531036" lon="11.672026235302976"><ele>431.3333333333333</ele><time>2026-03-22T08:14:26Z</time></trkpt><trkpt lat="43.264772794249446" lon="11.671863920793287"><ele>431.5</ele><time>2026-03-22T08:14:27.999Z</time></trkpt><trkpt lat="43.26473642149634" lon="11.671741635202395"><ele>431.66666666666663</ele><time>2026-03-22T08:14:29.999Z</time></trkpt><trkpt lat="43.26465173026585" lon="11.671699546036145"><ele>431.8333333333333</ele><time>2026-03-22T08:14:31.999Z</time></trkpt><trkpt lat="43.26458877458663" lon="11.671672060299038"><ele>432.0</ele><time>2026-03-22T08:14:32.999Z</time></trkpt><trkpt lat="43.26452546470997" lon="11.671623724705086"><ele>432.0</ele><time>2026-03-22T08:14:33.999Z</time></trkpt><trkpt lat="43.26446961942473" lon="11.671549386127918"><ele>432.0</ele><time>2026-03-22T08:14:34.999Z</time></trkpt><trkpt lat="43.26441543358203" lon="11.671473676150583"><ele>432.0</ele><time>2026-03-22T08:14:35.999Z</time></trkpt><trkpt lat="43.26435973448463" lon="11.671428142601217"><ele>432.0</ele><time>2026-03-22T08:14:36.999Z</time></trkpt><trkpt lat="43.26431392785408" lon="11.671340570703794"><ele>432.0</ele><time>2026-03-22T08:14:38.999Z</time></trkpt><trkpt lat="43.26433813168375" lon="11.67122698447009"><ele>432.0</ele><time>2026-03-22T08:14:40.999Z</time></trkpt><trkpt lat="43.2643481308329" lon="11.671088842002026"><ele>431.2857142857143</ele><time>2026-03-22T08:14:42.999Z</time></trkpt><trkpt lat="43.264350842086245" lon="11.670987328483992"><ele>430.57142857142856</ele><time>2026-03-22T08:14:44.999Z</time></trkpt><trkpt lat="43.26433995396899" lon="11.670883219931401"><ele>429.8571428571429</ele><time>2026-03-22T08:14:46.999Z</time></trkpt><trkpt lat="43.26432898368274" lon="11.670795091557236"><ele>429.1428571428571</ele><time>2026-03-22T08:14:47.999Z</time></trkpt><trkpt lat="43.26432204038981" lon="11.670699133282971"><ele>428.42857142857144</ele><time>2026-03-22T08:14:48.999Z</time></trkpt><trkpt lat="43.264325500603526" lon="11.67060977429238"><ele>427.7142857142857</ele><time>2026-03-22T08:14:49.999Z</time></trkpt><trkpt lat="43.264334599276" lon="11.670520198764645"><ele>427.0</ele><time>2026-03-22T08:14:50.999Z</time></trkpt><trkpt lat="43.2643554956864" lon="11.670396047376679"><ele>424.8</ele><time>2026-03-22T08:14:52.999Z</time></trkpt><trkpt lat="43.26437827417633" lon="11.67027359091613"><ele>422.6</ele><time>2026-03-22T08:14:54.999Z</time></trkpt><trkpt lat="43.26435626781457" lon="11.67013050617609"><ele>420.40000000000003</ele><time>2026-03-22T08:14:56.999Z</time></trkpt><trkpt lat="43.26436283905933" lon="11.669969902363569"><ele>418.20000000000005</ele><time>2026-03-22T08:14:58.999Z</time></trkpt><trkpt lat="43.26435571735633" lon="11.669852145461698"><ele>416.0</ele><time>2026-03-22T08:15:00.999Z</time></trkpt><trkpt lat="43.26437378581626" lon="11.669765540740887"><ele>415.99999999999994</ele><time>2026-03-22T08:15:02.999Z</time></trkpt><trkpt lat="43.264356274341736" lon="11.669646901816467"><ele>416.0</ele><time>2026-03-22T08:15:06.999Z</time></trkpt><trkpt lat="43.26438239402646" lon="11.669561481053764"><ele>416.0</ele><time>2026-03-22T08:15:13.999Z</time></trkpt><trkpt lat="43.26440918416455" lon="11.66940389662669"><ele>416.0</ele><time>2026-03-22T08:15:17.999Z</time></trkpt><trkpt lat="43.26446828922009" lon="11.669321401702074"><ele>415.99999999999994</ele><time>2026-03-22T08:15:20.999Z</time></trkpt><trkpt lat="43.264469186819284" lon="11.669232440678945"><ele>416.0</ele><time>2026-03-22T08:15:23.999Z</time></trkpt><trkpt lat="43.264436476148376" lon="11.669061012033072"><ele>414.3333333333333</ele><time>2026-03-22T08:15:25.999Z</time></trkpt><trkpt lat="43.26441025287047" lon="11.668953820356911"><ele>412.66666666666663</ele><time>2026-03-22T08:15:28.999Z</time></trkpt><trkpt lat="43.264399504894314" lon="11.668864030044807"><ele>411.0</ele><time>2026-03-22T08:15:32.998Z</time></trkpt><trkpt lat="43.26445681827101" lon="11.668817789662956"><ele>409.33333333333337</ele><time>2026-03-22T08:15:35.998Z</time></trkpt><trkpt lat="43.264535817670726" lon="11.668854574003673"><ele>407.6666666666667</ele><time>2026-03-22T08:15:38.998Z</time></trkpt><trkpt lat="43.26456958264752" lon="11.66874963556972"><ele>406.0</ele><time>2026-03-22T08:15:41.998Z</time></trkpt><trkpt lat="43.26453290687888" lon="11.668596292013344"><ele>403.6666666666667</ele><time>2026-03-22T08:15:45Z</time></trkpt><trkpt lat="43.26448661985203" lon="11.668535329477729"><ele>401.33333333333337</ele><time>2026-03-22T08:15:48Z</time></trkpt><trkpt lat="43.264447294662666" lon="11.668416730231364"><ele>399.0</ele><time>2026-03-22T08:15:50Z</time></trkpt><trkpt lat="43.26444370539551" lon="11.668318929736747"><ele>396.66666666666663</ele><time>2026-03-22T08:15:53Z</time></trkpt><trkpt lat="43.26441477335823" lon="11.668222785199793"><ele>394.3333333333333</ele><time>2026-03-22T08:15:55Z</time></trkpt><trkpt lat="43.264385746228044" lon="11.668046472815869"><ele>392.0</ele><time>2026-03-22T08:15:57Z</time></trkpt><trkpt lat="43.26435256489054" lon="11.667950324962254"><ele>391.99999999999994</ele><time>2026-03-22T08:15:58Z</time></trkpt><trkpt lat="43.2643278250623" lon="11.667815359889245"><ele>392.0</ele><time>2026-03-22T08:16:00Z</time></trkpt><trkpt lat="43.26434302445201" lon="11.667681600100545"><ele>392.0</ele><time>2026-03-22T08:16:02Z</time></trkpt><trkpt lat="43.2643390890623" lon="11.66758691150183"><ele>392.0</ele><time>2026-03-22T08:16:03Z</time></trkpt><trkpt lat="43.264362012102715" lon="11.66748191171309"><ele>391.99999999999994</ele><time>2026-03-22T08:16:05Z</time></trkpt><trkpt lat="43.264394683409485" lon="11.667385408044435"><ele>392.0</ele><time>2026-03-22T08:16:07Z</time></trkpt><trkpt lat="43.264626530984806" lon="11.667178661962184"><ele>388.8</ele><time>2026-03-22T08:16:10Z</time></trkpt><trkpt lat="43.26471636251149" lon="11.667203871574376"><ele>385.6</ele><time>2026-03-22T08:16:11Z</time></trkpt><trkpt lat="43.26479907212571" lon="11.667283401209525"><ele>382.40000000000003</ele><time>2026-03-22T08:16:13Z</time></trkpt><trkpt lat="43.264911605417986" lon="11.667278032086417"><ele>379.20000000000005</ele><time>2026-03-22T08:16:14Z</time></trkpt><trkpt lat="43.26498358888317" lon="11.667276560786492"><ele>376.0</ele><time>2026-03-22T08:16:15Z</time></trkpt><trkpt lat="43.26506388965041" lon="11.667310267371674"><ele>376.0</ele><time>2026-03-22T08:16:16Z</time></trkpt><trkpt lat="43.26512647613994" lon="11.66733925624365"><ele>376.0</ele><time>2026-03-22T08:16:17Z</time></trkpt><trkpt lat="43.26520430218306" lon="11.667273453001734"><ele>376.0</ele><time>2026-03-22T08:16:19Z</time></trkpt><trkpt lat="43.26527195779228" lon="11.667155585838918"><ele>376.0</ele><time>2026-03-22T08:16:21Z</time></trkpt><trkpt lat="43.26531681143203" lon="11.667089154679175"><ele>376.0</ele><time>2026-03-22T08:16:22Z</time></trkpt><trkpt lat="43.26536661557258" lon="11.667032217569774"><ele>376.0</ele><time>2026-03-22T08:16:23Z</time></trkpt><trkpt lat="43.26547799768239" lon="11.667009246230018"><ele>376.0</ele><time>2026-03-22T08:16:25Z</time></trkpt><trkpt lat="43.265544251202954" lon="11.666981538741158"><ele>376.0</ele><time>2026-03-22T08:16:26Z</time></trkpt><trkpt lat="43.26561598531929" lon="11.666942532135694"><ele>376.0</ele><time>2026-03-22T08:16:27Z</time></trkpt><trkpt lat="43.265676491549826" lon="11.666882745972156"><ele>376.0</ele><time>2026-03-22T08:16:29Z</time></trkpt><trkpt lat="43.265726116725276" lon="11.666788005426035"><ele>376.0</ele><time>2026-03-22T08:16:31Z</time></trkpt><trkpt lat="43.26580607916123" lon="11.666726720855168"><ele>376.0</ele><time>2026-03-22T08:16:32.999Z</time></trkpt><trkpt lat="43.2658758712503" lon="11.666744510113901"><ele>374.8</ele><time>2026-03-22T08:16:33.999Z</time></trkpt><trkpt lat="43.26594449488063" lon="11.666779168600268"><ele>373.6</ele><time>2026-03-22T08:16:34.999Z</time></trkpt><trkpt lat="43.266038170723355" lon="11.666834832797614"><ele>372.4</ele><time>2026-03-22T08:16:35.999Z</time></trkpt><trkpt lat="43.26614202988519" lon="11.666869664378108"><ele>371.2</ele><time>2026-03-22T08:16:36.999Z</time></trkpt><trkpt lat="43.266241168544845" lon="11.666898580992548"><ele>370.0</ele><time>2026-03-22T08:16:37.999Z</time></trkpt><trkpt lat="43.266324660475185" lon="11.666935656351104"><ele>372.2</ele><time>2026-03-22T08:16:38.999Z</time></trkpt><trkpt lat="43.266396439097306" lon="11.666990001196323"><ele>374.4</ele><time>2026-03-22T08:16:39.999Z</time></trkpt><trkpt lat="43.26648639941016" lon="11.667069982882525"><ele>376.6</ele><time>2026-03-22T08:16:40.999Z</time></trkpt><trkpt lat="43.266581504032054" lon="11.667149500615341"><ele>378.8</ele><time>2026-03-22T08:16:41.999Z</time></trkpt><trkpt lat="43.26665573738675" lon="11.66721446912973"><ele>381.0</ele><time>2026-03-22T08:16:42.999Z</time></trkpt><trkpt lat="43.26670371849073" lon="11.667275364236913"><ele>381.5</ele><time>2026-03-22T08:16:43.999Z</time></trkpt><trkpt lat="43.266731571877756" lon="11.66736433301833"><ele>382.0</ele><time>2026-03-22T08:16:44.999Z</time></trkpt><trkpt lat="43.266746568277014" lon="11.667464199120278"><ele>382.5</ele><time>2026-03-22T08:16:45.999Z</time></trkpt><trkpt lat="43.266742076680835" lon="11.667574386999428"><ele>383.0</ele><time>2026-03-22T08:16:46.999Z</time></trkpt><trkpt lat="43.2667170415112" lon="11.66769463251861"><ele>383.5</ele><time>2026-03-22T08:16:47.999Z</time></trkpt><trkpt lat="43.2666899242312" lon="11.667823187900892"><ele>384.0</ele><time>2026-03-22T08:16:48.999Z</time></trkpt><trkpt lat="43.2666650995586" lon="11.667963861668975"><ele>385.79999999999995</ele><time>2026-03-22T08:16:49.999Z</time></trkpt><trkpt lat="43.26664490894026" lon="11.668101632519637"><ele>387.59999999999997</ele><time>2026-03-22T08:16:50.999Z</time></trkpt><trkpt lat="43.266623552668406" lon="11.668196032419726"><ele>389.4</ele><time>2026-03-22T08:16:51.999Z</time></trkpt><trkpt lat="43.26667051310537" lon="11.668302852569898"><ele>391.2</ele><time>2026-03-22T08:16:53.999Z</time></trkpt><trkpt lat="43.26672997417787" lon="11.668397809873989"><ele>393.0</ele><time>2026-03-22T08:16:54.999Z</time></trkpt><trkpt lat="43.26679962355962" lon="11.668527305200989"><ele>395.0</ele><time>2026-03-22T08:16:55.999Z</time></trkpt><trkpt lat="43.26685661757583" lon="11.6686670384455"><ele>397.0</ele><time>2026-03-22T08:16:56.999Z</time></trkpt><trkpt lat="43.26693434673741" lon="11.668809640215581"><ele>399.0</ele><time>2026-03-22T08:16:57.999Z</time></trkpt><trkpt lat="43.26701142153804" lon="11.668953196360933"><ele>401.0</ele><time>2026-03-22T08:16:58.999Z</time></trkpt><trkpt lat="43.26708915529295" lon="11.669100542880615"><ele>401.0</ele><time>2026-03-22T08:16:59.999Z</time></trkpt><trkpt lat="43.26717732921045" lon="11.669241841754422"><ele>401.0</ele><time>2026-03-22T08:17:00.999Z</time></trkpt><trkpt lat="43.267267928414434" lon="11.669388483648802"><ele>401.0</ele><time>2026-03-22T08:17:01.999Z</time></trkpt><trkpt lat="43.26734814877426" lon="11.66954008529155"><ele>401.0</ele><time>2026-03-22T08:17:02.999Z</time></trkpt><trkpt lat="43.26740656280216" lon="11.669664748685406"><ele>403.0</ele><time>2026-03-22T08:17:03.999Z</time></trkpt><trkpt lat="43.267472773957884" lon="11.669752907878332"><ele>405.0</ele><time>2026-03-22T08:17:04.999Z</time></trkpt><trkpt lat="43.267545359943064" lon="11.669829236242089"><ele>407.0</ele><time>2026-03-22T08:17:05.999Z</time></trkpt><trkpt lat="43.267634916061475" lon="11.669906604047743"><ele>409.0</ele><time>2026-03-22T08:17:06.999Z</time></trkpt><trkpt lat="43.26772749451474" lon="11.669999002991847"><ele>411.0</ele><time>2026-03-22T08:17:07.999Z</time></trkpt><trkpt lat="43.26781174575203" lon="11.670106779123707"><ele>411.0</ele><time>2026-03-22T08:17:08.999Z</time></trkpt><trkpt lat="43.26790797864912" lon="11.670232803007268"><ele>411.0</ele><time>2026-03-22T08:17:09.999Z</time></trkpt><trkpt lat="43.26801135100293" lon="11.670362297010358"><ele>411.0</ele><time>2026-03-22T08:17:10.999Z</time></trkpt><trkpt lat="43.26811511514397" lon="11.670496464367982"><ele>411.0</ele><time>2026-03-22T08:17:11.999Z</time></trkpt><trkpt lat="43.268196358721525" lon="11.670644812234746"><ele>411.20000000000005</ele><time>2026-03-22T08:17:12.999Z</time></trkpt><trkpt lat="43.26825591959036" lon="11.670778134901271"><ele>411.40000000000003</ele><time>2026-03-22T08:17:13.999Z</time></trkpt><trkpt lat="43.268318028693024" lon="11.67087198037703"><ele>411.6</ele><time>2026-03-22T08:17:14.999Z</time></trkpt><trkpt lat="43.26839510005575" lon="11.670945640362374"><ele>411.8</ele><time>2026-03-22T08:17:15.999Z</time></trkpt><trkpt lat="43.26849953220974" lon="11.67100663928995"><ele>412.0</ele><time>2026-03-22T08:17:16.999Z</time></trkpt><trkpt lat="43.268598201579955" lon="11.671063974199443"><ele>412.20000000000005</ele><time>2026-03-22T08:17:17.999Z</time></trkpt><trkpt lat="43.268684898988504" lon="11.671131783837934"><ele>412.4</ele><time>2026-03-22T08:17:18.999Z</time></trkpt><trkpt lat="43.26877454833697" lon="11.671200916872884"><ele>412.6</ele><time>2026-03-22T08:17:19.999Z</time></trkpt><trkpt lat="43.26885425519636" lon="11.671258864758887"><ele>412.79999999999995</ele><time>2026-03-22T08:17:20.999Z</time></trkpt><trkpt lat="43.268906791809854" lon="11.671310630577448"><ele>413.0</ele><time>2026-03-22T08:17:21.999Z</time></trkpt><trkpt lat="43.26896839529899" lon="11.671488221055212"><ele>413.0</ele><time>2026-03-22T08:17:23.999Z</time></trkpt><trkpt lat="43.26899548563515" lon="11.671611300053033"><ele>413.0</ele><time>2026-03-22T08:17:24.999Z</time></trkpt><trkpt lat="43.26901837888164" lon="11.671744738122445"><ele>413.0</ele><time>2026-03-22T08:17:25.999Z</time></trkpt><trkpt lat="43.26905802588574" lon="11.671862621263278"><ele>413.0</ele><time>2026-03-22T08:17:26.999Z</time></trkpt><trkpt lat="43.269113959573566" lon="11.671976510648951"><ele>413.0</ele><time>2026-03-22T08:17:27.999Z</time></trkpt><trkpt lat="43.26918718536679" lon="11.67209471476122"><ele>412.66666666666663</ele><time>2026-03-22T08:17:28.999Z</time></trkpt><trkpt lat="43.26925062562575" lon="11.672211302249096"><ele>412.3333333333333</ele><time>2026-03-22T08:17:29.999Z</time></trkpt><trkpt lat="43.26929911059666" lon="11.672321161687533"><ele>412.0</ele><time>2026-03-22T08:17:30.999Z</time></trkpt><trkpt lat="43.26934495068821" lon="11.672415221703867"><ele>411.66666666666663</ele><time>2026-03-22T08:17:31.999Z</time></trkpt><trkpt lat="43.26938640023236" lon="11.672505789058032"><ele>411.3333333333333</ele><time>2026-03-22T08:17:32.999Z</time></trkpt><trkpt lat="43.269418489207155" lon="11.672604861576886"><ele>411.0</ele><time>2026-03-22T08:17:33.999Z</time></trkpt><trkpt lat="43.2694571247291" lon="11.672691060475124"><ele>411.0</ele><time>2026-03-22T08:17:34.998Z</time></trkpt><trkpt lat="43.269505772105795" lon="11.67275788793679"><ele>411.0</ele><time>2026-03-22T08:17:35.998Z</time></trkpt><trkpt lat="43.26955319912874" lon="11.672818195817136"><ele>411.0</ele><time>2026-03-22T08:17:36.998Z</time></trkpt><trkpt lat="43.269657231329624" lon="11.672878229044954"><ele>411.0</ele><time>2026-03-22T08:17:38.998Z</time></trkpt><trkpt lat="43.26971702148517" lon="11.672921320950183"><ele>411.0</ele><time>2026-03-22T08:17:39.998Z</time></trkpt><trkpt lat="43.26977825498317" lon="11.67297036389526"><ele>411.0</ele><time>2026-03-22T08:17:40.998Z</time></trkpt><trkpt lat="43.26984573350575" lon="11.672998117985296"><ele>409.42857142857144</ele><time>2026-03-22T08:17:41.998Z</time></trkpt><trkpt lat="43.269920740453436" lon="11.672999138388526"><ele>407.85714285714283</ele><time>2026-03-22T08:17:42.998Z</time></trkpt><trkpt lat="43.269992301993064" lon="11.67297997758742"><ele>406.28571428571433</ele><time>2026-03-22T08:17:43.998Z</time></trkpt><trkpt lat="43.27006050528027" lon="11.672983904122374"><ele>404.7142857142857</ele><time>2026-03-22T08:17:44.998Z</time></trkpt><trkpt lat="43.27012316358694" lon="11.67299845814187"><ele>403.14285714285717</ele><time>2026-03-22T08:17:45.998Z</time></trkpt><trkpt lat="43.27018859466238" lon="11.673016111127847"><ele>401.5714285714286</ele><time>2026-03-22T08:17:46.998Z</time></trkpt><trkpt lat="43.27026017762654" lon="11.673047806270588"><ele>400.0</ele><time>2026-03-22T08:17:47.998Z</time></trkpt><trkpt lat="43.27032910322288" lon="11.673107403155456"><ele>400.00000000000006</ele><time>2026-03-22T08:17:48.998Z</time></trkpt><trkpt lat="43.27040946130034" lon="11.6731541817535"><ele>400.0</ele><time>2026-03-22T08:17:50Z</time></trkpt><trkpt lat="43.27047021588948" lon="11.673220137971612"><ele>400.0</ele><time>2026-03-22T08:17:51Z</time></trkpt><trkpt lat="43.27050786411811" lon="11.673322652803279"><ele>400.0</ele><time>2026-03-22T08:17:52Z</time></trkpt><trkpt lat="43.270549531562864" lon="11.673431151176343"><ele>400.00000000000006</ele><time>2026-03-22T08:17:53Z</time></trkpt><trkpt lat="43.27060655007985" lon="11.673514076244206"><ele>400.0</ele><time>2026-03-22T08:17:54Z</time></trkpt><trkpt lat="43.27066937106878" lon="11.673577851897717"><ele>399.50000000000006</ele><time>2026-03-22T08:17:55Z</time></trkpt><trkpt lat="43.2707326961534" lon="11.67363352895722"><ele>399.0</ele><time>2026-03-22T08:17:56Z</time></trkpt><trkpt lat="43.270769792381" lon="11.673716312014047"><ele>398.5</ele><time>2026-03-22T08:17:57Z</time></trkpt><trkpt lat="43.27078585653344" lon="11.673811235656892"><ele>398.0</ele><time>2026-03-22T08:17:58Z</time></trkpt><trkpt lat="43.27081365298456" lon="11.673914862841762"><ele>397.50000000000006</ele><time>2026-03-22T08:17:59Z</time></trkpt><trkpt lat="43.270827508075456" lon="11.674029115226585"><ele>397.0</ele><time>2026-03-22T08:18:00Z</time></trkpt><trkpt lat="43.270844633542374" lon="11.674147095214876"><ele>397.00000000000006</ele><time>2026-03-22T08:18:01Z</time></trkpt><trkpt lat="43.27088123549039" lon="11.674250794382319"><ele>397.0</ele><time>2026-03-22T08:18:02Z</time></trkpt><trkpt lat="43.27094104163959" lon="11.674305764736207"><ele>397.0</ele><time>2026-03-22T08:18:03Z</time></trkpt><trkpt lat="43.271021093744025" lon="11.674362899131085"><ele>397.0</ele><time>2026-03-22T08:18:04Z</time></trkpt><trkpt lat="43.271099109526055" lon="11.67440063792448"><ele>397.00000000000006</ele><time>2026-03-22T08:18:05Z</time></trkpt><trkpt lat="43.27119991435821" lon="11.674436854523645"><ele>397.0</ele><time>2026-03-22T08:18:07Z</time></trkpt><trkpt lat="43.27123990767746" lon="11.674547221186895"><ele>396.1666666666667</ele><time>2026-03-22T08:18:10Z</time></trkpt><trkpt lat="43.27128831454289" lon="11.67462032156114"><ele>395.33333333333337</ele><time>2026-03-22T08:18:12Z</time></trkpt><trkpt lat="43.271334902824854" lon="11.674721035341033"><ele>394.5</ele><time>2026-03-22T08:18:15Z</time></trkpt><trkpt lat="43.2713759818568" lon="11.674816724563767"><ele>393.66666666666663</ele><time>2026-03-22T08:18:18Z</time></trkpt><trkpt lat="43.27139991072032" lon="11.674910368086175"><ele>392.8333333333333</ele><time>2026-03-22T08:18:20Z</time></trkpt><trkpt lat="43.271461006902605" lon="11.67488342771816"><ele>392.0</ele><time>2026-03-22T08:18:24Z</time></trkpt><trkpt lat="43.271482277480466" lon="11.67477134389836"><ele>391.8</ele><time>2026-03-22T08:18:26Z</time></trkpt><trkpt lat="43.27151794699565" lon="11.674696290657147"><ele>391.6</ele><time>2026-03-22T08:18:28Z</time></trkpt><trkpt lat="43.27157485808689" lon="11.67455589208077"><ele>391.40000000000003</ele><time>2026-03-22T08:18:32Z</time></trkpt><trkpt lat="43.27170777922222" lon="11.674400280169854"><ele>391.20000000000005</ele><time>2026-03-22T08:18:34Z</time></trkpt><trkpt lat="43.27172709376209" lon="11.674287254402335"><ele>391.0</ele><time>2026-03-22T08:18:34.999Z</time></trkpt><trkpt lat="43.27176833236503" lon="11.674210554977648"><ele>391.0</ele><time>2026-03-22T08:18:35.999Z</time></trkpt><trkpt lat="43.271833295836295" lon="11.674121489761765"><ele>391.0</ele><time>2026-03-22T08:18:38.999Z</time></trkpt><trkpt lat="43.27194003344389" lon="11.674119328896236"><ele>391.0</ele><time>2026-03-22T08:18:41.999Z</time></trkpt><trkpt lat="43.27203561773101" lon="11.674179319814465"><ele>391.0</ele><time>2026-03-22T08:18:43.999Z</time></trkpt><trkpt lat="43.2721145096647" lon="11.674269245848464"><ele>391.0</ele><time>2026-03-22T08:18:45.999Z</time></trkpt><trkpt lat="43.272180245832644" lon="11.67439164974718"><ele>390.83333333333337</ele><time>2026-03-22T08:18:47.999Z</time></trkpt><trkpt lat="43.27223395334501" lon="11.67446142853986"><ele>390.6666666666667</ele><time>2026-03-22T08:18:48.999Z</time></trkpt><trkpt lat="43.272288569019125" lon="11.674530900119255"><ele>390.5</ele><time>2026-03-22T08:18:49.999Z</time></trkpt><trkpt lat="43.27236646144429" lon="11.674618663436645"><ele>390.33333333333337</ele><time>2026-03-22T08:18:51.999Z</time></trkpt><trkpt lat="43.27245194968381" lon="11.674659690525473"><ele>390.1666666666667</ele><time>2026-03-22T08:18:53.999Z</time></trkpt><trkpt lat="43.27251155953878" lon="11.674704020260252"><ele>390.0</ele><time>2026-03-22T08:18:56.999Z</time></trkpt><trkpt lat="43.27260948126509" lon="11.674733389562276"><ele>388.6666666666667</ele><time>2026-03-22T08:18:59.999Z</time></trkpt><trkpt lat="43.27267280881757" lon="11.67472271186685"><ele>387.3333333333333</ele><time>2026-03-22T08:19:01.999Z</time></trkpt><trkpt lat="43.272752539158674" lon="11.674738691435458"><ele>386.0</ele><time>2026-03-22T08:19:02.999Z</time></trkpt><trkpt lat="43.272839110892285" lon="11.674713996175129"><ele>384.66666666666663</ele><time>2026-03-22T08:19:05.999Z</time></trkpt><trkpt lat="43.27290543265289" lon="11.674685639340838"><ele>383.3333333333333</ele><time>2026-03-22T08:19:07.999Z</time></trkpt><trkpt lat="43.27299965766998" lon="11.674644198981944"><ele>382.0</ele><time>2026-03-22T08:19:10.999Z</time></trkpt><trkpt lat="43.27308961079005" lon="11.674572267779672"><ele>380.0</ele><time>2026-03-22T08:19:12.999Z</time></trkpt><trkpt lat="43.2731577869144" lon="11.674514362613799"><ele>378.0</ele><time>2026-03-22T08:19:14.999Z</time></trkpt><trkpt lat="43.273206150188365" lon="11.674439170796248"><ele>376.0</ele><time>2026-03-22T08:19:16.999Z</time></trkpt><trkpt lat="43.27323419015796" lon="11.674320423238516"><ele>374.0</ele><time>2026-03-22T08:19:19.999Z</time></trkpt><trkpt lat="43.273240624416225" lon="11.674195056596126"><ele>372.0</ele><time>2026-03-22T08:19:21.999Z</time></trkpt><trkpt lat="43.27324465043753" lon="11.674100086218465"><ele>370.0</ele><time>2026-03-22T08:19:23.999Z</time></trkpt><trkpt lat="43.27322342051541" lon="11.67398579050677"><ele>368.8333333333333</ele><time>2026-03-22T08:19:25.999Z</time></trkpt><trkpt lat="43.27322822328579" lon="11.673863513420399"><ele>367.66666666666663</ele><time>2026-03-22T08:19:28.999Z</time></trkpt><trkpt lat="43.27322223463213" lon="11.673770226884837"><ele>366.5</ele><time>2026-03-22T08:19:30.999Z</time></trkpt><trkpt lat="43.27320708474245" lon="11.673673552652206"><ele>365.3333333333333</ele><time>2026-03-22T08:19:33.999Z</time></trkpt><trkpt lat="43.27316988819938" lon="11.67356817489806"><ele>364.1666666666667</ele><time>2026-03-22T08:19:36.998Z</time></trkpt><trkpt lat="43.27317222263404" lon="11.673472791905098"><ele>363.0</ele><time>2026-03-22T08:19:37.998Z</time></trkpt><trkpt lat="43.27314912078337" lon="11.673321809189098"><ele>361.6666666666667</ele><time>2026-03-22T08:19:38.998Z</time></trkpt><trkpt lat="43.27314671143436" lon="11.673192972588666"><ele>360.3333333333333</ele><time>2026-03-22T08:19:39.998Z</time></trkpt><trkpt lat="43.27313838799472" lon="11.673087577459615"><ele>359.0</ele><time>2026-03-22T08:19:40.998Z</time></trkpt><trkpt lat="43.27313971925501" lon="11.672993152004372"><ele>357.66666666666663</ele><time>2026-03-22T08:19:41.998Z</time></trkpt><trkpt lat="43.2731304419147" lon="11.672887138105215"><ele>356.3333333333333</ele><time>2026-03-22T08:19:42.998Z</time></trkpt><trkpt lat="43.27311641650518" lon="11.672785318647554"><ele>355.0</ele><time>2026-03-22T08:19:43.998Z</time></trkpt><trkpt lat="43.273116158457995" lon="11.672625177439116"><ele>354.2</ele><time>2026-03-22T08:19:45.998Z</time></trkpt><trkpt lat="43.27316030114673" lon="11.672492754804422"><ele>353.4</ele><time>2026-03-22T08:19:47.998Z</time></trkpt><trkpt lat="43.27324534324054" lon="11.672418748609934"><ele>352.6</ele><time>2026-03-22T08:19:49.998Z</time></trkpt><trkpt lat="43.27324864525702" lon="11.672317549855281"><ele>351.8</ele><time>2026-03-22T08:19:50.998Z</time></trkpt><trkpt lat="43.273269104731945" lon="11.672210700518422"><ele>351.0</ele><time>2026-03-22T08:19:51.998Z</time></trkpt><trkpt lat="43.27329680834558" lon="11.672087981769906"><ele>351.0</ele><time>2026-03-22T08:19:52.998Z</time></trkpt><trkpt lat="43.273316505937196" lon="11.67199335448145"><ele>351.0</ele><time>2026-03-22T08:19:53.998Z</time></trkpt><trkpt lat="43.27336056948904" lon="11.671877009852105"><ele>351.0</ele><time>2026-03-22T08:19:54.998Z</time></trkpt><trkpt lat="43.273407687797175" lon="11.671735779288147"><ele>351.0</ele><time>2026-03-22T08:19:56Z</time></trkpt><trkpt lat="43.27344893817131" lon="11.671607978075292"><ele>351.0</ele><time>2026-03-22T08:19:57Z</time></trkpt><trkpt lat="43.273515961776404" lon="11.671519341591233"><ele>350.6666666666667</ele><time>2026-03-22T08:19:58Z</time></trkpt><trkpt lat="43.27356255182717" lon="11.671416921870055"><ele>350.3333333333333</ele><time>2026-03-22T08:19:59Z</time></trkpt><trkpt lat="43.273581253493234" lon="11.671310295362483"><ele>350.0</ele><time>2026-03-22T08:20:00Z</time></trkpt><trkpt lat="43.273598625035554" lon="11.671207596526916"><ele>349.66666666666663</ele><time>2026-03-22T08:20:01Z</time></trkpt><trkpt lat="43.273605750452816" lon="11.671096674779514"><ele>349.3333333333333</ele><time>2026-03-22T08:20:02Z</time></trkpt><trkpt lat="43.27362692508294" lon="11.671003481851294"><ele>349.0</ele><time>2026-03-22T08:20:03Z</time></trkpt><trkpt lat="43.273652195840256" lon="11.670902267649566"><ele>347.0</ele><time>2026-03-22T08:20:04Z</time></trkpt><trkpt lat="43.273675427511854" lon="11.670800804250382"><ele>345.0</ele><time>2026-03-22T08:20:05Z</time></trkpt><trkpt lat="43.273707673630845" lon="11.6706259974852"><ele>343.0</ele><time>2026-03-22T08:20:07Z</time></trkpt><trkpt lat="43.27366538610234" lon="11.67051140048721"><ele>341.0</ele><time>2026-03-22T08:20:09Z</time></trkpt><trkpt lat="43.27360642793566" lon="11.670446538248195"><ele>339.0</ele><time>2026-03-22T08:20:11Z</time></trkpt><trkpt lat="43.27354039814014" lon="11.670391065538452"><ele>339.0</ele><time>2026-03-22T08:20:12Z</time></trkpt><trkpt lat="43.273476837043255" lon="11.670289078189027"><ele>339.0</ele><time>2026-03-22T08:20:14Z</time></trkpt><trkpt lat="43.2735032009358" lon="11.670161944231305"><ele>339.0</ele><time>2026-03-22T08:20:16Z</time></trkpt><trkpt lat="43.27359685853576" lon="11.670135201539338"><ele>339.0</ele><time>2026-03-22T08:20:18Z</time></trkpt><trkpt lat="43.273675298904806" lon="11.670143459754792"><ele>339.0</ele><time>2026-03-22T08:20:21Z</time></trkpt><trkpt lat="43.273738128961256" lon="11.67013020882872"><ele>339.0</ele><time>2026-03-22T08:20:22Z</time></trkpt><trkpt lat="43.27379955523911" lon="11.670098167387994"><ele>335.5</ele><time>2026-03-22T08:20:23Z</time></trkpt><trkpt lat="43.27386175396034" lon="11.67007916808622"><ele>332.0</ele><time>2026-03-22T08:20:25Z</time></trkpt><trkpt lat="43.27397414732203" lon="11.669982566298993"><ele>328.5</ele><time>2026-03-22T08:20:27Z</time></trkpt><trkpt lat="43.2740387703342" lon="11.669952661337879"><ele>325.0</ele><time>2026-03-22T08:20:28Z</time></trkpt><trkpt lat="43.27411149491652" lon="11.669928859068946"><ele>321.5</ele><time>2026-03-22T08:20:29Z</time></trkpt><trkpt lat="43.27417823705739" lon="11.66991597857615"><ele>318.0</ele><time>2026-03-22T08:20:30Z</time></trkpt><trkpt lat="43.27425004450155" lon="11.669895112754785"><ele>318.1666666666667</ele><time>2026-03-22T08:20:31Z</time></trkpt><trkpt lat="43.274331472396746" lon="11.669880368476067"><ele>318.3333333333333</ele><time>2026-03-22T08:20:32Z</time></trkpt><trkpt lat="43.27439823738305" lon="11.669863780841414"><ele>318.5</ele><time>2026-03-22T08:20:33Z</time></trkpt><trkpt lat="43.274469868759105" lon="11.669852577640313"><ele>318.66666666666663</ele><time>2026-03-22T08:20:34Z</time></trkpt><trkpt lat="43.27456328676494" lon="11.669820899727178"><ele>318.8333333333333</ele><time>2026-03-22T08:20:35Z</time></trkpt><trkpt lat="43.27468441800457" lon="11.669775252330092"><ele>319.0</ele><time>2026-03-22T08:20:36Z</time></trkpt><trkpt lat="43.27479722587251" lon="11.669745556528007"><ele>319.0</ele><time>2026-03-22T08:20:37Z</time></trkpt><trkpt lat="43.27489539933737" lon="11.669701628289308"><ele>319.0</ele><time>2026-03-22T08:20:38Z</time></trkpt><trkpt lat="43.27498997234675" lon="11.669698234559434"><ele>319.0</ele><time>2026-03-22T08:20:39Z</time></trkpt><trkpt lat="43.27507579821645" lon="11.669708625949227"><ele>319.0</ele><time>2026-03-22T08:20:40Z</time></trkpt><trkpt lat="43.275162118832924" lon="11.669700888303387"><ele>319.0</ele><time>2026-03-22T08:20:41Z</time></trkpt><trkpt lat="43.27529577225087" lon="11.669739246924134"><ele>319.0</ele><time>2026-03-22T08:20:42.999Z</time></trkpt><trkpt lat="43.2753536294329" lon="11.669789755806585"><ele>319.0</ele><time>2026-03-22T08:20:43.999Z</time></trkpt><trkpt lat="43.27542968632951" lon="11.669886002185653"><ele>319.0</ele><time>2026-03-22T08:20:45.999Z</time></trkpt><trkpt lat="43.275649469342845" lon="11.670051415349064"><ele>319.0</ele><time>2026-03-22T08:20:51.999Z</time></trkpt><trkpt lat="43.27571085677037" lon="11.670087196959294"><ele>319.6</ele><time>2026-03-22T08:20:52.999Z</time></trkpt><trkpt lat="43.275828327199434" lon="11.670150835989467"><ele>320.2</ele><time>2026-03-22T08:20:54.999Z</time></trkpt><trkpt lat="43.275897610611324" lon="11.670238302564044"><ele>320.8</ele><time>2026-03-22T08:20:56.999Z</time></trkpt><trkpt lat="43.27591193633285" lon="11.670329925424312"><ele>321.40000000000003</ele><time>2026-03-22T08:20:58.999Z</time></trkpt><trkpt lat="43.27588991030126" lon="11.670523206203185"><ele>322.0</ele><time>2026-03-22T08:21:00.999Z</time></trkpt><trkpt lat="43.27585013929504" lon="11.670664173427996"><ele>322.0</ele><time>2026-03-22T08:21:01.999Z</time></trkpt><trkpt lat="43.27583547323593" lon="11.670772496626858"><ele>322.0</ele><time>2026-03-22T08:21:02.999Z</time></trkpt><trkpt lat="43.27582266731427" lon="11.670897244365698"><ele>322.0</ele><time>2026-03-22T08:21:03.999Z</time></trkpt><trkpt lat="43.27583375085118" lon="11.671028379134412"><ele>322.0</ele><time>2026-03-22T08:21:04.999Z</time></trkpt><trkpt lat="43.275857447870756" lon="11.67112019301287"><ele>322.0</ele><time>2026-03-22T08:21:05.999Z</time></trkpt><trkpt lat="43.27589507127909" lon="11.671189815158185"><ele>322.0</ele><time>2026-03-22T08:21:06.999Z</time></trkpt><trkpt lat="43.2759461925078" lon="11.671251737816997"><ele>322.20000000000005</ele><time>2026-03-22T08:21:07.999Z</time></trkpt><trkpt lat="43.27608201322767" lon="11.671335015827891"><ele>322.4</ele><time>2026-03-22T08:21:09.999Z</time></trkpt><trkpt lat="43.276146969017525" lon="11.671330394350505"><ele>322.6</ele><time>2026-03-22T08:21:10.999Z</time></trkpt><trkpt lat="43.27621712496776" lon="11.671314549606892"><ele>322.79999999999995</ele><time>2026-03-22T08:21:11.999Z</time></trkpt><trkpt lat="43.276328060584206" lon="11.671221070138632"><ele>323.0</ele><time>2026-03-22T08:21:13.999Z</time></trkpt><trkpt lat="43.27644645411057" lon="11.671139967237313"><ele>323.75</ele><time>2026-03-22T08:21:14.999Z</time></trkpt><trkpt lat="43.27653840339997" lon="11.671030504360797"><ele>324.5</ele><time>2026-03-22T08:21:15.999Z</time></trkpt><trkpt lat="43.27663893794416" lon="11.670919036795238"><ele>325.25</ele><time>2026-03-22T08:21:16.999Z</time></trkpt><trkpt lat="43.276728563946605" lon="11.670805582450539"><ele>326.0</ele><time>2026-03-22T08:21:17.999Z</time></trkpt><trkpt lat="43.27681602002479" lon="11.670708260992601"><ele>326.0</ele><time>2026-03-22T08:21:18.999Z</time></trkpt><trkpt lat="43.27690516422718" lon="11.67063055033534"><ele>326.0</ele><time>2026-03-22T08:21:19.999Z</time></trkpt><trkpt lat="43.27700291619352" lon="11.670557358975508"><ele>326.0</ele><time>2026-03-22T08:21:20.999Z</time></trkpt><trkpt lat="43.27707529545607" lon="11.670493578593225"><ele>326.0</ele><time>2026-03-22T08:21:21.999Z</time></trkpt><trkpt lat="43.27714106114569" lon="11.670440320855098"><ele>326.0</ele><time>2026-03-22T08:21:22.999Z</time></trkpt><trkpt lat="43.27721983894485" lon="11.67042135505438"><ele>327.33333333333337</ele><time>2026-03-22T08:21:23.999Z</time></trkpt><trkpt lat="43.27734662883855" lon="11.670443058907956"><ele>328.6666666666667</ele><time>2026-03-22T08:21:25.999Z</time></trkpt><trkpt lat="43.27741274611657" lon="11.670487563629434"><ele>330.0</ele><time>2026-03-22T08:21:26.999Z</time></trkpt><trkpt lat="43.27747247164274" lon="11.670549461163274"><ele>331.3333333333333</ele><time>2026-03-22T08:21:27.999Z</time></trkpt><trkpt lat="43.277528659354644" lon="11.670620863367011"><ele>332.66666666666663</ele><time>2026-03-22T08:21:28.999Z</time></trkpt><trkpt lat="43.27758839918127" lon="11.670703289492366"><ele>334.0</ele><time>2026-03-22T08:21:29.999Z</time></trkpt><trkpt lat="43.27763699240856" lon="11.670772822704373"><ele>334.0</ele><time>2026-03-22T08:21:30.999Z</time></trkpt><trkpt lat="43.27768400580009" lon="11.670882303965024"><ele>334.0</ele><time>2026-03-22T08:21:31.999Z</time></trkpt><trkpt lat="43.277756461707675" lon="11.670982489145569"><ele>334.0</ele><time>2026-03-22T08:21:32.999Z</time></trkpt><trkpt lat="43.27781691789244" lon="11.671081171686824"><ele>334.0</ele><time>2026-03-22T08:21:33.999Z</time></trkpt><trkpt lat="43.27785943790016" lon="11.671148976126231"><ele>334.0</ele><time>2026-03-22T08:21:34.999Z</time></trkpt><trkpt lat="43.27792499287052" lon="11.671306443000802"><ele>332.66666666666663</ele><time>2026-03-22T08:21:35.999Z</time></trkpt><trkpt lat="43.27796788703373" lon="11.671419199592611"><ele>331.3333333333333</ele><time>2026-03-22T08:21:36.999Z</time></trkpt><trkpt lat="43.27799554367189" lon="11.671519296113695"><ele>330.0</ele><time>2026-03-22T08:21:37.999Z</time></trkpt><trkpt lat="43.278035309386254" lon="11.671631578626268"><ele>328.6666666666667</ele><time>2026-03-22T08:21:38.999Z</time></trkpt><trkpt lat="43.27807465265291" lon="11.671734858418537"><ele>327.33333333333337</ele><time>2026-03-22T08:21:39.999Z</time></trkpt><trkpt lat="43.27811173400239" lon="11.671838616608841"><ele>326.0</ele><time>2026-03-22T08:21:40.999Z</time></trkpt><trkpt lat="43.278154680021544" lon="11.671925907953119"><ele>327.6666666666667</ele><time>2026-03-22T08:21:41.999Z</time></trkpt><trkpt lat="43.27818418598003" lon="11.672018140472105"><ele>329.33333333333337</ele><time>2026-03-22T08:21:42.999Z</time></trkpt><trkpt lat="43.278205094407305" lon="11.672121398945473"><ele>331.0</ele><time>2026-03-22T08:21:43.999Z</time></trkpt><trkpt lat="43.27822957562551" lon="11.672235934575392"><ele>332.6666666666667</ele><time>2026-03-22T08:21:44.999Z</time></trkpt><trkpt lat="43.278248891926495" lon="11.672355123098004"><ele>334.3333333333333</ele><time>2026-03-22T08:21:45.998Z</time></trkpt><trkpt lat="43.27826921546368" lon="11.67247420998925"><ele>336.0</ele><time>2026-03-22T08:21:46.998Z</time></trkpt><trkpt lat="43.27829152621123" lon="11.672585521944194"><ele>336.0</ele><time>2026-03-22T08:21:47.998Z</time></trkpt><trkpt lat="43.27832350963876" lon="11.672692974483125"><ele>336.0</ele><time>2026-03-22T08:21:48.998Z</time></trkpt><trkpt lat="43.2783733991094" lon="11.672790727584166"><ele>336.0</ele><time>2026-03-22T08:21:49.998Z</time></trkpt><trkpt lat="43.27843452660584" lon="11.672895225565398"><ele>336.0</ele><time>2026-03-22T08:21:51.998Z</time></trkpt><trkpt lat="43.27846818422934" lon="11.67300261627363"><ele>336.0</ele><time>2026-03-22T08:21:53.998Z</time></trkpt><trkpt lat="43.278519398611486" lon="11.673160329044354"><ele>335.8</ele><time>2026-03-22T08:21:55.998Z</time></trkpt><trkpt lat="43.27853503699424" lon="11.67326808514875"><ele>335.6</ele><time>2026-03-22T08:21:56.998Z</time></trkpt><trkpt lat="43.27856052122676" lon="11.67335951037284"><ele>335.4</ele><time>2026-03-22T08:21:57.998Z</time></trkpt><trkpt lat="43.27862065512854" lon="11.673474659221332"><ele>335.2</ele><time>2026-03-22T08:21:59.998Z</time></trkpt><trkpt lat="43.27869740513481" lon="11.673569127242887"><ele>335.0</ele><time>2026-03-22T08:22:02Z</time></trkpt><trkpt lat="43.278784410761276" lon="11.673678153485023"><ele>335.33333333333337</ele><time>2026-03-22T08:22:04Z</time></trkpt><trkpt lat="43.2788308133042" lon="11.673745492933127"><ele>335.6666666666667</ele><time>2026-03-22T08:22:05Z</time></trkpt><trkpt lat="43.27892909760756" lon="11.673885122732097"><ele>336.0</ele><time>2026-03-22T08:22:07Z</time></trkpt><trkpt lat="43.278975757002854" lon="11.673964302593747"><ele>336.3333333333333</ele><time>2026-03-22T08:22:08Z</time></trkpt><trkpt lat="43.2790195967352" lon="11.674033419974917"><ele>336.66666666666663</ele><time>2026-03-22T08:22:09Z</time></trkpt><trkpt lat="43.27907543988181" lon="11.674096544674727"><ele>337.0</ele><time>2026-03-22T08:22:10Z</time></trkpt><trkpt lat="43.279145142799514" lon="11.67411204826782"><ele>338.0</ele><time>2026-03-22T08:22:11Z</time></trkpt><trkpt lat="43.279229896415224" lon="11.674160930436107"><ele>339.0</ele><time>2026-03-22T08:22:12Z</time></trkpt><trkpt lat="43.279300817325826" lon="11.674187088340846"><ele>340.0</ele><time>2026-03-22T08:22:13Z</time></trkpt><trkpt lat="43.279363967322936" lon="11.67419407212573"><ele>341.0</ele><time>2026-03-22T08:22:14Z</time></trkpt><trkpt lat="43.27943186737086" lon="11.674207519133727"><ele>342.0</ele><time>2026-03-22T08:22:15Z</time></trkpt><trkpt lat="43.27950973446162" lon="11.674210044129959"><ele>343.0</ele><time>2026-03-22T08:22:16Z</time></trkpt><trkpt lat="43.279587086458555" lon="11.674226890083565"><ele>343.0</ele><time>2026-03-22T08:22:17Z</time></trkpt><trkpt lat="43.279678874703386" lon="11.674236895671445"><ele>343.0</ele><time>2026-03-22T08:22:18Z</time></trkpt><trkpt lat="43.2797642661031" lon="11.674241070599754"><ele>343.0</ele><time>2026-03-22T08:22:19Z</time></trkpt><trkpt lat="43.2798501403099" lon="11.674264781240836"><ele>343.0</ele><time>2026-03-22T08:22:20Z</time></trkpt><trkpt lat="43.27992906521679" lon="11.674295873893284"><ele>343.0</ele><time>2026-03-22T08:22:21Z</time></trkpt><trkpt lat="43.28000063701613" lon="11.674341335830288"><ele>343.0</ele><time>2026-03-22T08:22:22Z</time></trkpt><trkpt lat="43.280097627456854" lon="11.67438000934551"><ele>343.5</ele><time>2026-03-22T08:22:24Z</time></trkpt><trkpt lat="43.280207467946965" lon="11.674393860663157"><ele>344.0</ele><time>2026-03-22T08:22:26Z</time></trkpt><trkpt lat="43.280325080557695" lon="11.674425006620016"><ele>344.5</ele><time>2026-03-22T08:22:28Z</time></trkpt><trkpt lat="43.280462409626104" lon="11.674461618184294"><ele>345.0</ele><time>2026-03-22T08:22:30Z</time></trkpt><trkpt lat="43.28056161659499" lon="11.674481920677454"><ele>347.6</ele><time>2026-03-22T08:22:31Z</time></trkpt><trkpt lat="43.28066571431134" lon="11.674508881485208"><ele>350.2</ele><time>2026-03-22T08:22:32Z</time></trkpt><trkpt lat="43.28076715122843" lon="11.674559232969518"><ele>352.79999999999995</ele><time>2026-03-22T08:22:33Z</time></trkpt><trkpt lat="43.28084541203299" lon="11.674628532434665"><ele>355.4</ele><time>2026-03-22T08:22:34Z</time></trkpt><trkpt lat="43.2809038310988" lon="11.674703747806564"><ele>358.0</ele><time>2026-03-22T08:22:35Z</time></trkpt><trkpt lat="43.281001966603824" lon="11.67474191692243"><ele>358.0</ele><time>2026-03-22T08:22:36Z</time></trkpt><trkpt lat="43.28106554607307" lon="11.674832695512869"><ele>358.0</ele><time>2026-03-22T08:22:37Z</time></trkpt><trkpt lat="43.281127061127144" lon="11.674916002773799"><ele>358.0</ele><time>2026-03-22T08:22:38Z</time></trkpt><trkpt lat="43.28119841423659" lon="11.675002423476668"><ele>358.0</ele><time>2026-03-22T08:22:39Z</time></trkpt><trkpt lat="43.28125639893847" lon="11.675062420809414"><ele>358.0</ele><time>2026-03-22T08:22:40Z</time></trkpt><trkpt lat="43.28134561321415" lon="11.675126243974585"><ele>358.0</ele><time>2026-03-22T08:22:42Z</time></trkpt><trkpt lat="43.28145905164176" lon="11.675177484464475"><ele>357.75</ele><time>2026-03-22T08:22:44Z</time></trkpt><trkpt lat="43.28159348029134" lon="11.675169695843554"><ele>357.5</ele><time>2026-03-22T08:22:46Z</time></trkpt><trkpt lat="43.28169458611732" lon="11.675164579121228"><ele>357.25</ele><time>2026-03-22T08:22:46.999Z</time></trkpt><trkpt lat="43.28181896444693" lon="11.675241140590144"><ele>357.0</ele><time>2026-03-22T08:22:47.999Z</time></trkpt><trkpt lat="43.281957921982695" lon="11.6752796974107"><ele>357.0</ele><time>2026-03-22T08:22:48.999Z</time></trkpt><trkpt lat="43.2821054862107" lon="11.675307469137987"><ele>357.0</ele><time>2026-03-22T08:22:49.999Z</time></trkpt><trkpt lat="43.28224155726765" lon="11.675343289747294"><ele>357.0</ele><time>2026-03-22T08:22:50.999Z</time></trkpt><trkpt lat="43.2823590027151" lon="11.675371210448493"><ele>357.0</ele><time>2026-03-22T08:22:51.999Z</time></trkpt><trkpt lat="43.28246283704163" lon="11.675389320987778"><ele>356.40000000000003</ele><time>2026-03-22T08:22:52.999Z</time></trkpt><trkpt lat="43.2825654286605" lon="11.675410055249191"><ele>355.8</ele><time>2026-03-22T08:22:53.999Z</time></trkpt><trkpt lat="43.28265315749024" lon="11.67542558797979"><ele>355.2</ele><time>2026-03-22T08:22:54.999Z</time></trkpt><trkpt lat="43.28274667629069" lon="11.675456617749617"><ele>354.6</ele><time>2026-03-22T08:22:55.999Z</time></trkpt><trkpt lat="43.28283113955609" lon="11.675494196759333"><ele>354.0</ele><time>2026-03-22T08:22:56.999Z</time></trkpt><trkpt lat="43.28290085560841" lon="11.675558393617829"><ele>354.0</ele><time>2026-03-22T08:22:57.999Z</time></trkpt><trkpt lat="43.28295113977855" lon="11.675638670962027"><ele>354.0</ele><time>2026-03-22T08:22:58.999Z</time></trkpt><trkpt lat="43.28300858220229" lon="11.675715622750323"><ele>354.0</ele><time>2026-03-22T08:22:59.999Z</time></trkpt><trkpt lat="43.2830608260366" lon="11.675776099568946"><ele>354.0</ele><time>2026-03-22T08:23:00.999Z</time></trkpt><trkpt lat="43.28311235826494" lon="11.67583859605388"><ele>354.0</ele><time>2026-03-22T08:23:01.999Z</time></trkpt><trkpt lat="43.28316131293002" lon="11.675899447267911"><ele>354.0</ele><time>2026-03-22T08:23:02.999Z</time></trkpt><trkpt lat="43.28320332275011" lon="11.67599024812658"><ele>354.0</ele><time>2026-03-22T08:23:04.999Z</time></trkpt><trkpt lat="43.28325373942353" lon="11.676058961157858"><ele>353.4</ele><time>2026-03-22T08:23:08.999Z</time></trkpt><trkpt lat="43.28331284972459" lon="11.676144274737958"><ele>352.79999999999995</ele><time>2026-03-22T08:24:09Z</time></trkpt><trkpt lat="43.283358815834674" lon="11.67620945352322"><ele>352.20000000000005</ele><time>2026-03-22T08:24:11Z</time></trkpt><trkpt lat="43.283449522098536" lon="11.676345088410232"><ele>351.6</ele><time>2026-03-22T08:24:13Z</time></trkpt><trkpt lat="43.283507115920266" lon="11.67643157592763"><ele>351.0</ele><time>2026-03-22T08:24:14Z</time></trkpt><trkpt lat="43.283576468328604" lon="11.676522230926068"><ele>351.0</ele><time>2026-03-22T08:24:15Z</time></trkpt><trkpt lat="43.28365506245563" lon="11.676624736722758"><ele>351.0</ele><time>2026-03-22T08:24:16Z</time></trkpt><trkpt lat="43.283734739599524" lon="11.67672781002041"><ele>351.0</ele><time>2026-03-22T08:24:17Z</time></trkpt><trkpt lat="43.283808535980846" lon="11.676818277004202"><ele>351.0</ele><time>2026-03-22T08:24:18Z</time></trkpt><trkpt lat="43.283876728230894" lon="11.676885577440771"><ele>351.0</ele><time>2026-03-22T08:24:19Z</time></trkpt><trkpt lat="43.28394996170002" lon="11.676923170313229"><ele>350.4</ele><time>2026-03-22T08:24:20Z</time></trkpt><trkpt lat="43.284042541468054" lon="11.676956222558735"><ele>349.8</ele><time>2026-03-22T08:24:21Z</time></trkpt><trkpt lat="43.284149964787765" lon="11.676960831115077"><ele>349.2</ele><time>2026-03-22T08:24:22Z</time></trkpt><trkpt lat="43.284259464291935" lon="11.676953228614911"><ele>348.59999999999997</ele><time>2026-03-22T08:24:23Z</time></trkpt><trkpt lat="43.28437584703499" lon="11.676956383416234"><ele>348.0</ele><time>2026-03-22T08:24:24Z</time></trkpt><trkpt lat="43.28449927410556" lon="11.676961260468769"><ele>348.0</ele><time>2026-03-22T08:24:25Z</time></trkpt><trkpt lat="43.284615548665165" lon="11.676982519273915"><ele>348.0</ele><time>2026-03-22T08:24:26Z</time></trkpt><trkpt lat="43.284720639158245" lon="11.677005226326274"><ele>348.0</ele><time>2026-03-22T08:24:27Z</time></trkpt><trkpt lat="43.284795927002484" lon="11.677050685280468"><ele>348.0</ele><time>2026-03-22T08:24:28Z</time></trkpt><trkpt lat="43.284866566744846" lon="11.677108124106223"><ele>348.0</ele><time>2026-03-22T08:24:29Z</time></trkpt><trkpt lat="43.28493641247604" lon="11.677166963045593"><ele>347.1666666666667</ele><time>2026-03-22T08:24:30Z</time></trkpt><trkpt lat="43.28499164742002" lon="11.67725206020302"><ele>346.3333333333333</ele><time>2026-03-22T08:24:31Z</time></trkpt><trkpt lat="43.28503124273341" lon="11.677335431059113"><ele>345.5</ele><time>2026-03-22T08:24:32Z</time></trkpt><trkpt lat="43.285082532332474" lon="11.677428453888565"><ele>344.66666666666663</ele><time>2026-03-22T08:24:34Z</time></trkpt><trkpt lat="43.2851687230788" lon="11.677395953252622"><ele>343.8333333333333</ele><time>2026-03-22T08:24:38Z</time></trkpt><trkpt lat="43.28518621877403" lon="11.677286204944217"><ele>343.0</ele><time>2026-03-22T08:24:48Z</time></trkpt><trkpt lat="43.285222113274386" lon="11.677186310698604"><ele>343.0</ele><time>2026-03-22T08:25:26.999Z</time></trkpt><trkpt lat="43.285328734724935" lon="11.676998811026646"><ele>343.0</ele><time>2026-03-22T08:25:50.999Z</time></trkpt><trkpt lat="43.285379467246116" lon="11.676919952103775"><ele>343.0</ele><time>2026-03-22T08:25:51.998Z</time></trkpt><trkpt lat="43.285436481595724" lon="11.676847524196038"><ele>343.0</ele><time>2026-03-22T08:25:52.998Z</time></trkpt><trkpt lat="43.285488929084316" lon="11.67672724680751"><ele>343.0</ele><time>2026-03-22T08:25:53.998Z</time></trkpt><trkpt lat="43.285564552473026" lon="11.676596695370485"><ele>343.59999999999997</ele><time>2026-03-22T08:25:54.998Z</time></trkpt><trkpt lat="43.28562371860524" lon="11.676466969897298"><ele>344.2</ele><time>2026-03-22T08:25:55.998Z</time></trkpt><trkpt lat="43.28569862042317" lon="11.676343332433836"><ele>344.8</ele><time>2026-03-22T08:25:56.998Z</time></trkpt><trkpt lat="43.285761656449644" lon="11.676220343486603"><ele>345.4</ele><time>2026-03-22T08:25:57.998Z</time></trkpt><trkpt lat="43.28580677403474" lon="11.676104470603988"><ele>346.0</ele><time>2026-03-22T08:25:58.998Z</time></trkpt><trkpt lat="43.28586563184947" lon="11.67603287007312"><ele>348.5</ele><time>2026-03-22T08:25:59.998Z</time></trkpt><trkpt lat="43.28595332362858" lon="11.67597374017417"><ele>351.0</ele><time>2026-03-22T08:26:00.998Z</time></trkpt><trkpt lat="43.28605188402664" lon="11.675908556979632"><ele>353.5</ele><time>2026-03-22T08:26:01.998Z</time></trkpt><trkpt lat="43.28616476055957" lon="11.675828666566058"><ele>356.0</ele><time>2026-03-22T08:26:02.998Z</time></trkpt><trkpt lat="43.28627516760793" lon="11.675739459538073"><ele>356.0</ele><time>2026-03-22T08:26:03.998Z</time></trkpt><trkpt lat="43.286359967873985" lon="11.675664176901142"><ele>356.0</ele><time>2026-03-22T08:26:04.998Z</time></trkpt><trkpt lat="43.28646134533189" lon="11.675619289832854"><ele>356.0</ele><time>2026-03-22T08:26:05.998Z</time></trkpt><trkpt lat="43.2865740104487" lon="11.675602130799483"><ele>356.0</ele><time>2026-03-22T08:26:06.998Z</time></trkpt><trkpt lat="43.28668998255483" lon="11.675605222597737"><ele>356.0</ele><time>2026-03-22T08:26:07.998Z</time></trkpt><trkpt lat="43.286814734818165" lon="11.675621704659596"><ele>353.75</ele><time>2026-03-22T08:26:08.998Z</time></trkpt><trkpt lat="43.286926060210035" lon="11.675617186658135"><ele>351.5</ele><time>2026-03-22T08:26:09.998Z</time></trkpt><trkpt lat="43.28706390765911" lon="11.675608291962986"><ele>349.25</ele><time>2026-03-22T08:26:10.998Z</time></trkpt><trkpt lat="43.28722143912804" lon="11.675594240035469"><ele>347.0</ele><time>2026-03-22T08:26:11.998Z</time></trkpt><trkpt lat="43.287350937757274" lon="11.675565309048073"><ele>347.0</ele><time>2026-03-22T08:26:12.998Z</time></trkpt><trkpt lat="43.287465525905105" lon="11.675524736560238"><ele>347.0</ele><time>2026-03-22T08:26:14Z</time></trkpt><trkpt lat="43.28758259610626" lon="11.675451241222252"><ele>347.0</ele><time>2026-03-22T08:26:15Z</time></trkpt><trkpt lat="43.2877046838262" lon="11.67536181959193"><ele>347.0</ele><time>2026-03-22T08:26:16Z</time></trkpt><trkpt lat="43.287835970836596" lon="11.675275349829661"><ele>347.5</ele><time>2026-03-22T08:26:17Z</time></trkpt><trkpt lat="43.28796003378345" lon="11.675199167708245"><ele>348.0</ele><time>2026-03-22T08:26:18Z</time></trkpt><trkpt lat="43.288064863407094" lon="11.675115270691226"><ele>348.5</ele><time>2026-03-22T08:26:19Z</time></trkpt><trkpt lat="43.288161250287814" lon="11.674996628828568"><ele>349.0</ele><time>2026-03-22T08:26:20Z</time></trkpt><trkpt lat="43.28825342072434" lon="11.674852545321869"><ele>349.0</ele><time>2026-03-22T08:26:21Z</time></trkpt><trkpt lat="43.28836906931729" lon="11.674732758589858"><ele>349.0</ele><time>2026-03-22T08:26:22Z</time></trkpt><trkpt lat="43.28845515824048" lon="11.674666125936183"><ele>349.0</ele><time>2026-03-22T08:26:23Z</time></trkpt><trkpt lat="43.288527906353565" lon="11.674556842723481"><ele>349.0</ele><time>2026-03-22T08:26:24Z</time></trkpt><trkpt lat="43.288566932232854" lon="11.674418644387165"><ele>352.0</ele><time>2026-03-22T08:26:25Z</time></trkpt><trkpt lat="43.28861109852437" lon="11.67428390309531"><ele>355.0</ele><time>2026-03-22T08:26:26Z</time></trkpt><trkpt lat="43.28868185359716" lon="11.67416136521671"><ele>358.0</ele><time>2026-03-22T08:26:27Z</time></trkpt><trkpt lat="43.2887637033582" lon="11.67404654689082"><ele>361.0</ele><time>2026-03-22T08:26:28Z</time></trkpt><trkpt lat="43.28885198117859" lon="11.673948135980979"><ele>361.8</ele><time>2026-03-22T08:26:29Z</time></trkpt><trkpt lat="43.28894676890238" lon="11.673895019443384"><ele>362.6</ele><time>2026-03-22T08:26:30Z</time></trkpt><trkpt lat="43.28904665368832" lon="11.673842148003772"><ele>363.4</ele><time>2026-03-22T08:26:31Z</time></trkpt><trkpt lat="43.289136890959135" lon="11.673781073612501"><ele>364.2</ele><time>2026-03-22T08:26:32Z</time></trkpt><trkpt lat="43.28919955560454" lon="11.673692884774468"><ele>365.0</ele><time>2026-03-22T08:26:33Z</time></trkpt><trkpt lat="43.289264149062134" lon="11.673632594156327"><ele>365.0</ele><time>2026-03-22T08:26:34Z</time></trkpt><trkpt lat="43.28933279607757" lon="11.673626426348662"><ele>365.0</ele><time>2026-03-22T08:26:35Z</time></trkpt><trkpt lat="43.28939318419533" lon="11.673684339634594"><ele>365.0</ele><time>2026-03-22T08:26:36Z</time></trkpt><trkpt lat="43.28946024911343" lon="11.67376007207946"><ele>365.0</ele><time>2026-03-22T08:26:37Z</time></trkpt><trkpt lat="43.28952529644874" lon="11.67379367340782"><ele>365.0</ele><time>2026-03-22T08:26:38Z</time></trkpt><trkpt lat="43.28961430657096" lon="11.673832146509175"><ele>365.0</ele><time>2026-03-22T08:26:39Z</time></trkpt><trkpt lat="43.28971496772379" lon="11.67382015680047"><ele>365.8</ele><time>2026-03-22T08:26:40Z</time></trkpt><trkpt lat="43.28980604942148" lon="11.673800793169669"><ele>366.6</ele><time>2026-03-22T08:26:41Z</time></trkpt><trkpt lat="43.289887061530195" lon="11.673792185248313"><ele>367.4</ele><time>2026-03-22T08:26:42Z</time></trkpt><trkpt lat="43.289986191060876" lon="11.673845790561819"><ele>368.2</ele><time>2026-03-22T08:26:44Z</time></trkpt><trkpt lat="43.289985849292755" lon="11.673717896090443"><ele>369.0</ele><time>2026-03-22T08:26:47Z</time></trkpt><trkpt lat="43.28993596797344" lon="11.673605088326045"><ele>370.8333333333333</ele><time>2026-03-22T08:26:49Z</time></trkpt><trkpt lat="43.28990833296085" lon="11.673472511649049"><ele>372.6666666666667</ele><time>2026-03-22T08:26:51Z</time></trkpt><trkpt lat="43.289912472994665" lon="11.6733830998721"><ele>374.5</ele><time>2026-03-22T08:26:52Z</time></trkpt><trkpt lat="43.28992038665115" lon="11.67327782539149"><ele>376.33333333333337</ele><time>2026-03-22T08:26:53Z</time></trkpt><trkpt lat="43.289917708860536" lon="11.673174136012927"><ele>378.1666666666667</ele><time>2026-03-22T08:26:54Z</time></trkpt><trkpt lat="43.289908099431216" lon="11.673085370423035"><ele>380.0</ele><time>2026-03-22T08:26:55Z</time></trkpt><trkpt lat="43.289896781978555" lon="11.672948246723825"><ele>380.0</ele><time>2026-03-22T08:26:57Z</time></trkpt><trkpt lat="43.28989279860586" lon="11.67281240350842"><ele>380.0</ele><time>2026-03-22T08:26:58.999Z</time></trkpt><trkpt lat="43.28990614933879" lon="11.672699528791329"><ele>380.0</ele><time>2026-03-22T08:27:00.999Z</time></trkpt><trkpt lat="43.289932589673825" lon="11.672592614960424"><ele>380.0</ele><time>2026-03-22T08:27:02.999Z</time></trkpt><trkpt lat="43.28995689751228" lon="11.672473402654552"><ele>380.0</ele><time>2026-03-22T08:27:03.999Z</time></trkpt><trkpt lat="43.290022318709184" lon="11.672370092488878"><ele>381.33333333333337</ele><time>2026-03-22T08:27:05.999Z</time></trkpt><trkpt lat="43.2900158898192" lon="11.672256505032841"><ele>382.6666666666667</ele><time>2026-03-22T08:27:07.999Z</time></trkpt><trkpt lat="43.29005622939172" lon="11.672161843341463"><ele>384.0</ele><time>2026-03-22T08:27:10.999Z</time></trkpt><trkpt lat="43.29009035928714" lon="11.67205050431547"><ele>385.33333333333337</ele><time>2026-03-22T08:27:13.999Z</time></trkpt><trkpt lat="43.29013114596143" lon="11.671959147955414"><ele>386.6666666666667</ele><time>2026-03-22T08:27:16.999Z</time></trkpt><trkpt lat="43.29015257416374" lon="11.671870157544763"><ele>388.0</ele><time>2026-03-22T08:27:20.999Z</time></trkpt><trkpt lat="43.2901700111371" lon="11.671772090352617"><ele>389.50000000000006</ele><time>2026-03-22T08:27:24.999Z</time></trkpt><trkpt lat="43.29022541438753" lon="11.671712396130829"><ele>391.0</ele><time>2026-03-22T08:27:28.999Z</time></trkpt><trkpt lat="43.29025432435424" lon="11.671621374263434"><ele>392.5</ele><time>2026-03-22T08:27:30.999Z</time></trkpt><trkpt lat="43.29035472176145" lon="11.671503839205249"><ele>394.0</ele><time>2026-03-22T08:27:32.999Z</time></trkpt><trkpt lat="43.29040770498484" lon="11.6714263064026"><ele>395.50000000000006</ele><time>2026-03-22T08:27:36.999Z</time></trkpt><trkpt lat="43.29041941836061" lon="11.671325308614062"><ele>397.0</ele><time>2026-03-22T08:27:39.999Z</time></trkpt><trkpt lat="43.29040913264847" lon="11.671226033691523"><ele>397.0</ele><time>2026-03-22T08:27:52.999Z</time></trkpt><trkpt lat="43.290464164362334" lon="11.671146974028067"><ele>397.0</ele><time>2026-03-22T08:27:55.999Z</time></trkpt><trkpt lat="43.290523549316426" lon="11.671082993970497"><ele>397.0</ele><time>2026-03-22T08:27:57.999Z</time></trkpt><trkpt lat="43.290583910244834" lon="11.67100715478487"><ele>397.0</ele><time>2026-03-22T08:27:59.999Z</time></trkpt><trkpt lat="43.29063283027647" lon="11.670900891651705"><ele>397.0</ele><time>2026-03-22T08:28:02.998Z</time></trkpt><trkpt lat="43.290709764464594" lon="11.670742391616152"><ele>399.6666666666667</ele><time>2026-03-22T08:28:04.998Z</time></trkpt><trkpt lat="43.29066860270286" lon="11.67065819265486"><ele>402.33333333333337</ele><time>2026-03-22T08:28:07.998Z</time></trkpt><trkpt lat="43.29064127656234" lon="11.670548469029354"><ele>405.0</ele><time>2026-03-22T08:28:10.998Z</time></trkpt><trkpt lat="43.29067203773565" lon="11.670428168011346"><ele>407.66666666666663</ele><time>2026-03-22T08:28:12.998Z</time></trkpt><trkpt lat="43.290652550407195" lon="11.670317253877963"><ele>410.3333333333333</ele><time>2026-03-22T08:28:15.998Z</time></trkpt><trkpt lat="43.29064715500474" lon="11.670221600244327"><ele>413.0</ele><time>2026-03-22T08:28:17.998Z</time></trkpt><trkpt lat="43.29062968565031" lon="11.670089259447183"><ele>413.66666666666663</ele><time>2026-03-22T08:28:20Z</time></trkpt><trkpt lat="43.29060668583466" lon="11.669994918111517"><ele>414.3333333333333</ele><time>2026-03-22T08:28:21Z</time></trkpt><trkpt lat="43.290588317615814" lon="11.669843527424089"><ele>415.0</ele><time>2026-03-22T08:28:23Z</time></trkpt><trkpt lat="43.2905394965883" lon="11.669780428308579"><ele>415.66666666666663</ele><time>2026-03-22T08:28:25Z</time></trkpt><trkpt lat="43.290454210316874" lon="11.669701805681743"><ele>416.3333333333333</ele><time>2026-03-22T08:28:28Z</time></trkpt><trkpt lat="43.29042792613143" lon="11.669588056192437"><ele>417.0</ele><time>2026-03-22T08:28:30Z</time></trkpt><trkpt lat="43.290390851873724" lon="11.669463859591023"><ele>418.6</ele><time>2026-03-22T08:28:32Z</time></trkpt><trkpt lat="43.290322046031775" lon="11.669346099452897"><ele>420.20000000000005</ele><time>2026-03-22T08:28:34Z</time></trkpt><trkpt lat="43.29028417951862" lon="11.669253287654223"><ele>421.8</ele><time>2026-03-22T08:28:35Z</time></trkpt><trkpt lat="43.290257889312635" lon="11.66917166792499"><ele>423.4</ele><time>2026-03-22T08:28:36Z</time></trkpt><trkpt lat="43.290189259339265" lon="11.669020197789836"><ele>425.0</ele><time>2026-03-22T08:28:38Z</time></trkpt><trkpt lat="43.29014010555993" lon="11.668928543203462"><ele>424.99999999999994</ele><time>2026-03-22T08:28:39Z</time></trkpt><trkpt lat="43.29009609526235" lon="11.668846712369563"><ele>425.0</ele><time>2026-03-22T08:28:40Z</time></trkpt><trkpt lat="43.29005480185305" lon="11.668779442204745"><ele>425.0</ele><time>2026-03-22T08:28:41Z</time></trkpt><trkpt lat="43.29002915540107" lon="11.668695866384578"><ele>425.0</ele><time>2026-03-22T08:28:42Z</time></trkpt><trkpt lat="43.289937717631695" lon="11.668660253746683"><ele>424.99999999999994</ele><time>2026-03-22T08:28:44Z</time></trkpt><trkpt lat="43.289852768474994" lon="11.668573214121238"><ele>425.0</ele><time>2026-03-22T08:28:46Z</time></trkpt><trkpt lat="43.28985427451256" lon="11.668425819406263"><ele>425.99999999999994</ele><time>2026-03-22T08:28:48Z</time></trkpt><trkpt lat="43.28981167200428" lon="11.668324790175738"><ele>427.0</ele><time>2026-03-22T08:28:50Z</time></trkpt><trkpt lat="43.28980852324673" lon="11.668235489054675"><ele>428.0</ele><time>2026-03-22T08:28:52Z</time></trkpt><trkpt lat="43.28981232228311" lon="11.668140531075704"><ele>429.0</ele><time>2026-03-22T08:28:53Z</time></trkpt><trkpt lat="43.28982127225421" lon="11.668014430174782"><ele>429.99999999999994</ele><time>2026-03-22T08:28:54Z</time></trkpt><trkpt lat="43.28983954749261" lon="11.667887261269286"><ele>431.0</ele><time>2026-03-22T08:28:56Z</time></trkpt><trkpt lat="43.28985293401036" lon="11.667722970729375"><ele>432.6</ele><time>2026-03-22T08:28:58Z</time></trkpt><trkpt lat="43.28983655027871" lon="11.66762960672914"><ele>434.20000000000005</ele><time>2026-03-22T08:28:59Z</time></trkpt><trkpt lat="43.28982711528676" lon="11.66752304807604"><ele>435.79999999999995</ele><time>2026-03-22T08:29:01Z</time></trkpt><trkpt lat="43.289875371470146" lon="11.667401656942662"><ele>437.4</ele><time>2026-03-22T08:29:03Z</time></trkpt><trkpt lat="43.289869815791974" lon="11.66729558989727"><ele>439.0</ele><time>2026-03-22T08:29:05.999Z</time></trkpt><trkpt lat="43.28987743816473" lon="11.667111030184273"><ele>439.0</ele><time>2026-03-22T08:29:07.999Z</time></trkpt><trkpt lat="43.289861779993785" lon="11.66701992510097"><ele>439.0</ele><time>2026-03-22T08:29:08.999Z</time></trkpt><trkpt lat="43.28982498051386" lon="11.666850640634381"><ele>439.0</ele><time>2026-03-22T08:29:10.999Z</time></trkpt><trkpt lat="43.289788743705294" lon="11.666751147638957"><ele>439.0</ele><time>2026-03-22T08:29:11.999Z</time></trkpt><trkpt lat="43.28974992174871" lon="11.666669368995835"><ele>439.0</ele><time>2026-03-22T08:29:12.999Z</time></trkpt><trkpt lat="43.289671145370384" lon="11.66655557013379"><ele>440.33333333333337</ele><time>2026-03-22T08:29:14.999Z</time></trkpt><trkpt lat="43.289600290522664" lon="11.666494718408957"><ele>441.6666666666667</ele><time>2026-03-22T08:29:15.999Z</time></trkpt><trkpt lat="43.289610265445695" lon="11.66636201054812"><ele>443.0</ele><time>2026-03-22T08:29:17.999Z</time></trkpt><trkpt lat="43.289548231177854" lon="11.666320436397173"><ele>444.33333333333337</ele><time>2026-03-22T08:29:24.999Z</time></trkpt><trkpt lat="43.28946268939277" lon="11.666302742559159"><ele>445.6666666666667</ele><time>2026-03-22T08:29:26.999Z</time></trkpt><trkpt lat="43.28937342710847" lon="11.666378206474892"><ele>447.0</ele><time>2026-03-22T08:29:28.999Z</time></trkpt><trkpt lat="43.289338898093334" lon="11.666526556329126"><ele>447.0</ele><time>2026-03-22T08:29:30.999Z</time></trkpt><trkpt lat="43.28929609181453" lon="11.66665172728884"><ele>447.0</ele><time>2026-03-22T08:29:32.999Z</time></trkpt><trkpt lat="43.28926979268092" lon="11.666732105017822"><ele>447.0</ele><time>2026-03-22T08:29:33.999Z</time></trkpt><trkpt lat="43.28922698568262" lon="11.666873091965238"><ele>447.0</ele><time>2026-03-22T08:29:35.999Z</time></trkpt><trkpt lat="43.28917844585528" lon="11.666965103829934"><ele>447.0</ele><time>2026-03-22T08:29:37.999Z</time></trkpt><trkpt lat="43.289151874472694" lon="11.667072119480501"><ele>447.0</ele><time>2026-03-22T08:29:39.999Z</time></trkpt><trkpt lat="43.28914055439709" lon="11.66715846235812"><ele>445.40000000000003</ele><time>2026-03-22T08:29:40.999Z</time></trkpt><trkpt lat="43.28907612406248" lon="11.66725646196813"><ele>443.80000000000007</ele><time>2026-03-22T08:29:42.999Z</time></trkpt><trkpt lat="43.28898903694621" lon="11.667192208293082"><ele>442.2</ele><time>2026-03-22T08:29:44.999Z</time></trkpt><trkpt lat="43.28892046958802" lon="11.667162032200567"><ele>440.6</ele><time>2026-03-22T08:29:45.999Z</time></trkpt><trkpt lat="43.28884441385498" lon="11.667130924011973"><ele>439.0</ele><time>2026-03-22T08:29:46.999Z</time></trkpt><trkpt lat="43.288734605070495" lon="11.667063064804882"><ele>438.50000000000006</ele><time>2026-03-22T08:29:48.999Z</time></trkpt><trkpt lat="43.28869072971369" lon="11.667000225956597"><ele>438.0</ele><time>2026-03-22T08:29:49.999Z</time></trkpt><trkpt lat="43.28864062746796" lon="11.66691724248094"><ele>437.5</ele><time>2026-03-22T08:29:50.999Z</time></trkpt><trkpt lat="43.288580783320725" lon="11.66680938294308"><ele>437.0</ele><time>2026-03-22T08:29:51.999Z</time></trkpt><trkpt lat="43.28853826621719" lon="11.666730830519942"><ele>436.50000000000006</ele><time>2026-03-22T08:29:52.999Z</time></trkpt><trkpt lat="43.288443671494754" lon="11.666621248864796"><ele>436.0</ele><time>2026-03-22T08:29:54.999Z</time></trkpt><trkpt lat="43.28833165829217" lon="11.666556313424666"><ele>437.00000000000006</ele><time>2026-03-22T08:29:56.999Z</time></trkpt><trkpt lat="43.28826799649387" lon="11.666520131055423"><ele>438.0</ele><time>2026-03-22T08:29:57.999Z</time></trkpt><trkpt lat="43.28819783310847" lon="11.666453992915375"><ele>439.0</ele><time>2026-03-22T08:29:58.999Z</time></trkpt><trkpt lat="43.288143489819994" lon="11.666403759159605"><ele>440.0</ele><time>2026-03-22T08:29:59.999Z</time></trkpt><trkpt lat="43.28802950805902" lon="11.666390159161683"><ele>441.00000000000006</ele><time>2026-03-22T08:30:01.999Z</time></trkpt><trkpt lat="43.28795794209549" lon="11.666401695341179"><ele>442.0</ele><time>2026-03-22T08:30:02.999Z</time></trkpt><trkpt lat="43.28787486062738" lon="11.666420156042657"><ele>442.0</ele><time>2026-03-22T08:30:03.999Z</time></trkpt><trkpt lat="43.28778123259655" lon="11.666441942831092"><ele>442.00000000000006</ele><time>2026-03-22T08:30:05.999Z</time></trkpt><trkpt lat="43.28765561757883" lon="11.666420335515747"><ele>442.00000000000006</ele><time>2026-03-22T08:30:07.998Z</time></trkpt><trkpt lat="43.28757557466799" lon="11.666400418313417"><ele>442.0</ele><time>2026-03-22T08:30:08.998Z</time></trkpt><trkpt lat="43.28750693942784" lon="11.666373474883708"><ele>442.0</ele><time>2026-03-22T08:30:09.998Z</time></trkpt><trkpt lat="43.2874351902045" lon="11.66631968150809"><ele>442.00000000000006</ele><time>2026-03-22T08:30:10.998Z</time></trkpt><trkpt lat="43.287362794683574" lon="11.666244934058827"><ele>442.0</ele><time>2026-03-22T08:30:11.998Z</time></trkpt><trkpt lat="43.28728047194716" lon="11.666179619097743"><ele>442.0</ele><time>2026-03-22T08:30:12.998Z</time></trkpt><trkpt lat="43.28721426661266" lon="11.66614515506462"><ele>442.0</ele><time>2026-03-22T08:30:13.998Z</time></trkpt><trkpt lat="43.28712862482941" lon="11.666114301728859"><ele>442.00000000000006</ele><time>2026-03-22T08:30:14.998Z</time></trkpt><trkpt lat="43.28704799324357" lon="11.666066658289457"><ele>442.0</ele><time>2026-03-22T08:30:15.998Z</time></trkpt><trkpt lat="43.286955727862214" lon="11.666022919516399"><ele>442.40000000000003</ele><time>2026-03-22T08:30:16.998Z</time></trkpt><trkpt lat="43.286874968339745" lon="11.665988090838885"><ele>442.80000000000007</ele><time>2026-03-22T08:30:17.998Z</time></trkpt><trkpt lat="43.28681274729502" lon="11.665952882757075"><ele>443.2</ele><time>2026-03-22T08:30:18.998Z</time></trkpt><trkpt lat="43.286704302459825" lon="11.665896810898067"><ele>443.6</ele><time>2026-03-22T08:30:20.998Z</time></trkpt><trkpt lat="43.28658994081841" lon="11.665873692968553"><ele>444.0</ele><time>2026-03-22T08:30:22.998Z</time></trkpt><trkpt lat="43.28648674557205" lon="11.665931751947438"><ele>444.0</ele><time>2026-03-22T08:30:24.998Z</time></trkpt><trkpt lat="43.286424322216234" lon="11.665946388070088"><ele>444.0</ele><time>2026-03-22T08:30:27Z</time></trkpt><trkpt lat="43.2864345018419" lon="11.665845049493164"><ele>444.0</ele><time>2026-03-22T08:30:29Z</time></trkpt><trkpt lat="43.28646495727939" lon="11.665761897462946"><ele>444.0</ele><time>2026-03-22T08:30:30Z</time></trkpt><trkpt lat="43.286505133753245" lon="11.665663028690075"><ele>444.0</ele><time>2026-03-22T08:30:31Z</time></trkpt><trkpt lat="43.286519035466085" lon="11.665564673859206"><ele>444.0</ele><time>2026-03-22T08:30:32Z</time></trkpt><trkpt lat="43.28646867327219" lon="11.665442111383953"><ele>444.0</ele><time>2026-03-22T08:30:34Z</time></trkpt><trkpt lat="43.286430762231994" lon="11.665356961341923"><ele>444.0</ele><time>2026-03-22T08:30:35Z</time></trkpt><trkpt lat="43.28640667957909" lon="11.665267986955383"><ele>444.0</ele><time>2026-03-22T08:30:36Z</time></trkpt><trkpt lat="43.28638516200537" lon="11.66518153355994"><ele>444.0</ele><time>2026-03-22T08:30:37Z</time></trkpt><trkpt lat="43.28630321886399" lon="11.66505563360592"><ele>444.0</ele><time>2026-03-22T08:30:39Z</time></trkpt><trkpt lat="43.286260937883284" lon="11.664907644710999"><ele>444.0</ele><time>2026-03-22T08:30:41Z</time></trkpt><trkpt lat="43.28626055083241" lon="11.664791694876362"><ele>443.1666666666667</ele><time>2026-03-22T08:30:42Z</time></trkpt><trkpt lat="43.28626901514782" lon="11.664669360444744"><ele>442.33333333333337</ele><time>2026-03-22T08:30:43Z</time></trkpt><trkpt lat="43.286261393561254" lon="11.664548603836542"><ele>441.5</ele><time>2026-03-22T08:30:44Z</time></trkpt><trkpt lat="43.28622526187903" lon="11.664398250915529"><ele>440.6666666666667</ele><time>2026-03-22T08:30:46Z</time></trkpt><trkpt lat="43.28619673475348" lon="11.664306668301489"><ele>439.83333333333337</ele><time>2026-03-22T08:30:47Z</time></trkpt><trkpt lat="43.28617256642704" lon="11.664225474874037"><ele>439.0</ele><time>2026-03-22T08:30:48Z</time></trkpt><trkpt lat="43.28613805107807" lon="11.664151845776084"><ele>438.79999999999995</ele><time>2026-03-22T08:30:49Z</time></trkpt><trkpt lat="43.286072885001126" lon="11.664056127690728"><ele>438.59999999999997</ele><time>2026-03-22T08:30:50Z</time></trkpt><trkpt lat="43.286012380366586" lon="11.663958290900823"><ele>438.4</ele><time>2026-03-22T08:30:51Z</time></trkpt><trkpt lat="43.28598189481768" lon="11.66387423305188"><ele>438.2</ele><time>2026-03-22T08:30:52Z</time></trkpt><trkpt lat="43.28596983125386" lon="11.663715501340043"><ele>438.0</ele><time>2026-03-22T08:30:54Z</time></trkpt><trkpt lat="43.28595778853933" lon="11.663606004954502"><ele>437.0</ele><time>2026-03-22T08:30:56Z</time></trkpt><trkpt lat="43.28591514159692" lon="11.663540160072321"><ele>436.0</ele><time>2026-03-22T08:31:04Z</time></trkpt><trkpt lat="43.28583333215907" lon="11.663388659032835"><ele>435.0</ele><time>2026-03-22T08:31:07Z</time></trkpt><trkpt lat="43.28571277958894" lon="11.663238396111801"><ele>434.0</ele><time>2026-03-22T08:31:09Z</time></trkpt><trkpt lat="43.28564201704706" lon="11.663141618237578"><ele>434.0</ele><time>2026-03-22T08:31:10Z</time></trkpt><trkpt lat="43.285597406463566" lon="11.663057229991997"><ele>434.0</ele><time>2026-03-22T08:31:11Z</time></trkpt><trkpt lat="43.285552466487545" lon="11.662907824084042"><ele>434.0</ele><time>2026-03-22T08:31:13Z</time></trkpt><trkpt lat="43.28558198247228" lon="11.662830816248903"><ele>434.0</ele><time>2026-03-22T08:31:14Z</time></trkpt><trkpt lat="43.28566701549061" lon="11.66271540442198"><ele>434.0</ele><time>2026-03-22T08:31:15.999Z</time></trkpt><trkpt lat="43.28579419530801" lon="11.662704222638183"><ele>433.99999999999994</ele><time>2026-03-22T08:31:17.999Z</time></trkpt><trkpt lat="43.28586412050957" lon="11.662732359379536"><ele>434.0</ele><time>2026-03-22T08:31:18.999Z</time></trkpt><trkpt lat="43.28593977180217" lon="11.662781734736516"><ele>434.0</ele><time>2026-03-22T08:31:19.999Z</time></trkpt><trkpt lat="43.286019610457075" lon="11.662834450762631"><ele>434.0</ele><time>2026-03-22T08:31:20.999Z</time></trkpt><trkpt lat="43.28609313124464" lon="11.662872586228183"><ele>433.99999999999994</ele><time>2026-03-22T08:31:21.999Z</time></trkpt><trkpt lat="43.28616487976947" lon="11.662908054068094"><ele>434.0</ele><time>2026-03-22T08:31:22.999Z</time></trkpt><trkpt lat="43.28623680197546" lon="11.66291926066749"><ele>434.0</ele><time>2026-03-22T08:31:23.999Z</time></trkpt><trkpt lat="43.286305147855515" lon="11.662940918652682"><ele>434.0</ele><time>2026-03-22T08:31:24.999Z</time></trkpt><trkpt lat="43.28636728520064" lon="11.662968003822794"><ele>434.0</ele><time>2026-03-22T08:31:25.999Z</time></trkpt><trkpt lat="43.28648535693608" lon="11.662978184311394"><ele>434.0</ele><time>2026-03-22T08:31:27.999Z</time></trkpt><trkpt lat="43.286579233012866" lon="11.662875870472613"><ele>434.0</ele><time>2026-03-22T08:31:29.999Z</time></trkpt><trkpt lat="43.286608398629994" lon="11.662705137697925"><ele>433.3333333333333</ele><time>2026-03-22T08:31:31.999Z</time></trkpt><trkpt lat="43.286613715756474" lon="11.662609479774082"><ele>432.66666666666663</ele><time>2026-03-22T08:31:32.999Z</time></trkpt><trkpt lat="43.28657708199707" lon="11.66246211374914"><ele>432.0</ele><time>2026-03-22T08:31:34.999Z</time></trkpt><trkpt lat="43.28651357944616" lon="11.662376850056111"><ele>431.33333333333337</ele><time>2026-03-22T08:31:35.999Z</time></trkpt><trkpt lat="43.286455645474035" lon="11.662284971411498"><ele>430.6666666666667</ele><time>2026-03-22T08:31:36.999Z</time></trkpt><trkpt lat="43.28642039877565" lon="11.662181484371725"><ele>430.0</ele><time>2026-03-22T08:31:37.999Z</time></trkpt><trkpt lat="43.28642361141864" lon="11.662028244577463"><ele>430.6</ele><time>2026-03-22T08:31:39.999Z</time></trkpt><trkpt lat="43.28646425402094" lon="11.661924835964246"><ele>431.2</ele><time>2026-03-22T08:31:40.999Z</time></trkpt><trkpt lat="43.28645614409169" lon="11.661740640554575"><ele>431.79999999999995</ele><time>2026-03-22T08:31:42.999Z</time></trkpt><trkpt lat="43.286392417490376" lon="11.661669406360836"><ele>432.4</ele><time>2026-03-22T08:31:43.999Z</time></trkpt><trkpt lat="43.286329064042114" lon="11.66161107007374"><ele>433.0</ele><time>2026-03-22T08:31:44.999Z</time></trkpt><trkpt lat="43.28627464370261" lon="11.661542140554328"><ele>432.00000000000006</ele><time>2026-03-22T08:31:45.999Z</time></trkpt><trkpt lat="43.28622938151847" lon="11.6614714968915"><ele>431.0</ele><time>2026-03-22T08:31:46.999Z</time></trkpt><trkpt lat="43.28617088357074" lon="11.661401033051101"><ele>430.0</ele><time>2026-03-22T08:31:47.999Z</time></trkpt><trkpt lat="43.28610945903202" lon="11.66132348460377"><ele>429.0</ele><time>2026-03-22T08:31:48.999Z</time></trkpt><trkpt lat="43.28605204522501" lon="11.661245460264022"><ele>428.00000000000006</ele><time>2026-03-22T08:31:49.999Z</time></trkpt><trkpt lat="43.28600141880296" lon="11.661189113837038"><ele>427.0</ele><time>2026-03-22T08:31:50.999Z</time></trkpt><trkpt lat="43.28592874701189" lon="11.661074108764385"><ele>427.0</ele><time>2026-03-22T08:31:52.999Z</time></trkpt><trkpt lat="43.285866833165386" lon="11.660995013051178"><ele>427.00000000000006</ele><time>2026-03-22T08:31:53.999Z</time></trkpt><trkpt lat="43.28579070023224" lon="11.660904550803043"><ele>427.00000000000006</ele><time>2026-03-22T08:31:54.999Z</time></trkpt><trkpt lat="43.28572444678246" lon="11.660795613996735"><ele>427.0</ele><time>2026-03-22T08:31:55.999Z</time></trkpt><trkpt lat="43.285659184234525" lon="11.66071178867926"><ele>427.0</ele><time>2026-03-22T08:31:56.999Z</time></trkpt><trkpt lat="43.28560250707471" lon="11.660640671401376"><ele>425.6</ele><time>2026-03-22T08:31:57.999Z</time></trkpt><trkpt lat="43.28554434123795" lon="11.660554354667113"><ele>424.20000000000005</ele><time>2026-03-22T08:31:58.999Z</time></trkpt><trkpt lat="43.28549219760766" lon="11.660456476502114"><ele>422.8</ele><time>2026-03-22T08:31:59.999Z</time></trkpt><trkpt lat="43.28545130562625" lon="11.660378849728934"><ele>421.4</ele><time>2026-03-22T08:32:00.999Z</time></trkpt><trkpt lat="43.28535875204147" lon="11.66031198627724"><ele>420.0</ele><time>2026-03-22T08:32:02.999Z</time></trkpt><trkpt lat="43.285278713781196" lon="11.660186805375604"><ele>420.0</ele><time>2026-03-22T08:32:04.999Z</time></trkpt><trkpt lat="43.28523646964039" lon="11.660117489668194"><ele>420.0</ele><time>2026-03-22T08:32:05.999Z</time></trkpt><trkpt lat="43.285193200960556" lon="11.660039754967135"><ele>420.0</ele><time>2026-03-22T08:32:06.999Z</time></trkpt><trkpt lat="43.285153340568165" lon="11.659958368924922"><ele>420.0</ele><time>2026-03-22T08:32:07.999Z</time></trkpt><trkpt lat="43.285100510074386" lon="11.659897636433247"><ele>420.0</ele><time>2026-03-22T08:32:08.999Z</time></trkpt><trkpt lat="43.285036647246535" lon="11.659847019506842"><ele>420.0</ele><time>2026-03-22T08:32:09.999Z</time></trkpt><trkpt lat="43.28497490030855" lon="11.659796952712238"><ele>420.0</ele><time>2026-03-22T08:32:10.999Z</time></trkpt><trkpt lat="43.28490525363915" lon="11.659735893964044"><ele>420.0</ele><time>2026-03-22T08:32:12.999Z</time></trkpt><trkpt lat="43.28488475405842" lon="11.659645862873491"><ele>420.0</ele><time>2026-03-22T08:32:14.999Z</time></trkpt><trkpt lat="43.2849449858536" lon="11.6595975974204"><ele>420.0</ele><time>2026-03-22T08:32:16.999Z</time></trkpt><trkpt lat="43.285050294952036" lon="11.65963328373748"><ele>420.0</ele><time>2026-03-22T08:32:18.998Z</time></trkpt><trkpt lat="43.28514192699221" lon="11.659717996152276"><ele>420.0</ele><time>2026-03-22T08:32:20.998Z</time></trkpt><trkpt lat="43.2852107145595" lon="11.659863067451576"><ele>420.0</ele><time>2026-03-22T08:32:22.998Z</time></trkpt><trkpt lat="43.28527942432057" lon="11.659853898328246"><ele>420.0</ele><time>2026-03-22T08:32:23.998Z</time></trkpt><trkpt lat="43.28536534568652" lon="11.659857669469577"><ele>420.0</ele><time>2026-03-22T08:32:24.998Z</time></trkpt><trkpt lat="43.28546045927834" lon="11.659943456573387"><ele>420.0</ele><time>2026-03-22T08:32:26.998Z</time></trkpt><trkpt lat="43.28555600491974" lon="11.659871611002211"><ele>420.0</ele><time>2026-03-22T08:32:28.998Z</time></trkpt><trkpt lat="43.285617268434365" lon="11.659898239171351"><ele>420.0</ele><time>2026-03-22T08:32:29.998Z</time></trkpt><trkpt lat="43.285673521942655" lon="11.659976651579798"><ele>421.1666666666667</ele><time>2026-03-22T08:32:30.998Z</time></trkpt><trkpt lat="43.2857306330864" lon="11.660021819112492"><ele>422.33333333333337</ele><time>2026-03-22T08:32:32Z</time></trkpt><trkpt lat="43.28585417035741" lon="11.660047928702014"><ele>423.5</ele><time>2026-03-22T08:32:34Z</time></trkpt><trkpt lat="43.285941428832835" lon="11.660045097065122"><ele>424.6666666666667</ele><time>2026-03-22T08:32:36Z</time></trkpt><trkpt lat="43.286002841189216" lon="11.660091374896579"><ele>425.83333333333337</ele><time>2026-03-22T08:32:37Z</time></trkpt><trkpt lat="43.28599620955958" lon="11.660188317957887"><ele>427.0</ele><time>2026-03-22T08:32:38Z</time></trkpt><trkpt lat="43.28609291043502" lon="11.660226211523726"><ele>427.0</ele><time>2026-03-22T08:32:40Z</time></trkpt><trkpt lat="43.28616102987924" lon="11.660279416228793"><ele>427.00000000000006</ele><time>2026-03-22T08:32:41Z</time></trkpt><trkpt lat="43.28626376655946" lon="11.660355112959127"><ele>427.00000000000006</ele><time>2026-03-22T08:32:43Z</time></trkpt><trkpt lat="43.28631995531096" lon="11.660400913625727"><ele>427.0</ele><time>2026-03-22T08:32:44Z</time></trkpt><trkpt lat="43.28641176575056" lon="11.660389306587044"><ele>427.0</ele><time>2026-03-22T08:32:46Z</time></trkpt><trkpt lat="43.286537374975104" lon="11.660405207786855"><ele>428.6666666666667</ele><time>2026-03-22T08:32:48Z</time></trkpt><trkpt lat="43.2866079690061" lon="11.660425781245612"><ele>430.33333333333337</ele><time>2026-03-22T08:32:49Z</time></trkpt><trkpt lat="43.286681117525355" lon="11.66042963277611"><ele>432.0</ele><time>2026-03-22T08:32:50Z</time></trkpt><trkpt lat="43.286757793211635" lon="11.660414052753284"><ele>433.66666666666663</ele><time>2026-03-22T08:32:51Z</time></trkpt><trkpt lat="43.28686334787187" lon="11.660383555613224"><ele>435.3333333333333</ele><time>2026-03-22T08:32:53Z</time></trkpt><trkpt lat="43.286929433359" lon="11.660342672534307"><ele>437.0</ele><time>2026-03-22T08:32:54Z</time></trkpt><trkpt lat="43.28699619840528" lon="11.66031056974544"><ele>437.0</ele><time>2026-03-22T08:32:55Z</time></trkpt><trkpt lat="43.287065784201516" lon="11.660295654525013"><ele>437.00000000000006</ele><time>2026-03-22T08:32:56Z</time></trkpt><trkpt lat="43.287180390372455" lon="11.660236609135028"><ele>437.00000000000006</ele><time>2026-03-22T08:32:58Z</time></trkpt><trkpt lat="43.28724508199557" lon="11.660077639824857"><ele>437.0</ele><time>2026-03-22T08:33:00Z</time></trkpt><trkpt lat="43.287311152802324" lon="11.65997874042405"><ele>437.0</ele><time>2026-03-22T08:33:02Z</time></trkpt><trkpt lat="43.28742687610732" lon="11.659917480633714"><ele>438.20000000000005</ele><time>2026-03-22T08:33:04Z</time></trkpt><trkpt lat="43.287511467946544" lon="11.659833777959346"><ele>439.40000000000003</ele><time>2026-03-22T08:33:06Z</time></trkpt><trkpt lat="43.28763028070317" lon="11.65978073699075"><ele>440.59999999999997</ele><time>2026-03-22T08:33:08Z</time></trkpt><trkpt lat="43.28771967117238" lon="11.659745744655234"><ele>441.79999999999995</ele><time>2026-03-22T08:33:10Z</time></trkpt><trkpt lat="43.28780427111336" lon="11.65971906507517"><ele>443.0</ele><time>2026-03-22T08:33:11Z</time></trkpt><trkpt lat="43.2878934901466" lon="11.659722167234507"><ele>442.99999999999994</ele><time>2026-03-22T08:33:12Z</time></trkpt><trkpt lat="43.28797633091362" lon="11.659721091881954"><ele>443.0</ele><time>2026-03-22T08:33:13Z</time></trkpt><trkpt lat="43.28803622521296" lon="11.659749585084736"><ele>443.0</ele><time>2026-03-22T08:33:14Z</time></trkpt><trkpt lat="43.28809179185421" lon="11.659802066929466"><ele>443.0</ele><time>2026-03-22T08:33:16Z</time></trkpt><trkpt lat="43.28821094327063" lon="11.659804873420436"><ele>442.99999999999994</ele><time>2026-03-22T08:33:19Z</time></trkpt><trkpt lat="43.2882878872493" lon="11.659786221435791"><ele>443.0</ele><time>2026-03-22T08:33:19.999Z</time></trkpt><trkpt lat="43.28837083050118" lon="11.659765660975044"><ele>443.3333333333333</ele><time>2026-03-22T08:33:20.999Z</time></trkpt><trkpt lat="43.28844284208597" lon="11.65972655724644"><ele>443.66666666666663</ele><time>2026-03-22T08:33:21.999Z</time></trkpt><trkpt lat="43.28849408925816" lon="11.65966988041362"><ele>444.0</ele><time>2026-03-22T08:33:22.999Z</time></trkpt><trkpt lat="43.28856055794849" lon="11.659611403955818"><ele>444.33333333333337</ele><time>2026-03-22T08:33:23.999Z</time></trkpt><trkpt lat="43.288621645175766" lon="11.659548898379079"><ele>444.6666666666667</ele><time>2026-03-22T08:33:24.999Z</time></trkpt><trkpt lat="43.288701334453854" lon="11.65944692180723"><ele>445.0</ele><time>2026-03-22T08:33:26.999Z</time></trkpt><trkpt lat="43.288780034976426" lon="11.65934977975829"><ele>445.00000000000006</ele><time>2026-03-22T08:33:28.999Z</time></trkpt><trkpt lat="43.28883791462218" lon="11.659307815195309"><ele>445.0</ele><time>2026-03-22T08:33:30.999Z</time></trkpt><trkpt lat="43.28892138126613" lon="11.659314657141163"><ele>445.0</ele><time>2026-03-22T08:41:03Z</time></trkpt><trkpt lat="43.288946284045764" lon="11.659439457301177"><ele>445.0</ele><time>2026-03-22T08:41:07Z</time></trkpt><trkpt lat="43.28894120336516" lon="11.65953107756921"><ele>445.00000000000006</ele><time>2026-03-22T08:41:14Z</time></trkpt><trkpt lat="43.288930063961466" lon="11.65964670359507"><ele>445.0</ele><time>2026-03-22T08:41:18Z</time></trkpt><trkpt lat="43.288943637317644" lon="11.659734395029124"><ele>445.6666666666667</ele><time>2026-03-22T08:41:21Z</time></trkpt><trkpt lat="43.2889617155285" lon="11.659845518982493"><ele>446.33333333333337</ele><time>2026-03-22T08:41:25Z</time></trkpt><trkpt lat="43.28901327516029" lon="11.659928889545814"><ele>447.0</ele><time>2026-03-22T08:41:28Z</time></trkpt><trkpt lat="43.289078382752045" lon="11.66003309042924"><ele>447.66666666666663</ele><time>2026-03-22T08:41:30Z</time></trkpt><trkpt lat="43.289115289589766" lon="11.660107356213931"><ele>448.3333333333333</ele><time>2026-03-22T08:41:31Z</time></trkpt><trkpt lat="43.28915160533926" lon="11.660194167265615"><ele>449.0</ele><time>2026-03-22T08:41:32Z</time></trkpt><trkpt lat="43.28918324880984" lon="11.660290265827795"><ele>449.6</ele><time>2026-03-22T08:41:33Z</time></trkpt><trkpt lat="43.28920966751787" lon="11.660371807552844"><ele>450.2</ele><time>2026-03-22T08:41:34Z</time></trkpt><trkpt lat="43.28923272794709" lon="11.66051200441975"><ele>450.80000000000007</ele><time>2026-03-22T08:41:36Z</time></trkpt><trkpt lat="43.289245488982594" lon="11.660651137205177"><ele>451.40000000000003</ele><time>2026-03-22T08:41:38Z</time></trkpt><trkpt lat="43.289228075772016" lon="11.660786615074176"><ele>452.0</ele><time>2026-03-22T08:41:40Z</time></trkpt><trkpt lat="43.289209444362484" lon="11.660931286631731"><ele>452.0</ele><time>2026-03-22T08:41:41.999Z</time></trkpt><trkpt lat="43.28925920276664" lon="11.661096024958256"><ele>452.00000000000006</ele><time>2026-03-22T08:41:43.999Z</time></trkpt><trkpt lat="43.28929443638514" lon="11.661188014571248"><ele>452.00000000000006</ele><time>2026-03-22T08:41:44.999Z</time></trkpt><trkpt lat="43.28935067278725" lon="11.661277726309587"><ele>452.0</ele><time>2026-03-22T08:41:46.999Z</time></trkpt><trkpt lat="43.28940719176079" lon="11.661421305310853"><ele>452.0</ele><time>2026-03-22T08:41:48.999Z</time></trkpt><trkpt lat="43.28944750778537" lon="11.66153258989299"><ele>453.20000000000005</ele><time>2026-03-22T08:41:49.999Z</time></trkpt><trkpt lat="43.28950544896502" lon="11.661658242122396"><ele>454.40000000000003</ele><time>2026-03-22T08:41:50.999Z</time></trkpt><trkpt lat="43.289562176804694" lon="11.66180147309632"><ele>455.59999999999997</ele><time>2026-03-22T08:41:51.999Z</time></trkpt><trkpt lat="43.289611600017686" lon="11.661928150669233"><ele>456.79999999999995</ele><time>2026-03-22T08:41:52.999Z</time></trkpt><trkpt lat="43.28964530331448" lon="11.662043290456754"><ele>458.0</ele><time>2026-03-22T08:41:53.999Z</time></trkpt><trkpt lat="43.28966620781088" lon="11.662145736251583"><ele>458.42857142857144</ele><time>2026-03-22T08:41:54.999Z</time></trkpt><trkpt lat="43.28967991646214" lon="11.662243147467219"><ele>458.8571428571429</ele><time>2026-03-22T08:41:55.999Z</time></trkpt><trkpt lat="43.289678368530325" lon="11.66234099656347"><ele>459.28571428571433</ele><time>2026-03-22T08:41:56.999Z</time></trkpt><trkpt lat="43.289671095148535" lon="11.662440339101982"><ele>459.7142857142857</ele><time>2026-03-22T08:41:57.999Z</time></trkpt><trkpt lat="43.289672681433906" lon="11.662541289313701"><ele>460.1428571428572</ele><time>2026-03-22T08:41:58.999Z</time></trkpt><trkpt lat="43.289664967141356" lon="11.662647040322248"><ele>460.5714285714286</ele><time>2026-03-22T08:41:59.999Z</time></trkpt><trkpt lat="43.28966891420934" lon="11.662752084421173"><ele>461.0</ele><time>2026-03-22T08:42:00.999Z</time></trkpt><trkpt lat="43.28966715407175" lon="11.662839702208444"><ele>461.0</ele><time>2026-03-22T08:42:01.999Z</time></trkpt><trkpt lat="43.2897022692295" lon="11.66298435123414"><ele>461.0</ele><time>2026-03-22T08:42:03.999Z</time></trkpt><trkpt lat="43.289726786305884" lon="11.663152954924847"><ele>461.0</ele><time>2026-03-22T08:42:05.999Z</time></trkpt><trkpt lat="43.28973058602423" lon="11.66325771793299"><ele>461.0</ele><time>2026-03-22T08:42:06.999Z</time></trkpt><trkpt lat="43.28973335406213" lon="11.663346535575037"><ele>461.0</ele><time>2026-03-22T08:42:07.999Z</time></trkpt><trkpt lat="43.289738637859365" lon="11.663523683199724"><ele>460.8571428571429</ele><time>2026-03-22T08:42:09.999Z</time></trkpt><trkpt lat="43.28974348699794" lon="11.663621528546459"><ele>460.7142857142858</ele><time>2026-03-22T08:42:10.999Z</time></trkpt><trkpt lat="43.28973417961029" lon="11.663720015807906"><ele>460.57142857142856</ele><time>2026-03-22T08:42:11.999Z</time></trkpt><trkpt lat="43.28972587576193" lon="11.663806219606085"><ele>460.42857142857144</ele><time>2026-03-22T08:42:12.999Z</time></trkpt><trkpt lat="43.28971948250545" lon="11.663900701178278"><ele>460.2857142857143</ele><time>2026-03-22T08:42:13.999Z</time></trkpt><trkpt lat="43.28970468390373" lon="11.66400629599099"><ele>460.1428571428571</ele><time>2026-03-22T08:42:14.999Z</time></trkpt><trkpt lat="43.28968437762435" lon="11.664096022347534"><ele>459.99999999999994</ele><time>2026-03-22T08:42:15.999Z</time></trkpt><trkpt lat="43.28966753784935" lon="11.664215813508099"><ele>460.00000000000006</ele><time>2026-03-22T08:42:17.999Z</time></trkpt><trkpt lat="43.28965309056839" lon="11.664348645225061"><ele>460.0</ele><time>2026-03-22T08:42:20.999Z</time></trkpt><trkpt lat="43.2896311405936" lon="11.664439511110816"><ele>460.0</ele><time>2026-03-22T08:42:22.999Z</time></trkpt><trkpt lat="43.28964405238044" lon="11.664540931439685"><ele>460.0</ele><time>2026-03-22T08:42:24.999Z</time></trkpt><trkpt lat="43.28963905261968" lon="11.664672626765723"><ele>460.00000000000006</ele><time>2026-03-22T08:42:26.999Z</time></trkpt><trkpt lat="43.289645665655726" lon="11.66479701818956"><ele>460.0</ele><time>2026-03-22T08:42:30.999Z</time></trkpt><trkpt lat="43.28963114962077" lon="11.664901999923105"><ele>459.50000000000006</ele><time>2026-03-22T08:42:32.999Z</time></trkpt><trkpt lat="43.289611776778514" lon="11.665021957392062"><ele>459.0</ele><time>2026-03-22T08:42:33.999Z</time></trkpt><trkpt lat="43.28960379384128" lon="11.665126617920953"><ele>458.5</ele><time>2026-03-22T08:42:34.999Z</time></trkpt><trkpt lat="43.28960021709043" lon="11.665238477752958"><ele>458.0</ele><time>2026-03-22T08:42:35.999Z</time></trkpt><trkpt lat="43.28958359651886" lon="11.665354808678389"><ele>457.50000000000006</ele><time>2026-03-22T08:42:36.999Z</time></trkpt><trkpt lat="43.28956905129144" lon="11.665471073588249"><ele>457.0</ele><time>2026-03-22T08:42:37.999Z</time></trkpt><trkpt lat="43.289562185127025" lon="11.665559993139771"><ele>456.33333333333337</ele><time>2026-03-22T08:42:38.999Z</time></trkpt><trkpt lat="43.2895600048677" lon="11.665655780192221"><ele>455.6666666666667</ele><time>2026-03-22T08:42:39.999Z</time></trkpt><trkpt lat="43.28955930170038" lon="11.665750595712181"><ele>455.0</ele><time>2026-03-22T08:42:40.999Z</time></trkpt><trkpt lat="43.289556228602585" lon="11.665842328013783"><ele>454.33333333333337</ele><time>2026-03-22T08:42:41.999Z</time></trkpt><trkpt lat="43.289558988969155" lon="11.665933560221745"><ele>453.6666666666667</ele><time>2026-03-22T08:42:42.999Z</time></trkpt><trkpt lat="43.28952348906897" lon="11.666095196333876"><ele>453.0</ele><time>2026-03-22T08:42:44.999Z</time></trkpt><trkpt lat="43.28953782553398" lon="11.666183391127067"><ele>452.0</ele><time>2026-03-22T08:42:45.998Z</time></trkpt><trkpt lat="43.289581576032475" lon="11.666308531293062"><ele>451.0</ele><time>2026-03-22T08:42:47.998Z</time></trkpt><trkpt lat="43.28954651865" lon="11.66641166817365"><ele>450.0</ele><time>2026-03-22T08:42:50.998Z</time></trkpt><trkpt lat="43.28946724312251" lon="11.66646600055515"><ele>449.0</ele><time>2026-03-22T08:42:52.998Z</time></trkpt><trkpt lat="43.28940169507074" lon="11.66649687126344"><ele>448.0</ele><time>2026-03-22T08:42:55.998Z</time></trkpt><trkpt lat="43.28932663509365" lon="11.666563483201074"><ele>447.0</ele><time>2026-03-22T08:42:59.998Z</time></trkpt><trkpt lat="43.289306058453285" lon="11.666655566785806"><ele>447.0</ele><time>2026-03-22T08:43:02Z</time></trkpt><trkpt lat="43.28927392180646" lon="11.666814484183694"><ele>447.00000000000006</ele><time>2026-03-22T08:43:04Z</time></trkpt><trkpt lat="43.289210060307354" lon="11.666920968356065"><ele>447.00000000000006</ele><time>2026-03-22T08:43:06Z</time></trkpt><trkpt lat="43.28916059470645" lon="11.666997431929339"><ele>447.0</ele><time>2026-03-22T08:43:08Z</time></trkpt><trkpt lat="43.289154623980785" lon="11.667091148219184"><ele>447.0</ele><time>2026-03-22T08:43:09Z</time></trkpt><trkpt lat="43.2891160021642" lon="11.66724044985976"><ele>445.6666666666667</ele><time>2026-03-22T08:43:11Z</time></trkpt><trkpt lat="43.289053677307045" lon="11.667258315442366"><ele>444.33333333333337</ele><time>2026-03-22T08:43:13Z</time></trkpt><trkpt lat="43.28895311334729" lon="11.667196460823503"><ele>443.0</ele><time>2026-03-22T08:43:15Z</time></trkpt><trkpt lat="43.288885927834336" lon="11.667164133352475"><ele>441.6666666666667</ele><time>2026-03-22T08:43:16Z</time></trkpt><trkpt lat="43.288817545184564" lon="11.667130599399046"><ele>440.33333333333337</ele><time>2026-03-22T08:43:17Z</time></trkpt><trkpt lat="43.28871871497683" lon="11.667044439036388"><ele>439.0</ele><time>2026-03-22T08:43:19Z</time></trkpt><trkpt lat="43.288669849295985" lon="11.666973444272182"><ele>439.79999999999995</ele><time>2026-03-22T08:43:20Z</time></trkpt><trkpt lat="43.288619374613106" lon="11.666890174604333"><ele>440.59999999999997</ele><time>2026-03-22T08:43:21Z</time></trkpt><trkpt lat="43.288576521112766" lon="11.666813366819197"><ele>441.4</ele><time>2026-03-22T08:43:22Z</time></trkpt><trkpt lat="43.288537844717865" lon="11.666743353900731"><ele>442.2</ele><time>2026-03-22T08:43:23Z</time></trkpt><trkpt lat="43.28844752025126" lon="11.666650728077478"><ele>443.0</ele><time>2026-03-22T08:43:25Z</time></trkpt><trkpt lat="43.28832750467044" lon="11.6665892644558"><ele>443.0</ele><time>2026-03-22T08:43:27Z</time></trkpt><trkpt lat="43.28825927905263" lon="11.666552250904637"><ele>442.99999999999994</ele><time>2026-03-22T08:43:28Z</time></trkpt><trkpt lat="43.288202121064366" lon="11.666486518778656"><ele>442.99999999999994</ele><time>2026-03-22T08:43:29Z</time></trkpt><trkpt lat="43.28811942475202" lon="11.66641122886689"><ele>443.0</ele><time>2026-03-22T08:43:31Z</time></trkpt><trkpt lat="43.28799814968151" lon="11.666413873512486"><ele>443.0</ele><time>2026-03-22T08:43:33Z</time></trkpt><trkpt lat="43.287870446802955" lon="11.666438143992599"><ele>442.8333333333333</ele><time>2026-03-22T08:43:35Z</time></trkpt><trkpt lat="43.28777951735773" lon="11.666471918374791"><ele>442.66666666666663</ele><time>2026-03-22T08:43:37Z</time></trkpt><trkpt lat="43.28767985679417" lon="11.666450009721808"><ele>442.5</ele><time>2026-03-22T08:43:39Z</time></trkpt><trkpt lat="43.28761736061623" lon="11.666433801398806"><ele>442.33333333333337</ele><time>2026-03-22T08:43:40Z</time></trkpt><trkpt lat="43.287553989910286" lon="11.666424457510768"><ele>442.1666666666667</ele><time>2026-03-22T08:43:41Z</time></trkpt><trkpt lat="43.28745650210158" lon="11.66636294013794"><ele>442.0</ele><time>2026-03-22T08:43:43Z</time></trkpt><trkpt lat="43.287396998121515" lon="11.666303378087514"><ele>442.0</ele><time>2026-03-22T08:43:44Z</time></trkpt><trkpt lat="43.28732056981235" lon="11.666246940771867"><ele>442.00000000000006</ele><time>2026-03-22T08:43:45Z</time></trkpt><trkpt lat="43.287221323212165" lon="11.666190796652472"><ele>442.00000000000006</ele><time>2026-03-22T08:43:47Z</time></trkpt><trkpt lat="43.28710365680891" lon="11.666126498559045"><ele>442.0</ele><time>2026-03-22T08:43:49Z</time></trkpt><trkpt lat="43.28703929219732" lon="11.666088629558839"><ele>442.0</ele><time>2026-03-22T08:43:50Z</time></trkpt><trkpt lat="43.28696969987197" lon="11.666054489327085"><ele>442.33333333333337</ele><time>2026-03-22T08:43:51Z</time></trkpt><trkpt lat="43.286902295519425" lon="11.666022932631675"><ele>442.6666666666667</ele><time>2026-03-22T08:43:52Z</time></trkpt><trkpt lat="43.28681016084201" lon="11.665990494933638"><ele>443.0</ele><time>2026-03-22T08:43:53.999Z</time></trkpt><trkpt lat="43.28671568855813" lon="11.665931233982285"><ele>443.33333333333337</ele><time>2026-03-22T08:43:55.999Z</time></trkpt><trkpt lat="43.28665260139721" lon="11.665912855703457"><ele>443.6666666666667</ele><time>2026-03-22T08:43:56.999Z</time></trkpt><trkpt lat="43.28655600749188" lon="11.665911877396464"><ele>444.0</ele><time>2026-03-22T08:43:58.999Z</time></trkpt><trkpt lat="43.28645336577634" lon="11.665975015773258"><ele>443.0</ele><time>2026-03-22T08:44:00.999Z</time></trkpt><trkpt lat="43.28633299119078" lon="11.66599534264689"><ele>442.0</ele><time>2026-03-22T08:44:02.999Z</time></trkpt><trkpt lat="43.2862457447768" lon="11.666077729963567"><ele>441.0</ele><time>2026-03-22T08:44:04.999Z</time></trkpt><trkpt lat="43.2861951904974" lon="11.666132375017712"><ele>440.0</ele><time>2026-03-22T08:44:05.999Z</time></trkpt><trkpt lat="43.286116612935814" lon="11.66622319701615"><ele>439.0</ele><time>2026-03-22T08:44:07.999Z</time></trkpt><trkpt lat="43.286020750035796" lon="11.66630871419374"><ele>438.6666666666667</ele><time>2026-03-22T08:44:09.999Z</time></trkpt><trkpt lat="43.285964580885434" lon="11.666353947084296"><ele>438.33333333333337</ele><time>2026-03-22T08:44:10.999Z</time></trkpt><trkpt lat="43.28589114323058" lon="11.666430823541328"><ele>438.0</ele><time>2026-03-22T08:44:11.999Z</time></trkpt><trkpt lat="43.28581732935666" lon="11.666505250727825"><ele>437.66666666666663</ele><time>2026-03-22T08:44:12.999Z</time></trkpt><trkpt lat="43.28575342660961" lon="11.666563280824178"><ele>437.3333333333333</ele><time>2026-03-22T08:44:13.999Z</time></trkpt><trkpt lat="43.28570080975237" lon="11.666613839213145"><ele>437.0</ele><time>2026-03-22T08:44:14.999Z</time></trkpt><trkpt lat="43.28561016916539" lon="11.666722519818794"><ele>437.20000000000005</ele><time>2026-03-22T08:44:16.999Z</time></trkpt><trkpt lat="43.285511514818644" lon="11.66680039639731"><ele>437.40000000000003</ele><time>2026-03-22T08:44:18.999Z</time></trkpt><trkpt lat="43.285453197307376" lon="11.666845383304716"><ele>437.59999999999997</ele><time>2026-03-22T08:44:19.999Z</time></trkpt><trkpt lat="43.28536075151455" lon="11.666927244790314"><ele>437.79999999999995</ele><time>2026-03-22T08:44:21.999Z</time></trkpt><trkpt lat="43.28529810439494" lon="11.666988447927473"><ele>438.0</ele><time>2026-03-22T08:44:22.999Z</time></trkpt><trkpt lat="43.28522736135754" lon="11.667057826901766"><ele>438.0</ele><time>2026-03-22T08:44:23.999Z</time></trkpt><trkpt lat="43.28516266162941" lon="11.667125495620228"><ele>438.0</ele><time>2026-03-22T08:44:24.999Z</time></trkpt><trkpt lat="43.28511063450877" lon="11.667179350433143"><ele>438.0</ele><time>2026-03-22T08:44:25.999Z</time></trkpt><trkpt lat="43.285052989989396" lon="11.66722659039147"><ele>438.0</ele><time>2026-03-22T08:44:26.999Z</time></trkpt><trkpt lat="43.28497912478801" lon="11.66728730488972"><ele>438.0</ele><time>2026-03-22T08:44:27.999Z</time></trkpt><trkpt lat="43.284895779764575" lon="11.66735665355058"><ele>438.0</ele><time>2026-03-22T08:44:28.999Z</time></trkpt><trkpt lat="43.284804046072075" lon="11.667429841153519"><ele>437.6666666666667</ele><time>2026-03-22T08:44:29.999Z</time></trkpt><trkpt lat="43.284724177246375" lon="11.667502385741741"><ele>437.33333333333337</ele><time>2026-03-22T08:44:30.999Z</time></trkpt><trkpt lat="43.28465320748818" lon="11.667558183961033"><ele>437.0</ele><time>2026-03-22T08:44:31.999Z</time></trkpt><trkpt lat="43.284583494931624" lon="11.667596920120083"><ele>436.6666666666667</ele><time>2026-03-22T08:44:32.999Z</time></trkpt><trkpt lat="43.28452231529306" lon="11.667638534696799"><ele>436.33333333333337</ele><time>2026-03-22T08:44:33.999Z</time></trkpt><trkpt lat="43.28445571711236" lon="11.667704906195082"><ele>436.0</ele><time>2026-03-22T08:44:34.999Z</time></trkpt><trkpt lat="43.28439039992037" lon="11.667781110178096"><ele>435.50000000000006</ele><time>2026-03-22T08:44:35.999Z</time></trkpt><trkpt lat="43.2843178121554" lon="11.667815888650903"><ele>435.0</ele><time>2026-03-22T08:44:36.999Z</time></trkpt><trkpt lat="43.28424501053077" lon="11.667824263519645"><ele>434.5</ele><time>2026-03-22T08:44:37.999Z</time></trkpt><trkpt lat="43.28416276911275" lon="11.667814071706896"><ele>434.0</ele><time>2026-03-22T08:44:38.999Z</time></trkpt><trkpt lat="43.284072362892324" lon="11.667796257605794"><ele>433.50000000000006</ele><time>2026-03-22T08:44:39.999Z</time></trkpt><trkpt lat="43.28398313538421" lon="11.667777461986276"><ele>433.0</ele><time>2026-03-22T08:44:40.999Z</time></trkpt><trkpt lat="43.28389995030456" lon="11.66775523878254"><ele>432.33333333333337</ele><time>2026-03-22T08:44:41.999Z</time></trkpt><trkpt lat="43.283817964255235" lon="11.667754116466778"><ele>431.6666666666667</ele><time>2026-03-22T08:44:42.999Z</time></trkpt><trkpt lat="43.283744409965756" lon="11.667743886966036"><ele>431.0</ele><time>2026-03-22T08:44:43.999Z</time></trkpt><trkpt lat="43.28367860004313" lon="11.6677262828029"><ele>430.33333333333337</ele><time>2026-03-22T08:44:44.999Z</time></trkpt><trkpt lat="43.28361220226357" lon="11.667728392267495"><ele>429.6666666666667</ele><time>2026-03-22T08:44:45.999Z</time></trkpt><trkpt lat="43.28350457510345" lon="11.667802235211838"><ele>429.0</ele><time>2026-03-22T08:44:47.999Z</time></trkpt><trkpt lat="43.283465710769356" lon="11.667876368864675"><ele>429.0</ele><time>2026-03-22T08:44:48.999Z</time></trkpt><trkpt lat="43.28339526836063" lon="11.667954256662455"><ele>429.0</ele><time>2026-03-22T08:44:49.999Z</time></trkpt><trkpt lat="43.2833487175581" lon="11.668057200926794"><ele>429.0</ele><time>2026-03-22T08:44:50.999Z</time></trkpt><trkpt lat="43.28329893906138" lon="11.668167282824665"><ele>429.0</ele><time>2026-03-22T08:44:51.999Z</time></trkpt><trkpt lat="43.28324802409697" lon="11.668279685982036"><ele>429.0</ele><time>2026-03-22T08:44:52.999Z</time></trkpt><trkpt lat="43.28319775825843" lon="11.66838757089848"><ele>429.0</ele><time>2026-03-22T08:44:53.999Z</time></trkpt><trkpt lat="43.28314742754259" lon="11.668513317421834"><ele>429.0</ele><time>2026-03-22T08:44:54.999Z</time></trkpt><trkpt lat="43.28312413014609" lon="11.668621864975385"><ele>429.0</ele><time>2026-03-22T08:44:55.999Z</time></trkpt><trkpt lat="43.2831054363795" lon="11.66871897152637"><ele>429.0</ele><time>2026-03-22T08:44:56.998Z</time></trkpt><trkpt lat="43.28307763324178" lon="11.66879997461783"><ele>429.0</ele><time>2026-03-22T08:44:57.998Z</time></trkpt><trkpt lat="43.28304052848608" lon="11.668878690458385"><ele>429.0</ele><time>2026-03-22T08:44:58.998Z</time></trkpt><trkpt lat="43.28293629512625" lon="11.668958807402142"><ele>425.6</ele><time>2026-03-22T08:45:00.998Z</time></trkpt><trkpt lat="43.282868736621474" lon="11.668976045034444"><ele>422.2</ele><time>2026-03-22T08:45:01.998Z</time></trkpt><trkpt lat="43.28281448428523" lon="11.669125931824604"><ele>418.8</ele><time>2026-03-22T08:45:02.998Z</time></trkpt><trkpt lat="43.282725295351646" lon="11.669195010216425"><ele>415.40000000000003</ele><time>2026-03-22T08:45:03.998Z</time></trkpt><trkpt lat="43.28264559757256" lon="11.669303920797839"><ele>412.0</ele><time>2026-03-22T08:45:04.998Z</time></trkpt><trkpt lat="43.28256709172357" lon="11.669408870250743"><ele>412.20000000000005</ele><time>2026-03-22T08:45:05.998Z</time></trkpt><trkpt lat="43.282488175078576" lon="11.66951380290383"><ele>412.4</ele><time>2026-03-22T08:45:06.998Z</time></trkpt><trkpt lat="43.28240920682828" lon="11.669614117513724"><ele>412.6</ele><time>2026-03-22T08:45:08Z</time></trkpt><trkpt lat="43.28232999888419" lon="11.66971042751724"><ele>412.79999999999995</ele><time>2026-03-22T08:45:09Z</time></trkpt><trkpt lat="43.282247383150334" lon="11.66979750362191"><ele>413.0</ele><time>2026-03-22T08:45:10Z</time></trkpt><trkpt lat="43.28216716724822" lon="11.66987599369724"><ele>411.8333333333333</ele><time>2026-03-22T08:45:11Z</time></trkpt><trkpt lat="43.28206411292231" lon="11.669913575706662"><ele>410.66666666666663</ele><time>2026-03-22T08:45:12Z</time></trkpt><trkpt lat="43.281998963101316" lon="11.670003111871882"><ele>409.5</ele><time>2026-03-22T08:45:13Z</time></trkpt><trkpt lat="43.28193947602866" lon="11.670065865976952"><ele>408.33333333333337</ele><time>2026-03-22T08:45:14Z</time></trkpt><trkpt lat="43.281878540093615" lon="11.67011277378315"><ele>407.1666666666667</ele><time>2026-03-22T08:45:15Z</time></trkpt><trkpt lat="43.281814034748734" lon="11.670136434665562"><ele>406.0</ele><time>2026-03-22T08:45:16Z</time></trkpt><trkpt lat="43.28172948969201" lon="11.670170697073013"><ele>406.0</ele><time>2026-03-22T08:45:17Z</time></trkpt><trkpt lat="43.281653334781275" lon="11.670258374168638"><ele>406.0</ele><time>2026-03-22T08:45:18Z</time></trkpt><trkpt lat="43.281562241082966" lon="11.670313105252285"><ele>406.0</ele><time>2026-03-22T08:45:19Z</time></trkpt><trkpt lat="43.28147564557088" lon="11.670386439914795"><ele>406.0</ele><time>2026-03-22T08:45:20Z</time></trkpt><trkpt lat="43.28137769233758" lon="11.670442720187395"><ele>406.0</ele><time>2026-03-22T08:45:21Z</time></trkpt><trkpt lat="43.281272034547186" lon="11.670462744265876"><ele>406.5</ele><time>2026-03-22T08:45:22Z</time></trkpt><trkpt lat="43.281153953649024" lon="11.670496353276254"><ele>407.0</ele><time>2026-03-22T08:45:23Z</time></trkpt><trkpt lat="43.28103484559289" lon="11.670554642746088"><ele>407.5</ele><time>2026-03-22T08:45:24Z</time></trkpt><trkpt lat="43.28092800091231" lon="11.670621214755174"><ele>408.0</ele><time>2026-03-22T08:45:25Z</time></trkpt><trkpt lat="43.280838648700765" lon="11.670684870957604"><ele>408.0</ele><time>2026-03-22T08:45:26Z</time></trkpt><trkpt lat="43.28074493601887" lon="11.670743087874508"><ele>408.0</ele><time>2026-03-22T08:45:27Z</time></trkpt><trkpt lat="43.28065822015801" lon="11.670788064844414"><ele>408.0</ele><time>2026-03-22T08:45:28Z</time></trkpt><trkpt lat="43.28055001574786" lon="11.670809915867501"><ele>408.0</ele><time>2026-03-22T08:45:29Z</time></trkpt><trkpt lat="43.280440123794634" lon="11.67074787328188"><ele>408.0</ele><time>2026-03-22T08:45:30Z</time></trkpt><trkpt lat="43.28034350883732" lon="11.670740519234428"><ele>407.0</ele><time>2026-03-22T08:45:31Z</time></trkpt><trkpt lat="43.2802692111484" lon="11.670700764033125"><ele>406.0</ele><time>2026-03-22T08:45:32Z</time></trkpt><trkpt lat="43.280167109641276" lon="11.670660904158249"><ele>405.0</ele><time>2026-03-22T08:45:33Z</time></trkpt><trkpt lat="43.28005704077398" lon="11.670628978013564"><ele>404.0</ele><time>2026-03-22T08:45:34Z</time></trkpt><trkpt lat="43.27995512636645" lon="11.670603035472153"><ele>403.0</ele><time>2026-03-22T08:45:35Z</time></trkpt><trkpt lat="43.279866178060935" lon="11.670580393458787"><ele>403.00000000000006</ele><time>2026-03-22T08:45:36Z</time></trkpt><trkpt lat="43.27979001470298" lon="11.670559500907212"><ele>403.0</ele><time>2026-03-22T08:45:37Z</time></trkpt><trkpt lat="43.279702586288636" lon="11.670552090450009"><ele>403.0</ele><time>2026-03-22T08:45:38Z</time></trkpt><trkpt lat="43.27961804139522" lon="11.670527046818128"><ele>403.0</ele><time>2026-03-22T08:45:39Z</time></trkpt><trkpt lat="43.27954388031564" lon="11.670511822276426"><ele>403.00000000000006</ele><time>2026-03-22T08:45:40Z</time></trkpt><trkpt lat="43.279474326394165" lon="11.670476247424995"><ele>403.0</ele><time>2026-03-22T08:45:41Z</time></trkpt><trkpt lat="43.27939870922745" lon="11.67042111572668"><ele>401.6666666666667</ele><time>2026-03-22T08:45:42Z</time></trkpt><trkpt lat="43.279327021218435" lon="11.670366210040951"><ele>400.33333333333337</ele><time>2026-03-22T08:45:43Z</time></trkpt><trkpt lat="43.27925892291149" lon="11.670310636213092"><ele>399.0</ele><time>2026-03-22T08:45:44Z</time></trkpt><trkpt lat="43.27919381021827" lon="11.670251444534195"><ele>397.66666666666663</ele><time>2026-03-22T08:45:45Z</time></trkpt><trkpt lat="43.27912756880131" lon="11.670176337885252"><ele>396.3333333333333</ele><time>2026-03-22T08:45:46Z</time></trkpt><trkpt lat="43.27905255799084" lon="11.67009866091973"><ele>395.0</ele><time>2026-03-22T08:45:47Z</time></trkpt><trkpt lat="43.27896871779473" lon="11.670020684272972"><ele>392.66666666666663</ele><time>2026-03-22T08:45:48Z</time></trkpt><trkpt lat="43.27888724589266" lon="11.669945322138531"><ele>390.3333333333333</ele><time>2026-03-22T08:45:49Z</time></trkpt><trkpt lat="43.27881288863701" lon="11.669875353352154"><ele>388.0</ele><time>2026-03-22T08:45:50Z</time></trkpt><trkpt lat="43.27874729024186" lon="11.669810516431596"><ele>385.66666666666663</ele><time>2026-03-22T08:45:51Z</time></trkpt><trkpt lat="43.278682202013705" lon="11.669743583555917"><ele>383.3333333333333</ele><time>2026-03-22T08:45:52Z</time></trkpt><trkpt lat="43.27861576366586" lon="11.669681987325419"><ele>381.0</ele><time>2026-03-22T08:45:53Z</time></trkpt><trkpt lat="43.27856178900496" lon="11.669602876145918"><ele>381.0</ele><time>2026-03-22T08:45:54Z</time></trkpt><trkpt lat="43.278503604907385" lon="11.669548021881122"><ele>381.0</ele><time>2026-03-22T08:45:55Z</time></trkpt><trkpt lat="43.27840889551935" lon="11.669480152493463"><ele>381.0</ele><time>2026-03-22T08:45:57Z</time></trkpt><trkpt lat="43.278334642944756" lon="11.66944022422935"><ele>381.0</ele><time>2026-03-22T08:46:20.999Z</time></trkpt><trkpt lat="43.278319446842296" lon="11.669355170779715"><ele>381.0</ele><time>2026-03-22T08:46:22.999Z</time></trkpt><trkpt lat="43.27836535053085" lon="11.669254538809954"><ele>381.0</ele><time>2026-03-22T08:46:24.999Z</time></trkpt><trkpt lat="43.27845100931635" lon="11.669119745326006"><ele>381.4</ele><time>2026-03-22T08:46:26.999Z</time></trkpt><trkpt lat="43.27849901844998" lon="11.66905730920633"><ele>381.8</ele><time>2026-03-22T08:46:27.999Z</time></trkpt><trkpt lat="43.27856469632792" lon="11.668928433766991"><ele>382.2</ele><time>2026-03-22T08:46:29.999Z</time></trkpt><trkpt lat="43.278557878581516" lon="11.668758172729666"><ele>382.59999999999997</ele><time>2026-03-22T08:46:31.999Z</time></trkpt><trkpt lat="43.27852072236033" lon="11.668655114599815"><ele>383.0</ele><time>2026-03-22T08:46:32.999Z</time></trkpt><trkpt lat="43.27845821794508" lon="11.668554644693714"><ele>381.25</ele><time>2026-03-22T08:46:33.999Z</time></trkpt><trkpt lat="43.27839002599145" lon="11.668431565264816"><ele>379.5</ele><time>2026-03-22T08:46:34.999Z</time></trkpt><trkpt lat="43.27832378127406" lon="11.668301772146402"><ele>377.75</ele><time>2026-03-22T08:46:35.999Z</time></trkpt><trkpt lat="43.27826175726885" lon="11.668166343818703"><ele>376.0</ele><time>2026-03-22T08:46:36.999Z</time></trkpt><trkpt lat="43.27819326147689" lon="11.668008923883107"><ele>376.0</ele><time>2026-03-22T08:46:37.999Z</time></trkpt><trkpt lat="43.27812051430676" lon="11.667853473079044"><ele>376.0</ele><time>2026-03-22T08:46:38.999Z</time></trkpt><trkpt lat="43.27805199555074" lon="11.667710305732157"><ele>376.0</ele><time>2026-03-22T08:46:39.999Z</time></trkpt><trkpt lat="43.27798247555009" lon="11.667588324939667"><ele>376.0</ele><time>2026-03-22T08:46:40.999Z</time></trkpt><trkpt lat="43.27790789872186" lon="11.66748509182633"><ele>373.20000000000005</ele><time>2026-03-22T08:46:41.999Z</time></trkpt><trkpt lat="43.27783165405522" lon="11.667390159012516"><ele>370.40000000000003</ele><time>2026-03-22T08:46:42.999Z</time></trkpt><trkpt lat="43.27775590558182" lon="11.667300182511426"><ele>367.6</ele><time>2026-03-22T08:46:43.999Z</time></trkpt><trkpt lat="43.27768325962155" lon="11.667210317203603"><ele>364.8</ele><time>2026-03-22T08:46:44.999Z</time></trkpt><trkpt lat="43.277616839490456" lon="11.667107084898445"><ele>362.0</ele><time>2026-03-22T08:46:45.999Z</time></trkpt><trkpt lat="43.27755652861107" lon="11.666986993092515"><ele>360.0</ele><time>2026-03-22T08:46:46.999Z</time></trkpt><trkpt lat="43.277520414358314" lon="11.66685492110809"><ele>358.0</ele><time>2026-03-22T08:46:47.999Z</time></trkpt><trkpt lat="43.27750398919089" lon="11.666710736747817"><ele>356.0</ele><time>2026-03-22T08:46:48.999Z</time></trkpt><trkpt lat="43.27750410085349" lon="11.666547963110904"><ele>354.0</ele><time>2026-03-22T08:46:49.999Z</time></trkpt><trkpt lat="43.27751284021871" lon="11.666369482885722"><ele>354.0</ele><time>2026-03-22T08:46:50.999Z</time></trkpt><trkpt lat="43.277524849055084" lon="11.666191838863696"><ele>354.0</ele><time>2026-03-22T08:46:51.999Z</time></trkpt><trkpt lat="43.277538907856346" lon="11.66602139074261"><ele>354.0</ele><time>2026-03-22T08:46:52.999Z</time></trkpt><trkpt lat="43.27755868949036" lon="11.665853475673202"><ele>354.0</ele><time>2026-03-22T08:46:53.999Z</time></trkpt><trkpt lat="43.277576652956746" lon="11.665689941968264"><ele>351.5</ele><time>2026-03-22T08:46:54.999Z</time></trkpt><trkpt lat="43.27759003139273" lon="11.66552078791426"><ele>349.0</ele><time>2026-03-22T08:46:55.999Z</time></trkpt><trkpt lat="43.27759116227079" lon="11.665361928572347"><ele>346.5</ele><time>2026-03-22T08:46:56.999Z</time></trkpt><trkpt lat="43.277578550906235" lon="11.665202426125266"><ele>344.0</ele><time>2026-03-22T08:46:57.999Z</time></trkpt><trkpt lat="43.27755478183847" lon="11.665045615874734"><ele>342.5</ele><time>2026-03-22T08:46:58.999Z</time></trkpt><trkpt lat="43.2775252140748" lon="11.664887651766689"><ele>341.0</ele><time>2026-03-22T08:46:59.999Z</time></trkpt><trkpt lat="43.27749000710395" lon="11.6647332738169"><ele>339.5</ele><time>2026-03-22T08:47:00.998Z</time></trkpt><trkpt lat="43.277449962119206" lon="11.664580757912484"><ele>338.0</ele><time>2026-03-22T08:47:01.998Z</time></trkpt><trkpt lat="43.27740277945122" lon="11.6644384066165"><ele>336.79999999999995</ele><time>2026-03-22T08:47:02.998Z</time></trkpt><trkpt lat="43.27734509450218" lon="11.664310564744833"><ele>335.6</ele><time>2026-03-22T08:47:03.998Z</time></trkpt><trkpt lat="43.27729465158496" lon="11.664189014669125"><ele>334.4</ele><time>2026-03-22T08:47:04.998Z</time></trkpt><trkpt lat="43.27721029400286" lon="11.664088061353093"><ele>333.20000000000005</ele><time>2026-03-22T08:47:05.998Z</time></trkpt><trkpt lat="43.2771060461411" lon="11.664019330172382"><ele>332.0</ele><time>2026-03-22T08:47:06.998Z</time></trkpt><trkpt lat="43.27699833849891" lon="11.663978500069856"><ele>332.0</ele><time>2026-03-22T08:47:07.998Z</time></trkpt><trkpt lat="43.276884960012964" lon="11.66395090917294"><ele>332.0</ele><time>2026-03-22T08:47:08.998Z</time></trkpt><trkpt lat="43.276772301563014" lon="11.663930935981728"><ele>332.0</ele><time>2026-03-22T08:47:09.998Z</time></trkpt><trkpt lat="43.27665980004093" lon="11.663914302993499"><ele>332.0</ele><time>2026-03-22T08:47:10.998Z</time></trkpt><trkpt lat="43.27655657032318" lon="11.663900663731072"><ele>332.0</ele><time>2026-03-22T08:47:11.998Z</time></trkpt><trkpt lat="43.27646255099252" lon="11.663889456938614"><ele>332.5</ele><time>2026-03-22T08:47:12.998Z</time></trkpt><trkpt lat="43.276380730112685" lon="11.66387970416768"><ele>333.0</ele><time>2026-03-22T08:47:14Z</time></trkpt><trkpt lat="43.27631538391008" lon="11.66387191512174"><ele>333.5</ele><time>2026-03-22T08:47:15Z</time></trkpt><trkpt lat="43.27623559833686" lon="11.663855947591584"><ele>334.0</ele><time>2026-03-22T08:47:17Z</time></trkpt><trkpt lat="43.27614740919073" lon="11.66420126215148"><ele>334.0</ele><time>2026-03-22T08:47:19Z</time></trkpt><trkpt lat="43.276128355100944" lon="11.664304113344441"><ele>334.0</ele><time>2026-03-22T08:47:20Z</time></trkpt><trkpt lat="43.27608872065129" lon="11.664411458117089"><ele>334.0</ele><time>2026-03-22T08:47:21Z</time></trkpt><trkpt lat="43.27603013141" lon="11.664518494129036"><ele>334.0</ele><time>2026-03-22T08:47:22Z</time></trkpt><trkpt lat="43.2759751783021" lon="11.664611793157215"><ele>334.0</ele><time>2026-03-22T08:47:23Z</time></trkpt><trkpt lat="43.27591848329555" lon="11.664705275617393"><ele>334.0</ele><time>2026-03-22T08:47:24Z</time></trkpt><trkpt lat="43.2758671122782" lon="11.664800080938036"><ele>333.6</ele><time>2026-03-22T08:47:25Z</time></trkpt><trkpt lat="43.27578157535236" lon="11.664868368885845"><ele>333.2</ele><time>2026-03-22T08:47:26Z</time></trkpt><trkpt lat="43.2756998300372" lon="11.664959498898073"><ele>332.8</ele><time>2026-03-22T08:47:27Z</time></trkpt><trkpt lat="43.2756248669642" lon="11.665074247340197"><ele>332.40000000000003</ele><time>2026-03-22T08:47:28Z</time></trkpt><trkpt lat="43.275549157535686" lon="11.66518913988796"><ele>332.0</ele><time>2026-03-22T08:47:29Z</time></trkpt><trkpt lat="43.27548378392189" lon="11.66530979941612"><ele>333.6</ele><time>2026-03-22T08:47:30Z</time></trkpt><trkpt lat="43.27541543918763" lon="11.6654443334022"><ele>335.20000000000005</ele><time>2026-03-22T08:47:31Z</time></trkpt><trkpt lat="43.27534319499402" lon="11.66556387123421"><ele>336.8</ele><time>2026-03-22T08:47:32Z</time></trkpt><trkpt lat="43.27528260920755" lon="11.665661353059496"><ele>338.4</ele><time>2026-03-22T08:47:33Z</time></trkpt><trkpt lat="43.275229557675104" lon="11.665753355712122"><ele>340.0</ele><time>2026-03-22T08:47:34Z</time></trkpt><trkpt lat="43.27517240241892" lon="11.665846070809378"><ele>340.0</ele><time>2026-03-22T08:47:35Z</time></trkpt><trkpt lat="43.27511338611283" lon="11.665943407983683"><ele>340.0</ele><time>2026-03-22T08:47:36Z</time></trkpt><trkpt lat="43.27505132101024" lon="11.666041946493067"><ele>340.0</ele><time>2026-03-22T08:47:37Z</time></trkpt><trkpt lat="43.27498856567952" lon="11.666138484920953"><ele>340.0</ele><time>2026-03-22T08:47:38Z</time></trkpt><trkpt lat="43.2749311338897" lon="11.666240020082947"><ele>340.0</ele><time>2026-03-22T08:47:39Z</time></trkpt><trkpt lat="43.2748766299259" lon="11.666344061902992"><ele>341.0</ele><time>2026-03-22T08:47:40Z</time></trkpt><trkpt lat="43.27482213525404" lon="11.666436864649924"><ele>342.0</ele><time>2026-03-22T08:47:41Z</time></trkpt><trkpt lat="43.274770725084124" lon="11.666500705399915"><ele>343.0</ele><time>2026-03-22T08:47:42Z</time></trkpt><trkpt lat="43.27465014532378" lon="11.666467988960813"><ele>344.0</ele><time>2026-03-22T08:47:44Z</time></trkpt><trkpt lat="43.274520550264825" lon="11.666403522239083"><ele>345.0</ele><time>2026-03-22T08:47:46Z</time></trkpt><trkpt lat="43.27444026902627" lon="11.666352460233592"><ele>345.0</ele><time>2026-03-22T08:47:47Z</time></trkpt><trkpt lat="43.274359773019064" lon="11.666294611903098"><ele>345.0</ele><time>2026-03-22T08:47:48Z</time></trkpt><trkpt lat="43.274282314142766" lon="11.66623894617051"><ele>345.0</ele><time>2026-03-22T08:47:49Z</time></trkpt><trkpt lat="43.27420774869595" lon="11.666188419847352"><ele>345.0</ele><time>2026-03-22T08:47:50Z</time></trkpt><trkpt lat="43.2741311292063" lon="11.66613921662531"><ele>345.0</ele><time>2026-03-22T08:47:51Z</time></trkpt><trkpt lat="43.274057980582015" lon="11.666093043242062"><ele>345.0</ele><time>2026-03-22T08:47:52Z</time></trkpt><trkpt lat="43.27397750967635" lon="11.666042247630184"><ele>341.0</ele><time>2026-03-22T08:47:53Z</time></trkpt><trkpt lat="43.27389294002892" lon="11.665989125224797"><ele>337.0</ele><time>2026-03-22T08:47:54Z</time></trkpt><trkpt lat="43.27380561928395" lon="11.665934688713092"><ele>333.0</ele><time>2026-03-22T08:47:55Z</time></trkpt><trkpt lat="43.273718139664396" lon="11.665882589202909"><ele>329.0</ele><time>2026-03-22T08:47:56Z</time></trkpt><trkpt lat="43.273629437913264" lon="11.665831558760681"><ele>325.0</ele><time>2026-03-22T08:47:57Z</time></trkpt><trkpt lat="43.27353945913205" lon="11.665784977345545"><ele>325.0</ele><time>2026-03-22T08:47:58Z</time></trkpt><trkpt lat="43.27344048941858" lon="11.665742844461521"><ele>325.0</ele><time>2026-03-22T08:47:58.999Z</time></trkpt><trkpt lat="43.27333899837695" lon="11.665711365987061"><ele>325.0</ele><time>2026-03-22T08:47:59.999Z</time></trkpt><trkpt lat="43.27324155228449" lon="11.665679053677716"><ele>325.0</ele><time>2026-03-22T08:48:00.999Z</time></trkpt><trkpt lat="43.27314157992661" lon="11.66564602925762"><ele>325.0</ele><time>2026-03-22T08:48:01.999Z</time></trkpt><trkpt lat="43.273039018121466" lon="11.665639457537308"><ele>323.3333333333333</ele><time>2026-03-22T08:48:02.999Z</time></trkpt><trkpt lat="43.27295985898889" lon="11.665615623473453"><ele>321.66666666666663</ele><time>2026-03-22T08:48:03.999Z</time></trkpt><trkpt lat="43.272885506199955" lon="11.665608012795094"><ele>320.0</ele><time>2026-03-22T08:48:04.999Z</time></trkpt><trkpt lat="43.27281402003899" lon="11.665620232902056"><ele>318.3333333333333</ele><time>2026-03-22T08:48:05.999Z</time></trkpt><trkpt lat="43.27274054510386" lon="11.665610149641813"><ele>316.6666666666667</ele><time>2026-03-22T08:48:06.999Z</time></trkpt><trkpt lat="43.272654931644894" lon="11.665633628223572"><ele>315.0</ele><time>2026-03-22T08:48:07.999Z</time></trkpt><trkpt lat="43.272571768958215" lon="11.665667573620876"><ele>315.0</ele><time>2026-03-22T08:48:08.999Z</time></trkpt><trkpt lat="43.272484516476716" lon="11.66571869673361"><ele>315.0</ele><time>2026-03-22T08:48:09.999Z</time></trkpt><trkpt lat="43.27245693669508" lon="11.665879661523014"><ele>315.0</ele><time>2026-03-22T08:48:10.999Z</time></trkpt><trkpt lat="43.27240611116198" lon="11.665967815581803"><ele>315.0</ele><time>2026-03-22T08:48:11.999Z</time></trkpt><trkpt lat="43.27235236734928" lon="11.666061784678902"><ele>315.0</ele><time>2026-03-22T08:48:12.999Z</time></trkpt><trkpt lat="43.272278784488165" lon="11.666127425234889"><ele>314.5</ele><time>2026-03-22T08:48:13.999Z</time></trkpt><trkpt lat="43.272200368960796" lon="11.666184670820309"><ele>314.0</ele><time>2026-03-22T08:48:14.999Z</time></trkpt><trkpt lat="43.27210721195982" lon="11.666196933605432"><ele>313.5</ele><time>2026-03-22T08:48:15.999Z</time></trkpt><trkpt lat="43.27201352192136" lon="11.666215255871764"><ele>313.0</ele><time>2026-03-22T08:48:16.999Z</time></trkpt><trkpt lat="43.271939518630326" lon="11.666252117194679"><ele>312.5</ele><time>2026-03-22T08:48:17.999Z</time></trkpt><trkpt lat="43.27188722005723" lon="11.666311982605365"><ele>312.0</ele><time>2026-03-22T08:48:18.999Z</time></trkpt><trkpt lat="43.271823914514066" lon="11.666378268373899"><ele>312.0</ele><time>2026-03-22T08:48:19.999Z</time></trkpt><trkpt lat="43.271773321439106" lon="11.66647229643923"><ele>312.0</ele><time>2026-03-22T08:48:20.999Z</time></trkpt><trkpt lat="43.271744558488365" lon="11.666569419978416"><ele>312.0</ele><time>2026-03-22T08:48:21.999Z</time></trkpt><trkpt lat="43.27172408618236" lon="11.666692200881595"><ele>312.0</ele><time>2026-03-22T08:48:22.999Z</time></trkpt><trkpt lat="43.27169586075778" lon="11.666808473726904"><ele>312.0</ele><time>2026-03-22T08:48:23.999Z</time></trkpt><trkpt lat="43.27164427692872" lon="11.666890552405409"><ele>312.0</ele><time>2026-03-22T08:48:24.999Z</time></trkpt><trkpt lat="43.27152466101231" lon="11.666866471250334"><ele>311.6</ele><time>2026-03-22T08:48:25.999Z</time></trkpt><trkpt lat="43.271438852607815" lon="11.666902927520063"><ele>311.2</ele><time>2026-03-22T08:48:27.999Z</time></trkpt><trkpt lat="43.27135814097036" lon="11.66682572528531"><ele>310.8</ele><time>2026-03-22T08:48:29.999Z</time></trkpt><trkpt lat="43.27130813018148" lon="11.666742485781041"><ele>310.4</ele><time>2026-03-22T08:48:30.999Z</time></trkpt><trkpt lat="43.27123998730346" lon="11.666632022521908"><ele>310.0</ele><time>2026-03-22T08:48:31.999Z</time></trkpt><trkpt lat="43.271187056839224" lon="11.666536776660148"><ele>310.0</ele><time>2026-03-22T08:48:32.999Z</time></trkpt><trkpt lat="43.27111354116727" lon="11.666398935016959"><ele>310.0</ele><time>2026-03-22T08:48:33.999Z</time></trkpt><trkpt lat="43.271056504446165" lon="11.666288480827605"><ele>310.0</ele><time>2026-03-22T08:48:34.999Z</time></trkpt><trkpt lat="43.27098989158192" lon="11.666158751863607"><ele>310.0</ele><time>2026-03-22T08:48:35.999Z</time></trkpt><trkpt lat="43.27092081460229" lon="11.666028033346123"><ele>309.0</ele><time>2026-03-22T08:48:36.999Z</time></trkpt><trkpt lat="43.27085341166807" lon="11.665905498981882"><ele>308.0</ele><time>2026-03-22T08:48:37.999Z</time></trkpt><trkpt lat="43.27079068182854" lon="11.665795439105658"><ele>307.0</ele><time>2026-03-22T08:48:38.999Z</time></trkpt><trkpt lat="43.27073576261588" lon="11.66569908325297"><ele>306.0</ele><time>2026-03-22T08:48:39.999Z</time></trkpt><trkpt lat="43.27067499108716" lon="11.66559245935843"><ele>305.0</ele><time>2026-03-22T08:48:40.999Z</time></trkpt><trkpt lat="43.27061210041071" lon="11.665477706078963"><ele>307.0</ele><time>2026-03-22T08:48:41.999Z</time></trkpt><trkpt lat="43.270549451851615" lon="11.665360357741871"><ele>309.0</ele><time>2026-03-22T08:48:42.999Z</time></trkpt><trkpt lat="43.270475644977196" lon="11.66522127321433"><ele>311.0</ele><time>2026-03-22T08:48:43.999Z</time></trkpt><trkpt lat="43.270409195881534" lon="11.665107600265037"><ele>313.0</ele><time>2026-03-22T08:48:44.999Z</time></trkpt><trkpt lat="43.27033607181335" lon="11.664995445273673"><ele>315.0</ele><time>2026-03-22T08:48:45.999Z</time></trkpt><trkpt lat="43.27025700820346" lon="11.664888179803182"><ele>315.0</ele><time>2026-03-22T08:48:46.999Z</time></trkpt><trkpt lat="43.27017462909127" lon="11.664786959643884"><ele>315.0</ele><time>2026-03-22T08:48:47.999Z</time></trkpt><trkpt lat="43.27009836116193" lon="11.664702791657868"><ele>315.0</ele><time>2026-03-22T08:48:48.999Z</time></trkpt><trkpt lat="43.27002705256549" lon="11.664634326801462"><ele>315.0</ele><time>2026-03-22T08:48:49.999Z</time></trkpt><trkpt lat="43.26996554692966" lon="11.664591604293717"><ele>315.0</ele><time>2026-03-22T08:48:50.999Z</time></trkpt><trkpt lat="43.2698834684557" lon="11.66460763682152"><ele>315.0</ele><time>2026-03-22T08:48:51.999Z</time></trkpt><trkpt lat="43.269814997351425" lon="11.664602416728666"><ele>315.3333333333333</ele><time>2026-03-22T08:48:52.999Z</time></trkpt><trkpt lat="43.269754997395076" lon="11.664540550522348"><ele>315.6666666666667</ele><time>2026-03-22T08:48:53.999Z</time></trkpt><trkpt lat="43.26972492287655" lon="11.664451578779284"><ele>316.0</ele><time>2026-03-22T08:48:54.999Z</time></trkpt><trkpt lat="43.26968260194493" lon="11.664361305861933"><ele>316.33333333333337</ele><time>2026-03-22T08:48:55.999Z</time></trkpt><trkpt lat="43.2696579113737" lon="11.664273058154388"><ele>316.6666666666667</ele><time>2026-03-22T08:48:56.999Z</time></trkpt><trkpt lat="43.269618403987536" lon="11.66416629408728"><ele>317.0</ele><time>2026-03-22T08:48:57.999Z</time></trkpt><trkpt lat="43.26955124033962" lon="11.664045026121476"><ele>317.0</ele><time>2026-03-22T08:48:58.999Z</time></trkpt><trkpt lat="43.269452837059134" lon="11.663912019117074"><ele>317.0</ele><time>2026-03-22T08:48:59.999Z</time></trkpt><trkpt lat="43.26936483667187" lon="11.663785065886822"><ele>317.0</ele><time>2026-03-22T08:49:00.998Z</time></trkpt><trkpt lat="43.269290884771436" lon="11.663654541464773"><ele>317.0</ele><time>2026-03-22T08:49:01.998Z</time></trkpt><trkpt lat="43.26922888036345" lon="11.66353592893183"><ele>317.0</ele><time>2026-03-22T08:49:02.998Z</time></trkpt><trkpt lat="43.269173994041225" lon="11.663416582513488"><ele>317.0</ele><time>2026-03-22T08:49:03.998Z</time></trkpt><trkpt lat="43.269117982308046" lon="11.663293346359895"><ele>317.0</ele><time>2026-03-22T08:49:04.998Z</time></trkpt><trkpt lat="43.26906328936816" lon="11.663174125067549"><ele>317.0</ele><time>2026-03-22T08:49:05.998Z</time></trkpt><trkpt lat="43.26900359478024" lon="11.663065379481319"><ele>317.0</ele><time>2026-03-22T08:49:06.998Z</time></trkpt><trkpt lat="43.268942297129136" lon="11.662952135255143"><ele>317.0</ele><time>2026-03-22T08:49:07.998Z</time></trkpt><trkpt lat="43.268903369329045" lon="11.662823891509273"><ele>317.0</ele><time>2026-03-22T08:49:08.998Z</time></trkpt><trkpt lat="43.268836553066976" lon="11.662716325276879"><ele>317.0</ele><time>2026-03-22T08:49:09.998Z</time></trkpt><trkpt lat="43.268724478303405" lon="11.662654543502804"><ele>317.0</ele><time>2026-03-22T08:49:10.998Z</time></trkpt><trkpt lat="43.268652223154184" lon="11.662517073726391"><ele>317.0</ele><time>2026-03-22T08:49:11.998Z</time></trkpt><trkpt lat="43.26854483082029" lon="11.662454603490014"><ele>314.6</ele><time>2026-03-22T08:49:12.998Z</time></trkpt><trkpt lat="43.26843945705326" lon="11.662405895687519"><ele>312.2</ele><time>2026-03-22T08:49:13.998Z</time></trkpt><trkpt lat="43.26833261466147" lon="11.662359184415969"><ele>309.8</ele><time>2026-03-22T08:49:14.998Z</time></trkpt><trkpt lat="43.268233386886344" lon="11.662315532744579"><ele>307.4</ele><time>2026-03-22T08:49:15.998Z</time></trkpt><trkpt lat="43.268138922802926" lon="11.66227397673823"><ele>305.0</ele><time>2026-03-22T08:49:16.998Z</time></trkpt><trkpt lat="43.26806230762257" lon="11.662242194265382"><ele>304.6666666666667</ele><time>2026-03-22T08:49:17.998Z</time></trkpt><trkpt lat="43.267981957144784" lon="11.662209424079952"><ele>304.33333333333337</ele><time>2026-03-22T08:49:18.998Z</time></trkpt><trkpt lat="43.26790964627216" lon="11.662180893891263"><ele>304.0</ele><time>2026-03-22T08:49:20Z</time></trkpt><trkpt lat="43.26783276528417" lon="11.662151324318952"><ele>303.6666666666667</ele><time>2026-03-22T08:49:21Z</time></trkpt><trkpt lat="43.26774727976986" lon="11.662120157312739"><ele>303.3333333333333</ele><time>2026-03-22T08:49:22Z</time></trkpt><trkpt lat="43.26765360565923" lon="11.662087333719496"><ele>303.0</ele><time>2026-03-22T08:49:23Z</time></trkpt><trkpt lat="43.267555557456106" lon="11.662052977491955"><ele>303.0</ele><time>2026-03-22T08:49:24Z</time></trkpt><trkpt lat="43.267450864991496" lon="11.66201443603279"><ele>303.0</ele><time>2026-03-22T08:49:25Z</time></trkpt><trkpt lat="43.26734781260619" lon="11.661974312474937"><ele>303.0</ele><time>2026-03-22T08:49:26Z</time></trkpt><trkpt lat="43.26724078504638" lon="11.661928796703691"><ele>303.0</ele><time>2026-03-22T08:49:27Z</time></trkpt><trkpt lat="43.267137136841804" lon="11.66188278223257"><ele>303.0</ele><time>2026-03-22T08:49:28Z</time></trkpt><trkpt lat="43.26703329388645" lon="11.661836419125247"><ele>301.8</ele><time>2026-03-22T08:49:29Z</time></trkpt><trkpt lat="43.26692948695095" lon="11.661789704176666"><ele>300.6</ele><time>2026-03-22T08:49:30Z</time></trkpt><trkpt lat="43.26682352621691" lon="11.6617420200555"><ele>299.4</ele><time>2026-03-22T08:49:31Z</time></trkpt><trkpt lat="43.26671521672924" lon="11.661695948602159"><ele>298.2</ele><time>2026-03-22T08:49:32Z</time></trkpt><trkpt lat="43.266606093132815" lon="11.661651381155089"><ele>297.0</ele><time>2026-03-22T08:49:33Z</time></trkpt><trkpt lat="43.26649817854134" lon="11.66160975769816"><ele>299.2</ele><time>2026-03-22T08:49:34Z</time></trkpt><trkpt lat="43.26639054111934" lon="11.66156843052738"><ele>301.4</ele><time>2026-03-22T08:49:35Z</time></trkpt><trkpt lat="43.26628890637501" lon="11.66152798414031"><ele>303.6</ele><time>2026-03-22T08:49:36Z</time></trkpt><trkpt lat="43.26618542784984" lon="11.661485089644682"><ele>305.8</ele><time>2026-03-22T08:49:37Z</time></trkpt><trkpt lat="43.26608364303462" lon="11.661438318819794"><ele>308.0</ele><time>2026-03-22T08:49:38Z</time></trkpt><trkpt lat="43.26597672947024" lon="11.66138919125676"><ele>308.0</ele><time>2026-03-22T08:49:39Z</time></trkpt><trkpt lat="43.265874009564946" lon="11.66134415942663"><ele>308.0</ele><time>2026-03-22T08:49:40Z</time></trkpt><trkpt lat="43.26575629893619" lon="11.66130161831716"><ele>308.0</ele><time>2026-03-22T08:49:41Z</time></trkpt><trkpt lat="43.26563325228079" lon="11.661267474229772"><ele>308.0</ele><time>2026-03-22T08:49:42Z</time></trkpt><trkpt lat="43.265513553133374" lon="11.661240854161157"><ele>309.5</ele><time>2026-03-22T08:49:43Z</time></trkpt><trkpt lat="43.26539199987326" lon="11.661217860471307"><ele>311.0</ele><time>2026-03-22T08:49:44Z</time></trkpt><trkpt lat="43.265276601122636" lon="11.661196297911882"><ele>312.5</ele><time>2026-03-22T08:49:45Z</time></trkpt><trkpt lat="43.26515616592247" lon="11.661180687406627"><ele>314.0</ele><time>2026-03-22T08:49:46Z</time></trkpt><trkpt lat="43.26504146375809" lon="11.66116994449931"><ele>314.0</ele><time>2026-03-22T08:49:47Z</time></trkpt><trkpt lat="43.26494470236017" lon="11.661157180620295"><ele>314.0</ele><time>2026-03-22T08:49:48Z</time></trkpt><trkpt lat="43.2648628543695" lon="11.66113750098075"><ele>314.0</ele><time>2026-03-22T08:49:49Z</time></trkpt><trkpt lat="43.2647807287949" lon="11.661118101842487"><ele>314.0</ele><time>2026-03-22T08:49:50Z</time></trkpt><trkpt lat="43.26469177760419" lon="11.66110780389354"><ele>314.0</ele><time>2026-03-22T08:49:51Z</time></trkpt><trkpt lat="43.26460317249958" lon="11.66106062144839"><ele>314.0</ele><time>2026-03-22T08:49:52Z</time></trkpt><trkpt lat="43.2645094334585" lon="11.661019558138442"><ele>312.4</ele><time>2026-03-22T08:49:53Z</time></trkpt><trkpt lat="43.26442126146466" lon="11.660968501059887"><ele>310.79999999999995</ele><time>2026-03-22T08:49:54Z</time></trkpt><trkpt lat="43.264331162059825" lon="11.660929625988516"><ele>309.20000000000005</ele><time>2026-03-22T08:49:55Z</time></trkpt><trkpt lat="43.264229468624464" lon="11.660903098708088"><ele>307.6</ele><time>2026-03-22T08:49:56Z</time></trkpt><trkpt lat="43.26413464537094" lon="11.660854466152578"><ele>306.0</ele><time>2026-03-22T08:49:57Z</time></trkpt><trkpt lat="43.26403560397015" lon="11.660812969734687"><ele>308.40000000000003</ele><time>2026-03-22T08:49:58Z</time></trkpt><trkpt lat="43.26393374098676" lon="11.6607602820913"><ele>310.8</ele><time>2026-03-22T08:49:59Z</time></trkpt><trkpt lat="43.26382960889891" lon="11.660702176386902"><ele>313.20000000000005</ele><time>2026-03-22T08:50:00Z</time></trkpt><trkpt lat="43.263727885954005" lon="11.66063641081943"><ele>315.6</ele><time>2026-03-22T08:50:01Z</time></trkpt><trkpt lat="43.26363301458836" lon="11.6605690287583"><ele>318.0</ele><time>2026-03-22T08:50:02Z</time></trkpt><trkpt lat="43.263544028013094" lon="11.66048454740453"><ele>318.0</ele><time>2026-03-22T08:50:02.999Z</time></trkpt><trkpt lat="43.26345586772474" lon="11.660399490760776"><ele>318.0</ele><time>2026-03-22T08:50:03.999Z</time></trkpt><trkpt lat="43.263379392235244" lon="11.660301596269626"><ele>318.0</ele><time>2026-03-22T08:50:04.999Z</time></trkpt><trkpt lat="43.263306035690256" lon="11.660202449027185"><ele>318.0</ele><time>2026-03-22T08:50:05.999Z</time></trkpt><trkpt lat="43.263233957841074" lon="11.660109182006657"><ele>318.0</ele><time>2026-03-22T08:50:06.999Z</time></trkpt><trkpt lat="43.26313947629527" lon="11.660037804094364"><ele>315.8</ele><time>2026-03-22T08:50:07.999Z</time></trkpt><trkpt lat="43.2630384333939" lon="11.659968846705842"><ele>313.6</ele><time>2026-03-22T08:50:08.999Z</time></trkpt><trkpt lat="43.26293459740845" lon="11.659898826884435"><ele>311.4</ele><time>2026-03-22T08:50:09.999Z</time></trkpt><trkpt lat="43.262837152497454" lon="11.659826178295754"><ele>309.2</ele><time>2026-03-22T08:50:10.999Z</time></trkpt><trkpt lat="43.26273942912019" lon="11.659764569062569"><ele>307.0</ele><time>2026-03-22T08:50:11.999Z</time></trkpt><trkpt lat="43.26264879350073" lon="11.659714640712838"><ele>307.0</ele><time>2026-03-22T08:50:12.999Z</time></trkpt><trkpt lat="43.26256844626549" lon="11.659677416553276"><ele>307.0</ele><time>2026-03-22T08:50:13.999Z</time></trkpt><trkpt lat="43.262483254641495" lon="11.659674007538076"><ele>307.0</ele><time>2026-03-22T08:50:14.999Z</time></trkpt><trkpt lat="43.26240095938062" lon="11.659711281518248"><ele>307.0</ele><time>2026-03-22T08:50:15.999Z</time></trkpt><trkpt lat="43.26231398679501" lon="11.659768035271158"><ele>307.0</ele><time>2026-03-22T08:50:16.999Z</time></trkpt><trkpt lat="43.262227854504125" lon="11.659828887897264"><ele>305.6</ele><time>2026-03-22T08:50:17.999Z</time></trkpt><trkpt lat="43.26213218775262" lon="11.659864093488853"><ele>304.2</ele><time>2026-03-22T08:50:18.999Z</time></trkpt><trkpt lat="43.262025445869405" lon="11.6598629608614"><ele>302.8</ele><time>2026-03-22T08:50:19.999Z</time></trkpt><trkpt lat="43.26191810329985" lon="11.659845270849212"><ele>301.4</ele><time>2026-03-22T08:50:20.999Z</time></trkpt><trkpt lat="43.26181819828294" lon="11.65982008083674"><ele>300.0</ele><time>2026-03-22T08:50:21.999Z</time></trkpt><trkpt lat="43.26173042557314" lon="11.659780964259143"><ele>300.0</ele><time>2026-03-22T08:50:22.999Z</time></trkpt><trkpt lat="43.26166053635192" lon="11.659712853705706"><ele>300.0</ele><time>2026-03-22T08:50:23.999Z</time></trkpt><trkpt lat="43.26160134979734" lon="11.65964573520567"><ele>300.0</ele><time>2026-03-22T08:50:24.999Z</time></trkpt><trkpt lat="43.26149664955864" lon="11.659539788006073"><ele>300.0</ele><time>2026-03-22T08:50:26.999Z</time></trkpt><trkpt lat="43.26144129708103" lon="11.659472304741179"><ele>300.0</ele><time>2026-03-22T08:50:29.999Z</time></trkpt><trkpt lat="43.26137771123927" lon="11.659387130177345"><ele>300.4</ele><time>2026-03-22T08:50:32.999Z</time></trkpt><trkpt lat="43.261284847186296" lon="11.659267167638598"><ele>300.8</ele><time>2026-03-22T08:50:34.999Z</time></trkpt><trkpt lat="43.26123252324444" lon="11.659188443114337"><ele>301.2</ele><time>2026-03-22T08:50:35.999Z</time></trkpt><trkpt lat="43.26117059927481" lon="11.659099767122717"><ele>301.6</ele><time>2026-03-22T08:50:36.999Z</time></trkpt><trkpt lat="43.26110329172776" lon="11.659011124202825"><ele>302.0</ele><time>2026-03-22T08:50:37.999Z</time></trkpt><trkpt lat="43.26103422366336" lon="11.658926171794022"><ele>302.0</ele><time>2026-03-22T08:50:38.999Z</time></trkpt><trkpt lat="43.260976030193284" lon="11.658843398374746"><ele>302.0</ele><time>2026-03-22T08:50:39.999Z</time></trkpt><trkpt lat="43.26091725734791" lon="11.658756611203827"><ele>302.0</ele><time>2026-03-22T08:50:40.999Z</time></trkpt><trkpt lat="43.26085271529107" lon="11.65867392715229"><ele>302.0</ele><time>2026-03-22T08:50:41.999Z</time></trkpt><trkpt lat="43.26078670217129" lon="11.658595490733182"><ele>302.0</ele><time>2026-03-22T08:50:42.999Z</time></trkpt><trkpt lat="43.26072376455369" lon="11.658537383726282"><ele>302.0</ele><time>2026-03-22T08:50:43.999Z</time></trkpt><trkpt lat="43.2606655971608" lon="11.658483858943134"><ele>302.33333333333337</ele><time>2026-03-22T08:50:44.999Z</time></trkpt><trkpt lat="43.26060813754263" lon="11.658428201351535"><ele>302.6666666666667</ele><time>2026-03-22T08:50:45.999Z</time></trkpt><trkpt lat="43.2605544819586" lon="11.658376576512257"><ele>303.0</ele><time>2026-03-22T08:50:46.999Z</time></trkpt><trkpt lat="43.26050242739161" lon="11.65831824000879"><ele>303.3333333333333</ele><time>2026-03-22T08:50:47.999Z</time></trkpt><trkpt lat="43.26040535396096" lon="11.658234473922416"><ele>303.66666666666663</ele><time>2026-03-22T08:50:49.999Z</time></trkpt><trkpt lat="43.26034538303089" lon="11.658188818102673"><ele>304.0</ele><time>2026-03-22T08:50:50.999Z</time></trkpt><trkpt lat="43.26028854358364" lon="11.658131806038634"><ele>304.0</ele><time>2026-03-22T08:50:51.999Z</time></trkpt><trkpt lat="43.26022372922074" lon="11.65808246143419"><ele>304.0</ele><time>2026-03-22T08:50:52.999Z</time></trkpt><trkpt lat="43.260151742742664" lon="11.658033463401958"><ele>304.0</ele><time>2026-03-22T08:50:53.999Z</time></trkpt><trkpt lat="43.26008726714152" lon="11.657977580660527"><ele>304.0</ele><time>2026-03-22T08:50:54.999Z</time></trkpt><trkpt lat="43.260020048654454" lon="11.657923417684108"><ele>304.0</ele><time>2026-03-22T08:50:55.999Z</time></trkpt><trkpt lat="43.259948509524186" lon="11.657868717677577"><ele>304.0</ele><time>2026-03-22T08:50:56.999Z</time></trkpt><trkpt lat="43.25988630264887" lon="11.657823538081466"><ele>304.0</ele><time>2026-03-22T08:50:57.999Z</time></trkpt><trkpt lat="43.259823388716654" lon="11.65781063116357"><ele>304.0</ele><time>2026-03-22T08:50:58.999Z</time></trkpt><trkpt lat="43.259751302700366" lon="11.65782462444874"><ele>304.0</ele><time>2026-03-22T08:50:59.999Z</time></trkpt><trkpt lat="43.25967574163206" lon="11.657855345070677"><ele>304.0</ele><time>2026-03-22T08:51:00.999Z</time></trkpt><trkpt lat="43.25960541932512" lon="11.657880382021212"><ele>304.0</ele><time>2026-03-22T08:51:01.999Z</time></trkpt><trkpt lat="43.25953378859988" lon="11.657923721139712"><ele>304.0</ele><time>2026-03-22T08:51:02.999Z</time></trkpt><trkpt lat="43.25946889764925" lon="11.657999621837435"><ele>304.0</ele><time>2026-03-22T08:51:03.999Z</time></trkpt><trkpt lat="43.25940475814412" lon="11.658095336665278"><ele>304.0</ele><time>2026-03-22T08:51:04.998Z</time></trkpt><trkpt lat="43.25934072549855" lon="11.658198777428067"><ele>304.0</ele><time>2026-03-22T08:51:05.998Z</time></trkpt><trkpt lat="43.25927855030158" lon="11.658311443999985"><ele>304.0</ele><time>2026-03-22T08:51:06.998Z</time></trkpt><trkpt lat="43.259222578921346" lon="11.65841209417223"><ele>304.0</ele><time>2026-03-22T08:51:07.998Z</time></trkpt><trkpt lat="43.259166511492566" lon="11.658504330795456"><ele>304.0</ele><time>2026-03-22T08:51:08.998Z</time></trkpt><trkpt lat="43.25912834621811" lon="11.65859201527233"><ele>304.0</ele><time>2026-03-22T08:51:09.998Z</time></trkpt><trkpt lat="43.25909920810466" lon="11.658671095507913"><ele>304.0</ele><time>2026-03-22T08:51:10.998Z</time></trkpt><trkpt lat="43.25906692664181" lon="11.658765753808453"><ele>304.0</ele><time>2026-03-22T08:51:11.998Z</time></trkpt><trkpt lat="43.259025299781996" lon="11.658872277933654"><ele>304.0</ele><time>2026-03-22T08:51:12.998Z</time></trkpt><trkpt lat="43.25897966580731" lon="11.658993699141028"><ele>304.0</ele><time>2026-03-22T08:51:13.998Z</time></trkpt><trkpt lat="43.258922673340884" lon="11.659110001780977"><ele>307.4</ele><time>2026-03-22T08:51:14.998Z</time></trkpt><trkpt lat="43.25887161624411" lon="11.659235701072461"><ele>310.79999999999995</ele><time>2026-03-22T08:51:15.998Z</time></trkpt><trkpt lat="43.258828129402055" lon="11.659345928337359"><ele>314.20000000000005</ele><time>2026-03-22T08:51:16.998Z</time></trkpt><trkpt lat="43.25879803437229" lon="11.659431574918953"><ele>317.6</ele><time>2026-03-22T08:51:17.998Z</time></trkpt><trkpt lat="43.25871880447425" lon="11.659523193428424"><ele>321.0</ele><time>2026-03-22T08:51:19.998Z</time></trkpt><trkpt lat="43.258631685988725" lon="11.65945587064403"><ele>321.0</ele><time>2026-03-22T08:51:21.998Z</time></trkpt><trkpt lat="43.25858586734884" lon="11.659395936560363"><ele>321.0</ele><time>2026-03-22T08:51:22.998Z</time></trkpt><trkpt lat="43.258515234709506" lon="11.659355012663358"><ele>321.0</ele><time>2026-03-22T08:51:23.998Z</time></trkpt><trkpt lat="43.25843439821837" lon="11.659318023972052"><ele>321.0</ele><time>2026-03-22T08:51:24.998Z</time></trkpt><trkpt lat="43.258349659269435" lon="11.659257426239162"><ele>321.0</ele><time>2026-03-22T08:51:26Z</time></trkpt><trkpt lat="43.25826718926666" lon="11.659196621263776"><ele>321.0</ele><time>2026-03-22T08:51:27Z</time></trkpt><trkpt lat="43.258198344002786" lon="11.65916731493806"><ele>321.0</ele><time>2026-03-22T08:51:28Z</time></trkpt><trkpt lat="43.258129120041275" lon="11.659144944814338"><ele>321.0</ele><time>2026-03-22T08:51:29Z</time></trkpt><trkpt lat="43.258069324417775" lon="11.659073072183892"><ele>321.0</ele><time>2026-03-22T08:51:30Z</time></trkpt><trkpt lat="43.25799100029054" lon="11.65907795952241"><ele>321.0</ele><time>2026-03-22T08:51:31Z</time></trkpt><trkpt lat="43.257899065643436" lon="11.659084383351448"><ele>321.0</ele><time>2026-03-22T08:51:32Z</time></trkpt><trkpt lat="43.25780058416183" lon="11.65910820639752"><ele>321.0</ele><time>2026-03-22T08:51:33Z</time></trkpt><trkpt lat="43.25770200055571" lon="11.659135708555487"><ele>321.0</ele><time>2026-03-22T08:51:34Z</time></trkpt><trkpt lat="43.2575938799626" lon="11.659165871275817"><ele>321.0</ele><time>2026-03-22T08:51:35Z</time></trkpt><trkpt lat="43.25749249301155" lon="11.659193897283396"><ele>321.0</ele><time>2026-03-22T08:51:36Z</time></trkpt><trkpt lat="43.2573904725731" lon="11.659223036493522"><ele>321.0</ele><time>2026-03-22T08:51:37Z</time></trkpt><trkpt lat="43.257297666835704" lon="11.659251785431222"><ele>321.0</ele><time>2026-03-22T08:51:38Z</time></trkpt><trkpt lat="43.25721987558381" lon="11.659273665156963"><ele>321.0</ele><time>2026-03-22T08:51:39Z</time></trkpt><trkpt lat="43.257096676499486" lon="11.659298839832495"><ele>321.0</ele><time>2026-03-22T08:51:41Z</time></trkpt><trkpt lat="43.257020575217076" lon="11.659310158845255"><ele>321.0</ele><time>2026-03-22T08:51:42Z</time></trkpt><trkpt lat="43.25693723278077" lon="11.659311014435652"><ele>321.0</ele><time>2026-03-22T08:51:43Z</time></trkpt><trkpt lat="43.256837994381186" lon="11.659307988454287"><ele>321.0</ele><time>2026-03-22T08:51:44Z</time></trkpt><trkpt lat="43.256732333320485" lon="11.659306713149492"><ele>321.0</ele><time>2026-03-22T08:51:45Z</time></trkpt><trkpt lat="43.25662080004542" lon="11.659305466369773"><ele>321.0</ele><time>2026-03-22T08:51:46Z</time></trkpt><trkpt lat="43.2565093119026" lon="11.659306824137936"><ele>321.0</ele><time>2026-03-22T08:51:47Z</time></trkpt><trkpt lat="43.256403292524666" lon="11.65930811530571"><ele>321.0</ele><time>2026-03-22T08:51:48Z</time></trkpt><trkpt lat="43.25630013547812" lon="11.659309371611679"><ele>321.0</ele><time>2026-03-22T08:51:49Z</time></trkpt><trkpt lat="43.25619726892711" lon="11.659329424990494"><ele>319.40000000000003</ele><time>2026-03-22T08:51:50Z</time></trkpt><trkpt lat="43.256102153230934" lon="11.659307808120502"><ele>317.8</ele><time>2026-03-22T08:51:51Z</time></trkpt><trkpt lat="43.2560080855974" lon="11.659288226735786"><ele>316.20000000000005</ele><time>2026-03-22T08:51:52Z</time></trkpt><trkpt lat="43.25590506717927" lon="11.659255469065384"><ele>314.6</ele><time>2026-03-22T08:51:53Z</time></trkpt><trkpt lat="43.255794744645" lon="11.659238394892343"><ele>313.0</ele><time>2026-03-22T08:51:54Z</time></trkpt><trkpt lat="43.25568714518569" lon="11.659187769259"><ele>310.5</ele><time>2026-03-22T08:51:55Z</time></trkpt><trkpt lat="43.25557518656832" lon="11.659132039942316"><ele>308.0</ele><time>2026-03-22T08:51:56Z</time></trkpt><trkpt lat="43.25546659754251" lon="11.659077289843301"><ele>305.5</ele><time>2026-03-22T08:51:57Z</time></trkpt><trkpt lat="43.25536050937123" lon="11.659028613070525"><ele>303.0</ele><time>2026-03-22T08:51:58Z</time></trkpt><trkpt lat="43.25525937927281" lon="11.658981131373404"><ele>303.0</ele><time>2026-03-22T08:51:59Z</time></trkpt><trkpt lat="43.25517065031663" lon="11.658910475052455"><ele>303.0</ele><time>2026-03-22T08:52:00Z</time></trkpt><trkpt lat="43.25508046007922" lon="11.65886495568584"><ele>303.0</ele><time>2026-03-22T08:52:01Z</time></trkpt><trkpt lat="43.25497961099071" lon="11.658837228705808"><ele>303.0</ele><time>2026-03-22T08:52:02Z</time></trkpt><trkpt lat="43.254876150189205" lon="11.658793407195377"><ele>303.0</ele><time>2026-03-22T08:52:03Z</time></trkpt><trkpt lat="43.254764964319264" lon="11.65875016642145"><ele>302.75</ele><time>2026-03-22T08:52:04Z</time></trkpt><trkpt lat="43.254647306079484" lon="11.658707392017996"><ele>302.5</ele><time>2026-03-22T08:52:05Z</time></trkpt><trkpt lat="43.25452814793589" lon="11.658675828512049"><ele>302.25</ele><time>2026-03-22T08:52:06Z</time></trkpt><trkpt lat="43.25441707290543" lon="11.658624667674463"><ele>302.0</ele><time>2026-03-22T08:52:07Z</time></trkpt><trkpt lat="43.25429934789135" lon="11.658592666332357"><ele>301.5</ele><time>2026-03-22T08:52:07.999Z</time></trkpt><trkpt lat="43.254182322253484" lon="11.65856039274238"><ele>301.0</ele><time>2026-03-22T08:52:08.999Z</time></trkpt><trkpt lat="43.25406028416049" lon="11.658546779594742"><ele>300.5</ele><time>2026-03-22T08:52:09.999Z</time></trkpt><trkpt lat="43.253946385088796" lon="11.658511151904134"><ele>300.0</ele><time>2026-03-22T08:52:10.999Z</time></trkpt><trkpt lat="43.253840561697935" lon="11.658480517297736"><ele>299.2</ele><time>2026-03-22T08:52:11.999Z</time></trkpt><trkpt lat="43.25374048533852" lon="11.65845340576863"><ele>298.4</ele><time>2026-03-22T08:52:12.999Z</time></trkpt><trkpt lat="43.253637292010694" lon="11.658429609219302"><ele>297.6</ele><time>2026-03-22T08:52:13.999Z</time></trkpt><trkpt lat="43.25352908021083" lon="11.658409714712212"><ele>296.8</ele><time>2026-03-22T08:52:14.999Z</time></trkpt><trkpt lat="43.25341645940199" lon="11.658405203522374"><ele>296.0</ele><time>2026-03-22T08:52:15.999Z</time></trkpt><trkpt lat="43.25329942721919" lon="11.658404615608468"><ele>296.0</ele><time>2026-03-22T08:52:16.999Z</time></trkpt><trkpt lat="43.25317778680893" lon="11.65838575422923"><ele>296.0</ele><time>2026-03-22T08:52:17.999Z</time></trkpt><trkpt lat="43.25305151839223" lon="11.658390213689021"><ele>296.0</ele><time>2026-03-22T08:52:18.999Z</time></trkpt><trkpt lat="43.25293771153211" lon="11.658396225139237"><ele>296.0</ele><time>2026-03-22T08:52:19.999Z</time></trkpt><trkpt lat="43.25283079625525" lon="11.658401872566458"><ele>295.6</ele><time>2026-03-22T08:52:20.999Z</time></trkpt><trkpt lat="43.25273298344939" lon="11.658405699081234"><ele>295.20000000000005</ele><time>2026-03-22T08:52:21.999Z</time></trkpt><trkpt lat="43.25263126500458" lon="11.65842939635575"><ele>294.79999999999995</ele><time>2026-03-22T08:52:22.999Z</time></trkpt><trkpt lat="43.252523584153884" lon="11.658429601539385"><ele>294.4</ele><time>2026-03-22T08:52:23.999Z</time></trkpt><trkpt lat="43.25241226742558" lon="11.658435278012293"><ele>294.0</ele><time>2026-03-22T08:52:24.999Z</time></trkpt><trkpt lat="43.2522949938131" lon="11.658436218961972"><ele>293.75</ele><time>2026-03-22T08:52:25.999Z</time></trkpt><trkpt lat="43.2521692807021" lon="11.658436470073374"><ele>293.5</ele><time>2026-03-22T08:52:26.999Z</time></trkpt><trkpt lat="43.25204658898708" lon="11.658439031747305"><ele>293.25</ele><time>2026-03-22T08:52:27.999Z</time></trkpt><trkpt lat="43.25193052259002" lon="11.658440801592354"><ele>293.0</ele><time>2026-03-22T08:52:28.999Z</time></trkpt><trkpt lat="43.251822707392726" lon="11.658438379555134"><ele>293.0</ele><time>2026-03-22T08:52:29.999Z</time></trkpt><trkpt lat="43.25170986948245" lon="11.65844178080936"><ele>293.0</ele><time>2026-03-22T08:52:30.999Z</time></trkpt><trkpt lat="43.2515983776488" lon="11.658450064630518"><ele>293.0</ele><time>2026-03-22T08:52:31.999Z</time></trkpt><trkpt lat="43.25147913000487" lon="11.65843571451436"><ele>293.0</ele><time>2026-03-22T08:52:32.999Z</time></trkpt><trkpt lat="43.25135579157944" lon="11.658445608562666"><ele>292.25</ele><time>2026-03-22T08:52:33.999Z</time></trkpt><trkpt lat="43.251231876006685" lon="11.658456785311468"><ele>291.5</ele><time>2026-03-22T08:52:34.999Z</time></trkpt><trkpt lat="43.251116440968126" lon="11.658489834862857"><ele>290.75</ele><time>2026-03-22T08:52:35.999Z</time></trkpt><trkpt lat="43.25099894452387" lon="11.658499571940256"><ele>290.0</ele><time>2026-03-22T08:52:36.999Z</time></trkpt><trkpt lat="43.25088142304376" lon="11.658511812855073"><ele>290.0</ele><time>2026-03-22T08:52:37.999Z</time></trkpt><trkpt lat="43.25076140557967" lon="11.658521906577606"><ele>290.0</ele><time>2026-03-22T08:52:38.999Z</time></trkpt><trkpt lat="43.25064385751041" lon="11.658529503189198"><ele>290.0</ele><time>2026-03-22T08:52:39.999Z</time></trkpt><trkpt lat="43.25054074372034" lon="11.658537997275538"><ele>290.0</ele><time>2026-03-22T08:52:40.999Z</time></trkpt><trkpt lat="43.250443787714865" lon="11.658554209215229"><ele>290.0</ele><time>2026-03-22T08:52:41.999Z</time></trkpt><trkpt lat="43.250353311862405" lon="11.658558762036696"><ele>289.8</ele><time>2026-03-22T08:52:42.999Z</time></trkpt><trkpt lat="43.250273715081036" lon="11.65856432453531"><ele>289.6</ele><time>2026-03-22T08:52:43.999Z</time></trkpt><trkpt lat="43.25020048103925" lon="11.658566044134032"><ele>289.4</ele><time>2026-03-22T08:52:44.999Z</time></trkpt><trkpt lat="43.250094834084045" lon="11.65858563478817"><ele>289.2</ele><time>2026-03-22T08:52:46.999Z</time></trkpt><trkpt lat="43.250031653638445" lon="11.658598181819569"><ele>289.0</ele><time>2026-03-22T08:52:50.999Z</time></trkpt><trkpt lat="43.25006777728817" lon="11.658917541187181"><ele>288.2</ele><time>2026-03-22T08:52:56.999Z</time></trkpt><trkpt lat="43.250098707617155" lon="11.65902752994888"><ele>287.4</ele><time>2026-03-22T08:52:57.999Z</time></trkpt><trkpt lat="43.25012830376961" lon="11.659147799999214"><ele>286.6</ele><time>2026-03-22T08:52:58.999Z</time></trkpt><trkpt lat="43.25016088820303" lon="11.659287662033181"><ele>285.8</ele><time>2026-03-22T08:52:59.999Z</time></trkpt><trkpt lat="43.25019609423709" lon="11.6594462931515"><ele>285.0</ele><time>2026-03-22T08:53:00.999Z</time></trkpt><trkpt lat="43.250229434369245" lon="11.659615579531847"><ele>285.0</ele><time>2026-03-22T08:53:01.999Z</time></trkpt><trkpt lat="43.25025525559983" lon="11.65976373071785"><ele>285.0</ele><time>2026-03-22T08:53:02.999Z</time></trkpt><trkpt lat="43.25026935166708" lon="11.659896847265236"><ele>285.0</ele><time>2026-03-22T08:53:03.999Z</time></trkpt><trkpt lat="43.250273970360624" lon="11.660023281645474"><ele>285.0</ele><time>2026-03-22T08:53:04.999Z</time></trkpt><trkpt lat="43.25031242834089" lon="11.660148935388678"><ele>285.0</ele><time>2026-03-22T08:53:05.999Z</time></trkpt><trkpt lat="43.25030862971217" lon="11.66028594236729"><ele>285.4</ele><time>2026-03-22T08:53:06.999Z</time></trkpt><trkpt lat="43.25030614155914" lon="11.66043125328225"><ele>285.8</ele><time>2026-03-22T08:53:07.999Z</time></trkpt><trkpt lat="43.250304384975735" lon="11.660581866259333"><ele>286.2</ele><time>2026-03-22T08:53:08.999Z</time></trkpt><trkpt lat="43.25030347746499" lon="11.66073241509879"><ele>286.6</ele><time>2026-03-22T08:53:09.999Z</time></trkpt><trkpt lat="43.250305405450774" lon="11.66087927817177"><ele>287.0</ele><time>2026-03-22T08:53:10.999Z</time></trkpt><trkpt lat="43.25030734142954" lon="11.661023535115742"><ele>288.0</ele><time>2026-03-22T08:53:11.999Z</time></trkpt><trkpt lat="43.250303100960465" lon="11.66116717600932"><ele>289.0</ele><time>2026-03-22T08:53:12.998Z</time></trkpt><trkpt lat="43.25024735452526" lon="11.661316738253173"><ele>290.0</ele><time>2026-03-22T08:53:13.998Z</time></trkpt><trkpt lat="43.25023674366159" lon="11.66149471354262"><ele>291.0</ele><time>2026-03-22T08:53:14.998Z</time></trkpt><trkpt lat="43.2502393014573" lon="11.661675512028502"><ele>291.0</ele><time>2026-03-22T08:53:15.998Z</time></trkpt><trkpt lat="43.250253745165004" lon="11.66185437190393"><ele>291.0</ele><time>2026-03-22T08:53:16.998Z</time></trkpt><trkpt lat="43.25027738163707" lon="11.662030301523156"><ele>291.0</ele><time>2026-03-22T08:53:17.998Z</time></trkpt><trkpt lat="43.25030772605708" lon="11.662232510325882"><ele>291.0</ele><time>2026-03-22T08:53:18.998Z</time></trkpt><trkpt lat="43.25035223844462" lon="11.662425083096242"><ele>290.75</ele><time>2026-03-22T08:53:19.998Z</time></trkpt><trkpt lat="43.250357381168335" lon="11.662599585360331"><ele>290.5</ele><time>2026-03-22T08:53:20.998Z</time></trkpt><trkpt lat="43.25037494881955" lon="11.662757920582138"><ele>290.25</ele><time>2026-03-22T08:53:21.998Z</time></trkpt><trkpt lat="43.250393330871944" lon="11.662925239633074"><ele>290.0</ele><time>2026-03-22T08:53:22.998Z</time></trkpt><trkpt lat="43.250411955756" lon="11.663094769021168"><ele>289.5</ele><time>2026-03-22T08:53:23.998Z</time></trkpt><trkpt lat="43.2504436917329" lon="11.663256779101857"><ele>289.0</ele><time>2026-03-22T08:53:24.998Z</time></trkpt><trkpt lat="43.25046209344016" lon="11.663421731114678"><ele>288.5</ele><time>2026-03-22T08:53:25.998Z</time></trkpt><trkpt lat="43.25048250975417" lon="11.66358816391309"><ele>288.0</ele><time>2026-03-22T08:53:26.998Z</time></trkpt><trkpt lat="43.250500431779116" lon="11.663761021000907"><ele>287.75</ele><time>2026-03-22T08:53:27.998Z</time></trkpt><trkpt lat="43.25051735710389" lon="11.663934069612552"><ele>287.5</ele><time>2026-03-22T08:53:28.998Z</time></trkpt><trkpt lat="43.25053605784857" lon="11.664110058305353"><ele>287.25</ele><time>2026-03-22T08:53:29.998Z</time></trkpt><trkpt lat="43.25055963608788" lon="11.664302369817682"><ele>287.0</ele><time>2026-03-22T08:53:30.998Z</time></trkpt><trkpt lat="43.25059007914287" lon="11.664499246955774"><ele>289.0</ele><time>2026-03-22T08:53:32Z</time></trkpt><trkpt lat="43.2506304858464" lon="11.664681240915938"><ele>291.0</ele><time>2026-03-22T08:53:33Z</time></trkpt><trkpt lat="43.2506752619095" lon="11.664860535676134"><ele>293.0</ele><time>2026-03-22T08:53:34Z</time></trkpt><trkpt lat="43.250719384002785" lon="11.665033650363656"><ele>295.0</ele><time>2026-03-22T08:53:35Z</time></trkpt><trkpt lat="43.25076226052099" lon="11.665189787029204"><ele>294.25</ele><time>2026-03-22T08:53:36Z</time></trkpt><trkpt lat="43.25080852205473" lon="11.665351834740596"><ele>293.5</ele><time>2026-03-22T08:53:37Z</time></trkpt><trkpt lat="43.25085211116561" lon="11.66551795594439"><ele>292.75</ele><time>2026-03-22T08:53:38Z</time></trkpt><trkpt lat="43.25089398432698" lon="11.665679863283989"><ele>292.0</ele><time>2026-03-22T08:53:39Z</time></trkpt><trkpt lat="43.25093547776454" lon="11.665846851280486"><ele>292.0</ele><time>2026-03-22T08:53:40Z</time></trkpt><trkpt lat="43.25097953016561" lon="11.666015279478664"><ele>292.0</ele><time>2026-03-22T08:53:41Z</time></trkpt><trkpt lat="43.251029519150194" lon="11.66619958734483"><ele>292.0</ele><time>2026-03-22T08:53:42Z</time></trkpt><trkpt lat="43.25107206013827" lon="11.666371917704078"><ele>292.0</ele><time>2026-03-22T08:53:43Z</time></trkpt><trkpt lat="43.25110837775372" lon="11.666538899283323"><ele>290.5</ele><time>2026-03-22T08:53:44Z</time></trkpt><trkpt lat="43.25114922954111" lon="11.666702323752165"><ele>289.0</ele><time>2026-03-22T08:53:45Z</time></trkpt><trkpt lat="43.25119418107409" lon="11.666867308116768"><ele>287.5</ele><time>2026-03-22T08:53:46Z</time></trkpt><trkpt lat="43.25124116733441" lon="11.667045367938371"><ele>286.0</ele><time>2026-03-22T08:53:47Z</time></trkpt><trkpt lat="43.25128092867479" lon="11.66722457521037"><ele>285.75</ele><time>2026-03-22T08:53:48Z</time></trkpt><trkpt lat="43.25131461984672" lon="11.667392072582802"><ele>285.5</ele><time>2026-03-22T08:53:49Z</time></trkpt><trkpt lat="43.25135215903715" lon="11.667551901461728"><ele>285.25</ele><time>2026-03-22T08:53:50Z</time></trkpt><trkpt lat="43.25139596773806" lon="11.667717156051502"><ele>285.0</ele><time>2026-03-22T08:53:51Z</time></trkpt><trkpt lat="43.25144256063112" lon="11.667878862920887"><ele>286.5</ele><time>2026-03-22T08:53:52Z</time></trkpt><trkpt lat="43.2514878135631" lon="11.668042041984217"><ele>288.0</ele><time>2026-03-22T08:53:53Z</time></trkpt><trkpt lat="43.251530768368376" lon="11.66820421846602"><ele>289.5</ele><time>2026-03-22T08:53:54Z</time></trkpt><trkpt lat="43.251573963554996" lon="11.668369486536758"><ele>291.0</ele><time>2026-03-22T08:53:55Z</time></trkpt><trkpt lat="43.251620416176365" lon="11.668531962744705"><ele>289.25</ele><time>2026-03-22T08:53:56Z</time></trkpt><trkpt lat="43.25166910881886" lon="11.668691019505715"><ele>287.5</ele><time>2026-03-22T08:53:57Z</time></trkpt><trkpt lat="43.25172257120991" lon="11.668857372794427"><ele>285.75</ele><time>2026-03-22T08:53:58Z</time></trkpt><trkpt lat="43.25177778316475" lon="11.669033021982543"><ele>284.0</ele><time>2026-03-22T08:53:59Z</time></trkpt><trkpt lat="43.25183192448049" lon="11.669207980966894"><ele>284.0</ele><time>2026-03-22T08:54:00Z</time></trkpt><trkpt lat="43.251881616121295" lon="11.669368056862583"><ele>284.0</ele><time>2026-03-22T08:54:01Z</time></trkpt><trkpt lat="43.25193028023351" lon="11.669526700961464"><ele>284.0</ele><time>2026-03-22T08:54:02Z</time></trkpt><trkpt lat="43.25197949510171" lon="11.669688834724258"><ele>284.0</ele><time>2026-03-22T08:54:03Z</time></trkpt><trkpt lat="43.25202990610508" lon="11.669850239070593"><ele>283.75</ele><time>2026-03-22T08:54:04Z</time></trkpt><trkpt lat="43.25207842606184" lon="11.670014627112964"><ele>283.5</ele><time>2026-03-22T08:54:05Z</time></trkpt><trkpt lat="43.252130222178174" lon="11.670181199129214"><ele>283.25</ele><time>2026-03-22T08:54:06Z</time></trkpt><trkpt lat="43.2521829075185" lon="11.67034874500244"><ele>283.0</ele><time>2026-03-22T08:54:07Z</time></trkpt><trkpt lat="43.25223087604094" lon="11.670509530989879"><ele>283.0</ele><time>2026-03-22T08:54:08Z</time></trkpt><trkpt lat="43.252278146762244" lon="11.670666566966943"><ele>283.0</ele><time>2026-03-22T08:54:09Z</time></trkpt><trkpt lat="43.25232779251612" lon="11.670824914217828"><ele>283.0</ele><time>2026-03-22T08:54:10Z</time></trkpt><trkpt lat="43.25237825414684" lon="11.670982011378511"><ele>283.0</ele><time>2026-03-22T08:54:11Z</time></trkpt><trkpt lat="43.252430081330395" lon="11.671142225150088"><ele>282.75</ele><time>2026-03-22T08:54:11.999Z</time></trkpt><trkpt lat="43.25248093733557" lon="11.671305255006036"><ele>282.5</ele><time>2026-03-22T08:54:12.999Z</time></trkpt><trkpt lat="43.25253061401084" lon="11.67146801298846"><ele>282.25</ele><time>2026-03-22T08:54:13.999Z</time></trkpt><trkpt lat="43.2525845108867" lon="11.671641358411813"><ele>282.0</ele><time>2026-03-22T08:54:14.999Z</time></trkpt><trkpt lat="43.25263875484004" lon="11.67180979186437"><ele>282.0</ele><time>2026-03-22T08:54:15.999Z</time></trkpt><trkpt lat="43.25269080153696" lon="11.671972470641531"><ele>282.0</ele><time>2026-03-22T08:54:16.999Z</time></trkpt><trkpt lat="43.25273676477357" lon="11.67212882828571"><ele>282.0</ele><time>2026-03-22T08:54:17.999Z</time></trkpt><trkpt lat="43.25278128728823" lon="11.67229395710932"><ele>282.0</ele><time>2026-03-22T08:54:18.999Z</time></trkpt><trkpt lat="43.25282079995369" lon="11.67245901959926"><ele>282.0</ele><time>2026-03-22T08:54:19.999Z</time></trkpt><trkpt lat="43.25285823402645" lon="11.672625483443833"><ele>282.0</ele><time>2026-03-22T08:54:20.999Z</time></trkpt><trkpt lat="43.25289521505969" lon="11.67279314893718"><ele>282.0</ele><time>2026-03-22T08:54:21.999Z</time></trkpt><trkpt lat="43.25292457914395" lon="11.67296424510515"><ele>282.0</ele><time>2026-03-22T08:54:22.999Z</time></trkpt><trkpt lat="43.25296095274843" lon="11.673135313522966"><ele>282.0</ele><time>2026-03-22T08:54:23.999Z</time></trkpt><trkpt lat="43.25299602755649" lon="11.673318818611802"><ele>282.0</ele><time>2026-03-22T08:54:24.999Z</time></trkpt><trkpt lat="43.25303053027544" lon="11.67350093817307"><ele>282.0</ele><time>2026-03-22T08:54:25.999Z</time></trkpt><trkpt lat="43.253059837073046" lon="11.673681574464194"><ele>282.0</ele><time>2026-03-22T08:54:26.999Z</time></trkpt><trkpt lat="43.25309420558213" lon="11.67385902006228"><ele>283.0</ele><time>2026-03-22T08:54:27.999Z</time></trkpt><trkpt lat="43.253126699797974" lon="11.674033008565452"><ele>284.0</ele><time>2026-03-22T08:54:28.999Z</time></trkpt><trkpt lat="43.253159601152085" lon="11.67419924165062"><ele>285.0</ele><time>2026-03-22T08:54:29.999Z</time></trkpt><trkpt lat="43.25319429489498" lon="11.674362434026241"><ele>286.0</ele><time>2026-03-22T08:54:30.999Z</time></trkpt><trkpt lat="43.25322994303002" lon="11.674528976201197"><ele>286.0</ele><time>2026-03-22T08:54:31.999Z</time></trkpt><trkpt lat="43.253264809124325" lon="11.674696528304626"><ele>286.0</ele><time>2026-03-22T08:54:32.999Z</time></trkpt><trkpt lat="43.253301210820204" lon="11.674864193034455"><ele>286.0</ele><time>2026-03-22T08:54:33.999Z</time></trkpt><trkpt lat="43.25333765469078" lon="11.675033028937621"><ele>286.0</ele><time>2026-03-22T08:54:34.999Z</time></trkpt><trkpt lat="43.253374077478234" lon="11.675213728327964"><ele>286.25</ele><time>2026-03-22T08:54:35.999Z</time></trkpt><trkpt lat="43.25340934500158" lon="11.675386196472232"><ele>286.5</ele><time>2026-03-22T08:54:36.999Z</time></trkpt><trkpt lat="43.253445254463884" lon="11.675548801751589"><ele>286.75</ele><time>2026-03-22T08:54:37.999Z</time></trkpt><trkpt lat="43.253482011771354" lon="11.675717707912476"><ele>287.0</ele><time>2026-03-22T08:54:38.999Z</time></trkpt><trkpt lat="43.253517510965395" lon="11.675897573336998"><ele>287.0</ele><time>2026-03-22T08:54:39.999Z</time></trkpt><trkpt lat="43.253551093219116" lon="11.676073887829887"><ele>287.0</ele><time>2026-03-22T08:54:40.999Z</time></trkpt><trkpt lat="43.253585344161664" lon="11.676247272272887"><ele>287.0</ele><time>2026-03-22T08:54:41.999Z</time></trkpt><trkpt lat="43.253616051751415" lon="11.676413176448078"><ele>287.0</ele><time>2026-03-22T08:54:42.999Z</time></trkpt><trkpt lat="43.25364586845253" lon="11.676590408326838"><ele>286.75</ele><time>2026-03-22T08:54:43.999Z</time></trkpt><trkpt lat="43.253673510393874" lon="11.676772310481017"><ele>286.5</ele><time>2026-03-22T08:54:44.999Z</time></trkpt><trkpt lat="43.25369378107672" lon="11.676941254394675"><ele>286.25</ele><time>2026-03-22T08:54:45.999Z</time></trkpt><trkpt lat="43.25367633133637" lon="11.677103357510218"><ele>286.0</ele><time>2026-03-22T08:54:46.999Z</time></trkpt><trkpt lat="43.25366811036753" lon="11.677268341868686"><ele>285.75</ele><time>2026-03-22T08:54:47.999Z</time></trkpt><trkpt lat="43.25365560362028" lon="11.677435448692252"><ele>285.5</ele><time>2026-03-22T08:54:48.999Z</time></trkpt><trkpt lat="43.253641496296716" lon="11.677601440987617"><ele>285.25</ele><time>2026-03-22T08:54:49.999Z</time></trkpt><trkpt lat="43.25364436019826" lon="11.677777159425503"><ele>285.0</ele><time>2026-03-22T08:54:50.999Z</time></trkpt><trkpt lat="43.25362802894789" lon="11.677953570866068"><ele>285.0</ele><time>2026-03-22T08:54:51.999Z</time></trkpt><trkpt lat="43.253619136537814" lon="11.678137134924171"><ele>285.0</ele><time>2026-03-22T08:54:52.999Z</time></trkpt><trkpt lat="43.2536015387774" lon="11.678317228710856"><ele>285.0</ele><time>2026-03-22T08:54:53.999Z</time></trkpt><trkpt lat="43.253587975907514" lon="11.678497756279533"><ele>285.0</ele><time>2026-03-22T08:54:54.999Z</time></trkpt><trkpt lat="43.25355880540004" lon="11.678671164714336"><ele>285.0</ele><time>2026-03-22T08:54:55.999Z</time></trkpt><trkpt lat="43.25354428310343" lon="11.678844483262734"><ele>285.0</ele><time>2026-03-22T08:54:56.999Z</time></trkpt><trkpt lat="43.253526750326046" lon="11.679015800551738"><ele>285.0</ele><time>2026-03-22T08:54:57.999Z</time></trkpt><trkpt lat="43.25350004088599" lon="11.679181040200405"><ele>285.0</ele><time>2026-03-22T08:54:58.999Z</time></trkpt><trkpt lat="43.25346326256056" lon="11.67934670285475"><ele>285.25</ele><time>2026-03-22T08:54:59.999Z</time></trkpt><trkpt lat="43.25342390761627" lon="11.679508548432983"><ele>285.5</ele><time>2026-03-22T08:55:00.999Z</time></trkpt><trkpt lat="43.253379240844886" lon="11.6796697485993"><ele>285.75</ele><time>2026-03-22T08:55:01.999Z</time></trkpt><trkpt lat="43.25333658936045" lon="11.679842259316137"><ele>286.0</ele><time>2026-03-22T08:55:02.999Z</time></trkpt><trkpt lat="43.25330870937564" lon="11.680020300517619"><ele>286.0</ele><time>2026-03-22T08:55:03.999Z</time></trkpt><trkpt lat="43.25328897214785" lon="11.68020013143763"><ele>286.0</ele><time>2026-03-22T08:55:04.999Z</time></trkpt><trkpt lat="43.25328144280476" lon="11.680383032239156"><ele>286.0</ele><time>2026-03-22T08:55:05.999Z</time></trkpt><trkpt lat="43.25329176450142" lon="11.680562343380755"><ele>286.0</ele><time>2026-03-22T08:55:06.999Z</time></trkpt><trkpt lat="43.25327958442151" lon="11.680735519047053"><ele>287.25</ele><time>2026-03-22T08:55:07.999Z</time></trkpt><trkpt lat="43.253282999865604" lon="11.680912066431505"><ele>288.5</ele><time>2026-03-22T08:55:08.999Z</time></trkpt><trkpt lat="43.253286121565154" lon="11.681091580199787"><ele>289.75</ele><time>2026-03-22T08:55:09.999Z</time></trkpt><trkpt lat="43.25329302836127" lon="11.681264885586668"><ele>291.0</ele><time>2026-03-22T08:55:10.999Z</time></trkpt><trkpt lat="43.2533074460074" lon="11.6814364670242"><ele>291.0</ele><time>2026-03-22T08:55:11.999Z</time></trkpt><trkpt lat="43.25333342635704" lon="11.681609852964474"><ele>291.0</ele><time>2026-03-22T08:55:12.999Z</time></trkpt><trkpt lat="43.25336247774993" lon="11.681779515941205"><ele>291.0</ele><time>2026-03-22T08:55:13.998Z</time></trkpt><trkpt lat="43.25340273393427" lon="11.68194419521632"><ele>291.0</ele><time>2026-03-22T08:55:14.998Z</time></trkpt><trkpt lat="43.25344957026907" lon="11.682113998097332"><ele>289.75</ele><time>2026-03-22T08:55:15.998Z</time></trkpt><trkpt lat="43.25350004658515" lon="11.682282056493497"><ele>288.5</ele><time>2026-03-22T08:55:16.998Z</time></trkpt><trkpt lat="43.25355996684271" lon="11.682448887497264"><ele>287.25</ele><time>2026-03-22T08:55:17.998Z</time></trkpt><trkpt lat="43.25361877363903" lon="11.682593120366546"><ele>286.0</ele><time>2026-03-22T08:55:18.998Z</time></trkpt><trkpt lat="43.25368275526083" lon="11.682739751787443"><ele>285.0</ele><time>2026-03-22T08:55:19.998Z</time></trkpt><trkpt lat="43.25375178194708" lon="11.682886788649684"><ele>284.0</ele><time>2026-03-22T08:55:20.998Z</time></trkpt><trkpt lat="43.253829012438004" lon="11.683028189787223"><ele>283.0</ele><time>2026-03-22T08:55:21.998Z</time></trkpt><trkpt lat="43.25390472253639" lon="11.683168151619414"><ele>282.0</ele><time>2026-03-22T08:55:22.998Z</time></trkpt><trkpt lat="43.25398248909904" lon="11.68330840666655"><ele>283.0</ele><time>2026-03-22T08:55:23.998Z</time></trkpt><trkpt lat="43.254058788360624" lon="11.683447840788128"><ele>284.0</ele><time>2026-03-22T08:55:24.998Z</time></trkpt><trkpt lat="43.254132961932186" lon="11.683588397757104"><ele>285.0</ele><time>2026-03-22T08:55:25.998Z</time></trkpt><trkpt lat="43.25421045934775" lon="11.68373106116158"><ele>286.0</ele><time>2026-03-22T08:55:26.998Z</time></trkpt><trkpt lat="43.254286290602984" lon="11.6838726280331"><ele>286.0</ele><time>2026-03-22T08:55:27.998Z</time></trkpt><trkpt lat="43.254364086931" lon="11.684013244911577"><ele>286.0</ele><time>2026-03-22T08:55:28.998Z</time></trkpt><trkpt lat="43.25444590125831" lon="11.684151820327468"><ele>286.0</ele><time>2026-03-22T08:55:29.998Z</time></trkpt><trkpt lat="43.25452997210429" lon="11.684289842502972"><ele>286.0</ele><time>2026-03-22T08:55:30.998Z</time></trkpt><trkpt lat="43.254622010606845" lon="11.684419722857994"><ele>286.25</ele><time>2026-03-22T08:55:31.998Z</time></trkpt><trkpt lat="43.254718127620286" lon="11.68454847755345"><ele>286.5</ele><time>2026-03-22T08:55:32.998Z</time></trkpt><trkpt lat="43.25480816632813" lon="11.68469837043805"><ele>286.75</ele><time>2026-03-22T08:55:33.998Z</time></trkpt><trkpt lat="43.25489365253687" lon="11.684857375446082"><ele>287.0</ele><time>2026-03-22T08:55:34.998Z</time></trkpt><trkpt lat="43.25496702866647" lon="11.685016997125361"><ele>287.0</ele><time>2026-03-22T08:55:35.998Z</time></trkpt><trkpt lat="43.25503528136204" lon="11.685173776332165"><ele>287.0</ele><time>2026-03-22T08:55:36.998Z</time></trkpt><trkpt lat="43.255100949069615" lon="11.685326722293317"><ele>287.0</ele><time>2026-03-22T08:55:38Z</time></trkpt><trkpt lat="43.25516446244481" lon="11.685478953383972"><ele>287.0</ele><time>2026-03-22T08:55:39Z</time></trkpt><trkpt lat="43.25522776039347" lon="11.68562987724816"><ele>285.75</ele><time>2026-03-22T08:55:40Z</time></trkpt><trkpt lat="43.25529105567793" lon="11.685782359712347"><ele>284.5</ele><time>2026-03-22T08:55:41Z</time></trkpt><trkpt lat="43.25535649228067" lon="11.68593500131361"><ele>283.25</ele><time>2026-03-22T08:55:42Z</time></trkpt><trkpt lat="43.25541708284986" lon="11.686092490642073"><ele>282.0</ele><time>2026-03-22T08:55:43Z</time></trkpt><trkpt lat="43.25549513138808" lon="11.686246877348289"><ele>282.0</ele><time>2026-03-22T08:55:44Z</time></trkpt><trkpt lat="43.25557800247" lon="11.686399621245226"><ele>282.0</ele><time>2026-03-22T08:55:45Z</time></trkpt><trkpt lat="43.25567743684869" lon="11.686525480197204"><ele>282.0</ele><time>2026-03-22T08:55:46Z</time></trkpt><trkpt lat="43.25578969558135" lon="11.686642454869528"><ele>282.0</ele><time>2026-03-22T08:55:47Z</time></trkpt><trkpt lat="43.25590334985314" lon="11.686750739094043"><ele>281.5</ele><time>2026-03-22T08:55:48Z</time></trkpt><trkpt lat="43.25601660807214" lon="11.686856155174395"><ele>281.0</ele><time>2026-03-22T08:55:49Z</time></trkpt><trkpt lat="43.256128587250835" lon="11.686960599042132"><ele>280.5</ele><time>2026-03-22T08:55:50Z</time></trkpt><trkpt lat="43.256237222426265" lon="11.687074597528714"><ele>280.0</ele><time>2026-03-22T08:55:51Z</time></trkpt><trkpt lat="43.256343946673915" lon="11.687195040075649"><ele>280.0</ele><time>2026-03-22T08:55:52Z</time></trkpt><trkpt lat="43.25644890529198" lon="11.687322502991357"><ele>280.0</ele><time>2026-03-22T08:55:53Z</time></trkpt><trkpt lat="43.256556708368606" lon="11.687459240454686"><ele>280.0</ele><time>2026-03-22T08:55:54Z</time></trkpt><trkpt lat="43.25665403972095" lon="11.687602155104033"><ele>280.0</ele><time>2026-03-22T08:55:55Z</time></trkpt><trkpt lat="43.256738009500125" lon="11.687750993900826"><ele>280.0</ele><time>2026-03-22T08:55:56Z</time></trkpt><trkpt lat="43.25681078361822" lon="11.687899553311878"><ele>280.0</ele><time>2026-03-22T08:55:57Z</time></trkpt><trkpt lat="43.25686745188964" lon="11.688048735052657"><ele>280.0</ele><time>2026-03-22T08:55:58Z</time></trkpt><trkpt lat="43.256908504675266" lon="11.688214701362257"><ele>280.0</ele><time>2026-03-22T08:55:59Z</time></trkpt><trkpt lat="43.2569409633499" lon="11.688365263637923"><ele>280.0</ele><time>2026-03-22T08:56:00Z</time></trkpt><trkpt lat="43.256985887456544" lon="11.688488947812223"><ele>280.0</ele><time>2026-03-22T08:56:01Z</time></trkpt><trkpt lat="43.25705960756074" lon="11.6885865162062"><ele>280.0</ele><time>2026-03-22T08:56:02Z</time></trkpt><trkpt lat="43.257158111468634" lon="11.68864207120677"><ele>280.0</ele><time>2026-03-22T08:56:03Z</time></trkpt><trkpt lat="43.2572710776221" lon="11.688669816301326"><ele>280.0</ele><time>2026-03-22T08:56:04Z</time></trkpt><trkpt lat="43.25738666807761" lon="11.688733784066073"><ele>280.5</ele><time>2026-03-22T08:56:05Z</time></trkpt><trkpt lat="43.257494350312975" lon="11.688836228586338"><ele>281.0</ele><time>2026-03-22T08:56:06Z</time></trkpt><trkpt lat="43.25759801567233" lon="11.688937695073125"><ele>281.5</ele><time>2026-03-22T08:56:07Z</time></trkpt><trkpt lat="43.25770037131815" lon="11.68904042663931"><ele>282.0</ele><time>2026-03-22T08:56:08Z</time></trkpt><trkpt lat="43.257806183234145" lon="11.689139157247295"><ele>282.0</ele><time>2026-03-22T08:56:09Z</time></trkpt><trkpt lat="43.257909018028926" lon="11.689246674526235"><ele>282.0</ele><time>2026-03-22T08:56:10Z</time></trkpt><trkpt lat="43.25798794416872" lon="11.689355955355282"><ele>282.0</ele><time>2026-03-22T08:56:11Z</time></trkpt><trkpt lat="43.2580466315517" lon="11.689496907954585"><ele>282.0</ele><time>2026-03-22T08:56:12Z</time></trkpt><trkpt lat="43.2580668691963" lon="11.689671427044255"><ele>281.25</ele><time>2026-03-22T08:56:13Z</time></trkpt><trkpt lat="43.25807518292919" lon="11.689839080712881"><ele>280.5</ele><time>2026-03-22T08:56:14Z</time></trkpt><trkpt lat="43.25807146711297" lon="11.690007914129563"><ele>279.75</ele><time>2026-03-22T08:56:15Z</time></trkpt><trkpt lat="43.25806412867436" lon="11.690182079821101"><ele>279.0</ele><time>2026-03-22T08:56:16Z</time></trkpt><trkpt lat="43.25805681813378" lon="11.690355583318714"><ele>279.0</ele><time>2026-03-22T08:56:17Z</time></trkpt><trkpt lat="43.258065062000306" lon="11.690529987822302"><ele>279.0</ele><time>2026-03-22T08:56:18Z</time></trkpt><trkpt lat="43.258055709279276" lon="11.690701927001978"><ele>279.0</ele><time>2026-03-22T08:56:19Z</time></trkpt><trkpt lat="43.25805161500736" lon="11.690878568994217"><ele>279.0</ele><time>2026-03-22T08:56:20Z</time></trkpt><trkpt lat="43.25802831372183" lon="11.691068402778999"><ele>279.5</ele><time>2026-03-22T08:56:20.999Z</time></trkpt><trkpt lat="43.25801646780973" lon="11.691263983277013"><ele>280.0</ele><time>2026-03-22T08:56:21.999Z</time></trkpt><trkpt lat="43.257985613263095" lon="11.691440417854846"><ele>280.5</ele><time>2026-03-22T08:56:22.999Z</time></trkpt><trkpt lat="43.25793923437923" lon="11.691605586157866"><ele>281.0</ele><time>2026-03-22T08:56:23.999Z</time></trkpt><trkpt lat="43.25788561286561" lon="11.691763376267913"><ele>281.0</ele><time>2026-03-22T08:56:24.999Z</time></trkpt><trkpt lat="43.25783334030016" lon="11.691921142361002"><ele>281.0</ele><time>2026-03-22T08:56:25.999Z</time></trkpt><trkpt lat="43.257782744320004" lon="11.692084662204136"><ele>281.0</ele><time>2026-03-22T08:56:26.999Z</time></trkpt><trkpt lat="43.257740295711066" lon="11.692257815499655"><ele>281.0</ele><time>2026-03-22T08:56:27.999Z</time></trkpt><trkpt lat="43.25769948478894" lon="11.69243496832438"><ele>281.5</ele><time>2026-03-22T08:56:28.999Z</time></trkpt><trkpt lat="43.2576588861118" lon="11.692611199833433"><ele>282.0</ele><time>2026-03-22T08:56:29.999Z</time></trkpt><trkpt lat="43.25761744894106" lon="11.692791071089184"><ele>282.5</ele><time>2026-03-22T08:56:30.999Z</time></trkpt><trkpt lat="43.25757446938226" lon="11.692968579019215"><ele>283.0</ele><time>2026-03-22T08:56:31.999Z</time></trkpt><trkpt lat="43.2575410632951" lon="11.69314474723369"><ele>283.0</ele><time>2026-03-22T08:56:32.999Z</time></trkpt><trkpt lat="43.257495513144015" lon="11.693308311895501"><ele>283.0</ele><time>2026-03-22T08:56:33.999Z</time></trkpt><trkpt lat="43.25746081989766" lon="11.69347310350709"><ele>283.0</ele><time>2026-03-22T08:56:34.999Z</time></trkpt><trkpt lat="43.2574310541251" lon="11.693641267796082"><ele>283.0</ele><time>2026-03-22T08:56:35.999Z</time></trkpt><trkpt lat="43.25740768979545" lon="11.693816552709777"><ele>283.5</ele><time>2026-03-22T08:56:36.999Z</time></trkpt><trkpt lat="43.25739200032" lon="11.69399612011259"><ele>284.0</ele><time>2026-03-22T08:56:37.999Z</time></trkpt><trkpt lat="43.257381812409825" lon="11.694179313667656"><ele>284.5</ele><time>2026-03-22T08:56:38.999Z</time></trkpt><trkpt lat="43.25737076309751" lon="11.694362776800203"><ele>285.0</ele><time>2026-03-22T08:56:39.999Z</time></trkpt><trkpt lat="43.257339578256385" lon="11.694545647294575"><ele>286.75</ele><time>2026-03-22T08:56:40.999Z</time></trkpt><trkpt lat="43.25734000542349" lon="11.694734193649362"><ele>288.5</ele><time>2026-03-22T08:56:41.999Z</time></trkpt><trkpt lat="43.257324751998645" lon="11.694922767206982"><ele>290.25</ele><time>2026-03-22T08:56:42.999Z</time></trkpt><trkpt lat="43.257320744844755" lon="11.695110375078585"><ele>292.0</ele><time>2026-03-22T08:56:43.999Z</time></trkpt><trkpt lat="43.257320322014856" lon="11.695288810659433"><ele>293.0</ele><time>2026-03-22T08:56:44.999Z</time></trkpt><trkpt lat="43.257301672357336" lon="11.695455485137186"><ele>294.0</ele><time>2026-03-22T08:56:45.999Z</time></trkpt><trkpt lat="43.257308054860374" lon="11.695624370534821"><ele>295.0</ele><time>2026-03-22T08:56:46.999Z</time></trkpt><trkpt lat="43.257302914812186" lon="11.695798644058726"><ele>296.0</ele><time>2026-03-22T08:56:47.999Z</time></trkpt><trkpt lat="43.25729078275444" lon="11.695969379716916"><ele>294.75</ele><time>2026-03-22T08:56:48.999Z</time></trkpt><trkpt lat="43.257286382997904" lon="11.696142305257963"><ele>293.5</ele><time>2026-03-22T08:56:49.999Z</time></trkpt><trkpt lat="43.25728326567929" lon="11.69631522152217"><ele>292.25</ele><time>2026-03-22T08:56:50.999Z</time></trkpt><trkpt lat="43.257277999455425" lon="11.696489776530726"><ele>291.0</ele><time>2026-03-22T08:56:51.999Z</time></trkpt><trkpt lat="43.25727306862303" lon="11.696668404429609"><ele>287.75</ele><time>2026-03-22T08:56:52.999Z</time></trkpt><trkpt lat="43.257271402799645" lon="11.696844409944687"><ele>284.5</ele><time>2026-03-22T08:56:53.999Z</time></trkpt><trkpt lat="43.2572725899684" lon="11.69702031179983"><ele>281.25</ele><time>2026-03-22T08:56:54.999Z</time></trkpt><trkpt lat="43.25727305941716" lon="11.697195294658764"><ele>278.0</ele><time>2026-03-22T08:56:55.999Z</time></trkpt><trkpt lat="43.25728107717162" lon="11.697374208915457"><ele>279.25</ele><time>2026-03-22T08:56:56.999Z</time></trkpt><trkpt lat="43.25728788896425" lon="11.697554804997434"><ele>280.5</ele><time>2026-03-22T08:56:57.999Z</time></trkpt><trkpt lat="43.25728965948902" lon="11.69774528536831"><ele>281.75</ele><time>2026-03-22T08:56:58.999Z</time></trkpt><trkpt lat="43.257292495670235" lon="11.697935656842697"><ele>283.0</ele><time>2026-03-22T08:56:59.999Z</time></trkpt><trkpt lat="43.25729900193468" lon="11.698117866282054"><ele>283.0</ele><time>2026-03-22T08:57:00.999Z</time></trkpt><trkpt lat="43.25729988042893" lon="11.698293257744346"><ele>283.0</ele><time>2026-03-22T08:57:01.999Z</time></trkpt><trkpt lat="43.2573079159286" lon="11.69846373553061"><ele>283.0</ele><time>2026-03-22T08:57:02.999Z</time></trkpt><trkpt lat="43.2573131679888" lon="11.69863839743108"><ele>283.0</ele><time>2026-03-22T08:57:03.999Z</time></trkpt><trkpt lat="43.257314141720414" lon="11.698813978384342"><ele>284.0</ele><time>2026-03-22T08:57:04.999Z</time></trkpt><trkpt lat="43.25731468276078" lon="11.698991552929904"><ele>285.0</ele><time>2026-03-22T08:57:05.999Z</time></trkpt><trkpt lat="43.25731014929102" lon="11.699171077116308"><ele>286.0</ele><time>2026-03-22T08:57:06.999Z</time></trkpt><trkpt lat="43.25730438953441" lon="11.699356788105629"><ele>287.0</ele><time>2026-03-22T08:57:07.999Z</time></trkpt><trkpt lat="43.257292192329686" lon="11.699543753720118"><ele>284.0</ele><time>2026-03-22T08:57:08.999Z</time></trkpt><trkpt lat="43.25727997631137" lon="11.699728796535851"><ele>281.0</ele><time>2026-03-22T08:57:09.999Z</time></trkpt><trkpt lat="43.257267479546876" lon="11.699905124442083"><ele>278.0</ele><time>2026-03-22T08:57:10.999Z</time></trkpt><trkpt lat="43.25725793034637" lon="11.700089797636442"><ele>275.0</ele><time>2026-03-22T08:57:11.999Z</time></trkpt><trkpt lat="43.25725097722002" lon="11.70027466283392"><ele>274.75</ele><time>2026-03-22T08:57:12.999Z</time></trkpt><trkpt lat="43.2572346066959" lon="11.700457289151247"><ele>274.5</ele><time>2026-03-22T08:57:13.999Z</time></trkpt><trkpt lat="43.25722452492295" lon="11.700633167254729"><ele>274.25</ele><time>2026-03-22T08:57:14.999Z</time></trkpt><trkpt lat="43.25721891435671" lon="11.700811926617705"><ele>274.0</ele><time>2026-03-22T08:57:15.999Z</time></trkpt><trkpt lat="43.257203376421856" lon="11.700985775817127"><ele>274.5</ele><time>2026-03-22T08:57:16.999Z</time></trkpt><trkpt lat="43.25719451573436" lon="11.701161057612763"><ele>275.0</ele><time>2026-03-22T08:57:17.999Z</time></trkpt><trkpt lat="43.25718558931559" lon="11.701335001204264"><ele>275.5</ele><time>2026-03-22T08:57:18.999Z</time></trkpt><trkpt lat="43.25717943437897" lon="11.701512022710196"><ele>276.0</ele><time>2026-03-22T08:57:19.999Z</time></trkpt><trkpt lat="43.257174908293806" lon="11.70168469839397"><ele>276.0</ele><time>2026-03-22T08:57:20.999Z</time></trkpt><trkpt lat="43.25716550270359" lon="11.701854470905877"><ele>276.0</ele><time>2026-03-22T08:57:21.999Z</time></trkpt><trkpt lat="43.257163663810616" lon="11.702030235178054"><ele>276.0</ele><time>2026-03-22T08:57:22.999Z</time></trkpt><trkpt lat="43.257154153181105" lon="11.70220349671996"><ele>276.0</ele><time>2026-03-22T08:57:23.999Z</time></trkpt><trkpt lat="43.25715533468684" lon="11.702381685547095"><ele>275.75</ele><time>2026-03-22T08:57:24.998Z</time></trkpt><trkpt lat="43.25715009461282" lon="11.702555664445223"><ele>275.5</ele><time>2026-03-22T08:57:25.998Z</time></trkpt><trkpt lat="43.25715297572118" lon="11.702736934066596"><ele>275.25</ele><time>2026-03-22T08:57:26.998Z</time></trkpt><trkpt lat="43.257151188956264" lon="11.702915263541879"><ele>275.0</ele><time>2026-03-22T08:57:27.998Z</time></trkpt><trkpt lat="43.25714461077732" lon="11.703085495651571"><ele>275.0</ele><time>2026-03-22T08:57:28.998Z</time></trkpt><trkpt lat="43.25714013396423" lon="11.703266982938429"><ele>275.0</ele><time>2026-03-22T08:57:29.998Z</time></trkpt><trkpt lat="43.25713987403184" lon="11.703451474872905"><ele>275.0</ele><time>2026-03-22T08:57:30.998Z</time></trkpt><trkpt lat="43.25714426710017" lon="11.703628192152284"><ele>275.0</ele><time>2026-03-22T08:57:31.998Z</time></trkpt><trkpt lat="43.257127063638464" lon="11.703783970807722"><ele>275.0</ele><time>2026-03-22T08:57:32.998Z</time></trkpt><trkpt lat="43.2571404983277" lon="11.703925833971708"><ele>275.0</ele><time>2026-03-22T08:57:33.998Z</time></trkpt><trkpt lat="43.25713870598787" lon="11.704079999706126"><ele>275.0</ele><time>2026-03-22T08:57:34.998Z</time></trkpt><trkpt lat="43.25714224150391" lon="11.70424931058303"><ele>275.0</ele><time>2026-03-22T08:57:35.998Z</time></trkpt><trkpt lat="43.25714432000603" lon="11.70441733769281"><ele>274.75</ele><time>2026-03-22T08:57:36.998Z</time></trkpt><trkpt lat="43.257147713257375" lon="11.70458813176255"><ele>274.5</ele><time>2026-03-22T08:57:37.998Z</time></trkpt><trkpt lat="43.257150913620144" lon="11.70474879367536"><ele>274.25</ele><time>2026-03-22T08:57:38.998Z</time></trkpt><trkpt lat="43.25715515359854" lon="11.70489993077697"><ele>274.0</ele><time>2026-03-22T08:57:39.998Z</time></trkpt><trkpt lat="43.257128928512856" lon="11.70503681541304"><ele>274.0</ele><time>2026-03-22T08:57:40.998Z</time></trkpt><trkpt lat="43.25712784786672" lon="11.70516015586272"><ele>274.0</ele><time>2026-03-22T08:57:41.998Z</time></trkpt><trkpt lat="43.257126790904024" lon="11.7052730686545"><ele>274.0</ele><time>2026-03-22T08:57:42.998Z</time></trkpt><trkpt lat="43.257125801712704" lon="11.705378741601379"><ele>274.0</ele><time>2026-03-22T08:57:44Z</time></trkpt><trkpt lat="43.25712496933053" lon="11.705467662822148"><ele>274.0</ele><time>2026-03-22T08:57:45Z</time></trkpt><trkpt lat="43.25710764179597" lon="11.705620879592102"><ele>274.0</ele><time>2026-03-22T08:57:47Z</time></trkpt><trkpt lat="43.257086879682376" lon="11.705729915352412"><ele>274.0</ele><time>2026-03-22T08:57:49Z</time></trkpt><trkpt lat="43.25702970610961" lon="11.705774822783129"><ele>274.0</ele><time>2026-03-22T08:57:51Z</time></trkpt><trkpt lat="43.25690127405281" lon="11.705697188928022"><ele>274.0</ele><time>2026-03-22T08:57:57Z</time></trkpt><trkpt lat="43.256824369318466" lon="11.70568684167248"><ele>274.0</ele><time>2026-03-22T08:57:58Z</time></trkpt><trkpt lat="43.25673990588457" lon="11.705746226683196"><ele>274.0</ele><time>2026-03-22T08:57:59Z</time></trkpt><trkpt lat="43.25665301094378" lon="11.705744062023086"><ele>274.0</ele><time>2026-03-22T08:58:00Z</time></trkpt><trkpt lat="43.25655424645736" lon="11.70573717629692"><ele>274.0</ele><time>2026-03-22T08:58:01Z</time></trkpt><trkpt lat="43.2564565088924" lon="11.705724919943437"><ele>274.0</ele><time>2026-03-22T08:58:02Z</time></trkpt><trkpt lat="43.25634520657877" lon="11.705698973208177"><ele>274.0</ele><time>2026-03-22T08:58:03Z</time></trkpt><trkpt lat="43.25623091960603" lon="11.705677003953646"><ele>274.0</ele><time>2026-03-22T08:58:04Z</time></trkpt><trkpt lat="43.25612298613118" lon="11.705667844792805"><ele>274.0</ele><time>2026-03-22T08:58:05Z</time></trkpt><trkpt lat="43.256022123900806" lon="11.705654746173504"><ele>274.0</ele><time>2026-03-22T08:58:06Z</time></trkpt><trkpt lat="43.255933828664446" lon="11.705641985473102"><ele>274.0</ele><time>2026-03-22T08:58:07Z</time></trkpt><trkpt lat="43.255863473974635" lon="11.70565016829901"><ele>274.0</ele><time>2026-03-22T08:58:08Z</time></trkpt><trkpt lat="43.25578363428253" lon="11.705714656418868"><ele>274.0</ele><time>2026-03-22T08:58:10Z</time></trkpt><trkpt lat="43.255759952396886" lon="11.70589442077164"><ele>274.0</ele><time>2026-03-22T08:58:12Z</time></trkpt><trkpt lat="43.25573150741891" lon="11.706060362056139"><ele>274.0</ele><time>2026-03-22T08:58:14Z</time></trkpt><trkpt lat="43.255701065145566" lon="11.706156088891003"><ele>274.0</ele><time>2026-03-22T08:58:15Z</time></trkpt><trkpt lat="43.25565694244694" lon="11.706279959143888"><ele>274.0</ele><time>2026-03-22T08:58:16Z</time></trkpt><trkpt lat="43.255614578554315" lon="11.706418144222162"><ele>274.0</ele><time>2026-03-22T08:58:17Z</time></trkpt><trkpt lat="43.25556843718948" lon="11.706558217365878"><ele>273.8</ele><time>2026-03-22T08:58:18Z</time></trkpt><trkpt lat="43.25551318887614" lon="11.706698094514302"><ele>273.59999999999997</ele><time>2026-03-22T08:58:19Z</time></trkpt><trkpt lat="43.25546029012974" lon="11.70681008747963"><ele>273.4</ele><time>2026-03-22T08:58:20Z</time></trkpt><trkpt lat="43.25541871969032" lon="11.706902351520075"><ele>273.2</ele><time>2026-03-22T08:58:21Z</time></trkpt><trkpt lat="43.25537809693735" lon="11.706999421040408"><ele>273.0</ele><time>2026-03-22T08:58:22Z</time></trkpt><trkpt lat="43.255344582911555" lon="11.70710482041515"><ele>272.6666666666667</ele><time>2026-03-22T08:58:23Z</time></trkpt><trkpt lat="43.25531790437885" lon="11.70721520700243"><ele>272.3333333333333</ele><time>2026-03-22T08:58:24Z</time></trkpt><trkpt lat="43.25529926646295" lon="11.707328730979954"><ele>272.0</ele><time>2026-03-22T08:58:24.999Z</time></trkpt><trkpt lat="43.25529017812656" lon="11.70744303604215"><ele>271.66666666666663</ele><time>2026-03-22T08:58:25.999Z</time></trkpt><trkpt lat="43.25529352513824" lon="11.707570480000308"><ele>271.3333333333333</ele><time>2026-03-22T08:58:26.999Z</time></trkpt><trkpt lat="43.25529768796422" lon="11.707708387377021"><ele>271.0</ele><time>2026-03-22T08:58:27.999Z</time></trkpt><trkpt lat="43.255306403701724" lon="11.707851050451842"><ele>270.8</ele><time>2026-03-22T08:58:28.999Z</time></trkpt><trkpt lat="43.25531513839003" lon="11.707999043961493"><ele>270.6</ele><time>2026-03-22T08:58:29.999Z</time></trkpt><trkpt lat="43.25531932656776" lon="11.708146530660446"><ele>270.4</ele><time>2026-03-22T08:58:30.999Z</time></trkpt><trkpt lat="43.25533312507862" lon="11.708288876043206"><ele>270.2</ele><time>2026-03-22T08:58:31.999Z</time></trkpt><trkpt lat="43.25534778304" lon="11.7084285542178"><ele>270.0</ele><time>2026-03-22T08:58:32.999Z</time></trkpt><trkpt lat="43.25536357342415" lon="11.708570717252682"><ele>270.2</ele><time>2026-03-22T08:58:33.999Z</time></trkpt><trkpt lat="43.25537633113289" lon="11.708707019420714"><ele>270.4</ele><time>2026-03-22T08:58:34.999Z</time></trkpt><trkpt lat="43.25539023531918" lon="11.708840780364909"><ele>270.6</ele><time>2026-03-22T08:58:35.999Z</time></trkpt><trkpt lat="43.255402731012424" lon="11.708983207937381"><ele>270.8</ele><time>2026-03-22T08:58:36.999Z</time></trkpt><trkpt lat="43.25541364188594" lon="11.70913081007381"><ele>271.0</ele><time>2026-03-22T08:58:37.999Z</time></trkpt><trkpt lat="43.25542299244761" lon="11.709280285094586"><ele>271.0</ele><time>2026-03-22T08:58:38.999Z</time></trkpt><trkpt lat="43.25541594467799" lon="11.709436080403668"><ele>271.0</ele><time>2026-03-22T08:58:39.999Z</time></trkpt><trkpt lat="43.2554297909615" lon="11.709593650833924"><ele>271.0</ele><time>2026-03-22T08:58:40.999Z</time></trkpt><trkpt lat="43.25546180409093" lon="11.70974008540739"><ele>271.0</ele><time>2026-03-22T08:58:41.999Z</time></trkpt><trkpt lat="43.255477238671325" lon="11.70988602129037"><ele>271.0</ele><time>2026-03-22T08:58:42.999Z</time></trkpt><trkpt lat="43.255492193078304" lon="11.710032575845887"><ele>271.0</ele><time>2026-03-22T08:58:43.999Z</time></trkpt><trkpt lat="43.255511380012024" lon="11.71017813571296"><ele>271.0</ele><time>2026-03-22T08:58:44.999Z</time></trkpt><trkpt lat="43.255532189842036" lon="11.710323348243259"><ele>271.0</ele><time>2026-03-22T08:58:45.999Z</time></trkpt><trkpt lat="43.25554920715583" lon="11.710458682159297"><ele>271.0</ele><time>2026-03-22T08:58:46.999Z</time></trkpt><trkpt lat="43.25560555972221" lon="11.710565394749263"><ele>271.0</ele><time>2026-03-22T08:58:47.999Z</time></trkpt><trkpt lat="43.255632210415044" lon="11.710677295827315"><ele>270.66666666666663</ele><time>2026-03-22T08:58:48.999Z</time></trkpt><trkpt lat="43.255645423534254" lon="11.710772723864162"><ele>270.3333333333333</ele><time>2026-03-22T08:58:49.999Z</time></trkpt><trkpt lat="43.2556532524411" lon="11.710881161525867"><ele>270.0</ele><time>2026-03-22T08:58:50.999Z</time></trkpt><trkpt lat="43.25565819771868" lon="11.711000834345006"><ele>269.6666666666667</ele><time>2026-03-22T08:58:51.999Z</time></trkpt><trkpt lat="43.25566147044257" lon="11.711127305700492"><ele>269.33333333333337</ele><time>2026-03-22T08:58:52.999Z</time></trkpt><trkpt lat="43.25566083314197" lon="11.711264566699057"><ele>269.0</ele><time>2026-03-22T08:58:53.999Z</time></trkpt><trkpt lat="43.25565000683293" lon="11.711402629952792"><ele>269.0</ele><time>2026-03-22T08:58:54.999Z</time></trkpt><trkpt lat="43.255633920009124" lon="11.711547312132039"><ele>269.0</ele><time>2026-03-22T08:58:55.999Z</time></trkpt><trkpt lat="43.255611494055735" lon="11.711689444259768"><ele>269.0</ele><time>2026-03-22T08:58:56.999Z</time></trkpt><trkpt lat="43.25559600205567" lon="11.711835068763186"><ele>269.0</ele><time>2026-03-22T08:58:57.999Z</time></trkpt><trkpt lat="43.25558046681564" lon="11.711981099713759"><ele>269.0</ele><time>2026-03-22T08:58:58.999Z</time></trkpt><trkpt lat="43.25566943469366" lon="11.712091351887624"><ele>269.33333333333337</ele><time>2026-03-22T08:58:59.999Z</time></trkpt><trkpt lat="43.25549663555969" lon="11.71228210626854"><ele>269.6666666666667</ele><time>2026-03-22T08:59:00.999Z</time></trkpt><trkpt lat="43.25547961801162" lon="11.712441710044386"><ele>270.0</ele><time>2026-03-22T08:59:01.999Z</time></trkpt><trkpt lat="43.255457708134" lon="11.712598458955183"><ele>270.0</ele><time>2026-03-22T08:59:02.999Z</time></trkpt><trkpt lat="43.25543232190363" lon="11.712754165743956"><ele>270.0</ele><time>2026-03-22T08:59:03.999Z</time></trkpt><trkpt lat="43.25540112288076" lon="11.7129033617779"><ele>270.0</ele><time>2026-03-22T08:59:04.999Z</time></trkpt><trkpt lat="43.25536865550158" lon="11.71305070894608"><ele>270.0</ele><time>2026-03-22T08:59:05.999Z</time></trkpt><trkpt lat="43.25533576521326" lon="11.713203781128168"><ele>270.0</ele><time>2026-03-22T08:59:06.999Z</time></trkpt><trkpt lat="43.25530165222901" lon="11.713361249268461"><ele>270.0</ele><time>2026-03-22T08:59:07.999Z</time></trkpt><trkpt lat="43.255267261163745" lon="11.713521544840363"><ele>270.0</ele><time>2026-03-22T08:59:08.999Z</time></trkpt><trkpt lat="43.25523339398953" lon="11.713671837457227"><ele>270.0</ele><time>2026-03-22T08:59:09.999Z</time></trkpt><trkpt lat="43.25519630125279" lon="11.71380679795905"><ele>270.0</ele><time>2026-03-22T08:59:10.999Z</time></trkpt><trkpt lat="43.255157313565334" lon="11.71394959580431"><ele>270.0</ele><time>2026-03-22T08:59:11.999Z</time></trkpt><trkpt lat="43.25511996824988" lon="11.714098160870561"><ele>270.0</ele><time>2026-03-22T08:59:12.999Z</time></trkpt><trkpt lat="43.25508244049987" lon="11.714249303326682"><ele>270.0</ele><time>2026-03-22T08:59:13.999Z</time></trkpt><trkpt lat="43.25504259138552" lon="11.714398868291475"><ele>269.8</ele><time>2026-03-22T08:59:14.999Z</time></trkpt><trkpt lat="43.255005895856286" lon="11.714543513299912"><ele>269.6</ele><time>2026-03-22T08:59:15.999Z</time></trkpt><trkpt lat="43.254969489020304" lon="11.71469113842518"><ele>269.4</ele><time>2026-03-22T08:59:16.999Z</time></trkpt><trkpt lat="43.2549359665989" lon="11.714837996608114"><ele>269.2</ele><time>2026-03-22T08:59:17.999Z</time></trkpt><trkpt lat="43.254905630655706" lon="11.71498060540018"><ele>269.0</ele><time>2026-03-22T08:59:18.999Z</time></trkpt><trkpt lat="43.25487790678425" lon="11.715102575651414"><ele>269.0</ele><time>2026-03-22T08:59:19.999Z</time></trkpt><trkpt lat="43.25485682596928" lon="11.715191718056335"><ele>269.0</ele><time>2026-03-22T08:59:20.999Z</time></trkpt><trkpt lat="43.254803915255835" lon="11.7153049964575"><ele>269.0</ele><time>2026-03-22T08:59:22.999Z</time></trkpt><trkpt lat="43.254739055760204" lon="11.715423632826939"><ele>269.0</ele><time>2026-03-22T08:59:24.999Z</time></trkpt><trkpt lat="43.25471498697244" lon="11.715516725484523"><ele>269.0</ele><time>2026-03-22T08:59:25.999Z</time></trkpt><trkpt lat="43.254690851704694" lon="11.715606800139609"><ele>269.0</ele><time>2026-03-22T08:59:26.999Z</time></trkpt><trkpt lat="43.254672344573024" lon="11.715705383303998"><ele>269.0</ele><time>2026-03-22T08:59:27.999Z</time></trkpt><trkpt lat="43.25466004792308" lon="11.715799850019948"><ele>269.0</ele><time>2026-03-22T08:59:28.998Z</time></trkpt><trkpt lat="43.25465716766424" lon="11.715886952171031"><ele>269.0</ele><time>2026-03-22T08:59:29.998Z</time></trkpt><trkpt lat="43.254659402267" lon="11.715987239304978"><ele>269.0</ele><time>2026-03-22T08:59:30.998Z</time></trkpt><trkpt lat="43.25466440040132" lon="11.716097599334795"><ele>269.0</ele><time>2026-03-22T08:59:31.998Z</time></trkpt><trkpt lat="43.25467627815079" lon="11.716206990049045"><ele>269.0</ele><time>2026-03-22T08:59:32.998Z</time></trkpt><trkpt lat="43.254701257175235" lon="11.716308393698151"><ele>269.0</ele><time>2026-03-22T08:59:33.998Z</time></trkpt><trkpt lat="43.254726062716564" lon="11.71639633214899"><ele>269.0</ele><time>2026-03-22T08:59:34.998Z</time></trkpt><trkpt lat="43.25478231245234" lon="11.716524183692657"><ele>269.0</ele><time>2026-03-22T08:59:36.998Z</time></trkpt><trkpt lat="43.25477139029102" lon="11.716640422477344"><ele>269.0</ele><time>2026-03-22T08:59:38.998Z</time></trkpt><trkpt lat="43.25480441301415" lon="11.716745183780125"><ele>269.0</ele><time>2026-03-22T08:59:40.998Z</time></trkpt><trkpt lat="43.25487334243911" lon="11.716854652570232"><ele>269.0</ele><time>2026-03-22T08:59:42.998Z</time></trkpt><trkpt lat="43.25492185205583" lon="11.717034764687508"><ele>268.75</ele><time>2026-03-22T08:59:44.998Z</time></trkpt><trkpt lat="43.25494173073151" lon="11.717187730053022"><ele>268.5</ele><time>2026-03-22T08:59:45.998Z</time></trkpt><trkpt lat="43.25495943588912" lon="11.717361216960489"><ele>268.25</ele><time>2026-03-22T08:59:46.998Z</time></trkpt><trkpt lat="43.25498266683135" lon="11.71754239559814"><ele>268.0</ele><time>2026-03-22T08:59:47.998Z</time></trkpt><trkpt lat="43.25500393330298" lon="11.7177006590302"><ele>267.6</ele><time>2026-03-22T08:59:48.998Z</time></trkpt><trkpt lat="43.255013600295236" lon="11.717835414591459"><ele>267.20000000000005</ele><time>2026-03-22T08:59:50Z</time></trkpt><trkpt lat="43.255008306726616" lon="11.717962029882605"><ele>266.8</ele><time>2026-03-22T08:59:51Z</time></trkpt><trkpt lat="43.25499016808413" lon="11.718095497207319"><ele>266.40000000000003</ele><time>2026-03-22T08:59:52Z</time></trkpt><trkpt lat="43.25496815793887" lon="11.718234518605442"><ele>266.0</ele><time>2026-03-22T08:59:53Z</time></trkpt><trkpt lat="43.25494531404714" lon="11.718377110793233"><ele>266.0</ele><time>2026-03-22T08:59:54Z</time></trkpt><trkpt lat="43.25492405874557" lon="11.718523657865697"><ele>266.0</ele><time>2026-03-22T08:59:55Z</time></trkpt><trkpt lat="43.25489988483124" lon="11.718672237196555"><ele>266.0</ele><time>2026-03-22T08:59:56Z</time></trkpt><trkpt lat="43.25487774440847" lon="11.718827877565433"><ele>266.0</ele><time>2026-03-22T08:59:57Z</time></trkpt><trkpt lat="43.25485635914435" lon="11.718986222516767"><ele>266.25</ele><time>2026-03-22T08:59:58Z</time></trkpt><trkpt lat="43.25483526355513" lon="11.71913982911126"><ele>266.5</ele><time>2026-03-22T08:59:59Z</time></trkpt><trkpt lat="43.254816329057014" lon="11.719293739304854"><ele>266.75</ele><time>2026-03-22T09:00:00Z</time></trkpt><trkpt lat="43.25484341788022" lon="11.719455599109118"><ele>267.0</ele><time>2026-03-22T09:00:01Z</time></trkpt><trkpt lat="43.25482381399733" lon="11.719600297566117"><ele>267.0</ele><time>2026-03-22T09:00:02Z</time></trkpt><trkpt lat="43.25480160223966" lon="11.719745977677883"><ele>267.0</ele><time>2026-03-22T09:00:03Z</time></trkpt><trkpt lat="43.2547792133231" lon="11.719892819729447"><ele>267.0</ele><time>2026-03-22T09:00:04Z</time></trkpt><trkpt lat="43.25475643070565" lon="11.720042243932289"><ele>267.0</ele><time>2026-03-22T09:00:05Z</time></trkpt><trkpt lat="43.254733573422335" lon="11.720192157866615"><ele>267.0</ele><time>2026-03-22T09:00:06Z</time></trkpt><trkpt lat="43.25471094756276" lon="11.720342507427413"><ele>267.0</ele><time>2026-03-22T09:00:07Z</time></trkpt><trkpt lat="43.25468956489325" lon="11.720497213866018"><ele>267.0</ele><time>2026-03-22T09:00:08Z</time></trkpt><trkpt lat="43.25466824860986" lon="11.720651439956054"><ele>267.0</ele><time>2026-03-22T09:00:09Z</time></trkpt><trkpt lat="43.2546466711614" lon="11.720807555642098"><ele>267.0</ele><time>2026-03-22T09:00:10Z</time></trkpt><trkpt lat="43.25462350017761" lon="11.720965094155797"><ele>267.0</ele><time>2026-03-22T09:00:11Z</time></trkpt><trkpt lat="43.25459724884026" lon="11.72112284442551"><ele>267.0</ele><time>2026-03-22T09:00:12Z</time></trkpt><trkpt lat="43.25456564778416" lon="11.721273692907825"><ele>267.0</ele><time>2026-03-22T09:00:13Z</time></trkpt><trkpt lat="43.2545239940755" lon="11.721420406740236"><ele>267.0</ele><time>2026-03-22T09:00:14Z</time></trkpt><trkpt lat="43.25447396817033" lon="11.721561661299752"><ele>267.0</ele><time>2026-03-22T09:00:15Z</time></trkpt><trkpt lat="43.25440915191639" lon="11.721719400209233"><ele>267.0</ele><time>2026-03-22T09:00:16Z</time></trkpt><trkpt lat="43.254329378232654" lon="11.721856134329334"><ele>267.0</ele><time>2026-03-22T09:00:17Z</time></trkpt><trkpt lat="43.25423363237211" lon="11.72200255917742"><ele>267.0</ele><time>2026-03-22T09:00:18Z</time></trkpt><trkpt lat="43.25413773914777" lon="11.722113558006452"><ele>267.0</ele><time>2026-03-22T09:00:19Z</time></trkpt><trkpt lat="43.25403902882002" lon="11.722217856736787"><ele>267.0</ele><time>2026-03-22T09:00:20Z</time></trkpt><trkpt lat="43.253941145615315" lon="11.722318485956151"><ele>267.0</ele><time>2026-03-22T09:00:21Z</time></trkpt><trkpt lat="43.25383893880204" lon="11.722418858873954"><ele>267.0</ele><time>2026-03-22T09:00:22Z</time></trkpt><trkpt lat="43.253740657647604" lon="11.722515125922436"><ele>266.75</ele><time>2026-03-22T09:00:23Z</time></trkpt><trkpt lat="43.25364348302463" lon="11.722611795328925"><ele>266.5</ele><time>2026-03-22T09:00:24Z</time></trkpt><trkpt lat="43.25354933303872" lon="11.722715001045191"><ele>266.25</ele><time>2026-03-22T09:00:25Z</time></trkpt><trkpt lat="43.253461279041595" lon="11.722827501203941"><ele>266.0</ele><time>2026-03-22T09:00:26Z</time></trkpt><trkpt lat="43.2533802129303" lon="11.722940311796394"><ele>266.0</ele><time>2026-03-22T09:00:27Z</time></trkpt><trkpt lat="43.25329829008162" lon="11.72305885279739"><ele>266.0</ele><time>2026-03-22T09:00:28Z</time></trkpt><trkpt lat="43.25322776616561" lon="11.72317181717172"><ele>266.0</ele><time>2026-03-22T09:00:29Z</time></trkpt><trkpt lat="43.253147990682216" lon="11.723301702095792"><ele>266.0</ele><time>2026-03-22T09:00:30Z</time></trkpt><trkpt lat="43.2530672846864" lon="11.72342944186942"><ele>266.25</ele><time>2026-03-22T09:00:31Z</time></trkpt><trkpt lat="43.25298535757325" lon="11.723559114404718"><ele>266.5</ele><time>2026-03-22T09:00:32Z</time></trkpt><trkpt lat="43.252908405674454" lon="11.723680912268819"><ele>266.75</ele><time>2026-03-22T09:00:32.999Z</time></trkpt><trkpt lat="43.252837301285155" lon="11.723791355786359"><ele>267.0</ele><time>2026-03-22T09:00:33.999Z</time></trkpt><trkpt lat="43.25276395059805" lon="11.723898147369505"><ele>266.6</ele><time>2026-03-22T09:00:34.999Z</time></trkpt><trkpt lat="43.25267633065753" lon="11.72400805739591"><ele>266.2</ele><time>2026-03-22T09:00:35.999Z</time></trkpt><trkpt lat="43.2525812769347" lon="11.72408698149649"><ele>265.8</ele><time>2026-03-22T09:00:36.999Z</time></trkpt><trkpt lat="43.25252491734469" lon="11.724133531052692"><ele>265.4</ele><time>2026-03-22T09:00:37.999Z</time></trkpt><trkpt lat="43.25239079240148" lon="11.7240369668278"><ele>265.0</ele><time>2026-03-22T09:00:38.999Z</time></trkpt><trkpt lat="43.252316901302564" lon="11.723951876477441"><ele>265.2</ele><time>2026-03-22T09:00:42.999Z</time></trkpt><trkpt lat="43.25223029864791" lon="11.723863812012304"><ele>265.4</ele><time>2026-03-22T09:00:44.999Z</time></trkpt><trkpt lat="43.252190236130716" lon="11.723793397347016"><ele>265.6</ele><time>2026-03-22T09:00:45.999Z</time></trkpt><trkpt lat="43.25213662014442" lon="11.723702272522878"><ele>265.8</ele><time>2026-03-22T09:00:46.999Z</time></trkpt><trkpt lat="43.25206943600803" lon="11.72360058447049"><ele>266.0</ele><time>2026-03-22T09:00:47.999Z</time></trkpt><trkpt lat="43.251992155591374" lon="11.723484186300686"><ele>266.0</ele><time>2026-03-22T09:00:48.999Z</time></trkpt><trkpt lat="43.25191139498109" lon="11.723358253767909"><ele>266.0</ele><time>2026-03-22T09:00:49.999Z</time></trkpt><trkpt lat="43.251827116147155" lon="11.723225198414474"><ele>266.0</ele><time>2026-03-22T09:00:50.999Z</time></trkpt><trkpt lat="43.25173666646908" lon="11.723093187257707"><ele>266.0</ele><time>2026-03-22T09:00:51.999Z</time></trkpt><trkpt lat="43.251656004081866" lon="11.722970224891695"><ele>266.0</ele><time>2026-03-22T09:00:52.999Z</time></trkpt><trkpt lat="43.25158776566176" lon="11.722856945638942"><ele>266.0</ele><time>2026-03-22T09:00:53.999Z</time></trkpt><trkpt lat="43.251521343593545" lon="11.722747005191518"><ele>266.0</ele><time>2026-03-22T09:00:54.999Z</time></trkpt><trkpt lat="43.25145069374347" lon="11.722643257357602"><ele>266.0</ele><time>2026-03-22T09:00:55.999Z</time></trkpt><trkpt lat="43.25137148879481" lon="11.72254875051644"><ele>266.0</ele><time>2026-03-22T09:00:56.999Z</time></trkpt><trkpt lat="43.25128430316577" lon="11.722463219526862"><ele>266.2</ele><time>2026-03-22T09:00:57.999Z</time></trkpt><trkpt lat="43.2511873963334" lon="11.722394521436769"><ele>266.40000000000003</ele><time>2026-03-22T09:00:58.999Z</time></trkpt><trkpt lat="43.2510799787337" lon="11.722346403330159"><ele>266.6</ele><time>2026-03-22T09:00:59.999Z</time></trkpt><trkpt lat="43.250967944680184" lon="11.722309068848501"><ele>266.8</ele><time>2026-03-22T09:01:00.999Z</time></trkpt><trkpt lat="43.250859558467255" lon="11.722271601878456"><ele>267.0</ele><time>2026-03-22T09:01:01.999Z</time></trkpt><trkpt lat="43.25076174352973" lon="11.722211859732264"><ele>267.0</ele><time>2026-03-22T09:01:02.999Z</time></trkpt><trkpt lat="43.2506709152968" lon="11.722124603269847"><ele>267.0</ele><time>2026-03-22T09:01:03.999Z</time></trkpt><trkpt lat="43.250591052179544" lon="11.722019472720588"><ele>267.0</ele><time>2026-03-22T09:01:04.999Z</time></trkpt><trkpt lat="43.250521894755856" lon="11.721894491621278"><ele>267.0</ele><time>2026-03-22T09:01:05.999Z</time></trkpt><trkpt lat="43.250460550958245" lon="11.721760272090343"><ele>268.5</ele><time>2026-03-22T09:01:06.999Z</time></trkpt><trkpt lat="43.25040513423743" lon="11.721618259328409"><ele>270.0</ele><time>2026-03-22T09:01:07.999Z</time></trkpt><trkpt lat="43.25034561449517" lon="11.72147829314907"><ele>271.5</ele><time>2026-03-22T09:01:08.999Z</time></trkpt><trkpt lat="43.25030057246212" lon="11.72131719182195"><ele>273.0</ele><time>2026-03-22T09:01:09.999Z</time></trkpt><trkpt lat="43.25023251686898" lon="11.72116917750731"><ele>273.0</ele><time>2026-03-22T09:01:10.999Z</time></trkpt><trkpt lat="43.25016390421138" lon="11.721026255213829"><ele>273.0</ele><time>2026-03-22T09:01:11.999Z</time></trkpt><trkpt lat="43.25008588789956" lon="11.720907503262511"><ele>273.0</ele><time>2026-03-22T09:01:12.999Z</time></trkpt><trkpt lat="43.25003819018132" lon="11.72078674801204"><ele>273.0</ele><time>2026-03-22T09:01:13.999Z</time></trkpt><trkpt lat="43.249989795827595" lon="11.720675366435453"><ele>273.0</ele><time>2026-03-22T09:01:14.999Z</time></trkpt><trkpt lat="43.24993468053782" lon="11.720562381370256"><ele>273.0</ele><time>2026-03-22T09:01:15.999Z</time></trkpt><trkpt lat="43.24988025176494" lon="11.720448358718413"><ele>273.0</ele><time>2026-03-22T09:01:16.999Z</time></trkpt><trkpt lat="43.249813875988934" lon="11.720336253141612"><ele>273.0</ele><time>2026-03-22T09:01:17.999Z</time></trkpt><trkpt lat="43.24974481801645" lon="11.720216327123428"><ele>273.0</ele><time>2026-03-22T09:01:18.999Z</time></trkpt><trkpt lat="43.24964292206927" lon="11.720114648965279"><ele>273.0</ele><time>2026-03-22T09:01:19.999Z</time></trkpt><trkpt lat="43.249541200533805" lon="11.720028516434589"><ele>274.25</ele><time>2026-03-22T09:01:20.999Z</time></trkpt><trkpt lat="43.24944239483251" lon="11.71993648064455"><ele>275.5</ele><time>2026-03-22T09:01:21.999Z</time></trkpt><trkpt lat="43.24933831445541" lon="11.719853119901929"><ele>276.75</ele><time>2026-03-22T09:01:22.999Z</time></trkpt><trkpt lat="43.24926578083274" lon="11.719726691549395"><ele>278.0</ele><time>2026-03-22T09:01:23.999Z</time></trkpt><trkpt lat="43.24920393961037" lon="11.719600863379805"><ele>278.0</ele><time>2026-03-22T09:01:24.999Z</time></trkpt><trkpt lat="43.24914133593037" lon="11.719480295041839"><ele>278.0</ele><time>2026-03-22T09:01:25.999Z</time></trkpt><trkpt lat="43.249098559623164" lon="11.719343723658364"><ele>278.0</ele><time>2026-03-22T09:01:26.999Z</time></trkpt><trkpt lat="43.249031117902454" lon="11.719229167439075"><ele>278.0</ele><time>2026-03-22T09:01:27.999Z</time></trkpt><trkpt lat="43.24896225288978" lon="11.71911721264268"><ele>278.0</ele><time>2026-03-22T09:01:28.999Z</time></trkpt><trkpt lat="43.24888178589909" lon="11.719007597481118"><ele>278.0</ele><time>2026-03-22T09:01:29.999Z</time></trkpt><trkpt lat="43.248787863939455" lon="11.718924493082802"><ele>278.0</ele><time>2026-03-22T09:01:30.999Z</time></trkpt><trkpt lat="43.248697465039136" lon="11.718861853656577"><ele>278.0</ele><time>2026-03-22T09:01:31.999Z</time></trkpt><trkpt lat="43.24860158980549" lon="11.718817906584315"><ele>278.0</ele><time>2026-03-22T09:01:32.999Z</time></trkpt><trkpt lat="43.24852956719733" lon="11.718739244358437"><ele>278.0</ele><time>2026-03-22T09:01:33.999Z</time></trkpt><trkpt lat="43.24848522530737" lon="11.718639157754964"><ele>278.0</ele><time>2026-03-22T09:01:34.999Z</time></trkpt><trkpt lat="43.248442308241174" lon="11.718555589812889"><ele>278.0</ele><time>2026-03-22T09:01:35.999Z</time></trkpt><trkpt lat="43.24834661519848" lon="11.718447846356497"><ele>278.0</ele><time>2026-03-22T09:01:37.998Z</time></trkpt><trkpt lat="43.2482330355226" lon="11.718505875848797"><ele>278.0</ele><time>2026-03-22T09:01:38.998Z</time></trkpt><trkpt lat="43.24814824924262" lon="11.718602941246257"><ele>278.0</ele><time>2026-03-22T09:01:39.998Z</time></trkpt><trkpt lat="43.24806601273409" lon="11.718692388574624"><ele>277.4</ele><time>2026-03-22T09:01:40.998Z</time></trkpt><trkpt lat="43.24798290545406" lon="11.718782918277173"><ele>276.8</ele><time>2026-03-22T09:01:41.998Z</time></trkpt><trkpt lat="43.24790341211799" lon="11.718871018188867"><ele>276.2</ele><time>2026-03-22T09:01:42.998Z</time></trkpt><trkpt lat="43.24782254732577" lon="11.71896569792114"><ele>275.6</ele><time>2026-03-22T09:01:43.998Z</time></trkpt><trkpt lat="43.24773964145253" lon="11.719074131648167"><ele>275.0</ele><time>2026-03-22T09:01:44.998Z</time></trkpt><trkpt lat="43.24767512553004" lon="11.719198894412429"><ele>275.0</ele><time>2026-03-22T09:01:45.998Z</time></trkpt><trkpt lat="43.247616239914265" lon="11.71931592814041"><ele>275.0</ele><time>2026-03-22T09:01:46.998Z</time></trkpt><trkpt lat="43.247556760802865" lon="11.719438727080473"><ele>275.0</ele><time>2026-03-22T09:01:47.998Z</time></trkpt><trkpt lat="43.247494136382365" lon="11.719565328250834"><ele>275.0</ele><time>2026-03-22T09:01:48.998Z</time></trkpt><trkpt lat="43.247427901169" lon="11.719691888935678"><ele>275.0</ele><time>2026-03-22T09:01:49.998Z</time></trkpt><trkpt lat="43.24736927478241" lon="11.719794662835495"><ele>275.0</ele><time>2026-03-22T09:01:50.998Z</time></trkpt><trkpt lat="43.24730812174946" lon="11.719874242098392"><ele>275.0</ele><time>2026-03-22T09:01:51.998Z</time></trkpt><trkpt lat="43.24723232240819" lon="11.719946000850705"><ele>275.0</ele><time>2026-03-22T09:01:52.998Z</time></trkpt><trkpt lat="43.24714813787166" lon="11.719988240580824"><ele>275.0</ele><time>2026-03-22T09:01:53.998Z</time></trkpt><trkpt lat="43.24706460555015" lon="11.720007737777152"><ele>275.0</ele><time>2026-03-22T09:01:54.998Z</time></trkpt><trkpt lat="43.24699239289218" lon="11.719947160498121"><ele>275.0</ele><time>2026-03-22T09:01:56Z</time></trkpt><trkpt lat="43.2468809861144" lon="11.719923775241424"><ele>275.0</ele><time>2026-03-22T09:01:57Z</time></trkpt><trkpt lat="43.24677283951409" lon="11.719906757210973"><ele>275.0</ele><time>2026-03-22T09:01:58Z</time></trkpt><trkpt lat="43.24667668462205" lon="11.719904590362809"><ele>275.0</ele><time>2026-03-22T09:01:59Z</time></trkpt><trkpt lat="43.24656988835707" lon="11.719931821972919"><ele>275.0</ele><time>2026-03-22T09:02:00Z</time></trkpt><trkpt lat="43.24647237153867" lon="11.719992084673931"><ele>275.0</ele><time>2026-03-22T09:02:01Z</time></trkpt><trkpt lat="43.246355993546835" lon="11.720099590798577"><ele>275.0</ele><time>2026-03-22T09:02:02Z</time></trkpt><trkpt lat="43.2462515105718" lon="11.720194952752644"><ele>275.0</ele><time>2026-03-22T09:02:03Z</time></trkpt><trkpt lat="43.24613679555213" lon="11.720296034085642"><ele>275.0</ele><time>2026-03-22T09:02:04Z</time></trkpt><trkpt lat="43.24602321292664" lon="11.720394899454035"><ele>275.0</ele><time>2026-03-22T09:02:05Z</time></trkpt><trkpt lat="43.24591494396635" lon="11.720489139655417"><ele>275.0</ele><time>2026-03-22T09:02:06Z</time></trkpt><trkpt lat="43.245820257458725" lon="11.720571557339124"><ele>275.0</ele><time>2026-03-22T09:02:07Z</time></trkpt><trkpt lat="43.24573045937282" lon="11.720649253889178"><ele>275.0</ele><time>2026-03-22T09:02:08Z</time></trkpt><trkpt lat="43.245645983196866" lon="11.720721589371033"><ele>275.0</ele><time>2026-03-22T09:02:09Z</time></trkpt><trkpt lat="43.245548042112254" lon="11.72080545461381"><ele>275.0</ele><time>2026-03-22T09:02:10Z</time></trkpt><trkpt lat="43.245458418334536" lon="11.720881107470477"><ele>275.0</ele><time>2026-03-22T09:02:11Z</time></trkpt><trkpt lat="43.24536985361625" lon="11.72095521997387"><ele>275.0</ele><time>2026-03-22T09:02:12Z</time></trkpt><trkpt lat="43.245273304438285" lon="11.721036014025392"><ele>275.0</ele><time>2026-03-22T09:02:13Z</time></trkpt><trkpt lat="43.24517689400192" lon="11.721116591747068"><ele>275.0</ele><time>2026-03-22T09:02:14Z</time></trkpt><trkpt lat="43.24507679289126" lon="11.721199772887088"><ele>275.0</ele><time>2026-03-22T09:02:15Z</time></trkpt><trkpt lat="43.24497168591416" lon="11.721286604332557"><ele>274.6</ele><time>2026-03-22T09:02:16Z</time></trkpt><trkpt lat="43.24487007722528" lon="11.721369417144446"><ele>274.2</ele><time>2026-03-22T09:02:17Z</time></trkpt><trkpt lat="43.24477132123833" lon="11.721445036572312"><ele>273.8</ele><time>2026-03-22T09:02:18Z</time></trkpt><trkpt lat="43.24467392188132" lon="11.721515813829894"><ele>273.4</ele><time>2026-03-22T09:02:19Z</time></trkpt><trkpt lat="43.24458398930787" lon="11.721583068562648"><ele>273.0</ele><time>2026-03-22T09:02:20Z</time></trkpt><trkpt lat="43.24450164504192" lon="11.721648439363792"><ele>273.0</ele><time>2026-03-22T09:02:21Z</time></trkpt><trkpt lat="43.24442133833582" lon="11.721713616933704"><ele>273.0</ele><time>2026-03-22T09:02:22Z</time></trkpt><trkpt lat="43.24434343687428" lon="11.72177872751388"><ele>273.0</ele><time>2026-03-22T09:02:23Z</time></trkpt><trkpt lat="43.24427587896223" lon="11.721837990522634"><ele>273.0</ele><time>2026-03-22T09:02:24Z</time></trkpt><trkpt lat="43.24420016958417" lon="11.721918713957844"><ele>273.0</ele><time>2026-03-22T09:02:25Z</time></trkpt><trkpt lat="43.244120679439085" lon="11.72200942357634"><ele>273.25</ele><time>2026-03-22T09:02:26Z</time></trkpt><trkpt lat="43.24403412124508" lon="11.722106722980149"><ele>273.5</ele><time>2026-03-22T09:02:27Z</time></trkpt><trkpt lat="43.24394214601733" lon="11.722207398548974"><ele>273.75</ele><time>2026-03-22T09:02:28Z</time></trkpt><trkpt lat="43.243839456266656" lon="11.722309564982737"><ele>274.0</ele><time>2026-03-22T09:02:29Z</time></trkpt><trkpt lat="43.24373577805109" lon="11.722402702577641"><ele>273.25</ele><time>2026-03-22T09:02:30Z</time></trkpt><trkpt lat="43.243638172063044" lon="11.722486290410142"><ele>272.5</ele><time>2026-03-22T09:02:31Z</time></trkpt><trkpt lat="43.24353914728675" lon="11.722567913449204"><ele>271.75</ele><time>2026-03-22T09:02:32Z</time></trkpt><trkpt lat="43.24343119548502" lon="11.722655248353083"><ele>271.0</ele><time>2026-03-22T09:02:33Z</time></trkpt><trkpt lat="43.243323237164525" lon="11.722740570821427"><ele>270.75</ele><time>2026-03-22T09:02:34Z</time></trkpt><trkpt lat="43.243219566804754" lon="11.722818984988185"><ele>270.5</ele><time>2026-03-22T09:02:35Z</time></trkpt><trkpt lat="43.24312079147354" lon="11.722891067902253"><ele>270.25</ele><time>2026-03-22T09:02:36Z</time></trkpt><trkpt lat="43.243020691756946" lon="11.722960909186137"><ele>270.0</ele><time>2026-03-22T09:02:37Z</time></trkpt><trkpt lat="43.24292214445704" lon="11.723026134235305"><ele>270.0</ele><time>2026-03-22T09:02:38Z</time></trkpt><trkpt lat="43.242816249887376" lon="11.723094437476032"><ele>270.0</ele><time>2026-03-22T09:02:39Z</time></trkpt><trkpt lat="43.24271029856763" lon="11.72316148354396"><ele>270.0</ele><time>2026-03-22T09:02:40Z</time></trkpt><trkpt lat="43.24261334092319" lon="11.723222779467108"><ele>270.0</ele><time>2026-03-22T09:02:41Z</time></trkpt><trkpt lat="43.24251772111947" lon="11.723281890920601"><ele>270.0</ele><time>2026-03-22T09:02:42Z</time></trkpt><trkpt lat="43.24242200123655" lon="11.723342610912415"><ele>270.0</ele><time>2026-03-22T09:02:43Z</time></trkpt><trkpt lat="43.242327503941766" lon="11.723411520881939"><ele>270.0</ele><time>2026-03-22T09:02:43.999Z</time></trkpt><trkpt lat="43.24223717080005" lon="11.723488935088184"><ele>270.0</ele><time>2026-03-22T09:02:44.999Z</time></trkpt><trkpt lat="43.24214129819555" lon="11.723572876635966"><ele>270.0</ele><time>2026-03-22T09:02:45.999Z</time></trkpt><trkpt lat="43.242043232176066" lon="11.723654392498405"><ele>270.0</ele><time>2026-03-22T09:02:46.999Z</time></trkpt><trkpt lat="43.24194638048825" lon="11.723730003700846"><ele>269.8</ele><time>2026-03-22T09:02:47.999Z</time></trkpt><trkpt lat="43.241850196705514" lon="11.723802339331563"><ele>269.6</ele><time>2026-03-22T09:02:48.999Z</time></trkpt><trkpt lat="43.2417519126223" lon="11.723874374029648"><ele>269.4</ele><time>2026-03-22T09:02:49.999Z</time></trkpt><trkpt lat="43.24164957895243" lon="11.723948427892724"><ele>269.2</ele><time>2026-03-22T09:02:50.999Z</time></trkpt><trkpt lat="43.24155452500275" lon="11.724019334571091"><ele>269.0</ele><time>2026-03-22T09:02:51.999Z</time></trkpt><trkpt lat="43.24146706427844" lon="11.724086293524687"><ele>269.0</ele><time>2026-03-22T09:02:52.999Z</time></trkpt><trkpt lat="43.24137257154593" lon="11.724123211852724"><ele>269.0</ele><time>2026-03-22T09:02:53.999Z</time></trkpt><trkpt lat="43.24127061817843" lon="11.724131663105473"><ele>269.0</ele><time>2026-03-22T09:02:54.999Z</time></trkpt><trkpt lat="43.241151271309434" lon="11.72417106106132"><ele>269.0</ele><time>2026-03-22T09:02:55.999Z</time></trkpt><trkpt lat="43.241044693448046" lon="11.724244759782684"><ele>269.0</ele><time>2026-03-22T09:02:56.999Z</time></trkpt><trkpt lat="43.24093856578332" lon="11.72431955729425"><ele>268.75</ele><time>2026-03-22T09:02:57.999Z</time></trkpt><trkpt lat="43.240831551540374" lon="11.724396898077778"><ele>268.5</ele><time>2026-03-22T09:02:58.999Z</time></trkpt><trkpt lat="43.24072050588896" lon="11.724477152416762"><ele>268.25</ele><time>2026-03-22T09:02:59.999Z</time></trkpt><trkpt lat="43.24060823391775" lon="11.724555876315808"><ele>268.0</ele><time>2026-03-22T09:03:00.999Z</time></trkpt><trkpt lat="43.24049677792187" lon="11.724632728717111"><ele>268.0</ele><time>2026-03-22T09:03:01.999Z</time></trkpt><trkpt lat="43.24038683730557" lon="11.72470853620459"><ele>268.0</ele><time>2026-03-22T09:03:02.999Z</time></trkpt><trkpt lat="43.240278118766575" lon="11.724783501041498"><ele>268.0</ele><time>2026-03-22T09:03:03.999Z</time></trkpt><trkpt lat="43.2401681506858" lon="11.724859327464047"><ele>268.0</ele><time>2026-03-22T09:03:04.999Z</time></trkpt><trkpt lat="43.240060260939856" lon="11.724933720808815"><ele>268.0</ele><time>2026-03-22T09:03:05.999Z</time></trkpt><trkpt lat="43.239953174655355" lon="11.725005792841948"><ele>268.0</ele><time>2026-03-22T09:03:06.999Z</time></trkpt><trkpt lat="43.23985100017842" lon="11.725073641347993"><ele>268.0</ele><time>2026-03-22T09:03:07.999Z</time></trkpt><trkpt lat="43.23974769538454" lon="11.725141215929208"><ele>268.0</ele><time>2026-03-22T09:03:08.999Z</time></trkpt><trkpt lat="43.23963873433485" lon="11.72521249042586"><ele>268.0</ele><time>2026-03-22T09:03:09.999Z</time></trkpt><trkpt lat="43.23952755890011" lon="11.72528502039122"><ele>268.0</ele><time>2026-03-22T09:03:10.999Z</time></trkpt><trkpt lat="43.23941397902437" lon="11.725358840836485"><ele>268.0</ele><time>2026-03-22T09:03:11.999Z</time></trkpt><trkpt lat="43.239300612134095" lon="11.725432521542496"><ele>268.0</ele><time>2026-03-22T09:03:12.999Z</time></trkpt><trkpt lat="43.2391879390094" lon="11.72550575117977"><ele>268.0</ele><time>2026-03-22T09:03:13.999Z</time></trkpt><trkpt lat="43.23907398459742" lon="11.725579813489965"><ele>268.0</ele><time>2026-03-22T09:03:14.999Z</time></trkpt><trkpt lat="43.23895872532512" lon="11.725655836524219"><ele>268.0</ele><time>2026-03-22T09:03:15.999Z</time></trkpt><trkpt lat="43.238847957083706" lon="11.725730686345718"><ele>268.0</ele><time>2026-03-22T09:03:16.999Z</time></trkpt><trkpt lat="43.238738200366555" lon="11.725804852711956"><ele>268.25</ele><time>2026-03-22T09:03:17.999Z</time></trkpt><trkpt lat="43.2386278316384" lon="11.725879432610759"><ele>268.5</ele><time>2026-03-22T09:03:18.999Z</time></trkpt><trkpt lat="43.23851689010053" lon="11.725948791798904"><ele>268.75</ele><time>2026-03-22T09:03:19.999Z</time></trkpt><trkpt lat="43.238403133222256" lon="11.726018702518202"><ele>269.0</ele><time>2026-03-22T09:03:20.999Z</time></trkpt><trkpt lat="43.23829734979576" lon="11.726084549207481"><ele>268.75</ele><time>2026-03-22T09:03:21.999Z</time></trkpt><trkpt lat="43.23819108948431" lon="11.726152519494402"><ele>268.5</ele><time>2026-03-22T09:03:22.999Z</time></trkpt><trkpt lat="43.23808230139307" lon="11.726224470990624"><ele>268.25</ele><time>2026-03-22T09:03:23.999Z</time></trkpt><trkpt lat="43.237974374965" lon="11.726295852567722"><ele>268.0</ele><time>2026-03-22T09:03:24.999Z</time></trkpt><trkpt lat="43.23786691748758" lon="11.726367188513938"><ele>268.0</ele><time>2026-03-22T09:03:25.999Z</time></trkpt><trkpt lat="43.23775768051369" lon="11.726439823565979"><ele>268.0</ele><time>2026-03-22T09:03:26.999Z</time></trkpt><trkpt lat="43.23765467601254" lon="11.72650831446355"><ele>268.0</ele><time>2026-03-22T09:03:27.999Z</time></trkpt><trkpt lat="43.23755008076518" lon="11.726577863038164"><ele>268.0</ele><time>2026-03-22T09:03:28.999Z</time></trkpt><trkpt lat="43.23744511618023" lon="11.726646394785957"><ele>268.0</ele><time>2026-03-22T09:03:29.999Z</time></trkpt><trkpt lat="43.23733673147718" lon="11.726715975538152"><ele>268.0</ele><time>2026-03-22T09:03:30.999Z</time></trkpt><trkpt lat="43.23723097511451" lon="11.726795755061358"><ele>268.0</ele><time>2026-03-22T09:03:31.999Z</time></trkpt><trkpt lat="43.237131022702634" lon="11.726892563839625"><ele>268.0</ele><time>2026-03-22T09:03:32.999Z</time></trkpt><trkpt lat="43.237045633360786" lon="11.727033017726507"><ele>268.0</ele><time>2026-03-22T09:03:33.999Z</time></trkpt><trkpt lat="43.236976598643935" lon="11.727173219003824"><ele>268.0</ele><time>2026-03-22T09:03:34.999Z</time></trkpt><trkpt lat="43.2369144964893" lon="11.727321865394615"><ele>268.0</ele><time>2026-03-22T09:03:35.999Z</time></trkpt><trkpt lat="43.236860982235804" lon="11.727474948774615"><ele>268.0</ele><time>2026-03-22T09:03:36.999Z</time></trkpt><trkpt lat="43.2368162785896" lon="11.727633207004317"><ele>268.0</ele><time>2026-03-22T09:03:37.999Z</time></trkpt><trkpt lat="43.2367713142326" lon="11.72779204697583"><ele>268.0</ele><time>2026-03-22T09:03:38.999Z</time></trkpt><trkpt lat="43.23672482145378" lon="11.727955366014855"><ele>268.0</ele><time>2026-03-22T09:03:39.999Z</time></trkpt><trkpt lat="43.2366801598766" lon="11.728100516232573"><ele>268.0</ele><time>2026-03-22T09:03:40.999Z</time></trkpt><trkpt lat="43.236637094226346" lon="11.72822874533979"><ele>268.0</ele><time>2026-03-22T09:03:41.999Z</time></trkpt><trkpt lat="43.236590215284316" lon="11.72833012801192"><ele>268.0</ele><time>2026-03-22T09:03:42.999Z</time></trkpt><trkpt lat="43.23654972663153" lon="11.728403299965624"><ele>268.0</ele><time>2026-03-22T09:03:43.999Z</time></trkpt><trkpt lat="43.23645675317358" lon="11.72853676514058"><ele>268.0</ele><time>2026-03-22T09:03:45.999Z</time></trkpt><trkpt lat="43.23637654867541" lon="11.728567167312093"><ele>268.0</ele><time>2026-03-22T09:03:46.999Z</time></trkpt><trkpt lat="43.2362760558972" lon="11.72862252293563"><ele>268.0</ele><time>2026-03-22T09:03:47.999Z</time></trkpt><trkpt lat="43.23616239880948" lon="11.728680215037791"><ele>268.0</ele><time>2026-03-22T09:03:48.999Z</time></trkpt><trkpt lat="43.23604094793014" lon="11.728729905349827"><ele>268.0</ele><time>2026-03-22T09:03:49.998Z</time></trkpt><trkpt lat="43.23591338607814" lon="11.728769716903956"><ele>268.0</ele><time>2026-03-22T09:03:50.998Z</time></trkpt><trkpt lat="43.23578718138026" lon="11.728793840178707"><ele>268.0</ele><time>2026-03-22T09:03:51.998Z</time></trkpt><trkpt lat="43.23566510914824" lon="11.728810129648537"><ele>268.0</ele><time>2026-03-22T09:03:52.998Z</time></trkpt><trkpt lat="43.23553895698587" lon="11.728820307394308"><ele>268.0</ele><time>2026-03-22T09:03:53.998Z</time></trkpt><trkpt lat="43.23540192133464" lon="11.728832558112805"><ele>268.0</ele><time>2026-03-22T09:03:54.998Z</time></trkpt><trkpt lat="43.23525981415149" lon="11.728864353680988"><ele>268.5</ele><time>2026-03-22T09:03:55.998Z</time></trkpt><trkpt lat="43.23513189821144" lon="11.72889549165126"><ele>269.0</ele><time>2026-03-22T09:03:56.998Z</time></trkpt><trkpt lat="43.2350192420003" lon="11.728924232134787"><ele>269.5</ele><time>2026-03-22T09:03:57.998Z</time></trkpt><trkpt lat="43.23491522183134" lon="11.72895421794007"><ele>270.0</ele><time>2026-03-22T09:03:58.998Z</time></trkpt><trkpt lat="43.234806270985985" lon="11.729000042792602"><ele>270.5</ele><time>2026-03-22T09:03:59.998Z</time></trkpt><trkpt lat="43.234691958126135" lon="11.729062078844443"><ele>271.0</ele><time>2026-03-22T09:04:00.998Z</time></trkpt><trkpt lat="43.23458898074088" lon="11.729139969560494"><ele>271.5</ele><time>2026-03-22T09:04:02Z</time></trkpt><trkpt lat="43.234498904261024" lon="11.72922658635178"><ele>272.0</ele><time>2026-03-22T09:04:03Z</time></trkpt><trkpt lat="43.23441413232141" lon="11.729311040447877"><ele>272.0</ele><time>2026-03-22T09:04:04Z</time></trkpt><trkpt lat="43.234339704015625" lon="11.729389349878666"><ele>272.0</ele><time>2026-03-22T09:04:05Z</time></trkpt><trkpt lat="43.234277813026125" lon="11.729452229098042"><ele>272.0</ele><time>2026-03-22T09:04:06Z</time></trkpt><trkpt lat="43.234214705861696" lon="11.729512785521548"><ele>272.0</ele><time>2026-03-22T09:04:07Z</time></trkpt><trkpt lat="43.23414687366262" lon="11.729577677187587"><ele>272.0</ele><time>2026-03-22T09:04:08Z</time></trkpt><trkpt lat="43.23407109019128" lon="11.729644264960875"><ele>272.0</ele><time>2026-03-22T09:04:09Z</time></trkpt><trkpt lat="43.233982418225715" lon="11.729715660585498"><ele>271.5</ele><time>2026-03-22T09:04:10Z</time></trkpt><trkpt lat="43.23388148510404" lon="11.729776398939606"><ele>271.0</ele><time>2026-03-22T09:04:11Z</time></trkpt><trkpt lat="43.233769488800874" lon="11.729838939789744"><ele>270.5</ele><time>2026-03-22T09:04:12Z</time></trkpt><trkpt lat="43.23366088202687" lon="11.729894819367152"><ele>270.0</ele><time>2026-03-22T09:04:13Z</time></trkpt><trkpt lat="43.23355115547857" lon="11.729938690738853"><ele>270.0</ele><time>2026-03-22T09:04:14Z</time></trkpt><trkpt lat="43.23344585531247" lon="11.729963916171997"><ele>270.0</ele><time>2026-03-22T09:04:15Z</time></trkpt><trkpt lat="43.2333433954976" lon="11.729979152018668"><ele>270.0</ele><time>2026-03-22T09:04:16Z</time></trkpt><trkpt lat="43.23324494879374" lon="11.729987921866666"><ele>270.0</ele><time>2026-03-22T09:04:17Z</time></trkpt><trkpt lat="43.23314196646897" lon="11.72998977412534"><ele>270.0</ele><time>2026-03-22T09:04:18Z</time></trkpt><trkpt lat="43.23302810807258" lon="11.72997930483986"><ele>270.0</ele><time>2026-03-22T09:04:19Z</time></trkpt><trkpt lat="43.23292653781784" lon="11.729945163458765"><ele>270.0</ele><time>2026-03-22T09:04:20Z</time></trkpt><trkpt lat="43.23282851310878" lon="11.729914347585174"><ele>270.0</ele><time>2026-03-22T09:04:21Z</time></trkpt><trkpt lat="43.232741335448864" lon="11.72989174858224"><ele>270.0</ele><time>2026-03-22T09:04:22Z</time></trkpt><trkpt lat="43.23264676447222" lon="11.729881967960747"><ele>270.0</ele><time>2026-03-22T09:04:23Z</time></trkpt><trkpt lat="43.2325339132775" lon="11.729920556507095"><ele>270.0</ele><time>2026-03-22T09:04:24Z</time></trkpt><trkpt lat="43.23242228201043" lon="11.730009222775958"><ele>270.0</ele><time>2026-03-22T09:04:25Z</time></trkpt><trkpt lat="43.232314659916405" lon="11.730083139754155"><ele>270.0</ele><time>2026-03-22T09:04:26Z</time></trkpt><trkpt lat="43.23220247115952" lon="11.730162759345031"><ele>270.0</ele><time>2026-03-22T09:04:27Z</time></trkpt><trkpt lat="43.23209313542109" lon="11.730240355145346"><ele>269.5</ele><time>2026-03-22T09:04:28Z</time></trkpt><trkpt lat="43.23199199797395" lon="11.73031135210098"><ele>269.0</ele><time>2026-03-22T09:04:29Z</time></trkpt><trkpt lat="43.23189606177935" lon="11.730378819282555"><ele>268.5</ele><time>2026-03-22T09:04:30Z</time></trkpt><trkpt lat="43.23179075518089" lon="11.730452122466396"><ele>268.0</ele><time>2026-03-22T09:04:31Z</time></trkpt><trkpt lat="43.231692162383126" lon="11.730520752169829"><ele>268.0</ele><time>2026-03-22T09:04:32Z</time></trkpt><trkpt lat="43.23159652308278" lon="11.730587325992126"><ele>268.0</ele><time>2026-03-22T09:04:33Z</time></trkpt><trkpt lat="43.23152192420425" lon="11.730639253707006"><ele>268.0</ele><time>2026-03-22T09:04:34Z</time></trkpt><trkpt lat="43.231456639571164" lon="11.730684697844564"><ele>268.0</ele><time>2026-03-22T09:04:35Z</time></trkpt><trkpt lat="43.23139154672139" lon="11.73072965952113"><ele>268.0</ele><time>2026-03-22T09:04:36Z</time></trkpt><trkpt lat="43.23130397510075" lon="11.730765964643494"><ele>268.0</ele><time>2026-03-22T09:04:38Z</time></trkpt><trkpt lat="43.23124000002745" lon="11.730729920538543"><ele>267.75</ele><time>2026-03-22T09:04:40Z</time></trkpt><trkpt lat="43.23118292033261" lon="11.730586447230541"><ele>267.5</ele><time>2026-03-22T09:04:42Z</time></trkpt><trkpt lat="43.23113894747788" lon="11.73047043486976"><ele>267.25</ele><time>2026-03-22T09:04:44Z</time></trkpt><trkpt lat="43.23110065278305" lon="11.730384067697337"><ele>267.0</ele><time>2026-03-22T09:04:47.999Z</time></trkpt><trkpt lat="43.2309348851667" lon="11.730429961011065"><ele>267.0</ele><time>2026-03-22T09:04:48.999Z</time></trkpt><trkpt lat="43.230863483148106" lon="11.730485285523134"><ele>267.0</ele><time>2026-03-22T09:04:49.999Z</time></trkpt><trkpt lat="43.23078713959164" lon="11.730544917925707"><ele>267.0</ele><time>2026-03-22T09:04:50.999Z</time></trkpt><trkpt lat="43.2307219961845" lon="11.730656696712563"><ele>267.0</ele><time>2026-03-22T09:04:51.999Z</time></trkpt><trkpt lat="43.23063249713763" lon="11.73073620718095"><ele>267.0</ele><time>2026-03-22T09:04:52.999Z</time></trkpt><trkpt lat="43.23054108472693" lon="11.730817401143513"><ele>267.2</ele><time>2026-03-22T09:04:53.999Z</time></trkpt><trkpt lat="43.23044065461601" lon="11.730901861606892"><ele>267.4</ele><time>2026-03-22T09:04:54.999Z</time></trkpt><trkpt lat="43.230349845449226" lon="11.730996491989584"><ele>267.6</ele><time>2026-03-22T09:04:55.999Z</time></trkpt><trkpt lat="43.230267338215896" lon="11.731084746771886"><ele>267.8</ele><time>2026-03-22T09:04:56.999Z</time></trkpt><trkpt lat="43.23018690517401" lon="11.731174693758936"><ele>268.0</ele><time>2026-03-22T09:04:57.999Z</time></trkpt><trkpt lat="43.23010981605248" lon="11.73127127189754"><ele>268.0</ele><time>2026-03-22T09:04:58.999Z</time></trkpt><trkpt lat="43.23003293789069" lon="11.731373057300665"><ele>268.0</ele><time>2026-03-22T09:04:59.999Z</time></trkpt><trkpt lat="43.229954373905144" lon="11.73147592410578"><ele>268.0</ele><time>2026-03-22T09:05:00.999Z</time></trkpt><trkpt lat="43.22987425170187" lon="11.731577245199007"><ele>268.0</ele><time>2026-03-22T09:05:01.999Z</time></trkpt><trkpt lat="43.229794812618536" lon="11.73168878038596"><ele>268.0</ele><time>2026-03-22T09:05:02.999Z</time></trkpt><trkpt lat="43.22972132175448" lon="11.73180544607772"><ele>268.25</ele><time>2026-03-22T09:05:03.999Z</time></trkpt><trkpt lat="43.22964605808628" lon="11.731921301444554"><ele>268.5</ele><time>2026-03-22T09:05:04.999Z</time></trkpt><trkpt lat="43.22956836507393" lon="11.732045908424713"><ele>268.75</ele><time>2026-03-22T09:05:05.999Z</time></trkpt><trkpt lat="43.229493649575346" lon="11.732170480619002"><ele>269.0</ele><time>2026-03-22T09:05:06.999Z</time></trkpt><trkpt lat="43.22943244183216" lon="11.732282496636591"><ele>269.0</ele><time>2026-03-22T09:05:07.999Z</time></trkpt><trkpt lat="43.229379709666965" lon="11.732383396266778"><ele>269.0</ele><time>2026-03-22T09:05:08.999Z</time></trkpt><trkpt lat="43.22932049371164" lon="11.732494056713973"><ele>269.0</ele><time>2026-03-22T09:05:09.999Z</time></trkpt><trkpt lat="43.229256336399466" lon="11.732612811740777"><ele>269.0</ele><time>2026-03-22T09:05:10.999Z</time></trkpt><trkpt lat="43.22919237283173" lon="11.732727419758923"><ele>269.0</ele><time>2026-03-22T09:05:11.999Z</time></trkpt><trkpt lat="43.22912635982628" lon="11.73284249802498"><ele>269.2</ele><time>2026-03-22T09:05:12.999Z</time></trkpt><trkpt lat="43.229066607613476" lon="11.732954665386389"><ele>269.4</ele><time>2026-03-22T09:05:13.999Z</time></trkpt><trkpt lat="43.22900633225686" lon="11.73307322978639"><ele>269.6</ele><time>2026-03-22T09:05:14.999Z</time></trkpt><trkpt lat="43.22893592566007" lon="11.733204619303073"><ele>269.8</ele><time>2026-03-22T09:05:15.999Z</time></trkpt><trkpt lat="43.228869284443675" lon="11.733323430652353"><ele>270.0</ele><time>2026-03-22T09:05:16.999Z</time></trkpt><trkpt lat="43.22880911790451" lon="11.733433927025755"><ele>270.2</ele><time>2026-03-22T09:05:17.999Z</time></trkpt><trkpt lat="43.22874971984943" lon="11.733535660344991"><ele>270.4</ele><time>2026-03-22T09:05:18.999Z</time></trkpt><trkpt lat="43.228689869924516" lon="11.733644101464009"><ele>270.6</ele><time>2026-03-22T09:05:19.999Z</time></trkpt><trkpt lat="43.2286300254813" lon="11.733753041698936"><ele>270.8</ele><time>2026-03-22T09:05:20.999Z</time></trkpt><trkpt lat="43.22857177133728" lon="11.733859982974657"><ele>271.0</ele><time>2026-03-22T09:05:21.999Z</time></trkpt><trkpt lat="43.22851041766789" lon="11.733967883911676"><ele>271.0</ele><time>2026-03-22T09:05:22.999Z</time></trkpt><trkpt lat="43.2284437047565" lon="11.734081567154936"><ele>271.0</ele><time>2026-03-22T09:05:23.999Z</time></trkpt><trkpt lat="43.228368457956506" lon="11.73419552534395"><ele>271.0</ele><time>2026-03-22T09:05:24.999Z</time></trkpt><trkpt lat="43.2282900410234" lon="11.734321330926704"><ele>271.0</ele><time>2026-03-22T09:05:25.999Z</time></trkpt><trkpt lat="43.22820337461764" lon="11.734452817370046"><ele>271.5</ele><time>2026-03-22T09:05:26.999Z</time></trkpt><trkpt lat="43.2281178327153" lon="11.734577103965208"><ele>272.0</ele><time>2026-03-22T09:05:27.999Z</time></trkpt><trkpt lat="43.22803395990436" lon="11.734696478730998"><ele>272.5</ele><time>2026-03-22T09:05:28.999Z</time></trkpt><trkpt lat="43.22794770412437" lon="11.7348125800009"><ele>273.0</ele><time>2026-03-22T09:05:29.999Z</time></trkpt><trkpt lat="43.227830794019674" lon="11.734881802717817"><ele>273.0</ele><time>2026-03-22T09:05:30.999Z</time></trkpt><trkpt lat="43.22774317252577" lon="11.73499232593522"><ele>273.0</ele><time>2026-03-22T09:05:31.999Z</time></trkpt><trkpt lat="43.227652855263194" lon="11.735103205435706"><ele>273.0</ele><time>2026-03-22T09:05:32.999Z</time></trkpt><trkpt lat="43.227565182159985" lon="11.73521289101096"><ele>273.0</ele><time>2026-03-22T09:05:33.999Z</time></trkpt><trkpt lat="43.227484661677885" lon="11.735314381701949"><ele>272.75</ele><time>2026-03-22T09:05:34.999Z</time></trkpt><trkpt lat="43.22740223533944" lon="11.73542152132544"><ele>272.5</ele><time>2026-03-22T09:05:35.999Z</time></trkpt><trkpt lat="43.22731834086032" lon="11.735540262123092"><ele>272.25</ele><time>2026-03-22T09:05:36.999Z</time></trkpt><trkpt lat="43.22724173863383" lon="11.7356646302344"><ele>272.0</ele><time>2026-03-22T09:05:37.999Z</time></trkpt><trkpt lat="43.227195848081294" lon="11.73582565395964"><ele>272.0</ele><time>2026-03-22T09:05:38.999Z</time></trkpt><trkpt lat="43.22712002183853" lon="11.735963066947468"><ele>272.0</ele><time>2026-03-22T09:05:39.999Z</time></trkpt><trkpt lat="43.22704826871837" lon="11.736111849038222"><ele>272.0</ele><time>2026-03-22T09:05:40.999Z</time></trkpt><trkpt lat="43.22697730251478" lon="11.736257728724778"><ele>272.0</ele><time>2026-03-22T09:05:41.999Z</time></trkpt><trkpt lat="43.226909960893124" lon="11.736402734911437"><ele>271.5</ele><time>2026-03-22T09:05:42.999Z</time></trkpt><trkpt lat="43.22684304979623" lon="11.736550946294368"><ele>271.0</ele><time>2026-03-22T09:05:43.999Z</time></trkpt><trkpt lat="43.22677541287831" lon="11.736695391384552"><ele>270.5</ele><time>2026-03-22T09:05:44.999Z</time></trkpt><trkpt lat="43.22667746044615" lon="11.736814883650833"><ele>270.0</ele><time>2026-03-22T09:05:45.999Z</time></trkpt><trkpt lat="43.22661384256782" lon="11.736957089655439"><ele>270.0</ele><time>2026-03-22T09:05:46.999Z</time></trkpt><trkpt lat="43.22655037841234" lon="11.737081894543229"><ele>270.0</ele><time>2026-03-22T09:05:47.999Z</time></trkpt><trkpt lat="43.22647041536383" lon="11.737192519819173"><ele>270.0</ele><time>2026-03-22T09:05:48.999Z</time></trkpt><trkpt lat="43.226376472176874" lon="11.737286695684837"><ele>270.0</ele><time>2026-03-22T09:05:49.999Z</time></trkpt><trkpt lat="43.22627367736665" lon="11.737360223757141"><ele>270.5</ele><time>2026-03-22T09:05:50.999Z</time></trkpt><trkpt lat="43.226160497069166" lon="11.737422082407234"><ele>271.0</ele><time>2026-03-22T09:05:51.999Z</time></trkpt><trkpt lat="43.226052551042216" lon="11.737509932356684"><ele>271.5</ele><time>2026-03-22T09:05:52.998Z</time></trkpt><trkpt lat="43.22592834182829" lon="11.737517009355747"><ele>272.0</ele><time>2026-03-22T09:05:53.998Z</time></trkpt><trkpt lat="43.22580350710557" lon="11.737494307995902"><ele>272.0</ele><time>2026-03-22T09:05:54.998Z</time></trkpt><trkpt lat="43.22568032598219" lon="11.73745609014371"><ele>272.0</ele><time>2026-03-22T09:05:55.998Z</time></trkpt><trkpt lat="43.22555699487908" lon="11.737420918744522"><ele>272.0</ele><time>2026-03-22T09:05:56.998Z</time></trkpt><trkpt lat="43.22543123053054" lon="11.737398613316403"><ele>272.0</ele><time>2026-03-22T09:05:57.998Z</time></trkpt><trkpt lat="43.225305981023844" lon="11.73734339417977"><ele>272.25</ele><time>2026-03-22T09:05:58.998Z</time></trkpt><trkpt lat="43.22517529404525" lon="11.737323450108121"><ele>272.5</ele><time>2026-03-22T09:05:59.998Z</time></trkpt><trkpt lat="43.22504700575985" lon="11.737332609372233"><ele>272.75</ele><time>2026-03-22T09:06:00.998Z</time></trkpt><trkpt lat="43.224918877180066" lon="11.737357775146323"><ele>273.0</ele><time>2026-03-22T09:06:01.998Z</time></trkpt><trkpt lat="43.224789594050215" lon="11.737397166049437"><ele>273.5</ele><time>2026-03-22T09:06:02.998Z</time></trkpt><trkpt lat="43.22466257001017" lon="11.737452074716776"><ele>274.0</ele><time>2026-03-22T09:06:03.998Z</time></trkpt><trkpt lat="43.224544522488124" lon="11.737526668224868"><ele>274.5</ele><time>2026-03-22T09:06:04.998Z</time></trkpt><trkpt lat="43.22443878196786" lon="11.737628847050857"><ele>275.0</ele><time>2026-03-22T09:06:05.998Z</time></trkpt><trkpt lat="43.22434102548855" lon="11.737734745649954"><ele>275.0</ele><time>2026-03-22T09:06:06.998Z</time></trkpt><trkpt lat="43.22424266256681" lon="11.737845119257834"><ele>275.0</ele><time>2026-03-22T09:06:08Z</time></trkpt><trkpt lat="43.224141701975626" lon="11.737955734110896"><ele>275.0</ele><time>2026-03-22T09:06:09Z</time></trkpt><trkpt lat="43.22404943472048" lon="11.738055989149698"><ele>275.0</ele><time>2026-03-22T09:06:10Z</time></trkpt><trkpt lat="43.22395840513314" lon="11.738157271141407"><ele>274.5</ele><time>2026-03-22T09:06:11Z</time></trkpt><trkpt lat="43.2238662807996" lon="11.738262514184987"><ele>274.0</ele><time>2026-03-22T09:06:12Z</time></trkpt><trkpt lat="43.2237768269927" lon="11.738363926571786"><ele>273.5</ele><time>2026-03-22T09:06:13Z</time></trkpt><trkpt lat="43.22368201181088" lon="11.73846818307698"><ele>273.0</ele><time>2026-03-22T09:06:14Z</time></trkpt><trkpt lat="43.22358313545524" lon="11.738573522884662"><ele>273.0</ele><time>2026-03-22T09:06:15Z</time></trkpt><trkpt lat="43.22348852304328" lon="11.738685398194079"><ele>273.0</ele><time>2026-03-22T09:06:16Z</time></trkpt><trkpt lat="43.22340738282944" lon="11.738791638383569"><ele>273.0</ele><time>2026-03-22T09:06:17Z</time></trkpt><trkpt lat="43.223342923540635" lon="11.738907195255273"><ele>273.0</ele><time>2026-03-22T09:06:18Z</time></trkpt><trkpt lat="43.22330460697584" lon="11.739039377526089"><ele>273.0</ele><time>2026-03-22T09:06:19Z</time></trkpt><trkpt lat="43.22329306814767" lon="11.739176186145027"><ele>273.0</ele><time>2026-03-22T09:06:20Z</time></trkpt><trkpt lat="43.22329534842437" lon="11.739312356043031"><ele>273.0</ele><time>2026-03-22T09:06:21Z</time></trkpt><trkpt lat="43.223324038886496" lon="11.739449709986197"><ele>273.0</ele><time>2026-03-22T09:06:22Z</time></trkpt><trkpt lat="43.223376643668665" lon="11.73957740139437"><ele>273.0</ele><time>2026-03-22T09:06:23Z</time></trkpt><trkpt lat="43.2234282868203" lon="11.739705597978013"><ele>273.0</ele><time>2026-03-22T09:06:24Z</time></trkpt><trkpt lat="43.223494003597565" lon="11.73982964677408"><ele>272.8</ele><time>2026-03-22T09:06:25Z</time></trkpt><trkpt lat="43.22356380765729" lon="11.739949763933986"><ele>272.6</ele><time>2026-03-22T09:06:26Z</time></trkpt><trkpt lat="43.22362515585397" lon="11.74006190644834"><ele>272.4</ele><time>2026-03-22T09:06:27Z</time></trkpt><trkpt lat="43.223672852449226" lon="11.740156806789946"><ele>272.2</ele><time>2026-03-22T09:06:28Z</time></trkpt><trkpt lat="43.22372389745299" lon="11.740246158616829"><ele>272.0</ele><time>2026-03-22T09:06:29Z</time></trkpt><trkpt lat="43.22377431991645" lon="11.740329022643518"><ele>271.83333333333337</ele><time>2026-03-22T09:06:30Z</time></trkpt><trkpt lat="43.223813533372834" lon="11.740429623288335"><ele>271.6666666666667</ele><time>2026-03-22T09:06:31Z</time></trkpt><trkpt lat="43.22387591057327" lon="11.740496817710314"><ele>271.5</ele><time>2026-03-22T09:06:32Z</time></trkpt><trkpt lat="43.22392010109748" lon="11.740588342087658"><ele>271.3333333333333</ele><time>2026-03-22T09:06:33Z</time></trkpt><trkpt lat="43.22396262849643" lon="11.740687453212852"><ele>271.16666666666663</ele><time>2026-03-22T09:06:34Z</time></trkpt><trkpt lat="43.224008001364986" lon="11.740786158705523"><ele>271.0</ele><time>2026-03-22T09:06:35Z</time></trkpt><trkpt lat="43.22405718231115" lon="11.740874942649508"><ele>270.85714285714283</ele><time>2026-03-22T09:06:36Z</time></trkpt><trkpt lat="43.22410276332834" lon="11.740965135403018"><ele>270.7142857142857</ele><time>2026-03-22T09:06:37Z</time></trkpt><trkpt lat="43.224129867733" lon="11.741070577694487"><ele>270.57142857142856</ele><time>2026-03-22T09:06:38Z</time></trkpt><trkpt lat="43.22417132623936" lon="11.741152065706727"><ele>270.42857142857144</ele><time>2026-03-22T09:06:39Z</time></trkpt><trkpt lat="43.224173317873806" lon="11.741239048728902"><ele>270.2857142857143</ele><time>2026-03-22T09:06:40Z</time></trkpt><trkpt lat="43.224145043237385" lon="11.741325565111039"><ele>270.1428571428571</ele><time>2026-03-22T09:06:41Z</time></trkpt><trkpt lat="43.22409156408912" lon="11.74140802589533"><ele>270.0</ele><time>2026-03-22T09:06:42Z</time></trkpt><trkpt lat="43.22401827621323" lon="11.741474362955756"><ele>270.0</ele><time>2026-03-22T09:06:43Z</time></trkpt><trkpt lat="43.22393063669011" lon="11.741541709138199"><ele>270.0</ele><time>2026-03-22T09:06:44Z</time></trkpt><trkpt lat="43.223833130620505" lon="11.7416174646626"><ele>270.0</ele><time>2026-03-22T09:06:45Z</time></trkpt><trkpt lat="43.22374638270178" lon="11.74170228520098"><ele>270.0</ele><time>2026-03-22T09:06:46Z</time></trkpt><trkpt lat="43.22366451677382" lon="11.741800828067989"><ele>270.0</ele><time>2026-03-22T09:06:47Z</time></trkpt><trkpt lat="43.22357632756061" lon="11.74190602688086"><ele>269.5</ele><time>2026-03-22T09:06:48Z</time></trkpt><trkpt lat="43.22348286235639" lon="11.742011895379768"><ele>269.0</ele><time>2026-03-22T09:06:49Z</time></trkpt><trkpt lat="43.223362615943635" lon="11.742064796219939"><ele>268.5</ele><time>2026-03-22T09:06:50Z</time></trkpt><trkpt lat="43.22327621732391" lon="11.74216860818087"><ele>268.0</ele><time>2026-03-22T09:06:51Z</time></trkpt><trkpt lat="43.22318858541407" lon="11.74226277208056"><ele>268.0</ele><time>2026-03-22T09:06:51.999Z</time></trkpt><trkpt lat="43.22309605268616" lon="11.742353588588221"><ele>268.0</ele><time>2026-03-22T09:06:52.999Z</time></trkpt><trkpt lat="43.223000341200446" lon="11.742444715087565"><ele>268.0</ele><time>2026-03-22T09:06:53.999Z</time></trkpt><trkpt lat="43.22290534518104" lon="11.742525632380854"><ele>268.0</ele><time>2026-03-22T09:06:54.999Z</time></trkpt><trkpt lat="43.222812498934296" lon="11.742598959429202"><ele>268.0</ele><time>2026-03-22T09:06:55.999Z</time></trkpt><trkpt lat="43.222722902914214" lon="11.742673288777048"><ele>267.5</ele><time>2026-03-22T09:06:56.999Z</time></trkpt><trkpt lat="43.22263049734994" lon="11.74275369983383"><ele>267.0</ele><time>2026-03-22T09:06:57.999Z</time></trkpt><trkpt lat="43.22253629199405" lon="11.74283567733628"><ele>266.5</ele><time>2026-03-22T09:06:58.999Z</time></trkpt><trkpt lat="43.22244239924748" lon="11.742923811105321"><ele>266.0</ele><time>2026-03-22T09:06:59.999Z</time></trkpt><trkpt lat="43.22234771765789" lon="11.743023077171857"><ele>266.25</ele><time>2026-03-22T09:07:00.999Z</time></trkpt><trkpt lat="43.22224910431801" lon="11.743127599802444"><ele>266.5</ele><time>2026-03-22T09:07:01.999Z</time></trkpt><trkpt lat="43.22215002507384" lon="11.74323053635671"><ele>266.75</ele><time>2026-03-22T09:07:02.999Z</time></trkpt><trkpt lat="43.2220497046228" lon="11.743320441559936"><ele>267.0</ele><time>2026-03-22T09:07:03.999Z</time></trkpt><trkpt lat="43.2219553368921" lon="11.743386689265668"><ele>267.0</ele><time>2026-03-22T09:07:04.999Z</time></trkpt><trkpt lat="43.221860511242156" lon="11.743440019832832"><ele>267.0</ele><time>2026-03-22T09:07:05.999Z</time></trkpt><trkpt lat="43.22175631759828" lon="11.74349868020844"><ele>267.0</ele><time>2026-03-22T09:07:06.999Z</time></trkpt><trkpt lat="43.22164917564287" lon="11.743558362708761"><ele>267.0</ele><time>2026-03-22T09:07:07.999Z</time></trkpt><trkpt lat="43.22154572736184" lon="11.743615617730631"><ele>267.0</ele><time>2026-03-22T09:07:08.999Z</time></trkpt><trkpt lat="43.22144290837007" lon="11.743672524476128"><ele>266.4</ele><time>2026-03-22T09:07:09.999Z</time></trkpt><trkpt lat="43.22134678973959" lon="11.743724643566742"><ele>265.79999999999995</ele><time>2026-03-22T09:07:10.999Z</time></trkpt><trkpt lat="43.22125278666095" lon="11.743775144153544"><ele>265.2</ele><time>2026-03-22T09:07:11.999Z</time></trkpt><trkpt lat="43.22115405732215" lon="11.743827424129714"><ele>264.59999999999997</ele><time>2026-03-22T09:07:12.999Z</time></trkpt><trkpt lat="43.221057458401" lon="11.743875998794948"><ele>264.0</ele><time>2026-03-22T09:07:13.999Z</time></trkpt><trkpt lat="43.22096113362007" lon="11.743920679801096"><ele>264.0</ele><time>2026-03-22T09:07:14.999Z</time></trkpt><trkpt lat="43.22085818384028" lon="11.743967160134996"><ele>264.0</ele><time>2026-03-22T09:07:15.999Z</time></trkpt><trkpt lat="43.220753217763864" lon="11.744012459234618"><ele>264.0</ele><time>2026-03-22T09:07:16.999Z</time></trkpt><trkpt lat="43.22064548069343" lon="11.744057834738399"><ele>264.0</ele><time>2026-03-22T09:07:17.999Z</time></trkpt><trkpt lat="43.22053272337991" lon="11.744099334384417"><ele>264.0</ele><time>2026-03-22T09:07:18.999Z</time></trkpt><trkpt lat="43.220423262423715" lon="11.744153515071794"><ele>264.0</ele><time>2026-03-22T09:07:19.999Z</time></trkpt><trkpt lat="43.22031855582249" lon="11.74418286873238"><ele>264.0</ele><time>2026-03-22T09:07:20.999Z</time></trkpt><trkpt lat="43.220209836672495" lon="11.74420519614099"><ele>264.0</ele><time>2026-03-22T09:07:21.999Z</time></trkpt><trkpt lat="43.22009956292512" lon="11.744215842091068"><ele>264.0</ele><time>2026-03-22T09:07:22.999Z</time></trkpt><trkpt lat="43.219986693097404" lon="11.74422553891708"><ele>264.0</ele><time>2026-03-22T09:07:23.999Z</time></trkpt><trkpt lat="43.21987259987161" lon="11.74423128810979"><ele>264.25</ele><time>2026-03-22T09:07:24.999Z</time></trkpt><trkpt lat="43.2197562913639" lon="11.744216117063804"><ele>264.5</ele><time>2026-03-22T09:07:25.999Z</time></trkpt><trkpt lat="43.219637507800705" lon="11.744223655903602"><ele>264.75</ele><time>2026-03-22T09:07:26.999Z</time></trkpt><trkpt lat="43.21951567641796" lon="11.744231227525557"><ele>265.0</ele><time>2026-03-22T09:07:27.999Z</time></trkpt><trkpt lat="43.21939463308106" lon="11.74423856051645"><ele>265.0</ele><time>2026-03-22T09:07:28.999Z</time></trkpt><trkpt lat="43.21927664748112" lon="11.744244259705884"><ele>265.0</ele><time>2026-03-22T09:07:29.999Z</time></trkpt><trkpt lat="43.219160182706304" lon="11.744245713332237"><ele>265.0</ele><time>2026-03-22T09:07:30.999Z</time></trkpt><trkpt lat="43.21904329253861" lon="11.744241377254115"><ele>265.0</ele><time>2026-03-22T09:07:31.999Z</time></trkpt><trkpt lat="43.21892327746984" lon="11.744232531266972"><ele>265.25</ele><time>2026-03-22T09:07:32.999Z</time></trkpt><trkpt lat="43.21880089879519" lon="11.744223553323604"><ele>265.5</ele><time>2026-03-22T09:07:33.999Z</time></trkpt><trkpt lat="43.218680136788635" lon="11.744215728317469"><ele>265.75</ele><time>2026-03-22T09:07:34.999Z</time></trkpt><trkpt lat="43.21856256780348" lon="11.744208110211542"><ele>266.0</ele><time>2026-03-22T09:07:35.999Z</time></trkpt><trkpt lat="43.21844164222974" lon="11.74420027461218"><ele>266.0</ele><time>2026-03-22T09:07:36.999Z</time></trkpt><trkpt lat="43.2183222131669" lon="11.744192535975364"><ele>266.0</ele><time>2026-03-22T09:07:37.999Z</time></trkpt><trkpt lat="43.21820617582565" lon="11.744207565880487"><ele>266.0</ele><time>2026-03-22T09:07:38.999Z</time></trkpt><trkpt lat="43.218096342865685" lon="11.744194426152696"><ele>266.0</ele><time>2026-03-22T09:07:39.999Z</time></trkpt><trkpt lat="43.217986367782665" lon="11.744180368627026"><ele>266.2</ele><time>2026-03-22T09:07:40.999Z</time></trkpt><trkpt lat="43.21787516141801" lon="11.744167861622326"><ele>266.40000000000003</ele><time>2026-03-22T09:07:41.999Z</time></trkpt><trkpt lat="43.21776584323978" lon="11.744152081510395"><ele>266.6</ele><time>2026-03-22T09:07:42.999Z</time></trkpt><trkpt lat="43.21765984207999" lon="11.74413061141549"><ele>266.8</ele><time>2026-03-22T09:07:43.999Z</time></trkpt><trkpt lat="43.21756085288821" lon="11.744114949972456"><ele>267.0</ele><time>2026-03-22T09:07:44.999Z</time></trkpt><trkpt lat="43.21745990033322" lon="11.744094011871228"><ele>267.0</ele><time>2026-03-22T09:07:45.999Z</time></trkpt><trkpt lat="43.21735393508245" lon="11.74407151382631"><ele>267.0</ele><time>2026-03-22T09:07:46.999Z</time></trkpt><trkpt lat="43.217244619848216" lon="11.74405735459813"><ele>267.0</ele><time>2026-03-22T09:07:47.999Z</time></trkpt><trkpt lat="43.217126906596256" lon="11.744051898965326"><ele>267.0</ele><time>2026-03-22T09:07:48.999Z</time></trkpt><trkpt lat="43.21700818254055" lon="11.74405203538481"><ele>267.1666666666667</ele><time>2026-03-22T09:07:49.999Z</time></trkpt><trkpt lat="43.216900645579344" lon="11.74405176895418"><ele>267.3333333333333</ele><time>2026-03-22T09:07:50.999Z</time></trkpt><trkpt lat="43.21680075276191" lon="11.74402244025769"><ele>267.5</ele><time>2026-03-22T09:07:51.999Z</time></trkpt><trkpt lat="43.21671256215402" lon="11.744027708316354"><ele>267.66666666666663</ele><time>2026-03-22T09:07:52.999Z</time></trkpt><trkpt lat="43.21663513433148" lon="11.744032917097813"><ele>267.8333333333333</ele><time>2026-03-22T09:07:53.999Z</time></trkpt><trkpt lat="43.21657142294327" lon="11.744037203122817"><ele>268.0</ele><time>2026-03-22T09:07:54.999Z</time></trkpt><trkpt lat="43.21656252221407" lon="11.744419167522382"><ele>267.5</ele><time>2026-03-22T09:08:00.998Z</time></trkpt><trkpt lat="43.216594804255635" lon="11.744536703671306"><ele>267.0</ele><time>2026-03-22T09:08:02.998Z</time></trkpt><trkpt lat="43.21664295426478" lon="11.744592416728791"><ele>266.5</ele><time>2026-03-22T09:08:04.998Z</time></trkpt><trkpt lat="43.216755960895256" lon="11.744563225094657"><ele>266.0</ele><time>2026-03-22T09:08:06.998Z</time></trkpt><trkpt lat="43.216825229681646" lon="11.744521091380223"><ele>265.5</ele><time>2026-03-22T09:08:07.998Z</time></trkpt><trkpt lat="43.21690768273062" lon="11.744503055366641"><ele>265.0</ele><time>2026-03-22T09:08:08.998Z</time></trkpt><trkpt lat="43.217020123511105" lon="11.744493328977745"><ele>265.0</ele><time>2026-03-22T09:08:09.998Z</time></trkpt><trkpt lat="43.21715402233052" lon="11.744485014301507"><ele>265.0</ele><time>2026-03-22T09:08:10.998Z</time></trkpt><trkpt lat="43.21726662869153" lon="11.744480067791661"><ele>265.0</ele><time>2026-03-22T09:08:11.998Z</time></trkpt><trkpt lat="43.217352840774055" lon="11.744475469831283"><ele>265.0</ele><time>2026-03-22T09:08:12.998Z</time></trkpt><trkpt lat="43.21743734251256" lon="11.744534496152296"><ele>265.0</ele><time>2026-03-22T09:08:15Z</time></trkpt><trkpt lat="43.21745059357518" lon="11.74444805265393"><ele>264.99999999999994</ele><time>2026-03-22T09:12:28Z</time></trkpt><trkpt lat="43.217484331429205" lon="11.74436938422922"><ele>265.0</ele><time>2026-03-22T09:12:37Z</time></trkpt><trkpt lat="43.21744692989599" lon="11.744279681519734"><ele>265.0</ele><time>2026-03-22T09:17:53.999Z</time></trkpt><trkpt lat="43.21737887821155" lon="11.74422022963931"><ele>265.0</ele><time>2026-03-22T09:17:55.999Z</time></trkpt><trkpt lat="43.21731029066937" lon="11.744197796609845"><ele>265.0</ele><time>2026-03-22T09:17:57.999Z</time></trkpt><trkpt lat="43.21724686703784" lon="11.744230233262988"><ele>264.99999999999994</ele><time>2026-03-22T09:17:59.999Z</time></trkpt><trkpt lat="43.21723188383871" lon="11.744328723703598"><ele>265.0</ele><time>2026-03-22T09:18:01.999Z</time></trkpt><trkpt lat="43.21724678137232" lon="11.744417936751447"><ele>265.0</ele><time>2026-03-22T09:18:03.999Z</time></trkpt><trkpt lat="43.21720941748082" lon="11.74449136335803"><ele>265.0</ele><time>2026-03-22T09:18:05.999Z</time></trkpt><trkpt lat="43.21710807189515" lon="11.744502029955989"><ele>265.0</ele><time>2026-03-22T09:18:08.999Z</time></trkpt><trkpt lat="43.217011818465565" lon="11.744494037965525"><ele>265.0</ele><time>2026-03-22T09:18:10.999Z</time></trkpt><trkpt lat="43.216881353717426" lon="11.744498994659649"><ele>265.0</ele><time>2026-03-22T09:18:12.999Z</time></trkpt><trkpt lat="43.21681335437843" lon="11.744509750475608"><ele>265.0</ele><time>2026-03-22T09:18:13.999Z</time></trkpt><trkpt lat="43.21674970846758" lon="11.744525611009896"><ele>265.0</ele><time>2026-03-22T09:18:14.999Z</time></trkpt><trkpt lat="43.21663681611081" lon="11.744514781533017"><ele>265.0</ele><time>2026-03-22T09:18:16.999Z</time></trkpt><trkpt lat="43.21655632969983" lon="11.744522187335944"><ele>265.0</ele><time>2026-03-22T09:18:18.999Z</time></trkpt><trkpt lat="43.21648303506926" lon="11.744507653248935"><ele>268.0</ele><time>2026-03-22T09:18:21.999Z</time></trkpt></trkseg></trk></gpx>